<?xml version="1.0" encoding="UTF-8" standalone="no" ?>
<gpx xmlns="http://www.topografix.com/GPX/1/1" xmlns:xsi="http://www.w3.org/2001/XMLSchema-instance" xsi:schemaLocation="http://www.topografix.com/GPX/1/1 http://www.topografix.com/GPX/1/1/gpx.xsd" version="1.1" creator="VisuGPX - https://www.visugpx.com">
  <metadata>
    <name>langueux yffiniac maison neuve,</name>
    <desc><![CDATA[lannay,langueux,maison neuve,les veilluns]]></desc>
  </metadata>
  <trk>
    <name><![CDATA[langueux yffiniac maison neuve,_1]]></name>
    <trkseg>
      <trkpt lat="48.48461" lon="-2.72178">
        <ele>99</ele>
        <time>2013-12-13T08:03:12Z</time>
      </trkpt>
      <trkpt lat="48.48444" lon="-2.72144">
        <ele>98</ele>
        <time>2013-12-13T08:03:39Z</time>
      </trkpt>
      <trkpt lat="48.48444" lon="-2.7214">
        <ele>98</ele>
        <time>2013-12-13T08:03:41Z</time>
      </trkpt>
      <trkpt lat="48.48443" lon="-2.72136">
        <ele>98</ele>
        <time>2013-12-13T08:03:43Z</time>
      </trkpt>
      <trkpt lat="48.48442" lon="-2.72132">
        <ele>98</ele>
        <time>2013-12-13T08:03:45Z</time>
      </trkpt>
      <trkpt lat="48.48441" lon="-2.72128">
        <ele>98</ele>
        <time>2013-12-13T08:03:47Z</time>
      </trkpt>
      <trkpt lat="48.4844" lon="-2.72124">
        <ele>98</ele>
        <time>2013-12-13T08:03:49Z</time>
      </trkpt>
      <trkpt lat="48.48439" lon="-2.7212">
        <ele>98</ele>
        <time>2013-12-13T08:03:51Z</time>
      </trkpt>
      <trkpt lat="48.48438" lon="-2.72116">
        <ele>98</ele>
        <time>2013-12-13T08:03:53Z</time>
      </trkpt>
      <trkpt lat="48.48437" lon="-2.72112">
        <ele>97</ele>
        <time>2013-12-13T08:03:55Z</time>
      </trkpt>
      <trkpt lat="48.48436" lon="-2.72108">
        <ele>97</ele>
        <time>2013-12-13T08:03:57Z</time>
      </trkpt>
      <trkpt lat="48.48435" lon="-2.72104">
        <ele>97</ele>
        <time>2013-12-13T08:03:59Z</time>
      </trkpt>
      <trkpt lat="48.48435" lon="-2.721">
        <ele>96</ele>
        <time>2013-12-13T08:04:01Z</time>
      </trkpt>
      <trkpt lat="48.48434" lon="-2.72096">
        <ele>96</ele>
        <time>2013-12-13T08:04:03Z</time>
      </trkpt>
      <trkpt lat="48.48433" lon="-2.72092">
        <ele>96</ele>
        <time>2013-12-13T08:04:05Z</time>
      </trkpt>
      <trkpt lat="48.48432" lon="-2.72088">
        <ele>96</ele>
        <time>2013-12-13T08:04:07Z</time>
      </trkpt>
      <trkpt lat="48.48431" lon="-2.72084">
        <ele>96</ele>
        <time>2013-12-13T08:04:09Z</time>
      </trkpt>
      <trkpt lat="48.48431" lon="-2.7208">
        <ele>96</ele>
        <time>2013-12-13T08:04:11Z</time>
      </trkpt>
      <trkpt lat="48.4843" lon="-2.72076">
        <ele>96</ele>
        <time>2013-12-13T08:04:13Z</time>
      </trkpt>
      <trkpt lat="48.48429" lon="-2.72072">
        <ele>96</ele>
        <time>2013-12-13T08:04:15Z</time>
      </trkpt>
      <trkpt lat="48.48429" lon="-2.72068">
        <ele>96</ele>
        <time>2013-12-13T08:04:17Z</time>
      </trkpt>
      <trkpt lat="48.48428" lon="-2.72063">
        <ele>96</ele>
        <time>2013-12-13T08:04:19Z</time>
      </trkpt>
      <trkpt lat="48.48427" lon="-2.72059">
        <ele>96</ele>
        <time>2013-12-13T08:04:21Z</time>
      </trkpt>
      <trkpt lat="48.48426" lon="-2.72055">
        <ele>96</ele>
        <time>2013-12-13T08:04:23Z</time>
      </trkpt>
      <trkpt lat="48.48425" lon="-2.72051">
        <ele>96</ele>
        <time>2013-12-13T08:04:25Z</time>
      </trkpt>
      <trkpt lat="48.48424" lon="-2.72047">
        <ele>96</ele>
        <time>2013-12-13T08:04:27Z</time>
      </trkpt>
      <trkpt lat="48.48423" lon="-2.72042">
        <ele>95</ele>
        <time>2013-12-13T08:04:29Z</time>
      </trkpt>
      <trkpt lat="48.48422" lon="-2.72038">
        <ele>95</ele>
        <time>2013-12-13T08:04:31Z</time>
      </trkpt>
      <trkpt lat="48.48421" lon="-2.72033">
        <ele>95</ele>
        <time>2013-12-13T08:04:33Z</time>
      </trkpt>
      <trkpt lat="48.4842" lon="-2.72028">
        <ele>95</ele>
        <time>2013-12-13T08:04:35Z</time>
      </trkpt>
      <trkpt lat="48.48419" lon="-2.72024">
        <ele>95</ele>
        <time>2013-12-13T08:04:37Z</time>
      </trkpt>
      <trkpt lat="48.48418" lon="-2.72019">
        <ele>95</ele>
        <time>2013-12-13T08:04:39Z</time>
      </trkpt>
      <trkpt lat="48.48417" lon="-2.72015">
        <ele>95</ele>
        <time>2013-12-13T08:04:41Z</time>
      </trkpt>
      <trkpt lat="48.48416" lon="-2.7201">
        <ele>95</ele>
        <time>2013-12-13T08:04:43Z</time>
      </trkpt>
      <trkpt lat="48.48416" lon="-2.72007">
        <ele>95</ele>
        <time>2013-12-13T08:04:45Z</time>
      </trkpt>
      <trkpt lat="48.48416" lon="-2.72003">
        <ele>95</ele>
        <time>2013-12-13T08:04:47Z</time>
      </trkpt>
      <trkpt lat="48.48414" lon="-2.71999">
        <ele>95</ele>
        <time>2013-12-13T08:04:49Z</time>
      </trkpt>
      <trkpt lat="48.48413" lon="-2.71994">
        <ele>95</ele>
        <time>2013-12-13T08:04:51Z</time>
      </trkpt>
      <trkpt lat="48.48412" lon="-2.71991">
        <ele>94</ele>
        <time>2013-12-13T08:04:53Z</time>
      </trkpt>
      <trkpt lat="48.4841" lon="-2.71987">
        <ele>94</ele>
        <time>2013-12-13T08:04:55Z</time>
      </trkpt>
      <trkpt lat="48.48409" lon="-2.71983">
        <ele>94</ele>
        <time>2013-12-13T08:04:57Z</time>
      </trkpt>
      <trkpt lat="48.48407" lon="-2.71979">
        <ele>94</ele>
        <time>2013-12-13T08:04:59Z</time>
      </trkpt>
      <trkpt lat="48.48406" lon="-2.71975">
        <ele>94</ele>
        <time>2013-12-13T08:05:01Z</time>
      </trkpt>
      <trkpt lat="48.48404" lon="-2.71971">
        <ele>94</ele>
        <time>2013-12-13T08:05:03Z</time>
      </trkpt>
      <trkpt lat="48.48404" lon="-2.71967">
        <ele>94</ele>
        <time>2013-12-13T08:05:05Z</time>
      </trkpt>
      <trkpt lat="48.48402" lon="-2.71962">
        <ele>94</ele>
        <time>2013-12-13T08:05:07Z</time>
      </trkpt>
      <trkpt lat="48.48402" lon="-2.71959">
        <ele>94</ele>
        <time>2013-12-13T08:05:09Z</time>
      </trkpt>
      <trkpt lat="48.484" lon="-2.71955">
        <ele>94</ele>
        <time>2013-12-13T08:05:11Z</time>
      </trkpt>
      <trkpt lat="48.48399" lon="-2.71951">
        <ele>94</ele>
        <time>2013-12-13T08:05:13Z</time>
      </trkpt>
      <trkpt lat="48.48398" lon="-2.71948">
        <ele>94</ele>
        <time>2013-12-13T08:05:15Z</time>
      </trkpt>
      <trkpt lat="48.48397" lon="-2.71944">
        <ele>94</ele>
        <time>2013-12-13T08:05:17Z</time>
      </trkpt>
      <trkpt lat="48.48395" lon="-2.71939">
        <ele>94</ele>
        <time>2013-12-13T08:05:20Z</time>
      </trkpt>
      <trkpt lat="48.48394" lon="-2.71935">
        <ele>94</ele>
        <time>2013-12-13T08:05:22Z</time>
      </trkpt>
      <trkpt lat="48.48394" lon="-2.71931">
        <ele>94</ele>
        <time>2013-12-13T08:05:24Z</time>
      </trkpt>
      <trkpt lat="48.48392" lon="-2.71927">
        <ele>94</ele>
        <time>2013-12-13T08:05:26Z</time>
      </trkpt>
      <trkpt lat="48.48392" lon="-2.71922">
        <ele>94</ele>
        <time>2013-12-13T08:05:29Z</time>
      </trkpt>
      <trkpt lat="48.48391" lon="-2.71919">
        <ele>94</ele>
        <time>2013-12-13T08:05:31Z</time>
      </trkpt>
      <trkpt lat="48.4839" lon="-2.71915">
        <ele>94</ele>
        <time>2013-12-13T08:05:33Z</time>
      </trkpt>
      <trkpt lat="48.48389" lon="-2.71912">
        <ele>94</ele>
        <time>2013-12-13T08:05:35Z</time>
      </trkpt>
      <trkpt lat="48.48389" lon="-2.71908">
        <ele>94</ele>
        <time>2013-12-13T08:05:37Z</time>
      </trkpt>
      <trkpt lat="48.48388" lon="-2.71904">
        <ele>94</ele>
        <time>2013-12-13T08:05:39Z</time>
      </trkpt>
      <trkpt lat="48.48388" lon="-2.719">
        <ele>94</ele>
        <time>2013-12-13T08:05:41Z</time>
      </trkpt>
      <trkpt lat="48.48387" lon="-2.71897">
        <ele>94</ele>
        <time>2013-12-13T08:05:43Z</time>
      </trkpt>
      <trkpt lat="48.48386" lon="-2.71892">
        <ele>94</ele>
        <time>2013-12-13T08:05:45Z</time>
      </trkpt>
      <trkpt lat="48.48386" lon="-2.71888">
        <ele>94</ele>
        <time>2013-12-13T08:05:47Z</time>
      </trkpt>
      <trkpt lat="48.48386" lon="-2.71884">
        <ele>94</ele>
        <time>2013-12-13T08:05:49Z</time>
      </trkpt>
      <trkpt lat="48.48386" lon="-2.71879">
        <ele>94</ele>
        <time>2013-12-13T08:05:51Z</time>
      </trkpt>
      <trkpt lat="48.48386" lon="-2.71876">
        <ele>94</ele>
        <time>2013-12-13T08:05:53Z</time>
      </trkpt>
      <trkpt lat="48.48386" lon="-2.71871">
        <ele>93</ele>
        <time>2013-12-13T08:05:55Z</time>
      </trkpt>
      <trkpt lat="48.48386" lon="-2.71867">
        <ele>93</ele>
        <time>2013-12-13T08:05:57Z</time>
      </trkpt>
      <trkpt lat="48.48386" lon="-2.71864">
        <ele>93</ele>
        <time>2013-12-13T08:05:59Z</time>
      </trkpt>
      <trkpt lat="48.48386" lon="-2.7186">
        <ele>93</ele>
        <time>2013-12-13T08:06:01Z</time>
      </trkpt>
      <trkpt lat="48.48386" lon="-2.71856">
        <ele>93</ele>
        <time>2013-12-13T08:06:03Z</time>
      </trkpt>
      <trkpt lat="48.48386" lon="-2.71852">
        <ele>93</ele>
        <time>2013-12-13T08:06:05Z</time>
      </trkpt>
      <trkpt lat="48.48386" lon="-2.71848">
        <ele>93</ele>
        <time>2013-12-13T08:06:07Z</time>
      </trkpt>
      <trkpt lat="48.48387" lon="-2.71844">
        <ele>93</ele>
        <time>2013-12-13T08:06:09Z</time>
      </trkpt>
      <trkpt lat="48.48387" lon="-2.71839">
        <ele>93</ele>
        <time>2013-12-13T08:06:11Z</time>
      </trkpt>
      <trkpt lat="48.48388" lon="-2.71835">
        <ele>93</ele>
        <time>2013-12-13T08:06:13Z</time>
      </trkpt>
      <trkpt lat="48.48389" lon="-2.71831">
        <ele>93</ele>
        <time>2013-12-13T08:06:15Z</time>
      </trkpt>
      <trkpt lat="48.48389" lon="-2.71827">
        <ele>93</ele>
        <time>2013-12-13T08:06:17Z</time>
      </trkpt>
      <trkpt lat="48.4839" lon="-2.71823">
        <ele>93</ele>
        <time>2013-12-13T08:06:19Z</time>
      </trkpt>
      <trkpt lat="48.48391" lon="-2.71819">
        <ele>93</ele>
        <time>2013-12-13T08:06:21Z</time>
      </trkpt>
      <trkpt lat="48.48392" lon="-2.71815">
        <ele>93</ele>
        <time>2013-12-13T08:06:23Z</time>
      </trkpt>
      <trkpt lat="48.48393" lon="-2.71811">
        <ele>93</ele>
        <time>2013-12-13T08:06:25Z</time>
      </trkpt>
      <trkpt lat="48.48394" lon="-2.71807">
        <ele>93</ele>
        <time>2013-12-13T08:06:27Z</time>
      </trkpt>
      <trkpt lat="48.48396" lon="-2.71803">
        <ele>93</ele>
        <time>2013-12-13T08:06:29Z</time>
      </trkpt>
      <trkpt lat="48.48397" lon="-2.71798">
        <ele>93</ele>
        <time>2013-12-13T08:06:31Z</time>
      </trkpt>
      <trkpt lat="48.48399" lon="-2.71794">
        <ele>93</ele>
        <time>2013-12-13T08:06:33Z</time>
      </trkpt>
      <trkpt lat="48.484" lon="-2.7179">
        <ele>93</ele>
        <time>2013-12-13T08:06:35Z</time>
      </trkpt>
      <trkpt lat="48.48402" lon="-2.71786">
        <ele>93</ele>
        <time>2013-12-13T08:06:37Z</time>
      </trkpt>
      <trkpt lat="48.48403" lon="-2.71782">
        <ele>93</ele>
        <time>2013-12-13T08:06:39Z</time>
      </trkpt>
      <trkpt lat="48.48404" lon="-2.71778">
        <ele>93</ele>
        <time>2013-12-13T08:06:41Z</time>
      </trkpt>
      <trkpt lat="48.48406" lon="-2.71774">
        <ele>93</ele>
        <time>2013-12-13T08:06:43Z</time>
      </trkpt>
      <trkpt lat="48.48407" lon="-2.7177">
        <ele>93</ele>
        <time>2013-12-13T08:06:45Z</time>
      </trkpt>
      <trkpt lat="48.48409" lon="-2.71766">
        <ele>93</ele>
        <time>2013-12-13T08:06:47Z</time>
      </trkpt>
      <trkpt lat="48.4841" lon="-2.71762">
        <ele>93</ele>
        <time>2013-12-13T08:06:49Z</time>
      </trkpt>
      <trkpt lat="48.48412" lon="-2.71758">
        <ele>93</ele>
        <time>2013-12-13T08:06:51Z</time>
      </trkpt>
      <trkpt lat="48.48413" lon="-2.71754">
        <ele>93</ele>
        <time>2013-12-13T08:06:53Z</time>
      </trkpt>
      <trkpt lat="48.48414" lon="-2.7175">
        <ele>93</ele>
        <time>2013-12-13T08:06:55Z</time>
      </trkpt>
      <trkpt lat="48.48416" lon="-2.71745">
        <ele>93</ele>
        <time>2013-12-13T08:06:57Z</time>
      </trkpt>
      <trkpt lat="48.48417" lon="-2.71742">
        <ele>93</ele>
        <time>2013-12-13T08:06:59Z</time>
      </trkpt>
      <trkpt lat="48.48419" lon="-2.71738">
        <ele>93</ele>
        <time>2013-12-13T08:07:01Z</time>
      </trkpt>
      <trkpt lat="48.4842" lon="-2.71734">
        <ele>93</ele>
        <time>2013-12-13T08:07:03Z</time>
      </trkpt>
      <trkpt lat="48.48422" lon="-2.7173">
        <ele>93</ele>
        <time>2013-12-13T08:07:05Z</time>
      </trkpt>
      <trkpt lat="48.48423" lon="-2.71726">
        <ele>92</ele>
        <time>2013-12-13T08:07:07Z</time>
      </trkpt>
      <trkpt lat="48.48425" lon="-2.71722">
        <ele>92</ele>
        <time>2013-12-13T08:07:09Z</time>
      </trkpt>
      <trkpt lat="48.48426" lon="-2.71719">
        <ele>91</ele>
        <time>2013-12-13T08:07:11Z</time>
      </trkpt>
      <trkpt lat="48.48428" lon="-2.71715">
        <ele>91</ele>
        <time>2013-12-13T08:07:13Z</time>
      </trkpt>
      <trkpt lat="48.48429" lon="-2.71711">
        <ele>91</ele>
        <time>2013-12-13T08:07:15Z</time>
      </trkpt>
      <trkpt lat="48.48431" lon="-2.71707">
        <ele>90</ele>
        <time>2013-12-13T08:07:17Z</time>
      </trkpt>
      <trkpt lat="48.48432" lon="-2.71703">
        <ele>90</ele>
        <time>2013-12-13T08:07:19Z</time>
      </trkpt>
      <trkpt lat="48.48434" lon="-2.71699">
        <ele>90</ele>
        <time>2013-12-13T08:07:21Z</time>
      </trkpt>
      <trkpt lat="48.48435" lon="-2.71695">
        <ele>90</ele>
        <time>2013-12-13T08:07:23Z</time>
      </trkpt>
      <trkpt lat="48.48436" lon="-2.71691">
        <ele>89</ele>
        <time>2013-12-13T08:07:25Z</time>
      </trkpt>
      <trkpt lat="48.48438" lon="-2.71688">
        <ele>89</ele>
        <time>2013-12-13T08:07:27Z</time>
      </trkpt>
      <trkpt lat="48.4844" lon="-2.71684">
        <ele>89</ele>
        <time>2013-12-13T08:07:29Z</time>
      </trkpt>
      <trkpt lat="48.48441" lon="-2.7168">
        <ele>88</ele>
        <time>2013-12-13T08:07:31Z</time>
      </trkpt>
      <trkpt lat="48.48443" lon="-2.71677">
        <ele>88</ele>
        <time>2013-12-13T08:07:33Z</time>
      </trkpt>
      <trkpt lat="48.48445" lon="-2.71673">
        <ele>88</ele>
        <time>2013-12-13T08:07:35Z</time>
      </trkpt>
      <trkpt lat="48.48447" lon="-2.71669">
        <ele>88</ele>
        <time>2013-12-13T08:07:37Z</time>
      </trkpt>
      <trkpt lat="48.48449" lon="-2.71666">
        <ele>87</ele>
        <time>2013-12-13T08:07:39Z</time>
      </trkpt>
      <trkpt lat="48.48451" lon="-2.71663">
        <ele>87</ele>
        <time>2013-12-13T08:07:41Z</time>
      </trkpt>
      <trkpt lat="48.48453" lon="-2.71659">
        <ele>87</ele>
        <time>2013-12-13T08:07:43Z</time>
      </trkpt>
      <trkpt lat="48.48455" lon="-2.71656">
        <ele>87</ele>
        <time>2013-12-13T08:07:45Z</time>
      </trkpt>
      <trkpt lat="48.48458" lon="-2.71654">
        <ele>86</ele>
        <time>2013-12-13T08:07:47Z</time>
      </trkpt>
      <trkpt lat="48.4846" lon="-2.71651">
        <ele>86</ele>
        <time>2013-12-13T08:07:49Z</time>
      </trkpt>
      <trkpt lat="48.48463" lon="-2.71647">
        <ele>86</ele>
        <time>2013-12-13T08:07:52Z</time>
      </trkpt>
      <trkpt lat="48.48466" lon="-2.71645">
        <ele>86</ele>
        <time>2013-12-13T08:07:54Z</time>
      </trkpt>
      <trkpt lat="48.48469" lon="-2.71642">
        <ele>86</ele>
        <time>2013-12-13T08:07:56Z</time>
      </trkpt>
      <trkpt lat="48.48471" lon="-2.71639">
        <ele>86</ele>
        <time>2013-12-13T08:07:58Z</time>
      </trkpt>
      <trkpt lat="48.48474" lon="-2.71636">
        <ele>86</ele>
        <time>2013-12-13T08:08:00Z</time>
      </trkpt>
      <trkpt lat="48.48476" lon="-2.71634">
        <ele>86</ele>
        <time>2013-12-13T08:08:02Z</time>
      </trkpt>
      <trkpt lat="48.48479" lon="-2.71631">
        <ele>86</ele>
        <time>2013-12-13T08:08:04Z</time>
      </trkpt>
      <trkpt lat="48.48481" lon="-2.71629">
        <ele>86</ele>
        <time>2013-12-13T08:08:06Z</time>
      </trkpt>
      <trkpt lat="48.48484" lon="-2.71627">
        <ele>86</ele>
        <time>2013-12-13T08:08:08Z</time>
      </trkpt>
      <trkpt lat="48.48487" lon="-2.71625">
        <ele>86</ele>
        <time>2013-12-13T08:08:10Z</time>
      </trkpt>
      <trkpt lat="48.48492" lon="-2.71622">
        <ele>86</ele>
        <time>2013-12-13T08:08:13Z</time>
      </trkpt>
      <trkpt lat="48.48494" lon="-2.7162">
        <ele>86</ele>
        <time>2013-12-13T08:08:15Z</time>
      </trkpt>
      <trkpt lat="48.48497" lon="-2.71619">
        <ele>86</ele>
        <time>2013-12-13T08:08:17Z</time>
      </trkpt>
      <trkpt lat="48.485" lon="-2.71617">
        <ele>86</ele>
        <time>2013-12-13T08:08:19Z</time>
      </trkpt>
      <trkpt lat="48.48503" lon="-2.71615">
        <ele>86</ele>
        <time>2013-12-13T08:08:21Z</time>
      </trkpt>
      <trkpt lat="48.48505" lon="-2.71613">
        <ele>86</ele>
        <time>2013-12-13T08:08:23Z</time>
      </trkpt>
      <trkpt lat="48.48508" lon="-2.71611">
        <ele>86</ele>
        <time>2013-12-13T08:08:25Z</time>
      </trkpt>
      <trkpt lat="48.48511" lon="-2.7161">
        <ele>86</ele>
        <time>2013-12-13T08:08:27Z</time>
      </trkpt>
      <trkpt lat="48.48513" lon="-2.71609">
        <ele>86</ele>
        <time>2013-12-13T08:08:29Z</time>
      </trkpt>
      <trkpt lat="48.48516" lon="-2.71608">
        <ele>86</ele>
        <time>2013-12-13T08:08:31Z</time>
      </trkpt>
      <trkpt lat="48.48519" lon="-2.71607">
        <ele>86</ele>
        <time>2013-12-13T08:08:33Z</time>
      </trkpt>
      <trkpt lat="48.48522" lon="-2.71605">
        <ele>86</ele>
        <time>2013-12-13T08:08:35Z</time>
      </trkpt>
      <trkpt lat="48.48524" lon="-2.71604">
        <ele>86</ele>
        <time>2013-12-13T08:08:37Z</time>
      </trkpt>
      <trkpt lat="48.48527" lon="-2.71603">
        <ele>86</ele>
        <time>2013-12-13T08:08:39Z</time>
      </trkpt>
      <trkpt lat="48.48529" lon="-2.71602">
        <ele>86</ele>
        <time>2013-12-13T08:08:41Z</time>
      </trkpt>
      <trkpt lat="48.48532" lon="-2.71601">
        <ele>86</ele>
        <time>2013-12-13T08:08:43Z</time>
      </trkpt>
      <trkpt lat="48.48535" lon="-2.716">
        <ele>86</ele>
        <time>2013-12-13T08:08:45Z</time>
      </trkpt>
      <trkpt lat="48.48538" lon="-2.71599">
        <ele>87</ele>
        <time>2013-12-13T08:08:48Z</time>
      </trkpt>
      <trkpt lat="48.48541" lon="-2.71597">
        <ele>87</ele>
        <time>2013-12-13T08:08:50Z</time>
      </trkpt>
      <trkpt lat="48.48544" lon="-2.71596">
        <ele>88</ele>
        <time>2013-12-13T08:08:52Z</time>
      </trkpt>
      <trkpt lat="48.48547" lon="-2.71595">
        <ele>89</ele>
        <time>2013-12-13T08:08:55Z</time>
      </trkpt>
      <trkpt lat="48.48548" lon="-2.71592">
        <ele>90</ele>
        <time>2013-12-13T08:09:01Z</time>
      </trkpt>
      <trkpt lat="48.4855" lon="-2.71589">
        <ele>90</ele>
        <time>2013-12-13T08:09:03Z</time>
      </trkpt>
      <trkpt lat="48.48552" lon="-2.71586">
        <ele>90</ele>
        <time>2013-12-13T08:09:05Z</time>
      </trkpt>
      <trkpt lat="48.48554" lon="-2.71585">
        <ele>90</ele>
        <time>2013-12-13T08:09:07Z</time>
      </trkpt>
      <trkpt lat="48.48556" lon="-2.71583">
        <ele>90</ele>
        <time>2013-12-13T08:09:09Z</time>
      </trkpt>
      <trkpt lat="48.48558" lon="-2.71582">
        <ele>90</ele>
        <time>2013-12-13T08:09:11Z</time>
      </trkpt>
      <trkpt lat="48.4856" lon="-2.7158">
        <ele>90</ele>
        <time>2013-12-13T08:09:13Z</time>
      </trkpt>
      <trkpt lat="48.48563" lon="-2.71579">
        <ele>90</ele>
        <time>2013-12-13T08:09:15Z</time>
      </trkpt>
      <trkpt lat="48.48566" lon="-2.71577">
        <ele>90</ele>
        <time>2013-12-13T08:09:18Z</time>
      </trkpt>
      <trkpt lat="48.48568" lon="-2.71575">
        <ele>90</ele>
        <time>2013-12-13T08:09:20Z</time>
      </trkpt>
      <trkpt lat="48.48571" lon="-2.71574">
        <ele>90</ele>
        <time>2013-12-13T08:09:22Z</time>
      </trkpt>
      <trkpt lat="48.48573" lon="-2.71572">
        <ele>90</ele>
        <time>2013-12-13T08:09:24Z</time>
      </trkpt>
      <trkpt lat="48.48576" lon="-2.7157">
        <ele>90</ele>
        <time>2013-12-13T08:09:26Z</time>
      </trkpt>
      <trkpt lat="48.48578" lon="-2.71568">
        <ele>90</ele>
        <time>2013-12-13T08:09:28Z</time>
      </trkpt>
      <trkpt lat="48.48581" lon="-2.71567">
        <ele>90</ele>
        <time>2013-12-13T08:09:31Z</time>
      </trkpt>
      <trkpt lat="48.48583" lon="-2.71565">
        <ele>90</ele>
        <time>2013-12-13T08:09:33Z</time>
      </trkpt>
      <trkpt lat="48.48585" lon="-2.71564">
        <ele>90</ele>
        <time>2013-12-13T08:09:35Z</time>
      </trkpt>
      <trkpt lat="48.48589" lon="-2.71561">
        <ele>90</ele>
        <time>2013-12-13T08:09:38Z</time>
      </trkpt>
      <trkpt lat="48.48591" lon="-2.71559">
        <ele>90</ele>
        <time>2013-12-13T08:09:40Z</time>
      </trkpt>
      <trkpt lat="48.48594" lon="-2.71558">
        <ele>90</ele>
        <time>2013-12-13T08:09:42Z</time>
      </trkpt>
      <trkpt lat="48.48596" lon="-2.71556">
        <ele>90</ele>
        <time>2013-12-13T08:09:44Z</time>
      </trkpt>
      <trkpt lat="48.486" lon="-2.71553">
        <ele>90</ele>
        <time>2013-12-13T08:09:47Z</time>
      </trkpt>
      <trkpt lat="48.48603" lon="-2.71551">
        <ele>90</ele>
        <time>2013-12-13T08:09:49Z</time>
      </trkpt>
      <trkpt lat="48.48605" lon="-2.7155">
        <ele>90</ele>
        <time>2013-12-13T08:09:51Z</time>
      </trkpt>
      <trkpt lat="48.48608" lon="-2.71548">
        <ele>90</ele>
        <time>2013-12-13T08:09:53Z</time>
      </trkpt>
      <trkpt lat="48.48611" lon="-2.71546">
        <ele>90</ele>
        <time>2013-12-13T08:09:55Z</time>
      </trkpt>
      <trkpt lat="48.48614" lon="-2.71544">
        <ele>90</ele>
        <time>2013-12-13T08:09:57Z</time>
      </trkpt>
      <trkpt lat="48.48616" lon="-2.71542">
        <ele>90</ele>
        <time>2013-12-13T08:09:59Z</time>
      </trkpt>
      <trkpt lat="48.48619" lon="-2.7154">
        <ele>90</ele>
        <time>2013-12-13T08:10:01Z</time>
      </trkpt>
      <trkpt lat="48.48622" lon="-2.71538">
        <ele>90</ele>
        <time>2013-12-13T08:10:03Z</time>
      </trkpt>
      <trkpt lat="48.48626" lon="-2.71536">
        <ele>90</ele>
        <time>2013-12-13T08:10:05Z</time>
      </trkpt>
      <trkpt lat="48.48629" lon="-2.71533">
        <ele>90</ele>
        <time>2013-12-13T08:10:07Z</time>
      </trkpt>
      <trkpt lat="48.48632" lon="-2.7153">
        <ele>90</ele>
        <time>2013-12-13T08:10:09Z</time>
      </trkpt>
      <trkpt lat="48.48634" lon="-2.71526">
        <ele>90</ele>
        <time>2013-12-13T08:10:11Z</time>
      </trkpt>
      <trkpt lat="48.48635" lon="-2.71522">
        <ele>90</ele>
        <time>2013-12-13T08:10:13Z</time>
      </trkpt>
      <trkpt lat="48.48637" lon="-2.71518">
        <ele>90</ele>
        <time>2013-12-13T08:10:15Z</time>
      </trkpt>
      <trkpt lat="48.48638" lon="-2.71514">
        <ele>90</ele>
        <time>2013-12-13T08:10:17Z</time>
      </trkpt>
      <trkpt lat="48.48639" lon="-2.7151">
        <ele>90</ele>
        <time>2013-12-13T08:10:19Z</time>
      </trkpt>
      <trkpt lat="48.4864" lon="-2.71505">
        <ele>90</ele>
        <time>2013-12-13T08:10:21Z</time>
      </trkpt>
      <trkpt lat="48.48641" lon="-2.71501">
        <ele>90</ele>
        <time>2013-12-13T08:10:23Z</time>
      </trkpt>
      <trkpt lat="48.48642" lon="-2.71497">
        <ele>90</ele>
        <time>2013-12-13T08:10:25Z</time>
      </trkpt>
      <trkpt lat="48.48643" lon="-2.71493">
        <ele>90</ele>
        <time>2013-12-13T08:10:27Z</time>
      </trkpt>
      <trkpt lat="48.48644" lon="-2.71488">
        <ele>90</ele>
        <time>2013-12-13T08:10:29Z</time>
      </trkpt>
      <trkpt lat="48.48644" lon="-2.71483">
        <ele>90</ele>
        <time>2013-12-13T08:10:31Z</time>
      </trkpt>
      <trkpt lat="48.48645" lon="-2.71479">
        <ele>90</ele>
        <time>2013-12-13T08:10:33Z</time>
      </trkpt>
      <trkpt lat="48.48645" lon="-2.71474">
        <ele>90</ele>
        <time>2013-12-13T08:10:35Z</time>
      </trkpt>
      <trkpt lat="48.48645" lon="-2.71469">
        <ele>90</ele>
        <time>2013-12-13T08:10:37Z</time>
      </trkpt>
      <trkpt lat="48.48645" lon="-2.71465">
        <ele>90</ele>
        <time>2013-12-13T08:10:39Z</time>
      </trkpt>
      <trkpt lat="48.48646" lon="-2.71461">
        <ele>89</ele>
        <time>2013-12-13T08:10:41Z</time>
      </trkpt>
      <trkpt lat="48.48646" lon="-2.71457">
        <ele>89</ele>
        <time>2013-12-13T08:10:43Z</time>
      </trkpt>
      <trkpt lat="48.48647" lon="-2.71453">
        <ele>89</ele>
        <time>2013-12-13T08:10:45Z</time>
      </trkpt>
      <trkpt lat="48.48647" lon="-2.71449">
        <ele>88</ele>
        <time>2013-12-13T08:10:47Z</time>
      </trkpt>
      <trkpt lat="48.48648" lon="-2.71445">
        <ele>88</ele>
        <time>2013-12-13T08:10:49Z</time>
      </trkpt>
      <trkpt lat="48.48648" lon="-2.71441">
        <ele>87</ele>
        <time>2013-12-13T08:10:51Z</time>
      </trkpt>
      <trkpt lat="48.48648" lon="-2.71437">
        <ele>86</ele>
        <time>2013-12-13T08:10:53Z</time>
      </trkpt>
      <trkpt lat="48.48649" lon="-2.71432">
        <ele>86</ele>
        <time>2013-12-13T08:10:55Z</time>
      </trkpt>
      <trkpt lat="48.48649" lon="-2.71428">
        <ele>85</ele>
        <time>2013-12-13T08:10:57Z</time>
      </trkpt>
      <trkpt lat="48.48649" lon="-2.71424">
        <ele>84</ele>
        <time>2013-12-13T08:10:59Z</time>
      </trkpt>
      <trkpt lat="48.48649" lon="-2.71421">
        <ele>83</ele>
        <time>2013-12-13T08:11:01Z</time>
      </trkpt>
      <trkpt lat="48.48651" lon="-2.71416">
        <ele>81</ele>
        <time>2013-12-13T08:11:04Z</time>
      </trkpt>
      <trkpt lat="48.48652" lon="-2.71413">
        <ele>81</ele>
        <time>2013-12-13T08:11:06Z</time>
      </trkpt>
      <trkpt lat="48.48654" lon="-2.71408">
        <ele>80</ele>
        <time>2013-12-13T08:11:08Z</time>
      </trkpt>
      <trkpt lat="48.48656" lon="-2.71404">
        <ele>80</ele>
        <time>2013-12-13T08:11:11Z</time>
      </trkpt>
      <trkpt lat="48.48657" lon="-2.71399">
        <ele>80</ele>
        <time>2013-12-13T08:11:13Z</time>
      </trkpt>
      <trkpt lat="48.48659" lon="-2.71395">
        <ele>80</ele>
        <time>2013-12-13T08:11:15Z</time>
      </trkpt>
      <trkpt lat="48.4866" lon="-2.71391">
        <ele>80</ele>
        <time>2013-12-13T08:11:17Z</time>
      </trkpt>
      <trkpt lat="48.48661" lon="-2.71388">
        <ele>80</ele>
        <time>2013-12-13T08:11:19Z</time>
      </trkpt>
      <trkpt lat="48.48663" lon="-2.71384">
        <ele>80</ele>
        <time>2013-12-13T08:11:21Z</time>
      </trkpt>
      <trkpt lat="48.48664" lon="-2.7138">
        <ele>80</ele>
        <time>2013-12-13T08:11:23Z</time>
      </trkpt>
      <trkpt lat="48.48666" lon="-2.71375">
        <ele>80</ele>
        <time>2013-12-13T08:11:25Z</time>
      </trkpt>
      <trkpt lat="48.48668" lon="-2.71371">
        <ele>80</ele>
        <time>2013-12-13T08:11:27Z</time>
      </trkpt>
      <trkpt lat="48.48669" lon="-2.71367">
        <ele>80</ele>
        <time>2013-12-13T08:11:29Z</time>
      </trkpt>
      <trkpt lat="48.48671" lon="-2.71363">
        <ele>80</ele>
        <time>2013-12-13T08:11:31Z</time>
      </trkpt>
      <trkpt lat="48.48673" lon="-2.71359">
        <ele>80</ele>
        <time>2013-12-13T08:11:33Z</time>
      </trkpt>
      <trkpt lat="48.48675" lon="-2.71356">
        <ele>80</ele>
        <time>2013-12-13T08:11:35Z</time>
      </trkpt>
      <trkpt lat="48.48677" lon="-2.71352">
        <ele>80</ele>
        <time>2013-12-13T08:11:37Z</time>
      </trkpt>
      <trkpt lat="48.48679" lon="-2.71348">
        <ele>80</ele>
        <time>2013-12-13T08:11:39Z</time>
      </trkpt>
      <trkpt lat="48.48681" lon="-2.71344">
        <ele>80</ele>
        <time>2013-12-13T08:11:41Z</time>
      </trkpt>
      <trkpt lat="48.48683" lon="-2.71337">
        <ele>80</ele>
        <time>2013-12-13T08:11:44Z</time>
      </trkpt>
      <trkpt lat="48.48684" lon="-2.71333">
        <ele>80</ele>
        <time>2013-12-13T08:11:46Z</time>
      </trkpt>
      <trkpt lat="48.48686" lon="-2.71328">
        <ele>80</ele>
        <time>2013-12-13T08:11:48Z</time>
      </trkpt>
      <trkpt lat="48.48687" lon="-2.71323">
        <ele>80</ele>
        <time>2013-12-13T08:11:50Z</time>
      </trkpt>
      <trkpt lat="48.48687" lon="-2.71319">
        <ele>80</ele>
        <time>2013-12-13T08:11:52Z</time>
      </trkpt>
      <trkpt lat="48.48689" lon="-2.71314">
        <ele>80</ele>
        <time>2013-12-13T08:11:54Z</time>
      </trkpt>
      <trkpt lat="48.4869" lon="-2.7131">
        <ele>80</ele>
        <time>2013-12-13T08:11:56Z</time>
      </trkpt>
      <trkpt lat="48.48691" lon="-2.71306">
        <ele>80</ele>
        <time>2013-12-13T08:11:58Z</time>
      </trkpt>
      <trkpt lat="48.48693" lon="-2.71303">
        <ele>80</ele>
        <time>2013-12-13T08:12:00Z</time>
      </trkpt>
      <trkpt lat="48.48694" lon="-2.71299">
        <ele>80</ele>
        <time>2013-12-13T08:12:02Z</time>
      </trkpt>
      <trkpt lat="48.48695" lon="-2.71295">
        <ele>80</ele>
        <time>2013-12-13T08:12:04Z</time>
      </trkpt>
      <trkpt lat="48.48696" lon="-2.7129">
        <ele>80</ele>
        <time>2013-12-13T08:12:06Z</time>
      </trkpt>
      <trkpt lat="48.48698" lon="-2.71287">
        <ele>80</ele>
        <time>2013-12-13T08:12:08Z</time>
      </trkpt>
      <trkpt lat="48.487" lon="-2.71281">
        <ele>80</ele>
        <time>2013-12-13T08:12:11Z</time>
      </trkpt>
      <trkpt lat="48.48701" lon="-2.71276">
        <ele>80</ele>
        <time>2013-12-13T08:12:13Z</time>
      </trkpt>
      <trkpt lat="48.48703" lon="-2.71272">
        <ele>80</ele>
        <time>2013-12-13T08:12:15Z</time>
      </trkpt>
      <trkpt lat="48.48705" lon="-2.71269">
        <ele>80</ele>
        <time>2013-12-13T08:12:17Z</time>
      </trkpt>
      <trkpt lat="48.48706" lon="-2.71265">
        <ele>80</ele>
        <time>2013-12-13T08:12:19Z</time>
      </trkpt>
      <trkpt lat="48.48708" lon="-2.71259">
        <ele>80</ele>
        <time>2013-12-13T08:12:22Z</time>
      </trkpt>
      <trkpt lat="48.48709" lon="-2.71255">
        <ele>80</ele>
        <time>2013-12-13T08:12:24Z</time>
      </trkpt>
      <trkpt lat="48.48711" lon="-2.71252">
        <ele>80</ele>
        <time>2013-12-13T08:12:26Z</time>
      </trkpt>
      <trkpt lat="48.48712" lon="-2.71248">
        <ele>80</ele>
        <time>2013-12-13T08:12:28Z</time>
      </trkpt>
      <trkpt lat="48.48713" lon="-2.71244">
        <ele>80</ele>
        <time>2013-12-13T08:12:30Z</time>
      </trkpt>
      <trkpt lat="48.48714" lon="-2.7124">
        <ele>80</ele>
        <time>2013-12-13T08:12:32Z</time>
      </trkpt>
      <trkpt lat="48.48716" lon="-2.71236">
        <ele>80</ele>
        <time>2013-12-13T08:12:34Z</time>
      </trkpt>
      <trkpt lat="48.48718" lon="-2.71233">
        <ele>80</ele>
        <time>2013-12-13T08:12:36Z</time>
      </trkpt>
      <trkpt lat="48.48719" lon="-2.71229">
        <ele>80</ele>
        <time>2013-12-13T08:12:38Z</time>
      </trkpt>
      <trkpt lat="48.48721" lon="-2.71225">
        <ele>80</ele>
        <time>2013-12-13T08:12:40Z</time>
      </trkpt>
      <trkpt lat="48.48722" lon="-2.71222">
        <ele>80</ele>
        <time>2013-12-13T08:12:42Z</time>
      </trkpt>
      <trkpt lat="48.48724" lon="-2.71216">
        <ele>81</ele>
        <time>2013-12-13T08:12:44Z</time>
      </trkpt>
      <trkpt lat="48.48726" lon="-2.71212">
        <ele>81</ele>
        <time>2013-12-13T08:12:47Z</time>
      </trkpt>
      <trkpt lat="48.48727" lon="-2.71208">
        <ele>81</ele>
        <time>2013-12-13T08:12:49Z</time>
      </trkpt>
      <trkpt lat="48.4873" lon="-2.71202">
        <ele>82</ele>
        <time>2013-12-13T08:12:52Z</time>
      </trkpt>
      <trkpt lat="48.48731" lon="-2.71198">
        <ele>82</ele>
        <time>2013-12-13T08:12:54Z</time>
      </trkpt>
      <trkpt lat="48.48732" lon="-2.71194">
        <ele>83</ele>
        <time>2013-12-13T08:12:56Z</time>
      </trkpt>
      <trkpt lat="48.48734" lon="-2.71188">
        <ele>83</ele>
        <time>2013-12-13T08:12:59Z</time>
      </trkpt>
      <trkpt lat="48.48735" lon="-2.71183">
        <ele>83</ele>
        <time>2013-12-13T08:13:01Z</time>
      </trkpt>
      <trkpt lat="48.48737" lon="-2.71177">
        <ele>84</ele>
        <time>2013-12-13T08:13:04Z</time>
      </trkpt>
      <trkpt lat="48.48738" lon="-2.71171">
        <ele>84</ele>
        <time>2013-12-13T08:13:07Z</time>
      </trkpt>
      <trkpt lat="48.48739" lon="-2.71165">
        <ele>84</ele>
        <time>2013-12-13T08:13:10Z</time>
      </trkpt>
      <trkpt lat="48.4874" lon="-2.71161">
        <ele>85</ele>
        <time>2013-12-13T08:13:12Z</time>
      </trkpt>
      <trkpt lat="48.48742" lon="-2.71155">
        <ele>85</ele>
        <time>2013-12-13T08:13:15Z</time>
      </trkpt>
      <trkpt lat="48.48744" lon="-2.71149">
        <ele>85</ele>
        <time>2013-12-13T08:13:17Z</time>
      </trkpt>
      <trkpt lat="48.48745" lon="-2.71145">
        <ele>85</ele>
        <time>2013-12-13T08:13:19Z</time>
      </trkpt>
      <trkpt lat="48.48746" lon="-2.71141">
        <ele>85</ele>
        <time>2013-12-13T08:13:21Z</time>
      </trkpt>
      <trkpt lat="48.48748" lon="-2.71137">
        <ele>85</ele>
        <time>2013-12-13T08:13:23Z</time>
      </trkpt>
      <trkpt lat="48.48749" lon="-2.71133">
        <ele>85</ele>
        <time>2013-12-13T08:13:26Z</time>
      </trkpt>
      <trkpt lat="48.4875" lon="-2.71127">
        <ele>86</ele>
        <time>2013-12-13T08:13:28Z</time>
      </trkpt>
      <trkpt lat="48.48751" lon="-2.71123">
        <ele>86</ele>
        <time>2013-12-13T08:13:31Z</time>
      </trkpt>
      <trkpt lat="48.48753" lon="-2.71117">
        <ele>86</ele>
        <time>2013-12-13T08:13:33Z</time>
      </trkpt>
      <trkpt lat="48.48753" lon="-2.71113">
        <ele>86</ele>
        <time>2013-12-13T08:13:35Z</time>
      </trkpt>
      <trkpt lat="48.48754" lon="-2.71109">
        <ele>86</ele>
        <time>2013-12-13T08:13:37Z</time>
      </trkpt>
      <trkpt lat="48.48755" lon="-2.71104">
        <ele>86</ele>
        <time>2013-12-13T08:13:39Z</time>
      </trkpt>
      <trkpt lat="48.48756" lon="-2.711">
        <ele>86</ele>
        <time>2013-12-13T08:13:42Z</time>
      </trkpt>
      <trkpt lat="48.48757" lon="-2.71094">
        <ele>86</ele>
        <time>2013-12-13T08:13:44Z</time>
      </trkpt>
      <trkpt lat="48.48758" lon="-2.7109">
        <ele>86</ele>
        <time>2013-12-13T08:13:47Z</time>
      </trkpt>
      <trkpt lat="48.48759" lon="-2.71084">
        <ele>86</ele>
        <time>2013-12-13T08:13:49Z</time>
      </trkpt>
      <trkpt lat="48.48759" lon="-2.7108">
        <ele>86</ele>
        <time>2013-12-13T08:13:52Z</time>
      </trkpt>
      <trkpt lat="48.48761" lon="-2.71074">
        <ele>86</ele>
        <time>2013-12-13T08:13:55Z</time>
      </trkpt>
      <trkpt lat="48.48762" lon="-2.7107">
        <ele>86</ele>
        <time>2013-12-13T08:13:57Z</time>
      </trkpt>
      <trkpt lat="48.48763" lon="-2.71064">
        <ele>86</ele>
        <time>2013-12-13T08:13:59Z</time>
      </trkpt>
      <trkpt lat="48.48763" lon="-2.7106">
        <ele>86</ele>
        <time>2013-12-13T08:14:02Z</time>
      </trkpt>
      <trkpt lat="48.48764" lon="-2.71054">
        <ele>86</ele>
        <time>2013-12-13T08:14:04Z</time>
      </trkpt>
      <trkpt lat="48.48765" lon="-2.7105">
        <ele>86</ele>
        <time>2013-12-13T08:14:07Z</time>
      </trkpt>
      <trkpt lat="48.48766" lon="-2.71044">
        <ele>86</ele>
        <time>2013-12-13T08:14:09Z</time>
      </trkpt>
      <trkpt lat="48.48768" lon="-2.7104">
        <ele>86</ele>
        <time>2013-12-13T08:14:11Z</time>
      </trkpt>
      <trkpt lat="48.48769" lon="-2.71037">
        <ele>86</ele>
        <time>2013-12-13T08:14:13Z</time>
      </trkpt>
      <trkpt lat="48.4877" lon="-2.71032">
        <ele>86</ele>
        <time>2013-12-13T08:14:16Z</time>
      </trkpt>
      <trkpt lat="48.4877" lon="-2.71027">
        <ele>86</ele>
        <time>2013-12-13T08:14:18Z</time>
      </trkpt>
      <trkpt lat="48.48771" lon="-2.7102">
        <ele>86</ele>
        <time>2013-12-13T08:14:20Z</time>
      </trkpt>
      <trkpt lat="48.48771" lon="-2.71015">
        <ele>86</ele>
        <time>2013-12-13T08:14:23Z</time>
      </trkpt>
      <trkpt lat="48.48772" lon="-2.71009">
        <ele>86</ele>
        <time>2013-12-13T08:14:25Z</time>
      </trkpt>
      <trkpt lat="48.48773" lon="-2.71005">
        <ele>86</ele>
        <time>2013-12-13T08:14:28Z</time>
      </trkpt>
      <trkpt lat="48.48774" lon="-2.70999">
        <ele>86</ele>
        <time>2013-12-13T08:14:31Z</time>
      </trkpt>
      <trkpt lat="48.48775" lon="-2.70995">
        <ele>86</ele>
        <time>2013-12-13T08:14:33Z</time>
      </trkpt>
      <trkpt lat="48.48775" lon="-2.70989">
        <ele>86</ele>
        <time>2013-12-13T08:14:35Z</time>
      </trkpt>
      <trkpt lat="48.48776" lon="-2.70984">
        <ele>86</ele>
        <time>2013-12-13T08:14:38Z</time>
      </trkpt>
      <trkpt lat="48.48777" lon="-2.70978">
        <ele>86</ele>
        <time>2013-12-13T08:14:40Z</time>
      </trkpt>
      <trkpt lat="48.48777" lon="-2.70974">
        <ele>86</ele>
        <time>2013-12-13T08:14:43Z</time>
      </trkpt>
      <trkpt lat="48.48778" lon="-2.70968">
        <ele>86</ele>
        <time>2013-12-13T08:14:45Z</time>
      </trkpt>
      <trkpt lat="48.48779" lon="-2.70964">
        <ele>86</ele>
        <time>2013-12-13T08:14:47Z</time>
      </trkpt>
      <trkpt lat="48.48779" lon="-2.7096">
        <ele>86</ele>
        <time>2013-12-13T08:14:49Z</time>
      </trkpt>
      <trkpt lat="48.4878" lon="-2.70956">
        <ele>86</ele>
        <time>2013-12-13T08:14:51Z</time>
      </trkpt>
      <trkpt lat="48.4878" lon="-2.70952">
        <ele>86</ele>
        <time>2013-12-13T08:14:54Z</time>
      </trkpt>
      <trkpt lat="48.48781" lon="-2.70947">
        <ele>86</ele>
        <time>2013-12-13T08:14:56Z</time>
      </trkpt>
      <trkpt lat="48.48782" lon="-2.70939">
        <ele>86</ele>
        <time>2013-12-13T08:14:59Z</time>
      </trkpt>
      <trkpt lat="48.48782" lon="-2.70932">
        <ele>86</ele>
        <time>2013-12-13T08:15:01Z</time>
      </trkpt>
      <trkpt lat="48.48782" lon="-2.70927">
        <ele>86</ele>
        <time>2013-12-13T08:15:04Z</time>
      </trkpt>
      <trkpt lat="48.48782" lon="-2.70921">
        <ele>86</ele>
        <time>2013-12-13T08:15:06Z</time>
      </trkpt>
      <trkpt lat="48.48782" lon="-2.70916">
        <ele>86</ele>
        <time>2013-12-13T08:15:09Z</time>
      </trkpt>
      <trkpt lat="48.48783" lon="-2.70909">
        <ele>86</ele>
        <time>2013-12-13T08:15:11Z</time>
      </trkpt>
      <trkpt lat="48.48783" lon="-2.70904">
        <ele>86</ele>
        <time>2013-12-13T08:15:14Z</time>
      </trkpt>
      <trkpt lat="48.48785" lon="-2.70898">
        <ele>86</ele>
        <time>2013-12-13T08:15:16Z</time>
      </trkpt>
      <trkpt lat="48.48785" lon="-2.70894">
        <ele>86</ele>
        <time>2013-12-13T08:15:19Z</time>
      </trkpt>
      <trkpt lat="48.48786" lon="-2.70887">
        <ele>86</ele>
        <time>2013-12-13T08:15:21Z</time>
      </trkpt>
      <trkpt lat="48.48787" lon="-2.70882">
        <ele>85</ele>
        <time>2013-12-13T08:15:24Z</time>
      </trkpt>
      <trkpt lat="48.4879" lon="-2.70876">
        <ele>85</ele>
        <time>2013-12-13T08:15:26Z</time>
      </trkpt>
      <trkpt lat="48.48792" lon="-2.70873">
        <ele>85</ele>
        <time>2013-12-13T08:15:29Z</time>
      </trkpt>
      <trkpt lat="48.48793" lon="-2.70867">
        <ele>85</ele>
        <time>2013-12-13T08:15:32Z</time>
      </trkpt>
      <trkpt lat="48.48794" lon="-2.70863">
        <ele>85</ele>
        <time>2013-12-13T08:15:34Z</time>
      </trkpt>
      <trkpt lat="48.48794" lon="-2.70856">
        <ele>85</ele>
        <time>2013-12-13T08:15:36Z</time>
      </trkpt>
      <trkpt lat="48.48795" lon="-2.70852">
        <ele>85</ele>
        <time>2013-12-13T08:15:39Z</time>
      </trkpt>
      <trkpt lat="48.48795" lon="-2.70845">
        <ele>85</ele>
        <time>2013-12-13T08:15:41Z</time>
      </trkpt>
      <trkpt lat="48.48795" lon="-2.70841">
        <ele>85</ele>
        <time>2013-12-13T08:15:44Z</time>
      </trkpt>
      <trkpt lat="48.48795" lon="-2.70834">
        <ele>85</ele>
        <time>2013-12-13T08:15:46Z</time>
      </trkpt>
      <trkpt lat="48.48795" lon="-2.70829">
        <ele>85</ele>
        <time>2013-12-13T08:15:49Z</time>
      </trkpt>
      <trkpt lat="48.48795" lon="-2.70822">
        <ele>85</ele>
        <time>2013-12-13T08:15:51Z</time>
      </trkpt>
      <trkpt lat="48.48794" lon="-2.70817">
        <ele>85</ele>
        <time>2013-12-13T08:15:54Z</time>
      </trkpt>
      <trkpt lat="48.48793" lon="-2.7081">
        <ele>85</ele>
        <time>2013-12-13T08:15:56Z</time>
      </trkpt>
      <trkpt lat="48.48793" lon="-2.70806">
        <ele>85</ele>
        <time>2013-12-13T08:15:59Z</time>
      </trkpt>
      <trkpt lat="48.48793" lon="-2.70801">
        <ele>85</ele>
        <time>2013-12-13T08:16:01Z</time>
      </trkpt>
      <trkpt lat="48.48791" lon="-2.70795">
        <ele>85</ele>
        <time>2013-12-13T08:16:04Z</time>
      </trkpt>
      <trkpt lat="48.4879" lon="-2.70787">
        <ele>85</ele>
        <time>2013-12-13T08:16:06Z</time>
      </trkpt>
      <trkpt lat="48.4879" lon="-2.70783">
        <ele>85</ele>
        <time>2013-12-13T08:16:09Z</time>
      </trkpt>
      <trkpt lat="48.48789" lon="-2.70776">
        <ele>85</ele>
        <time>2013-12-13T08:16:11Z</time>
      </trkpt>
      <trkpt lat="48.48789" lon="-2.70771">
        <ele>85</ele>
        <time>2013-12-13T08:16:14Z</time>
      </trkpt>
      <trkpt lat="48.48788" lon="-2.70765">
        <ele>85</ele>
        <time>2013-12-13T08:16:16Z</time>
      </trkpt>
      <trkpt lat="48.48787" lon="-2.7076">
        <ele>85</ele>
        <time>2013-12-13T08:16:19Z</time>
      </trkpt>
      <trkpt lat="48.48786" lon="-2.70753">
        <ele>85</ele>
        <time>2013-12-13T08:16:21Z</time>
      </trkpt>
      <trkpt lat="48.48785" lon="-2.70748">
        <ele>85</ele>
        <time>2013-12-13T08:16:24Z</time>
      </trkpt>
      <trkpt lat="48.48782" lon="-2.70741">
        <ele>85</ele>
        <time>2013-12-13T08:16:27Z</time>
      </trkpt>
      <trkpt lat="48.48781" lon="-2.70738">
        <ele>85</ele>
        <time>2013-12-13T08:16:30Z</time>
      </trkpt>
      <trkpt lat="48.48781" lon="-2.70732">
        <ele>85</ele>
        <time>2013-12-13T08:16:32Z</time>
      </trkpt>
      <trkpt lat="48.4878" lon="-2.70728">
        <ele>85</ele>
        <time>2013-12-13T08:16:35Z</time>
      </trkpt>
      <trkpt lat="48.4878" lon="-2.70721">
        <ele>85</ele>
        <time>2013-12-13T08:16:37Z</time>
      </trkpt>
      <trkpt lat="48.48779" lon="-2.70716">
        <ele>85</ele>
        <time>2013-12-13T08:16:40Z</time>
      </trkpt>
      <trkpt lat="48.48778" lon="-2.7071">
        <ele>85</ele>
        <time>2013-12-13T08:16:42Z</time>
      </trkpt>
      <trkpt lat="48.48777" lon="-2.70706">
        <ele>85</ele>
        <time>2013-12-13T08:16:45Z</time>
      </trkpt>
      <trkpt lat="48.48775" lon="-2.707">
        <ele>85</ele>
        <time>2013-12-13T08:16:47Z</time>
      </trkpt>
      <trkpt lat="48.48773" lon="-2.70697">
        <ele>85</ele>
        <time>2013-12-13T08:16:50Z</time>
      </trkpt>
      <trkpt lat="48.4877" lon="-2.70692">
        <ele>85</ele>
        <time>2013-12-13T08:16:52Z</time>
      </trkpt>
      <trkpt lat="48.48768" lon="-2.70689">
        <ele>85</ele>
        <time>2013-12-13T08:16:55Z</time>
      </trkpt>
      <trkpt lat="48.48764" lon="-2.70683">
        <ele>85</ele>
        <time>2013-12-13T08:16:57Z</time>
      </trkpt>
      <trkpt lat="48.48762" lon="-2.70679">
        <ele>85</ele>
        <time>2013-12-13T08:17:00Z</time>
      </trkpt>
      <trkpt lat="48.48758" lon="-2.70674">
        <ele>85</ele>
        <time>2013-12-13T08:17:03Z</time>
      </trkpt>
      <trkpt lat="48.48756" lon="-2.70671">
        <ele>85</ele>
        <time>2013-12-13T08:17:05Z</time>
      </trkpt>
      <trkpt lat="48.48754" lon="-2.70668">
        <ele>85</ele>
        <time>2013-12-13T08:17:07Z</time>
      </trkpt>
      <trkpt lat="48.48751" lon="-2.70663">
        <ele>85</ele>
        <time>2013-12-13T08:17:10Z</time>
      </trkpt>
      <trkpt lat="48.48749" lon="-2.70661">
        <ele>85</ele>
        <time>2013-12-13T08:17:12Z</time>
      </trkpt>
      <trkpt lat="48.48745" lon="-2.70657">
        <ele>85</ele>
        <time>2013-12-13T08:17:16Z</time>
      </trkpt>
      <trkpt lat="48.48742" lon="-2.70653">
        <ele>85</ele>
        <time>2013-12-13T08:17:19Z</time>
      </trkpt>
      <trkpt lat="48.4874" lon="-2.7065">
        <ele>85</ele>
        <time>2013-12-13T08:17:21Z</time>
      </trkpt>
      <trkpt lat="48.48736" lon="-2.70645">
        <ele>85</ele>
        <time>2013-12-13T08:17:24Z</time>
      </trkpt>
      <trkpt lat="48.48734" lon="-2.70642">
        <ele>85</ele>
        <time>2013-12-13T08:17:27Z</time>
      </trkpt>
      <trkpt lat="48.4873" lon="-2.70637">
        <ele>85</ele>
        <time>2013-12-13T08:17:30Z</time>
      </trkpt>
      <trkpt lat="48.48728" lon="-2.70634">
        <ele>85</ele>
        <time>2013-12-13T08:17:32Z</time>
      </trkpt>
      <trkpt lat="48.48726" lon="-2.70631">
        <ele>85</ele>
        <time>2013-12-13T08:17:34Z</time>
      </trkpt>
      <trkpt lat="48.48724" lon="-2.70628">
        <ele>85</ele>
        <time>2013-12-13T08:17:36Z</time>
      </trkpt>
      <trkpt lat="48.48721" lon="-2.70626">
        <ele>85</ele>
        <time>2013-12-13T08:17:39Z</time>
      </trkpt>
      <trkpt lat="48.48717" lon="-2.7062">
        <ele>85</ele>
        <time>2013-12-13T08:17:42Z</time>
      </trkpt>
      <trkpt lat="48.48714" lon="-2.70617">
        <ele>85</ele>
        <time>2013-12-13T08:17:45Z</time>
      </trkpt>
      <trkpt lat="48.48711" lon="-2.70613">
        <ele>85</ele>
        <time>2013-12-13T08:17:49Z</time>
      </trkpt>
      <trkpt lat="48.48707" lon="-2.70608">
        <ele>85</ele>
        <time>2013-12-13T08:17:52Z</time>
      </trkpt>
      <trkpt lat="48.48705" lon="-2.70605">
        <ele>85</ele>
        <time>2013-12-13T08:17:55Z</time>
      </trkpt>
      <trkpt lat="48.487" lon="-2.70599">
        <ele>85</ele>
        <time>2013-12-13T08:17:58Z</time>
      </trkpt>
      <trkpt lat="48.48698" lon="-2.70597">
        <ele>85</ele>
        <time>2013-12-13T08:18:01Z</time>
      </trkpt>
      <trkpt lat="48.48694" lon="-2.70591">
        <ele>85</ele>
        <time>2013-12-13T08:18:04Z</time>
      </trkpt>
      <trkpt lat="48.48692" lon="-2.70589">
        <ele>84</ele>
        <time>2013-12-13T08:18:06Z</time>
      </trkpt>
      <trkpt lat="48.4869" lon="-2.70586">
        <ele>84</ele>
        <time>2013-12-13T08:18:08Z</time>
      </trkpt>
      <trkpt lat="48.48688" lon="-2.70583">
        <ele>84</ele>
        <time>2013-12-13T08:18:10Z</time>
      </trkpt>
      <trkpt lat="48.48684" lon="-2.70579">
        <ele>84</ele>
        <time>2013-12-13T08:18:13Z</time>
      </trkpt>
      <trkpt lat="48.48683" lon="-2.70576">
        <ele>84</ele>
        <time>2013-12-13T08:18:15Z</time>
      </trkpt>
      <trkpt lat="48.48681" lon="-2.70573">
        <ele>84</ele>
        <time>2013-12-13T08:18:17Z</time>
      </trkpt>
      <trkpt lat="48.48678" lon="-2.70568">
        <ele>84</ele>
        <time>2013-12-13T08:18:20Z</time>
      </trkpt>
      <trkpt lat="48.48676" lon="-2.70565">
        <ele>84</ele>
        <time>2013-12-13T08:18:23Z</time>
      </trkpt>
      <trkpt lat="48.48673" lon="-2.70561">
        <ele>84</ele>
        <time>2013-12-13T08:18:25Z</time>
      </trkpt>
      <trkpt lat="48.48671" lon="-2.70558">
        <ele>84</ele>
        <time>2013-12-13T08:18:28Z</time>
      </trkpt>
      <trkpt lat="48.48668" lon="-2.70553">
        <ele>84</ele>
        <time>2013-12-13T08:18:30Z</time>
      </trkpt>
      <trkpt lat="48.48665" lon="-2.70549">
        <ele>84</ele>
        <time>2013-12-13T08:18:33Z</time>
      </trkpt>
      <trkpt lat="48.48663" lon="-2.70546">
        <ele>84</ele>
        <time>2013-12-13T08:18:35Z</time>
      </trkpt>
      <trkpt lat="48.48661" lon="-2.70543">
        <ele>84</ele>
        <time>2013-12-13T08:18:37Z</time>
      </trkpt>
      <trkpt lat="48.48659" lon="-2.7054">
        <ele>84</ele>
        <time>2013-12-13T08:18:39Z</time>
      </trkpt>
      <trkpt lat="48.48656" lon="-2.70537">
        <ele>84</ele>
        <time>2013-12-13T08:18:41Z</time>
      </trkpt>
      <trkpt lat="48.48654" lon="-2.70534">
        <ele>84</ele>
        <time>2013-12-13T08:18:44Z</time>
      </trkpt>
      <trkpt lat="48.4865" lon="-2.70531">
        <ele>84</ele>
        <time>2013-12-13T08:18:46Z</time>
      </trkpt>
      <trkpt lat="48.48647" lon="-2.70529">
        <ele>84</ele>
        <time>2013-12-13T08:18:49Z</time>
      </trkpt>
      <trkpt lat="48.48643" lon="-2.70525">
        <ele>84</ele>
        <time>2013-12-13T08:18:51Z</time>
      </trkpt>
      <trkpt lat="48.48641" lon="-2.70523">
        <ele>84</ele>
        <time>2013-12-13T08:18:53Z</time>
      </trkpt>
      <trkpt lat="48.48638" lon="-2.70521">
        <ele>84</ele>
        <time>2013-12-13T08:18:55Z</time>
      </trkpt>
      <trkpt lat="48.48635" lon="-2.7052">
        <ele>84</ele>
        <time>2013-12-13T08:18:57Z</time>
      </trkpt>
      <trkpt lat="48.48632" lon="-2.70518">
        <ele>84</ele>
        <time>2013-12-13T08:18:59Z</time>
      </trkpt>
      <trkpt lat="48.48629" lon="-2.70516">
        <ele>84</ele>
        <time>2013-12-13T08:19:01Z</time>
      </trkpt>
      <trkpt lat="48.48626" lon="-2.70515">
        <ele>84</ele>
        <time>2013-12-13T08:19:04Z</time>
      </trkpt>
      <trkpt lat="48.48622" lon="-2.70513">
        <ele>84</ele>
        <time>2013-12-13T08:19:06Z</time>
      </trkpt>
      <trkpt lat="48.48618" lon="-2.70512">
        <ele>84</ele>
        <time>2013-12-13T08:19:08Z</time>
      </trkpt>
      <trkpt lat="48.48616" lon="-2.70512">
        <ele>84</ele>
        <time>2013-12-13T08:19:10Z</time>
      </trkpt>
      <trkpt lat="48.48612" lon="-2.70511">
        <ele>84</ele>
        <time>2013-12-13T08:19:12Z</time>
      </trkpt>
      <trkpt lat="48.48609" lon="-2.7051">
        <ele>83</ele>
        <time>2013-12-13T08:19:14Z</time>
      </trkpt>
      <trkpt lat="48.48606" lon="-2.70508">
        <ele>83</ele>
        <time>2013-12-13T08:19:16Z</time>
      </trkpt>
      <trkpt lat="48.48603" lon="-2.70506">
        <ele>83</ele>
        <time>2013-12-13T08:19:19Z</time>
      </trkpt>
      <trkpt lat="48.48599" lon="-2.70504">
        <ele>82</ele>
        <time>2013-12-13T08:19:21Z</time>
      </trkpt>
      <trkpt lat="48.48595" lon="-2.70503">
        <ele>82</ele>
        <time>2013-12-13T08:19:24Z</time>
      </trkpt>
      <trkpt lat="48.48591" lon="-2.70501">
        <ele>82</ele>
        <time>2013-12-13T08:19:26Z</time>
      </trkpt>
      <trkpt lat="48.48588" lon="-2.705">
        <ele>82</ele>
        <time>2013-12-13T08:19:28Z</time>
      </trkpt>
      <trkpt lat="48.48585" lon="-2.70499">
        <ele>82</ele>
        <time>2013-12-13T08:19:30Z</time>
      </trkpt>
      <trkpt lat="48.48581" lon="-2.70498">
        <ele>82</ele>
        <time>2013-12-13T08:19:32Z</time>
      </trkpt>
      <trkpt lat="48.48578" lon="-2.70497">
        <ele>82</ele>
        <time>2013-12-13T08:19:34Z</time>
      </trkpt>
      <trkpt lat="48.48575" lon="-2.70497">
        <ele>81</ele>
        <time>2013-12-13T08:19:36Z</time>
      </trkpt>
      <trkpt lat="48.48572" lon="-2.70496">
        <ele>81</ele>
        <time>2013-12-13T08:19:38Z</time>
      </trkpt>
      <trkpt lat="48.48569" lon="-2.70495">
        <ele>81</ele>
        <time>2013-12-13T08:19:40Z</time>
      </trkpt>
      <trkpt lat="48.48566" lon="-2.70493">
        <ele>80</ele>
        <time>2013-12-13T08:19:42Z</time>
      </trkpt>
      <trkpt lat="48.48563" lon="-2.70493">
        <ele>80</ele>
        <time>2013-12-13T08:19:44Z</time>
      </trkpt>
      <trkpt lat="48.4856" lon="-2.70492">
        <ele>79</ele>
        <time>2013-12-13T08:19:46Z</time>
      </trkpt>
      <trkpt lat="48.48557" lon="-2.70491">
        <ele>79</ele>
        <time>2013-12-13T08:19:48Z</time>
      </trkpt>
      <trkpt lat="48.48554" lon="-2.70491">
        <ele>79</ele>
        <time>2013-12-13T08:19:50Z</time>
      </trkpt>
      <trkpt lat="48.48551" lon="-2.7049">
        <ele>78</ele>
        <time>2013-12-13T08:19:52Z</time>
      </trkpt>
      <trkpt lat="48.48548" lon="-2.7049">
        <ele>78</ele>
        <time>2013-12-13T08:19:54Z</time>
      </trkpt>
      <trkpt lat="48.48545" lon="-2.7049">
        <ele>78</ele>
        <time>2013-12-13T08:19:56Z</time>
      </trkpt>
      <trkpt lat="48.48543" lon="-2.70491">
        <ele>77</ele>
        <time>2013-12-13T08:19:58Z</time>
      </trkpt>
      <trkpt lat="48.4854" lon="-2.70492">
        <ele>77</ele>
        <time>2013-12-13T08:20:00Z</time>
      </trkpt>
      <trkpt lat="48.48537" lon="-2.70494">
        <ele>76</ele>
        <time>2013-12-13T08:20:02Z</time>
      </trkpt>
      <trkpt lat="48.48535" lon="-2.70495">
        <ele>76</ele>
        <time>2013-12-13T08:20:04Z</time>
      </trkpt>
      <trkpt lat="48.48532" lon="-2.70497">
        <ele>75</ele>
        <time>2013-12-13T08:20:06Z</time>
      </trkpt>
      <trkpt lat="48.4853" lon="-2.70497">
        <ele>75</ele>
        <time>2013-12-13T08:20:08Z</time>
      </trkpt>
      <trkpt lat="48.48527" lon="-2.70498">
        <ele>74</ele>
        <time>2013-12-13T08:20:10Z</time>
      </trkpt>
      <trkpt lat="48.48524" lon="-2.705">
        <ele>73</ele>
        <time>2013-12-13T08:20:12Z</time>
      </trkpt>
      <trkpt lat="48.48522" lon="-2.70502">
        <ele>72</ele>
        <time>2013-12-13T08:20:14Z</time>
      </trkpt>
      <trkpt lat="48.4852" lon="-2.70502">
        <ele>72</ele>
        <time>2013-12-13T08:20:16Z</time>
      </trkpt>
      <trkpt lat="48.48517" lon="-2.70503">
        <ele>70</ele>
        <time>2013-12-13T08:20:18Z</time>
      </trkpt>
      <trkpt lat="48.48515" lon="-2.70503">
        <ele>69</ele>
        <time>2013-12-13T08:20:20Z</time>
      </trkpt>
      <trkpt lat="48.48512" lon="-2.70504">
        <ele>67</ele>
        <time>2013-12-13T08:20:22Z</time>
      </trkpt>
      <trkpt lat="48.4851" lon="-2.70505">
        <ele>66</ele>
        <time>2013-12-13T08:20:24Z</time>
      </trkpt>
      <trkpt lat="48.48507" lon="-2.70507">
        <ele>65</ele>
        <time>2013-12-13T08:20:26Z</time>
      </trkpt>
      <trkpt lat="48.48505" lon="-2.70508">
        <ele>65</ele>
        <time>2013-12-13T08:20:28Z</time>
      </trkpt>
      <trkpt lat="48.48502" lon="-2.70508">
        <ele>63</ele>
        <time>2013-12-13T08:20:30Z</time>
      </trkpt>
      <trkpt lat="48.485" lon="-2.7051">
        <ele>62</ele>
        <time>2013-12-13T08:20:32Z</time>
      </trkpt>
      <trkpt lat="48.48497" lon="-2.70512">
        <ele>62</ele>
        <time>2013-12-13T08:20:34Z</time>
      </trkpt>
      <trkpt lat="48.48494" lon="-2.70514">
        <ele>61</ele>
        <time>2013-12-13T08:20:36Z</time>
      </trkpt>
      <trkpt lat="48.48492" lon="-2.70514">
        <ele>61</ele>
        <time>2013-12-13T08:20:38Z</time>
      </trkpt>
      <trkpt lat="48.48489" lon="-2.70515">
        <ele>59</ele>
        <time>2013-12-13T08:20:40Z</time>
      </trkpt>
      <trkpt lat="48.48487" lon="-2.70515">
        <ele>58</ele>
        <time>2013-12-13T08:20:42Z</time>
      </trkpt>
      <trkpt lat="48.48484" lon="-2.70516">
        <ele>56</ele>
        <time>2013-12-13T08:20:45Z</time>
      </trkpt>
      <trkpt lat="48.48481" lon="-2.70517">
        <ele>55</ele>
        <time>2013-12-13T08:20:48Z</time>
      </trkpt>
      <trkpt lat="48.48478" lon="-2.70518">
        <ele>53</ele>
        <time>2013-12-13T08:20:50Z</time>
      </trkpt>
      <trkpt lat="48.48475" lon="-2.70519">
        <ele>53</ele>
        <time>2013-12-13T08:20:52Z</time>
      </trkpt>
      <trkpt lat="48.48471" lon="-2.7052">
        <ele>53</ele>
        <time>2013-12-13T08:20:54Z</time>
      </trkpt>
      <trkpt lat="48.48468" lon="-2.70521">
        <ele>53</ele>
        <time>2013-12-13T08:20:56Z</time>
      </trkpt>
      <trkpt lat="48.48464" lon="-2.70524">
        <ele>53</ele>
        <time>2013-12-13T08:20:58Z</time>
      </trkpt>
      <trkpt lat="48.4846" lon="-2.70527">
        <ele>53</ele>
        <time>2013-12-13T08:21:00Z</time>
      </trkpt>
      <trkpt lat="48.48457" lon="-2.70528">
        <ele>53</ele>
        <time>2013-12-13T08:21:02Z</time>
      </trkpt>
      <trkpt lat="48.48454" lon="-2.70528">
        <ele>53</ele>
        <time>2013-12-13T08:21:04Z</time>
      </trkpt>
      <trkpt lat="48.48441" lon="-2.70509">
        <ele>55</ele>
        <time>2013-12-13T08:21:19Z</time>
      </trkpt>
      <trkpt lat="48.48435" lon="-2.70512">
        <ele>55</ele>
        <time>2013-12-13T08:21:21Z</time>
      </trkpt>
      <trkpt lat="48.48432" lon="-2.7052">
        <ele>55</ele>
        <time>2013-12-13T08:21:23Z</time>
      </trkpt>
      <trkpt lat="48.48428" lon="-2.70528">
        <ele>55</ele>
        <time>2013-12-13T08:21:25Z</time>
      </trkpt>
      <trkpt lat="48.48424" lon="-2.70534">
        <ele>55</ele>
        <time>2013-12-13T08:21:27Z</time>
      </trkpt>
      <trkpt lat="48.4842" lon="-2.70539">
        <ele>55</ele>
        <time>2013-12-13T08:21:29Z</time>
      </trkpt>
      <trkpt lat="48.48416" lon="-2.7054">
        <ele>56</ele>
        <time>2013-12-13T08:21:31Z</time>
      </trkpt>
      <trkpt lat="48.48412" lon="-2.70539">
        <ele>56</ele>
        <time>2013-12-13T08:21:33Z</time>
      </trkpt>
      <trkpt lat="48.48409" lon="-2.7054">
        <ele>56</ele>
        <time>2013-12-13T08:21:35Z</time>
      </trkpt>
      <trkpt lat="48.48406" lon="-2.70541">
        <ele>56</ele>
        <time>2013-12-13T08:21:37Z</time>
      </trkpt>
      <trkpt lat="48.48402" lon="-2.70542">
        <ele>56</ele>
        <time>2013-12-13T08:21:39Z</time>
      </trkpt>
      <trkpt lat="48.48399" lon="-2.70542">
        <ele>57</ele>
        <time>2013-12-13T08:21:41Z</time>
      </trkpt>
      <trkpt lat="48.48396" lon="-2.70541">
        <ele>58</ele>
        <time>2013-12-13T08:21:43Z</time>
      </trkpt>
      <trkpt lat="48.48393" lon="-2.7054">
        <ele>59</ele>
        <time>2013-12-13T08:21:45Z</time>
      </trkpt>
      <trkpt lat="48.4839" lon="-2.70538">
        <ele>59</ele>
        <time>2013-12-13T08:21:47Z</time>
      </trkpt>
      <trkpt lat="48.48388" lon="-2.70536">
        <ele>60</ele>
        <time>2013-12-13T08:21:49Z</time>
      </trkpt>
      <trkpt lat="48.48384" lon="-2.70535">
        <ele>61</ele>
        <time>2013-12-13T08:21:51Z</time>
      </trkpt>
      <trkpt lat="48.48381" lon="-2.70533">
        <ele>63</ele>
        <time>2013-12-13T08:21:53Z</time>
      </trkpt>
      <trkpt lat="48.48379" lon="-2.70531">
        <ele>65</ele>
        <time>2013-12-13T08:21:55Z</time>
      </trkpt>
      <trkpt lat="48.48376" lon="-2.70529">
        <ele>66</ele>
        <time>2013-12-13T08:21:57Z</time>
      </trkpt>
      <trkpt lat="48.48374" lon="-2.70526">
        <ele>66</ele>
        <time>2013-12-13T08:21:59Z</time>
      </trkpt>
      <trkpt lat="48.48372" lon="-2.70523">
        <ele>67</ele>
        <time>2013-12-13T08:22:01Z</time>
      </trkpt>
      <trkpt lat="48.48368" lon="-2.70519">
        <ele>67</ele>
        <time>2013-12-13T08:22:04Z</time>
      </trkpt>
      <trkpt lat="48.48366" lon="-2.70517">
        <ele>68</ele>
        <time>2013-12-13T08:22:06Z</time>
      </trkpt>
      <trkpt lat="48.48364" lon="-2.70514">
        <ele>68</ele>
        <time>2013-12-13T08:22:08Z</time>
      </trkpt>
      <trkpt lat="48.48361" lon="-2.70511">
        <ele>68</ele>
        <time>2013-12-13T08:22:10Z</time>
      </trkpt>
      <trkpt lat="48.48359" lon="-2.70508">
        <ele>68</ele>
        <time>2013-12-13T08:22:12Z</time>
      </trkpt>
      <trkpt lat="48.48357" lon="-2.70505">
        <ele>68</ele>
        <time>2013-12-13T08:22:14Z</time>
      </trkpt>
      <trkpt lat="48.48356" lon="-2.70503">
        <ele>68</ele>
        <time>2013-12-13T08:22:16Z</time>
      </trkpt>
      <trkpt lat="48.48355" lon="-2.70501">
        <ele>68</ele>
        <time>2013-12-13T08:22:19Z</time>
      </trkpt>
      <trkpt lat="48.48354" lon="-2.705">
        <ele>69</ele>
        <time>2013-12-13T08:22:22Z</time>
      </trkpt>
      <trkpt lat="48.48352" lon="-2.70499">
        <ele>70</ele>
        <time>2013-12-13T08:22:25Z</time>
      </trkpt>
      <trkpt lat="48.48351" lon="-2.70497">
        <ele>70</ele>
        <time>2013-12-13T08:22:28Z</time>
      </trkpt>
      <trkpt lat="48.4835" lon="-2.70496">
        <ele>70</ele>
        <time>2013-12-13T08:22:30Z</time>
      </trkpt>
      <trkpt lat="48.48347" lon="-2.70493">
        <ele>70</ele>
        <time>2013-12-13T08:22:32Z</time>
      </trkpt>
      <trkpt lat="48.48344" lon="-2.70489">
        <ele>70</ele>
        <time>2013-12-13T08:22:35Z</time>
      </trkpt>
      <trkpt lat="48.48342" lon="-2.70486">
        <ele>70</ele>
        <time>2013-12-13T08:22:37Z</time>
      </trkpt>
      <trkpt lat="48.4834" lon="-2.70483">
        <ele>70</ele>
        <time>2013-12-13T08:22:39Z</time>
      </trkpt>
      <trkpt lat="48.48338" lon="-2.70481">
        <ele>70</ele>
        <time>2013-12-13T08:22:41Z</time>
      </trkpt>
      <trkpt lat="48.48335" lon="-2.70478">
        <ele>70</ele>
        <time>2013-12-13T08:22:43Z</time>
      </trkpt>
      <trkpt lat="48.48333" lon="-2.70476">
        <ele>70</ele>
        <time>2013-12-13T08:22:45Z</time>
      </trkpt>
      <trkpt lat="48.4833" lon="-2.70473">
        <ele>70</ele>
        <time>2013-12-13T08:22:47Z</time>
      </trkpt>
      <trkpt lat="48.48328" lon="-2.7047">
        <ele>70</ele>
        <time>2013-12-13T08:22:49Z</time>
      </trkpt>
      <trkpt lat="48.48325" lon="-2.70467">
        <ele>70</ele>
        <time>2013-12-13T08:22:51Z</time>
      </trkpt>
      <trkpt lat="48.48323" lon="-2.70464">
        <ele>70</ele>
        <time>2013-12-13T08:22:53Z</time>
      </trkpt>
      <trkpt lat="48.4832" lon="-2.70462">
        <ele>70</ele>
        <time>2013-12-13T08:22:55Z</time>
      </trkpt>
      <trkpt lat="48.48318" lon="-2.70459">
        <ele>70</ele>
        <time>2013-12-13T08:22:57Z</time>
      </trkpt>
      <trkpt lat="48.48315" lon="-2.70456">
        <ele>71</ele>
        <time>2013-12-13T08:22:59Z</time>
      </trkpt>
      <trkpt lat="48.48312" lon="-2.70452">
        <ele>71</ele>
        <time>2013-12-13T08:23:02Z</time>
      </trkpt>
      <trkpt lat="48.4831" lon="-2.70449">
        <ele>71</ele>
        <time>2013-12-13T08:23:04Z</time>
      </trkpt>
      <trkpt lat="48.48307" lon="-2.70446">
        <ele>71</ele>
        <time>2013-12-13T08:23:06Z</time>
      </trkpt>
      <trkpt lat="48.48305" lon="-2.70443">
        <ele>71</ele>
        <time>2013-12-13T08:23:08Z</time>
      </trkpt>
      <trkpt lat="48.48301" lon="-2.70439">
        <ele>71</ele>
        <time>2013-12-13T08:23:11Z</time>
      </trkpt>
      <trkpt lat="48.48299" lon="-2.70436">
        <ele>71</ele>
        <time>2013-12-13T08:23:13Z</time>
      </trkpt>
      <trkpt lat="48.48296" lon="-2.70433">
        <ele>71</ele>
        <time>2013-12-13T08:23:15Z</time>
      </trkpt>
      <trkpt lat="48.48294" lon="-2.7043">
        <ele>71</ele>
        <time>2013-12-13T08:23:17Z</time>
      </trkpt>
      <trkpt lat="48.48291" lon="-2.70428">
        <ele>71</ele>
        <time>2013-12-13T08:23:19Z</time>
      </trkpt>
      <trkpt lat="48.48289" lon="-2.70425">
        <ele>71</ele>
        <time>2013-12-13T08:23:21Z</time>
      </trkpt>
      <trkpt lat="48.48287" lon="-2.70422">
        <ele>71</ele>
        <time>2013-12-13T08:23:23Z</time>
      </trkpt>
      <trkpt lat="48.48285" lon="-2.70418">
        <ele>71</ele>
        <time>2013-12-13T08:23:25Z</time>
      </trkpt>
      <trkpt lat="48.48283" lon="-2.70415">
        <ele>71</ele>
        <time>2013-12-13T08:23:27Z</time>
      </trkpt>
      <trkpt lat="48.48281" lon="-2.70412">
        <ele>71</ele>
        <time>2013-12-13T08:23:29Z</time>
      </trkpt>
      <trkpt lat="48.48278" lon="-2.7041">
        <ele>71</ele>
        <time>2013-12-13T08:23:31Z</time>
      </trkpt>
      <trkpt lat="48.48276" lon="-2.70407">
        <ele>72</ele>
        <time>2013-12-13T08:23:33Z</time>
      </trkpt>
      <trkpt lat="48.48274" lon="-2.70405">
        <ele>72</ele>
        <time>2013-12-13T08:23:35Z</time>
      </trkpt>
      <trkpt lat="48.48271" lon="-2.70402">
        <ele>72</ele>
        <time>2013-12-13T08:23:37Z</time>
      </trkpt>
      <trkpt lat="48.48269" lon="-2.70399">
        <ele>72</ele>
        <time>2013-12-13T08:23:39Z</time>
      </trkpt>
      <trkpt lat="48.48267" lon="-2.70396">
        <ele>73</ele>
        <time>2013-12-13T08:23:41Z</time>
      </trkpt>
      <trkpt lat="48.48265" lon="-2.70393">
        <ele>73</ele>
        <time>2013-12-13T08:23:43Z</time>
      </trkpt>
      <trkpt lat="48.48261" lon="-2.70389">
        <ele>73</ele>
        <time>2013-12-13T08:23:46Z</time>
      </trkpt>
      <trkpt lat="48.48259" lon="-2.70386">
        <ele>73</ele>
        <time>2013-12-13T08:23:48Z</time>
      </trkpt>
      <trkpt lat="48.48257" lon="-2.70384">
        <ele>74</ele>
        <time>2013-12-13T08:23:50Z</time>
      </trkpt>
      <trkpt lat="48.48254" lon="-2.7038">
        <ele>74</ele>
        <time>2013-12-13T08:23:52Z</time>
      </trkpt>
      <trkpt lat="48.48252" lon="-2.70377">
        <ele>74</ele>
        <time>2013-12-13T08:23:54Z</time>
      </trkpt>
      <trkpt lat="48.4825" lon="-2.70374">
        <ele>74</ele>
        <time>2013-12-13T08:23:56Z</time>
      </trkpt>
      <trkpt lat="48.48247" lon="-2.70371">
        <ele>74</ele>
        <time>2013-12-13T08:23:58Z</time>
      </trkpt>
      <trkpt lat="48.48245" lon="-2.70368">
        <ele>74</ele>
        <time>2013-12-13T08:24:00Z</time>
      </trkpt>
      <trkpt lat="48.48243" lon="-2.70366">
        <ele>74</ele>
        <time>2013-12-13T08:24:02Z</time>
      </trkpt>
      <trkpt lat="48.4824" lon="-2.70361">
        <ele>74</ele>
        <time>2013-12-13T08:24:05Z</time>
      </trkpt>
      <trkpt lat="48.48237" lon="-2.70358">
        <ele>74</ele>
        <time>2013-12-13T08:24:07Z</time>
      </trkpt>
      <trkpt lat="48.48235" lon="-2.70356">
        <ele>74</ele>
        <time>2013-12-13T08:24:09Z</time>
      </trkpt>
      <trkpt lat="48.48233" lon="-2.70354">
        <ele>74</ele>
        <time>2013-12-13T08:24:11Z</time>
      </trkpt>
      <trkpt lat="48.4823" lon="-2.70352">
        <ele>74</ele>
        <time>2013-12-13T08:24:13Z</time>
      </trkpt>
      <trkpt lat="48.48227" lon="-2.70349">
        <ele>74</ele>
        <time>2013-12-13T08:24:15Z</time>
      </trkpt>
      <trkpt lat="48.48225" lon="-2.70346">
        <ele>74</ele>
        <time>2013-12-13T08:24:17Z</time>
      </trkpt>
      <trkpt lat="48.48222" lon="-2.70343">
        <ele>74</ele>
        <time>2013-12-13T08:24:19Z</time>
      </trkpt>
      <trkpt lat="48.4822" lon="-2.7034">
        <ele>74</ele>
        <time>2013-12-13T08:24:21Z</time>
      </trkpt>
      <trkpt lat="48.48217" lon="-2.70338">
        <ele>74</ele>
        <time>2013-12-13T08:24:23Z</time>
      </trkpt>
      <trkpt lat="48.48214" lon="-2.70336">
        <ele>74</ele>
        <time>2013-12-13T08:24:25Z</time>
      </trkpt>
      <trkpt lat="48.4821" lon="-2.70334">
        <ele>74</ele>
        <time>2013-12-13T08:24:27Z</time>
      </trkpt>
      <trkpt lat="48.48207" lon="-2.70332">
        <ele>74</ele>
        <time>2013-12-13T08:24:29Z</time>
      </trkpt>
      <trkpt lat="48.48205" lon="-2.70329">
        <ele>74</ele>
        <time>2013-12-13T08:24:31Z</time>
      </trkpt>
      <trkpt lat="48.48202" lon="-2.70327">
        <ele>74</ele>
        <time>2013-12-13T08:24:33Z</time>
      </trkpt>
      <trkpt lat="48.48199" lon="-2.70325">
        <ele>74</ele>
        <time>2013-12-13T08:24:35Z</time>
      </trkpt>
      <trkpt lat="48.48196" lon="-2.70322">
        <ele>74</ele>
        <time>2013-12-13T08:24:37Z</time>
      </trkpt>
      <trkpt lat="48.48193" lon="-2.7032">
        <ele>74</ele>
        <time>2013-12-13T08:24:39Z</time>
      </trkpt>
      <trkpt lat="48.48191" lon="-2.70318">
        <ele>74</ele>
        <time>2013-12-13T08:24:41Z</time>
      </trkpt>
      <trkpt lat="48.48188" lon="-2.70315">
        <ele>74</ele>
        <time>2013-12-13T08:24:43Z</time>
      </trkpt>
      <trkpt lat="48.48185" lon="-2.70313">
        <ele>74</ele>
        <time>2013-12-13T08:24:45Z</time>
      </trkpt>
      <trkpt lat="48.48183" lon="-2.70311">
        <ele>74</ele>
        <time>2013-12-13T08:24:47Z</time>
      </trkpt>
      <trkpt lat="48.4818" lon="-2.70309">
        <ele>74</ele>
        <time>2013-12-13T08:24:49Z</time>
      </trkpt>
      <trkpt lat="48.48176" lon="-2.70307">
        <ele>74</ele>
        <time>2013-12-13T08:24:51Z</time>
      </trkpt>
      <trkpt lat="48.48173" lon="-2.70305">
        <ele>74</ele>
        <time>2013-12-13T08:24:53Z</time>
      </trkpt>
      <trkpt lat="48.48171" lon="-2.70302">
        <ele>74</ele>
        <time>2013-12-13T08:24:55Z</time>
      </trkpt>
      <trkpt lat="48.48168" lon="-2.703">
        <ele>73</ele>
        <time>2013-12-13T08:24:57Z</time>
      </trkpt>
      <trkpt lat="48.48166" lon="-2.70298">
        <ele>73</ele>
        <time>2013-12-13T08:24:59Z</time>
      </trkpt>
      <trkpt lat="48.48163" lon="-2.70296">
        <ele>72</ele>
        <time>2013-12-13T08:25:01Z</time>
      </trkpt>
      <trkpt lat="48.48161" lon="-2.70293">
        <ele>72</ele>
        <time>2013-12-13T08:25:03Z</time>
      </trkpt>
      <trkpt lat="48.48158" lon="-2.70291">
        <ele>72</ele>
        <time>2013-12-13T08:25:05Z</time>
      </trkpt>
      <trkpt lat="48.48156" lon="-2.70289">
        <ele>72</ele>
        <time>2013-12-13T08:25:07Z</time>
      </trkpt>
      <trkpt lat="48.48153" lon="-2.70285">
        <ele>72</ele>
        <time>2013-12-13T08:25:10Z</time>
      </trkpt>
      <trkpt lat="48.4815" lon="-2.70282">
        <ele>72</ele>
        <time>2013-12-13T08:25:12Z</time>
      </trkpt>
      <trkpt lat="48.48148" lon="-2.70278">
        <ele>72</ele>
        <time>2013-12-13T08:25:14Z</time>
      </trkpt>
      <trkpt lat="48.48146" lon="-2.70275">
        <ele>72</ele>
        <time>2013-12-13T08:25:16Z</time>
      </trkpt>
      <trkpt lat="48.48144" lon="-2.70271">
        <ele>72</ele>
        <time>2013-12-13T08:25:18Z</time>
      </trkpt>
      <trkpt lat="48.48143" lon="-2.70267">
        <ele>72</ele>
        <time>2013-12-13T08:25:20Z</time>
      </trkpt>
      <trkpt lat="48.48141" lon="-2.70263">
        <ele>72</ele>
        <time>2013-12-13T08:25:22Z</time>
      </trkpt>
      <trkpt lat="48.4814" lon="-2.70259">
        <ele>72</ele>
        <time>2013-12-13T08:25:24Z</time>
      </trkpt>
      <trkpt lat="48.48139" lon="-2.70255">
        <ele>72</ele>
        <time>2013-12-13T08:25:26Z</time>
      </trkpt>
      <trkpt lat="48.48138" lon="-2.70251">
        <ele>72</ele>
        <time>2013-12-13T08:25:28Z</time>
      </trkpt>
      <trkpt lat="48.48137" lon="-2.70247">
        <ele>72</ele>
        <time>2013-12-13T08:25:30Z</time>
      </trkpt>
      <trkpt lat="48.48136" lon="-2.70245">
        <ele>72</ele>
        <time>2013-12-13T08:25:32Z</time>
      </trkpt>
      <trkpt lat="48.48135" lon="-2.70243">
        <ele>72</ele>
        <time>2013-12-13T08:25:34Z</time>
      </trkpt>
      <trkpt lat="48.48136" lon="-2.70241">
        <ele>72</ele>
        <time>2013-12-13T08:25:49Z</time>
      </trkpt>
      <trkpt lat="48.48137" lon="-2.70241">
        <ele>72</ele>
        <time>2013-12-13T08:26:00Z</time>
      </trkpt>
      <trkpt lat="48.48138" lon="-2.70244">
        <ele>75</ele>
        <time>2013-12-13T08:27:56Z</time>
      </trkpt>
      <trkpt lat="48.48139" lon="-2.70248">
        <ele>75</ele>
        <time>2013-12-13T08:27:58Z</time>
      </trkpt>
      <trkpt lat="48.48139" lon="-2.70247">
        <ele>75</ele>
        <time>2013-12-13T08:28:03Z</time>
      </trkpt>
      <trkpt lat="48.48138" lon="-2.70247">
        <ele>75</ele>
        <time>2013-12-13T08:28:09Z</time>
      </trkpt>
      <trkpt lat="48.48139" lon="-2.70249">
        <ele>75</ele>
        <time>2013-12-13T08:28:11Z</time>
      </trkpt>
      <trkpt lat="48.4814" lon="-2.70251">
        <ele>75</ele>
        <time>2013-12-13T08:28:13Z</time>
      </trkpt>
      <trkpt lat="48.4814" lon="-2.70253">
        <ele>75</ele>
        <time>2013-12-13T08:28:15Z</time>
      </trkpt>
      <trkpt lat="48.48141" lon="-2.70256">
        <ele>75</ele>
        <time>2013-12-13T08:28:18Z</time>
      </trkpt>
      <trkpt lat="48.48142" lon="-2.70259">
        <ele>75</ele>
        <time>2013-12-13T08:28:20Z</time>
      </trkpt>
      <trkpt lat="48.48142" lon="-2.70262">
        <ele>75</ele>
        <time>2013-12-13T08:28:22Z</time>
      </trkpt>
      <trkpt lat="48.48144" lon="-2.70267">
        <ele>75</ele>
        <time>2013-12-13T08:28:25Z</time>
      </trkpt>
      <trkpt lat="48.48145" lon="-2.7027">
        <ele>75</ele>
        <time>2013-12-13T08:28:27Z</time>
      </trkpt>
      <trkpt lat="48.48148" lon="-2.70275">
        <ele>75</ele>
        <time>2013-12-13T08:28:30Z</time>
      </trkpt>
      <trkpt lat="48.48149" lon="-2.70278">
        <ele>75</ele>
        <time>2013-12-13T08:28:32Z</time>
      </trkpt>
      <trkpt lat="48.48151" lon="-2.70281">
        <ele>75</ele>
        <time>2013-12-13T08:28:34Z</time>
      </trkpt>
      <trkpt lat="48.48153" lon="-2.70283">
        <ele>75</ele>
        <time>2013-12-13T08:28:36Z</time>
      </trkpt>
      <trkpt lat="48.48156" lon="-2.70286">
        <ele>75</ele>
        <time>2013-12-13T08:28:38Z</time>
      </trkpt>
      <trkpt lat="48.48159" lon="-2.70289">
        <ele>75</ele>
        <time>2013-12-13T08:28:40Z</time>
      </trkpt>
      <trkpt lat="48.48161" lon="-2.70292">
        <ele>75</ele>
        <time>2013-12-13T08:28:42Z</time>
      </trkpt>
      <trkpt lat="48.48163" lon="-2.70294">
        <ele>75</ele>
        <time>2013-12-13T08:28:44Z</time>
      </trkpt>
      <trkpt lat="48.48166" lon="-2.70296">
        <ele>75</ele>
        <time>2013-12-13T08:28:46Z</time>
      </trkpt>
      <trkpt lat="48.48168" lon="-2.70298">
        <ele>75</ele>
        <time>2013-12-13T08:28:48Z</time>
      </trkpt>
      <trkpt lat="48.48171" lon="-2.703">
        <ele>75</ele>
        <time>2013-12-13T08:28:50Z</time>
      </trkpt>
      <trkpt lat="48.48173" lon="-2.70303">
        <ele>75</ele>
        <time>2013-12-13T08:28:52Z</time>
      </trkpt>
      <trkpt lat="48.48176" lon="-2.70305">
        <ele>75</ele>
        <time>2013-12-13T08:28:54Z</time>
      </trkpt>
      <trkpt lat="48.48179" lon="-2.70307">
        <ele>75</ele>
        <time>2013-12-13T08:28:56Z</time>
      </trkpt>
      <trkpt lat="48.48181" lon="-2.70309">
        <ele>75</ele>
        <time>2013-12-13T08:28:58Z</time>
      </trkpt>
      <trkpt lat="48.48184" lon="-2.70312">
        <ele>75</ele>
        <time>2013-12-13T08:29:00Z</time>
      </trkpt>
      <trkpt lat="48.48187" lon="-2.70314">
        <ele>75</ele>
        <time>2013-12-13T08:29:02Z</time>
      </trkpt>
      <trkpt lat="48.48189" lon="-2.70318">
        <ele>75</ele>
        <time>2013-12-13T08:29:04Z</time>
      </trkpt>
      <trkpt lat="48.48191" lon="-2.7032">
        <ele>75</ele>
        <time>2013-12-13T08:29:06Z</time>
      </trkpt>
      <trkpt lat="48.48194" lon="-2.70323">
        <ele>75</ele>
        <time>2013-12-13T08:29:08Z</time>
      </trkpt>
      <trkpt lat="48.48197" lon="-2.70325">
        <ele>75</ele>
        <time>2013-12-13T08:29:10Z</time>
      </trkpt>
      <trkpt lat="48.482" lon="-2.70326">
        <ele>75</ele>
        <time>2013-12-13T08:29:12Z</time>
      </trkpt>
      <trkpt lat="48.48202" lon="-2.70328">
        <ele>75</ele>
        <time>2013-12-13T08:29:14Z</time>
      </trkpt>
      <trkpt lat="48.48204" lon="-2.7033">
        <ele>75</ele>
        <time>2013-12-13T08:29:16Z</time>
      </trkpt>
      <trkpt lat="48.48207" lon="-2.70332">
        <ele>75</ele>
        <time>2013-12-13T08:29:18Z</time>
      </trkpt>
      <trkpt lat="48.48209" lon="-2.70334">
        <ele>75</ele>
        <time>2013-12-13T08:29:20Z</time>
      </trkpt>
      <trkpt lat="48.48212" lon="-2.70336">
        <ele>75</ele>
        <time>2013-12-13T08:29:22Z</time>
      </trkpt>
      <trkpt lat="48.48215" lon="-2.70338">
        <ele>75</ele>
        <time>2013-12-13T08:29:24Z</time>
      </trkpt>
      <trkpt lat="48.48218" lon="-2.7034">
        <ele>75</ele>
        <time>2013-12-13T08:29:26Z</time>
      </trkpt>
      <trkpt lat="48.4822" lon="-2.70343">
        <ele>75</ele>
        <time>2013-12-13T08:29:28Z</time>
      </trkpt>
      <trkpt lat="48.48223" lon="-2.70345">
        <ele>75</ele>
        <time>2013-12-13T08:29:30Z</time>
      </trkpt>
      <trkpt lat="48.48225" lon="-2.70347">
        <ele>75</ele>
        <time>2013-12-13T08:29:32Z</time>
      </trkpt>
      <trkpt lat="48.48227" lon="-2.7035">
        <ele>75</ele>
        <time>2013-12-13T08:29:34Z</time>
      </trkpt>
      <trkpt lat="48.4823" lon="-2.70353">
        <ele>75</ele>
        <time>2013-12-13T08:29:36Z</time>
      </trkpt>
      <trkpt lat="48.48232" lon="-2.70355">
        <ele>75</ele>
        <time>2013-12-13T08:29:38Z</time>
      </trkpt>
      <trkpt lat="48.48235" lon="-2.70358">
        <ele>75</ele>
        <time>2013-12-13T08:29:40Z</time>
      </trkpt>
      <trkpt lat="48.48237" lon="-2.7036">
        <ele>75</ele>
        <time>2013-12-13T08:29:42Z</time>
      </trkpt>
      <trkpt lat="48.48239" lon="-2.70363">
        <ele>75</ele>
        <time>2013-12-13T08:29:44Z</time>
      </trkpt>
      <trkpt lat="48.48242" lon="-2.70366">
        <ele>75</ele>
        <time>2013-12-13T08:29:46Z</time>
      </trkpt>
      <trkpt lat="48.48244" lon="-2.70369">
        <ele>75</ele>
        <time>2013-12-13T08:29:48Z</time>
      </trkpt>
      <trkpt lat="48.48246" lon="-2.70372">
        <ele>75</ele>
        <time>2013-12-13T08:29:50Z</time>
      </trkpt>
      <trkpt lat="48.4825" lon="-2.70376">
        <ele>75</ele>
        <time>2013-12-13T08:29:53Z</time>
      </trkpt>
      <trkpt lat="48.48252" lon="-2.70379">
        <ele>75</ele>
        <time>2013-12-13T08:29:55Z</time>
      </trkpt>
      <trkpt lat="48.48254" lon="-2.70381">
        <ele>75</ele>
        <time>2013-12-13T08:29:57Z</time>
      </trkpt>
      <trkpt lat="48.48257" lon="-2.70384">
        <ele>75</ele>
        <time>2013-12-13T08:29:59Z</time>
      </trkpt>
      <trkpt lat="48.48259" lon="-2.70387">
        <ele>75</ele>
        <time>2013-12-13T08:30:01Z</time>
      </trkpt>
      <trkpt lat="48.48261" lon="-2.7039">
        <ele>75</ele>
        <time>2013-12-13T08:30:03Z</time>
      </trkpt>
      <trkpt lat="48.48264" lon="-2.70392">
        <ele>75</ele>
        <time>2013-12-13T08:30:05Z</time>
      </trkpt>
      <trkpt lat="48.48266" lon="-2.70395">
        <ele>75</ele>
        <time>2013-12-13T08:30:07Z</time>
      </trkpt>
      <trkpt lat="48.48268" lon="-2.70398">
        <ele>75</ele>
        <time>2013-12-13T08:30:09Z</time>
      </trkpt>
      <trkpt lat="48.4827" lon="-2.70401">
        <ele>75</ele>
        <time>2013-12-13T08:30:11Z</time>
      </trkpt>
      <trkpt lat="48.48273" lon="-2.70404">
        <ele>75</ele>
        <time>2013-12-13T08:30:13Z</time>
      </trkpt>
      <trkpt lat="48.48275" lon="-2.70407">
        <ele>75</ele>
        <time>2013-12-13T08:30:15Z</time>
      </trkpt>
      <trkpt lat="48.48279" lon="-2.70411">
        <ele>75</ele>
        <time>2013-12-13T08:30:18Z</time>
      </trkpt>
      <trkpt lat="48.48281" lon="-2.70414">
        <ele>75</ele>
        <time>2013-12-13T08:30:20Z</time>
      </trkpt>
      <trkpt lat="48.48284" lon="-2.70417">
        <ele>75</ele>
        <time>2013-12-13T08:30:22Z</time>
      </trkpt>
      <trkpt lat="48.48286" lon="-2.7042">
        <ele>75</ele>
        <time>2013-12-13T08:30:24Z</time>
      </trkpt>
      <trkpt lat="48.48289" lon="-2.70423">
        <ele>75</ele>
        <time>2013-12-13T08:30:26Z</time>
      </trkpt>
      <trkpt lat="48.48291" lon="-2.70426">
        <ele>75</ele>
        <time>2013-12-13T08:30:28Z</time>
      </trkpt>
      <trkpt lat="48.48294" lon="-2.70429">
        <ele>75</ele>
        <time>2013-12-13T08:30:30Z</time>
      </trkpt>
      <trkpt lat="48.48296" lon="-2.70431">
        <ele>75</ele>
        <time>2013-12-13T08:30:32Z</time>
      </trkpt>
      <trkpt lat="48.48299" lon="-2.70434">
        <ele>75</ele>
        <time>2013-12-13T08:30:34Z</time>
      </trkpt>
      <trkpt lat="48.48301" lon="-2.70437">
        <ele>75</ele>
        <time>2013-12-13T08:30:36Z</time>
      </trkpt>
      <trkpt lat="48.48304" lon="-2.7044">
        <ele>75</ele>
        <time>2013-12-13T08:30:38Z</time>
      </trkpt>
      <trkpt lat="48.48306" lon="-2.70443">
        <ele>75</ele>
        <time>2013-12-13T08:30:40Z</time>
      </trkpt>
      <trkpt lat="48.48309" lon="-2.70446">
        <ele>75</ele>
        <time>2013-12-13T08:30:42Z</time>
      </trkpt>
      <trkpt lat="48.48311" lon="-2.70449">
        <ele>75</ele>
        <time>2013-12-13T08:30:44Z</time>
      </trkpt>
      <trkpt lat="48.48313" lon="-2.70451">
        <ele>75</ele>
        <time>2013-12-13T08:30:46Z</time>
      </trkpt>
      <trkpt lat="48.48315" lon="-2.70454">
        <ele>75</ele>
        <time>2013-12-13T08:30:48Z</time>
      </trkpt>
      <trkpt lat="48.48317" lon="-2.70458">
        <ele>75</ele>
        <time>2013-12-13T08:30:50Z</time>
      </trkpt>
      <trkpt lat="48.4832" lon="-2.70461">
        <ele>75</ele>
        <time>2013-12-13T08:30:52Z</time>
      </trkpt>
      <trkpt lat="48.48323" lon="-2.70464">
        <ele>75</ele>
        <time>2013-12-13T08:30:54Z</time>
      </trkpt>
      <trkpt lat="48.48325" lon="-2.70466">
        <ele>75</ele>
        <time>2013-12-13T08:30:56Z</time>
      </trkpt>
      <trkpt lat="48.48328" lon="-2.70469">
        <ele>75</ele>
        <time>2013-12-13T08:30:58Z</time>
      </trkpt>
      <trkpt lat="48.48331" lon="-2.70474">
        <ele>75</ele>
        <time>2013-12-13T08:31:01Z</time>
      </trkpt>
      <trkpt lat="48.48333" lon="-2.70477">
        <ele>75</ele>
        <time>2013-12-13T08:31:03Z</time>
      </trkpt>
      <trkpt lat="48.48336" lon="-2.7048">
        <ele>75</ele>
        <time>2013-12-13T08:31:05Z</time>
      </trkpt>
      <trkpt lat="48.48338" lon="-2.70483">
        <ele>75</ele>
        <time>2013-12-13T08:31:07Z</time>
      </trkpt>
      <trkpt lat="48.48341" lon="-2.70486">
        <ele>75</ele>
        <time>2013-12-13T08:31:09Z</time>
      </trkpt>
      <trkpt lat="48.48343" lon="-2.70489">
        <ele>75</ele>
        <time>2013-12-13T08:31:11Z</time>
      </trkpt>
      <trkpt lat="48.48346" lon="-2.70493">
        <ele>75</ele>
        <time>2013-12-13T08:31:13Z</time>
      </trkpt>
      <trkpt lat="48.48348" lon="-2.70496">
        <ele>75</ele>
        <time>2013-12-13T08:31:15Z</time>
      </trkpt>
      <trkpt lat="48.4835" lon="-2.70499">
        <ele>75</ele>
        <time>2013-12-13T08:31:17Z</time>
      </trkpt>
      <trkpt lat="48.48353" lon="-2.70502">
        <ele>75</ele>
        <time>2013-12-13T08:31:19Z</time>
      </trkpt>
      <trkpt lat="48.48356" lon="-2.70505">
        <ele>75</ele>
        <time>2013-12-13T08:31:21Z</time>
      </trkpt>
      <trkpt lat="48.48358" lon="-2.70508">
        <ele>75</ele>
        <time>2013-12-13T08:31:23Z</time>
      </trkpt>
      <trkpt lat="48.48361" lon="-2.70511">
        <ele>75</ele>
        <time>2013-12-13T08:31:25Z</time>
      </trkpt>
      <trkpt lat="48.48363" lon="-2.70514">
        <ele>75</ele>
        <time>2013-12-13T08:31:27Z</time>
      </trkpt>
      <trkpt lat="48.48366" lon="-2.70517">
        <ele>75</ele>
        <time>2013-12-13T08:31:29Z</time>
      </trkpt>
      <trkpt lat="48.48368" lon="-2.70521">
        <ele>75</ele>
        <time>2013-12-13T08:31:31Z</time>
      </trkpt>
      <trkpt lat="48.48371" lon="-2.70524">
        <ele>75</ele>
        <time>2013-12-13T08:31:33Z</time>
      </trkpt>
      <trkpt lat="48.48373" lon="-2.70527">
        <ele>75</ele>
        <time>2013-12-13T08:31:35Z</time>
      </trkpt>
      <trkpt lat="48.48376" lon="-2.7053">
        <ele>75</ele>
        <time>2013-12-13T08:31:37Z</time>
      </trkpt>
      <trkpt lat="48.48379" lon="-2.70533">
        <ele>75</ele>
        <time>2013-12-13T08:31:39Z</time>
      </trkpt>
      <trkpt lat="48.48382" lon="-2.70536">
        <ele>75</ele>
        <time>2013-12-13T08:31:41Z</time>
      </trkpt>
      <trkpt lat="48.48385" lon="-2.70538">
        <ele>75</ele>
        <time>2013-12-13T08:31:43Z</time>
      </trkpt>
      <trkpt lat="48.48388" lon="-2.70541">
        <ele>74</ele>
        <time>2013-12-13T08:31:45Z</time>
      </trkpt>
      <trkpt lat="48.48391" lon="-2.70543">
        <ele>74</ele>
        <time>2013-12-13T08:31:47Z</time>
      </trkpt>
      <trkpt lat="48.48394" lon="-2.70546">
        <ele>73</ele>
        <time>2013-12-13T08:31:50Z</time>
      </trkpt>
      <trkpt lat="48.48396" lon="-2.70549">
        <ele>72</ele>
        <time>2013-12-13T08:31:52Z</time>
      </trkpt>
      <trkpt lat="48.48399" lon="-2.70551">
        <ele>71</ele>
        <time>2013-12-13T08:31:54Z</time>
      </trkpt>
      <trkpt lat="48.48401" lon="-2.70552">
        <ele>70</ele>
        <time>2013-12-13T08:31:56Z</time>
      </trkpt>
      <trkpt lat="48.48403" lon="-2.70554">
        <ele>69</ele>
        <time>2013-12-13T08:31:58Z</time>
      </trkpt>
      <trkpt lat="48.48406" lon="-2.70555">
        <ele>69</ele>
        <time>2013-12-13T08:32:00Z</time>
      </trkpt>
      <trkpt lat="48.48409" lon="-2.70555">
        <ele>69</ele>
        <time>2013-12-13T08:32:02Z</time>
      </trkpt>
      <trkpt lat="48.48412" lon="-2.70555">
        <ele>69</ele>
        <time>2013-12-13T08:32:04Z</time>
      </trkpt>
      <trkpt lat="48.48415" lon="-2.70554">
        <ele>68</ele>
        <time>2013-12-13T08:32:06Z</time>
      </trkpt>
      <trkpt lat="48.48418" lon="-2.70554">
        <ele>68</ele>
        <time>2013-12-13T08:32:08Z</time>
      </trkpt>
      <trkpt lat="48.48421" lon="-2.70553">
        <ele>68</ele>
        <time>2013-12-13T08:32:10Z</time>
      </trkpt>
      <trkpt lat="48.48425" lon="-2.70552">
        <ele>68</ele>
        <time>2013-12-13T08:32:12Z</time>
      </trkpt>
      <trkpt lat="48.48428" lon="-2.70551">
        <ele>68</ele>
        <time>2013-12-13T08:32:14Z</time>
      </trkpt>
      <trkpt lat="48.48428" lon="-2.70546">
        <ele>67</ele>
        <time>2013-12-13T08:32:28Z</time>
      </trkpt>
      <trkpt lat="48.48441" lon="-2.70545">
        <ele>66</ele>
        <time>2013-12-13T08:32:30Z</time>
      </trkpt>
      <trkpt lat="48.48449" lon="-2.70542">
        <ele>66</ele>
        <time>2013-12-13T08:32:32Z</time>
      </trkpt>
      <trkpt lat="48.48454" lon="-2.7054">
        <ele>66</ele>
        <time>2013-12-13T08:32:34Z</time>
      </trkpt>
      <trkpt lat="48.48458" lon="-2.70538">
        <ele>66</ele>
        <time>2013-12-13T08:32:36Z</time>
      </trkpt>
      <trkpt lat="48.48461" lon="-2.70536">
        <ele>66</ele>
        <time>2013-12-13T08:32:38Z</time>
      </trkpt>
      <trkpt lat="48.48465" lon="-2.70534">
        <ele>66</ele>
        <time>2013-12-13T08:32:40Z</time>
      </trkpt>
      <trkpt lat="48.48468" lon="-2.70533">
        <ele>66</ele>
        <time>2013-12-13T08:32:42Z</time>
      </trkpt>
      <trkpt lat="48.48471" lon="-2.70532">
        <ele>66</ele>
        <time>2013-12-13T08:32:44Z</time>
      </trkpt>
      <trkpt lat="48.48474" lon="-2.7053">
        <ele>66</ele>
        <time>2013-12-13T08:32:46Z</time>
      </trkpt>
      <trkpt lat="48.48477" lon="-2.70528">
        <ele>66</ele>
        <time>2013-12-13T08:32:48Z</time>
      </trkpt>
      <trkpt lat="48.4848" lon="-2.70527">
        <ele>66</ele>
        <time>2013-12-13T08:32:50Z</time>
      </trkpt>
      <trkpt lat="48.48484" lon="-2.70524">
        <ele>67</ele>
        <time>2013-12-13T08:32:53Z</time>
      </trkpt>
      <trkpt lat="48.48486" lon="-2.70522">
        <ele>67</ele>
        <time>2013-12-13T08:32:55Z</time>
      </trkpt>
      <trkpt lat="48.48489" lon="-2.70521">
        <ele>67</ele>
        <time>2013-12-13T08:32:57Z</time>
      </trkpt>
      <trkpt lat="48.48491" lon="-2.70519">
        <ele>67</ele>
        <time>2013-12-13T08:32:59Z</time>
      </trkpt>
      <trkpt lat="48.48494" lon="-2.70518">
        <ele>67</ele>
        <time>2013-12-13T08:33:01Z</time>
      </trkpt>
      <trkpt lat="48.48497" lon="-2.70517">
        <ele>67</ele>
        <time>2013-12-13T08:33:03Z</time>
      </trkpt>
      <trkpt lat="48.485" lon="-2.70515">
        <ele>67</ele>
        <time>2013-12-13T08:33:05Z</time>
      </trkpt>
      <trkpt lat="48.48503" lon="-2.70514">
        <ele>67</ele>
        <time>2013-12-13T08:33:07Z</time>
      </trkpt>
      <trkpt lat="48.48507" lon="-2.70512">
        <ele>67</ele>
        <time>2013-12-13T08:33:09Z</time>
      </trkpt>
      <trkpt lat="48.4851" lon="-2.7051">
        <ele>68</ele>
        <time>2013-12-13T08:33:11Z</time>
      </trkpt>
      <trkpt lat="48.48513" lon="-2.70509">
        <ele>69</ele>
        <time>2013-12-13T08:33:13Z</time>
      </trkpt>
      <trkpt lat="48.48515" lon="-2.70507">
        <ele>69</ele>
        <time>2013-12-13T08:33:15Z</time>
      </trkpt>
      <trkpt lat="48.48519" lon="-2.70506">
        <ele>69</ele>
        <time>2013-12-13T08:33:18Z</time>
      </trkpt>
      <trkpt lat="48.48521" lon="-2.70505">
        <ele>69</ele>
        <time>2013-12-13T08:33:20Z</time>
      </trkpt>
      <trkpt lat="48.48525" lon="-2.70503">
        <ele>70</ele>
        <time>2013-12-13T08:33:22Z</time>
      </trkpt>
      <trkpt lat="48.48528" lon="-2.70502">
        <ele>70</ele>
        <time>2013-12-13T08:33:24Z</time>
      </trkpt>
      <trkpt lat="48.4853" lon="-2.705">
        <ele>71</ele>
        <time>2013-12-13T08:33:26Z</time>
      </trkpt>
      <trkpt lat="48.48533" lon="-2.70499">
        <ele>71</ele>
        <time>2013-12-13T08:33:28Z</time>
      </trkpt>
      <trkpt lat="48.48536" lon="-2.70498">
        <ele>72</ele>
        <time>2013-12-13T08:33:30Z</time>
      </trkpt>
      <trkpt lat="48.48539" lon="-2.70496">
        <ele>72</ele>
        <time>2013-12-13T08:33:32Z</time>
      </trkpt>
      <trkpt lat="48.48542" lon="-2.70494">
        <ele>72</ele>
        <time>2013-12-13T08:33:34Z</time>
      </trkpt>
      <trkpt lat="48.48545" lon="-2.70493">
        <ele>73</ele>
        <time>2013-12-13T08:33:36Z</time>
      </trkpt>
      <trkpt lat="48.48548" lon="-2.70491">
        <ele>73</ele>
        <time>2013-12-13T08:33:38Z</time>
      </trkpt>
      <trkpt lat="48.48551" lon="-2.7049">
        <ele>73</ele>
        <time>2013-12-13T08:33:40Z</time>
      </trkpt>
      <trkpt lat="48.48554" lon="-2.70489">
        <ele>74</ele>
        <time>2013-12-13T08:33:42Z</time>
      </trkpt>
      <trkpt lat="48.48557" lon="-2.70489">
        <ele>74</ele>
        <time>2013-12-13T08:33:44Z</time>
      </trkpt>
      <trkpt lat="48.4856" lon="-2.7049">
        <ele>74</ele>
        <time>2013-12-13T08:33:46Z</time>
      </trkpt>
      <trkpt lat="48.48563" lon="-2.7049">
        <ele>74</ele>
        <time>2013-12-13T08:33:48Z</time>
      </trkpt>
      <trkpt lat="48.48566" lon="-2.7049">
        <ele>75</ele>
        <time>2013-12-13T08:33:50Z</time>
      </trkpt>
      <trkpt lat="48.48569" lon="-2.70491">
        <ele>75</ele>
        <time>2013-12-13T08:33:52Z</time>
      </trkpt>
      <trkpt lat="48.48571" lon="-2.70492">
        <ele>75</ele>
        <time>2013-12-13T08:33:54Z</time>
      </trkpt>
      <trkpt lat="48.48574" lon="-2.70493">
        <ele>75</ele>
        <time>2013-12-13T08:33:56Z</time>
      </trkpt>
      <trkpt lat="48.48577" lon="-2.70494">
        <ele>75</ele>
        <time>2013-12-13T08:33:58Z</time>
      </trkpt>
      <trkpt lat="48.4858" lon="-2.70495">
        <ele>75</ele>
        <time>2013-12-13T08:34:00Z</time>
      </trkpt>
      <trkpt lat="48.48583" lon="-2.70495">
        <ele>75</ele>
        <time>2013-12-13T08:34:02Z</time>
      </trkpt>
      <trkpt lat="48.48586" lon="-2.70496">
        <ele>76</ele>
        <time>2013-12-13T08:34:04Z</time>
      </trkpt>
      <trkpt lat="48.48588" lon="-2.70497">
        <ele>76</ele>
        <time>2013-12-13T08:34:06Z</time>
      </trkpt>
      <trkpt lat="48.48592" lon="-2.70498">
        <ele>76</ele>
        <time>2013-12-13T08:34:08Z</time>
      </trkpt>
      <trkpt lat="48.48595" lon="-2.70499">
        <ele>76</ele>
        <time>2013-12-13T08:34:10Z</time>
      </trkpt>
      <trkpt lat="48.48597" lon="-2.70501">
        <ele>77</ele>
        <time>2013-12-13T08:34:12Z</time>
      </trkpt>
      <trkpt lat="48.486" lon="-2.70502">
        <ele>77</ele>
        <time>2013-12-13T08:34:14Z</time>
      </trkpt>
      <trkpt lat="48.48603" lon="-2.70503">
        <ele>78</ele>
        <time>2013-12-13T08:34:16Z</time>
      </trkpt>
      <trkpt lat="48.48606" lon="-2.70504">
        <ele>78</ele>
        <time>2013-12-13T08:34:18Z</time>
      </trkpt>
      <trkpt lat="48.48609" lon="-2.70504">
        <ele>78</ele>
        <time>2013-12-13T08:34:20Z</time>
      </trkpt>
      <trkpt lat="48.48612" lon="-2.70506">
        <ele>78</ele>
        <time>2013-12-13T08:34:22Z</time>
      </trkpt>
      <trkpt lat="48.48615" lon="-2.70507">
        <ele>79</ele>
        <time>2013-12-13T08:34:24Z</time>
      </trkpt>
      <trkpt lat="48.48618" lon="-2.70508">
        <ele>79</ele>
        <time>2013-12-13T08:34:26Z</time>
      </trkpt>
      <trkpt lat="48.48621" lon="-2.70509">
        <ele>79</ele>
        <time>2013-12-13T08:34:28Z</time>
      </trkpt>
      <trkpt lat="48.48624" lon="-2.7051">
        <ele>80</ele>
        <time>2013-12-13T08:34:30Z</time>
      </trkpt>
      <trkpt lat="48.48627" lon="-2.70511">
        <ele>80</ele>
        <time>2013-12-13T08:34:32Z</time>
      </trkpt>
      <trkpt lat="48.4863" lon="-2.70513">
        <ele>80</ele>
        <time>2013-12-13T08:34:34Z</time>
      </trkpt>
      <trkpt lat="48.48633" lon="-2.70514">
        <ele>80</ele>
        <time>2013-12-13T08:34:36Z</time>
      </trkpt>
      <trkpt lat="48.48635" lon="-2.70516">
        <ele>81</ele>
        <time>2013-12-13T08:34:38Z</time>
      </trkpt>
      <trkpt lat="48.48638" lon="-2.70517">
        <ele>81</ele>
        <time>2013-12-13T08:34:40Z</time>
      </trkpt>
      <trkpt lat="48.48641" lon="-2.70519">
        <ele>81</ele>
        <time>2013-12-13T08:34:42Z</time>
      </trkpt>
      <trkpt lat="48.48644" lon="-2.70521">
        <ele>82</ele>
        <time>2013-12-13T08:34:44Z</time>
      </trkpt>
      <trkpt lat="48.48647" lon="-2.70523">
        <ele>82</ele>
        <time>2013-12-13T08:34:46Z</time>
      </trkpt>
      <trkpt lat="48.4865" lon="-2.70525">
        <ele>82</ele>
        <time>2013-12-13T08:34:48Z</time>
      </trkpt>
      <trkpt lat="48.48653" lon="-2.70527">
        <ele>82</ele>
        <time>2013-12-13T08:34:50Z</time>
      </trkpt>
      <trkpt lat="48.48655" lon="-2.7053">
        <ele>82</ele>
        <time>2013-12-13T08:34:52Z</time>
      </trkpt>
      <trkpt lat="48.48658" lon="-2.70533">
        <ele>82</ele>
        <time>2013-12-13T08:34:54Z</time>
      </trkpt>
      <trkpt lat="48.4866" lon="-2.70536">
        <ele>82</ele>
        <time>2013-12-13T08:34:56Z</time>
      </trkpt>
      <trkpt lat="48.48663" lon="-2.70539">
        <ele>82</ele>
        <time>2013-12-13T08:34:58Z</time>
      </trkpt>
      <trkpt lat="48.48665" lon="-2.70542">
        <ele>82</ele>
        <time>2013-12-13T08:35:00Z</time>
      </trkpt>
      <trkpt lat="48.48667" lon="-2.70545">
        <ele>82</ele>
        <time>2013-12-13T08:35:02Z</time>
      </trkpt>
      <trkpt lat="48.48669" lon="-2.70549">
        <ele>82</ele>
        <time>2013-12-13T08:35:04Z</time>
      </trkpt>
      <trkpt lat="48.48671" lon="-2.70551">
        <ele>82</ele>
        <time>2013-12-13T08:35:06Z</time>
      </trkpt>
      <trkpt lat="48.48673" lon="-2.70554">
        <ele>82</ele>
        <time>2013-12-13T08:35:08Z</time>
      </trkpt>
      <trkpt lat="48.48675" lon="-2.70557">
        <ele>82</ele>
        <time>2013-12-13T08:35:10Z</time>
      </trkpt>
      <trkpt lat="48.48677" lon="-2.7056">
        <ele>82</ele>
        <time>2013-12-13T08:35:12Z</time>
      </trkpt>
      <trkpt lat="48.4868" lon="-2.70563">
        <ele>82</ele>
        <time>2013-12-13T08:35:15Z</time>
      </trkpt>
      <trkpt lat="48.48682" lon="-2.70565">
        <ele>82</ele>
        <time>2013-12-13T08:35:17Z</time>
      </trkpt>
      <trkpt lat="48.48683" lon="-2.70565">
        <ele>83</ele>
        <time>2013-12-13T08:35:26Z</time>
      </trkpt>
      <trkpt lat="48.48684" lon="-2.70562">
        <ele>83</ele>
        <time>2013-12-13T08:35:28Z</time>
      </trkpt>
      <trkpt lat="48.48685" lon="-2.70559">
        <ele>83</ele>
        <time>2013-12-13T08:35:30Z</time>
      </trkpt>
      <trkpt lat="48.48686" lon="-2.70555">
        <ele>83</ele>
        <time>2013-12-13T08:35:32Z</time>
      </trkpt>
      <trkpt lat="48.48688" lon="-2.70551">
        <ele>83</ele>
        <time>2013-12-13T08:35:34Z</time>
      </trkpt>
      <trkpt lat="48.48689" lon="-2.70548">
        <ele>83</ele>
        <time>2013-12-13T08:35:36Z</time>
      </trkpt>
      <trkpt lat="48.48691" lon="-2.70545">
        <ele>83</ele>
        <time>2013-12-13T08:35:38Z</time>
      </trkpt>
      <trkpt lat="48.48692" lon="-2.70542">
        <ele>83</ele>
        <time>2013-12-13T08:35:40Z</time>
      </trkpt>
      <trkpt lat="48.48694" lon="-2.70538">
        <ele>83</ele>
        <time>2013-12-13T08:35:42Z</time>
      </trkpt>
      <trkpt lat="48.48696" lon="-2.70534">
        <ele>83</ele>
        <time>2013-12-13T08:35:44Z</time>
      </trkpt>
      <trkpt lat="48.48697" lon="-2.70531">
        <ele>83</ele>
        <time>2013-12-13T08:35:46Z</time>
      </trkpt>
      <trkpt lat="48.48698" lon="-2.70527">
        <ele>83</ele>
        <time>2013-12-13T08:35:48Z</time>
      </trkpt>
      <trkpt lat="48.487" lon="-2.70523">
        <ele>83</ele>
        <time>2013-12-13T08:35:50Z</time>
      </trkpt>
      <trkpt lat="48.48701" lon="-2.70519">
        <ele>83</ele>
        <time>2013-12-13T08:35:52Z</time>
      </trkpt>
      <trkpt lat="48.48702" lon="-2.70515">
        <ele>83</ele>
        <time>2013-12-13T08:35:54Z</time>
      </trkpt>
      <trkpt lat="48.48703" lon="-2.70512">
        <ele>83</ele>
        <time>2013-12-13T08:35:56Z</time>
      </trkpt>
      <trkpt lat="48.48704" lon="-2.70507">
        <ele>83</ele>
        <time>2013-12-13T08:35:58Z</time>
      </trkpt>
      <trkpt lat="48.48705" lon="-2.70503">
        <ele>83</ele>
        <time>2013-12-13T08:36:00Z</time>
      </trkpt>
      <trkpt lat="48.48706" lon="-2.70499">
        <ele>83</ele>
        <time>2013-12-13T08:36:02Z</time>
      </trkpt>
      <trkpt lat="48.48706" lon="-2.70495">
        <ele>83</ele>
        <time>2013-12-13T08:36:04Z</time>
      </trkpt>
      <trkpt lat="48.48706" lon="-2.7049">
        <ele>83</ele>
        <time>2013-12-13T08:36:06Z</time>
      </trkpt>
      <trkpt lat="48.48707" lon="-2.70485">
        <ele>83</ele>
        <time>2013-12-13T08:36:08Z</time>
      </trkpt>
      <trkpt lat="48.48708" lon="-2.70481">
        <ele>83</ele>
        <time>2013-12-13T08:36:10Z</time>
      </trkpt>
      <trkpt lat="48.48708" lon="-2.70477">
        <ele>83</ele>
        <time>2013-12-13T08:36:12Z</time>
      </trkpt>
      <trkpt lat="48.48708" lon="-2.70472">
        <ele>83</ele>
        <time>2013-12-13T08:36:14Z</time>
      </trkpt>
      <trkpt lat="48.48709" lon="-2.70467">
        <ele>83</ele>
        <time>2013-12-13T08:36:16Z</time>
      </trkpt>
      <trkpt lat="48.48709" lon="-2.70463">
        <ele>83</ele>
        <time>2013-12-13T08:36:18Z</time>
      </trkpt>
      <trkpt lat="48.48709" lon="-2.70458">
        <ele>83</ele>
        <time>2013-12-13T08:36:20Z</time>
      </trkpt>
      <trkpt lat="48.4871" lon="-2.70454">
        <ele>83</ele>
        <time>2013-12-13T08:36:22Z</time>
      </trkpt>
      <trkpt lat="48.48711" lon="-2.7045">
        <ele>83</ele>
        <time>2013-12-13T08:36:24Z</time>
      </trkpt>
      <trkpt lat="48.48711" lon="-2.70445">
        <ele>82</ele>
        <time>2013-12-13T08:36:26Z</time>
      </trkpt>
      <trkpt lat="48.48711" lon="-2.70441">
        <ele>82</ele>
        <time>2013-12-13T08:36:28Z</time>
      </trkpt>
      <trkpt lat="48.48711" lon="-2.70437">
        <ele>81</ele>
        <time>2013-12-13T08:36:30Z</time>
      </trkpt>
      <trkpt lat="48.4871" lon="-2.70433">
        <ele>81</ele>
        <time>2013-12-13T08:36:32Z</time>
      </trkpt>
      <trkpt lat="48.48709" lon="-2.70428">
        <ele>81</ele>
        <time>2013-12-13T08:36:34Z</time>
      </trkpt>
      <trkpt lat="48.48708" lon="-2.70423">
        <ele>81</ele>
        <time>2013-12-13T08:36:36Z</time>
      </trkpt>
      <trkpt lat="48.48707" lon="-2.70418">
        <ele>81</ele>
        <time>2013-12-13T08:36:38Z</time>
      </trkpt>
      <trkpt lat="48.48706" lon="-2.70413">
        <ele>81</ele>
        <time>2013-12-13T08:36:40Z</time>
      </trkpt>
      <trkpt lat="48.48705" lon="-2.70409">
        <ele>81</ele>
        <time>2013-12-13T08:36:42Z</time>
      </trkpt>
      <trkpt lat="48.48704" lon="-2.70405">
        <ele>81</ele>
        <time>2013-12-13T08:36:44Z</time>
      </trkpt>
      <trkpt lat="48.48703" lon="-2.70401">
        <ele>80</ele>
        <time>2013-12-13T08:36:46Z</time>
      </trkpt>
      <trkpt lat="48.48702" lon="-2.70397">
        <ele>80</ele>
        <time>2013-12-13T08:36:48Z</time>
      </trkpt>
      <trkpt lat="48.48701" lon="-2.70393">
        <ele>79</ele>
        <time>2013-12-13T08:36:50Z</time>
      </trkpt>
      <trkpt lat="48.487" lon="-2.70388">
        <ele>79</ele>
        <time>2013-12-13T08:36:52Z</time>
      </trkpt>
      <trkpt lat="48.48699" lon="-2.70383">
        <ele>79</ele>
        <time>2013-12-13T08:36:54Z</time>
      </trkpt>
      <trkpt lat="48.48698" lon="-2.70378">
        <ele>79</ele>
        <time>2013-12-13T08:36:56Z</time>
      </trkpt>
      <trkpt lat="48.48698" lon="-2.70373">
        <ele>79</ele>
        <time>2013-12-13T08:36:58Z</time>
      </trkpt>
      <trkpt lat="48.48697" lon="-2.70369">
        <ele>79</ele>
        <time>2013-12-13T08:37:00Z</time>
      </trkpt>
      <trkpt lat="48.48697" lon="-2.70364">
        <ele>79</ele>
        <time>2013-12-13T08:37:02Z</time>
      </trkpt>
      <trkpt lat="48.48696" lon="-2.70359">
        <ele>79</ele>
        <time>2013-12-13T08:37:04Z</time>
      </trkpt>
      <trkpt lat="48.48696" lon="-2.70355">
        <ele>79</ele>
        <time>2013-12-13T08:37:06Z</time>
      </trkpt>
      <trkpt lat="48.48695" lon="-2.7035">
        <ele>79</ele>
        <time>2013-12-13T08:37:08Z</time>
      </trkpt>
      <trkpt lat="48.48695" lon="-2.70346">
        <ele>79</ele>
        <time>2013-12-13T08:37:10Z</time>
      </trkpt>
      <trkpt lat="48.48695" lon="-2.70341">
        <ele>79</ele>
        <time>2013-12-13T08:37:12Z</time>
      </trkpt>
      <trkpt lat="48.48695" lon="-2.70337">
        <ele>79</ele>
        <time>2013-12-13T08:37:14Z</time>
      </trkpt>
      <trkpt lat="48.48695" lon="-2.70332">
        <ele>79</ele>
        <time>2013-12-13T08:37:16Z</time>
      </trkpt>
      <trkpt lat="48.48694" lon="-2.70327">
        <ele>78</ele>
        <time>2013-12-13T08:37:18Z</time>
      </trkpt>
      <trkpt lat="48.48694" lon="-2.70322">
        <ele>78</ele>
        <time>2013-12-13T08:37:20Z</time>
      </trkpt>
      <trkpt lat="48.48695" lon="-2.70318">
        <ele>78</ele>
        <time>2013-12-13T08:37:22Z</time>
      </trkpt>
      <trkpt lat="48.48695" lon="-2.70313">
        <ele>78</ele>
        <time>2013-12-13T08:37:24Z</time>
      </trkpt>
      <trkpt lat="48.48696" lon="-2.70309">
        <ele>77</ele>
        <time>2013-12-13T08:37:26Z</time>
      </trkpt>
      <trkpt lat="48.48697" lon="-2.70305">
        <ele>77</ele>
        <time>2013-12-13T08:37:28Z</time>
      </trkpt>
      <trkpt lat="48.48698" lon="-2.70301">
        <ele>76</ele>
        <time>2013-12-13T08:37:30Z</time>
      </trkpt>
      <trkpt lat="48.487" lon="-2.70297">
        <ele>76</ele>
        <time>2013-12-13T08:37:32Z</time>
      </trkpt>
      <trkpt lat="48.48701" lon="-2.70292">
        <ele>76</ele>
        <time>2013-12-13T08:37:34Z</time>
      </trkpt>
      <trkpt lat="48.48702" lon="-2.70288">
        <ele>76</ele>
        <time>2013-12-13T08:37:36Z</time>
      </trkpt>
      <trkpt lat="48.48704" lon="-2.70284">
        <ele>75</ele>
        <time>2013-12-13T08:37:38Z</time>
      </trkpt>
      <trkpt lat="48.48705" lon="-2.70279">
        <ele>75</ele>
        <time>2013-12-13T08:37:40Z</time>
      </trkpt>
      <trkpt lat="48.48707" lon="-2.70274">
        <ele>75</ele>
        <time>2013-12-13T08:37:43Z</time>
      </trkpt>
      <trkpt lat="48.48708" lon="-2.7027">
        <ele>75</ele>
        <time>2013-12-13T08:37:45Z</time>
      </trkpt>
      <trkpt lat="48.48709" lon="-2.70266">
        <ele>75</ele>
        <time>2013-12-13T08:37:47Z</time>
      </trkpt>
      <trkpt lat="48.4871" lon="-2.70262">
        <ele>75</ele>
        <time>2013-12-13T08:37:49Z</time>
      </trkpt>
      <trkpt lat="48.48711" lon="-2.70259">
        <ele>75</ele>
        <time>2013-12-13T08:37:51Z</time>
      </trkpt>
      <trkpt lat="48.48712" lon="-2.70255">
        <ele>75</ele>
        <time>2013-12-13T08:37:53Z</time>
      </trkpt>
      <trkpt lat="48.48713" lon="-2.70251">
        <ele>74</ele>
        <time>2013-12-13T08:37:55Z</time>
      </trkpt>
      <trkpt lat="48.48713" lon="-2.70246">
        <ele>74</ele>
        <time>2013-12-13T08:37:57Z</time>
      </trkpt>
      <trkpt lat="48.48713" lon="-2.70242">
        <ele>73</ele>
        <time>2013-12-13T08:37:59Z</time>
      </trkpt>
      <trkpt lat="48.48714" lon="-2.70237">
        <ele>73</ele>
        <time>2013-12-13T08:38:01Z</time>
      </trkpt>
      <trkpt lat="48.48714" lon="-2.70233">
        <ele>73</ele>
        <time>2013-12-13T08:38:03Z</time>
      </trkpt>
      <trkpt lat="48.48715" lon="-2.70229">
        <ele>73</ele>
        <time>2013-12-13T08:38:05Z</time>
      </trkpt>
      <trkpt lat="48.48716" lon="-2.70224">
        <ele>73</ele>
        <time>2013-12-13T08:38:07Z</time>
      </trkpt>
      <trkpt lat="48.48716" lon="-2.7022">
        <ele>73</ele>
        <time>2013-12-13T08:38:09Z</time>
      </trkpt>
      <trkpt lat="48.48716" lon="-2.70215">
        <ele>73</ele>
        <time>2013-12-13T08:38:11Z</time>
      </trkpt>
      <trkpt lat="48.48716" lon="-2.70211">
        <ele>73</ele>
        <time>2013-12-13T08:38:13Z</time>
      </trkpt>
      <trkpt lat="48.48716" lon="-2.70206">
        <ele>73</ele>
        <time>2013-12-13T08:38:15Z</time>
      </trkpt>
      <trkpt lat="48.48716" lon="-2.70202">
        <ele>73</ele>
        <time>2013-12-13T08:38:17Z</time>
      </trkpt>
      <trkpt lat="48.48716" lon="-2.70198">
        <ele>73</ele>
        <time>2013-12-13T08:38:19Z</time>
      </trkpt>
      <trkpt lat="48.48715" lon="-2.70193">
        <ele>72</ele>
        <time>2013-12-13T08:38:21Z</time>
      </trkpt>
      <trkpt lat="48.48715" lon="-2.70188">
        <ele>72</ele>
        <time>2013-12-13T08:38:23Z</time>
      </trkpt>
      <trkpt lat="48.48714" lon="-2.70183">
        <ele>72</ele>
        <time>2013-12-13T08:38:25Z</time>
      </trkpt>
      <trkpt lat="48.48714" lon="-2.70178">
        <ele>72</ele>
        <time>2013-12-13T08:38:27Z</time>
      </trkpt>
      <trkpt lat="48.48714" lon="-2.70173">
        <ele>72</ele>
        <time>2013-12-13T08:38:29Z</time>
      </trkpt>
      <trkpt lat="48.48713" lon="-2.70168">
        <ele>72</ele>
        <time>2013-12-13T08:38:31Z</time>
      </trkpt>
      <trkpt lat="48.48713" lon="-2.70164">
        <ele>72</ele>
        <time>2013-12-13T08:38:33Z</time>
      </trkpt>
      <trkpt lat="48.48712" lon="-2.70159">
        <ele>72</ele>
        <time>2013-12-13T08:38:35Z</time>
      </trkpt>
      <trkpt lat="48.48712" lon="-2.70154">
        <ele>72</ele>
        <time>2013-12-13T08:38:37Z</time>
      </trkpt>
      <trkpt lat="48.48711" lon="-2.7015">
        <ele>72</ele>
        <time>2013-12-13T08:38:39Z</time>
      </trkpt>
      <trkpt lat="48.48711" lon="-2.70145">
        <ele>72</ele>
        <time>2013-12-13T08:38:41Z</time>
      </trkpt>
      <trkpt lat="48.48711" lon="-2.70141">
        <ele>72</ele>
        <time>2013-12-13T08:38:43Z</time>
      </trkpt>
      <trkpt lat="48.48711" lon="-2.70136">
        <ele>72</ele>
        <time>2013-12-13T08:38:45Z</time>
      </trkpt>
      <trkpt lat="48.4871" lon="-2.70132">
        <ele>72</ele>
        <time>2013-12-13T08:38:47Z</time>
      </trkpt>
      <trkpt lat="48.4871" lon="-2.70127">
        <ele>72</ele>
        <time>2013-12-13T08:38:49Z</time>
      </trkpt>
      <trkpt lat="48.4871" lon="-2.70123">
        <ele>72</ele>
        <time>2013-12-13T08:38:51Z</time>
      </trkpt>
      <trkpt lat="48.48709" lon="-2.70118">
        <ele>72</ele>
        <time>2013-12-13T08:38:53Z</time>
      </trkpt>
      <trkpt lat="48.48709" lon="-2.70113">
        <ele>72</ele>
        <time>2013-12-13T08:38:55Z</time>
      </trkpt>
      <trkpt lat="48.48709" lon="-2.70109">
        <ele>72</ele>
        <time>2013-12-13T08:38:57Z</time>
      </trkpt>
      <trkpt lat="48.48709" lon="-2.70104">
        <ele>72</ele>
        <time>2013-12-13T08:38:59Z</time>
      </trkpt>
      <trkpt lat="48.48708" lon="-2.701">
        <ele>72</ele>
        <time>2013-12-13T08:39:01Z</time>
      </trkpt>
      <trkpt lat="48.48708" lon="-2.70095">
        <ele>72</ele>
        <time>2013-12-13T08:39:03Z</time>
      </trkpt>
      <trkpt lat="48.48708" lon="-2.70091">
        <ele>72</ele>
        <time>2013-12-13T08:39:05Z</time>
      </trkpt>
      <trkpt lat="48.48708" lon="-2.70086">
        <ele>72</ele>
        <time>2013-12-13T08:39:07Z</time>
      </trkpt>
      <trkpt lat="48.48707" lon="-2.70081">
        <ele>72</ele>
        <time>2013-12-13T08:39:09Z</time>
      </trkpt>
      <trkpt lat="48.48707" lon="-2.70077">
        <ele>72</ele>
        <time>2013-12-13T08:39:11Z</time>
      </trkpt>
      <trkpt lat="48.48707" lon="-2.70072">
        <ele>72</ele>
        <time>2013-12-13T08:39:13Z</time>
      </trkpt>
      <trkpt lat="48.48707" lon="-2.70068">
        <ele>72</ele>
        <time>2013-12-13T08:39:15Z</time>
      </trkpt>
      <trkpt lat="48.48706" lon="-2.70063">
        <ele>72</ele>
        <time>2013-12-13T08:39:17Z</time>
      </trkpt>
      <trkpt lat="48.48706" lon="-2.70059">
        <ele>72</ele>
        <time>2013-12-13T08:39:19Z</time>
      </trkpt>
      <trkpt lat="48.48706" lon="-2.70054">
        <ele>72</ele>
        <time>2013-12-13T08:39:21Z</time>
      </trkpt>
      <trkpt lat="48.48705" lon="-2.7005">
        <ele>72</ele>
        <time>2013-12-13T08:39:23Z</time>
      </trkpt>
      <trkpt lat="48.48705" lon="-2.70045">
        <ele>72</ele>
        <time>2013-12-13T08:39:25Z</time>
      </trkpt>
      <trkpt lat="48.48704" lon="-2.70041">
        <ele>72</ele>
        <time>2013-12-13T08:39:27Z</time>
      </trkpt>
      <trkpt lat="48.48704" lon="-2.70036">
        <ele>72</ele>
        <time>2013-12-13T08:39:29Z</time>
      </trkpt>
      <trkpt lat="48.48704" lon="-2.70031">
        <ele>72</ele>
        <time>2013-12-13T08:39:31Z</time>
      </trkpt>
      <trkpt lat="48.48704" lon="-2.70027">
        <ele>72</ele>
        <time>2013-12-13T08:39:33Z</time>
      </trkpt>
      <trkpt lat="48.48703" lon="-2.70023">
        <ele>72</ele>
        <time>2013-12-13T08:39:35Z</time>
      </trkpt>
      <trkpt lat="48.48703" lon="-2.70019">
        <ele>72</ele>
        <time>2013-12-13T08:39:37Z</time>
      </trkpt>
      <trkpt lat="48.48703" lon="-2.70015">
        <ele>72</ele>
        <time>2013-12-13T08:39:39Z</time>
      </trkpt>
      <trkpt lat="48.48704" lon="-2.7001">
        <ele>72</ele>
        <time>2013-12-13T08:39:41Z</time>
      </trkpt>
      <trkpt lat="48.48703" lon="-2.70007">
        <ele>72</ele>
        <time>2013-12-13T08:39:43Z</time>
      </trkpt>
      <trkpt lat="48.48703" lon="-2.70003">
        <ele>72</ele>
        <time>2013-12-13T08:39:45Z</time>
      </trkpt>
      <trkpt lat="48.48703" lon="-2.7">
        <ele>72</ele>
        <time>2013-12-13T08:39:47Z</time>
      </trkpt>
      <trkpt lat="48.48703" lon="-2.69996">
        <ele>72</ele>
        <time>2013-12-13T08:39:49Z</time>
      </trkpt>
      <trkpt lat="48.48703" lon="-2.69992">
        <ele>72</ele>
        <time>2013-12-13T08:39:51Z</time>
      </trkpt>
      <trkpt lat="48.48702" lon="-2.69987">
        <ele>72</ele>
        <time>2013-12-13T08:39:53Z</time>
      </trkpt>
      <trkpt lat="48.48702" lon="-2.69983">
        <ele>72</ele>
        <time>2013-12-13T08:39:55Z</time>
      </trkpt>
      <trkpt lat="48.48702" lon="-2.69978">
        <ele>72</ele>
        <time>2013-12-13T08:39:57Z</time>
      </trkpt>
      <trkpt lat="48.48702" lon="-2.69973">
        <ele>72</ele>
        <time>2013-12-13T08:39:59Z</time>
      </trkpt>
      <trkpt lat="48.48702" lon="-2.69969">
        <ele>72</ele>
        <time>2013-12-13T08:40:01Z</time>
      </trkpt>
      <trkpt lat="48.48701" lon="-2.69965">
        <ele>72</ele>
        <time>2013-12-13T08:40:03Z</time>
      </trkpt>
      <trkpt lat="48.48701" lon="-2.69961">
        <ele>72</ele>
        <time>2013-12-13T08:40:05Z</time>
      </trkpt>
      <trkpt lat="48.48701" lon="-2.69956">
        <ele>72</ele>
        <time>2013-12-13T08:40:07Z</time>
      </trkpt>
      <trkpt lat="48.48701" lon="-2.69952">
        <ele>72</ele>
        <time>2013-12-13T08:40:09Z</time>
      </trkpt>
      <trkpt lat="48.48701" lon="-2.69947">
        <ele>72</ele>
        <time>2013-12-13T08:40:11Z</time>
      </trkpt>
      <trkpt lat="48.48701" lon="-2.69942">
        <ele>72</ele>
        <time>2013-12-13T08:40:13Z</time>
      </trkpt>
      <trkpt lat="48.487" lon="-2.69938">
        <ele>72</ele>
        <time>2013-12-13T08:40:15Z</time>
      </trkpt>
      <trkpt lat="48.487" lon="-2.69933">
        <ele>72</ele>
        <time>2013-12-13T08:40:17Z</time>
      </trkpt>
      <trkpt lat="48.487" lon="-2.69928">
        <ele>72</ele>
        <time>2013-12-13T08:40:19Z</time>
      </trkpt>
      <trkpt lat="48.487" lon="-2.69923">
        <ele>72</ele>
        <time>2013-12-13T08:40:21Z</time>
      </trkpt>
      <trkpt lat="48.487" lon="-2.69918">
        <ele>72</ele>
        <time>2013-12-13T08:40:23Z</time>
      </trkpt>
      <trkpt lat="48.487" lon="-2.69914">
        <ele>72</ele>
        <time>2013-12-13T08:40:25Z</time>
      </trkpt>
      <trkpt lat="48.48699" lon="-2.69909">
        <ele>72</ele>
        <time>2013-12-13T08:40:27Z</time>
      </trkpt>
      <trkpt lat="48.48699" lon="-2.69905">
        <ele>72</ele>
        <time>2013-12-13T08:40:29Z</time>
      </trkpt>
      <trkpt lat="48.48698" lon="-2.699">
        <ele>72</ele>
        <time>2013-12-13T08:40:31Z</time>
      </trkpt>
      <trkpt lat="48.48698" lon="-2.69896">
        <ele>72</ele>
        <time>2013-12-13T08:40:33Z</time>
      </trkpt>
      <trkpt lat="48.48698" lon="-2.69892">
        <ele>72</ele>
        <time>2013-12-13T08:40:35Z</time>
      </trkpt>
      <trkpt lat="48.48698" lon="-2.69888">
        <ele>72</ele>
        <time>2013-12-13T08:40:37Z</time>
      </trkpt>
      <trkpt lat="48.48698" lon="-2.69883">
        <ele>72</ele>
        <time>2013-12-13T08:40:39Z</time>
      </trkpt>
      <trkpt lat="48.48698" lon="-2.69879">
        <ele>72</ele>
        <time>2013-12-13T08:40:41Z</time>
      </trkpt>
      <trkpt lat="48.48698" lon="-2.69874">
        <ele>72</ele>
        <time>2013-12-13T08:40:44Z</time>
      </trkpt>
      <trkpt lat="48.48698" lon="-2.69871">
        <ele>72</ele>
        <time>2013-12-13T08:40:46Z</time>
      </trkpt>
      <trkpt lat="48.48698" lon="-2.69867">
        <ele>72</ele>
        <time>2013-12-13T08:40:48Z</time>
      </trkpt>
      <trkpt lat="48.48699" lon="-2.69865">
        <ele>72</ele>
        <time>2013-12-13T08:40:50Z</time>
      </trkpt>
      <trkpt lat="48.48699" lon="-2.69863">
        <ele>72</ele>
        <time>2013-12-13T08:40:52Z</time>
      </trkpt>
      <trkpt lat="48.48699" lon="-2.69861">
        <ele>72</ele>
        <time>2013-12-13T08:40:54Z</time>
      </trkpt>
      <trkpt lat="48.487" lon="-2.69859">
        <ele>72</ele>
        <time>2013-12-13T08:40:57Z</time>
      </trkpt>
      <trkpt lat="48.48701" lon="-2.69859">
        <ele>72</ele>
        <time>2013-12-13T08:41:15Z</time>
      </trkpt>
      <trkpt lat="48.48702" lon="-2.69858">
        <ele>72</ele>
        <time>2013-12-13T08:41:17Z</time>
      </trkpt>
      <trkpt lat="48.48703" lon="-2.69857">
        <ele>72</ele>
        <time>2013-12-13T08:41:23Z</time>
      </trkpt>
      <trkpt lat="48.48705" lon="-2.69857">
        <ele>72</ele>
        <time>2013-12-13T08:41:25Z</time>
      </trkpt>
      <trkpt lat="48.48706" lon="-2.69857">
        <ele>72</ele>
        <time>2013-12-13T08:41:27Z</time>
      </trkpt>
      <trkpt lat="48.4871" lon="-2.69857">
        <ele>72</ele>
        <time>2013-12-13T08:41:30Z</time>
      </trkpt>
      <trkpt lat="48.48712" lon="-2.69857">
        <ele>72</ele>
        <time>2013-12-13T08:41:32Z</time>
      </trkpt>
      <trkpt lat="48.48714" lon="-2.69856">
        <ele>72</ele>
        <time>2013-12-13T08:41:34Z</time>
      </trkpt>
      <trkpt lat="48.48715" lon="-2.69856">
        <ele>72</ele>
        <time>2013-12-13T08:41:36Z</time>
      </trkpt>
      <trkpt lat="48.48717" lon="-2.69856">
        <ele>72</ele>
        <time>2013-12-13T08:41:38Z</time>
      </trkpt>
      <trkpt lat="48.48719" lon="-2.69856">
        <ele>72</ele>
        <time>2013-12-13T08:41:40Z</time>
      </trkpt>
      <trkpt lat="48.4872" lon="-2.69855">
        <ele>72</ele>
        <time>2013-12-13T08:41:43Z</time>
      </trkpt>
      <trkpt lat="48.48721" lon="-2.69855">
        <ele>72</ele>
        <time>2013-12-13T08:42:05Z</time>
      </trkpt>
      <trkpt lat="48.48723" lon="-2.69855">
        <ele>72</ele>
        <time>2013-12-13T08:42:07Z</time>
      </trkpt>
      <trkpt lat="48.48724" lon="-2.69855">
        <ele>72</ele>
        <time>2013-12-13T08:42:09Z</time>
      </trkpt>
      <trkpt lat="48.48726" lon="-2.69855">
        <ele>72</ele>
        <time>2013-12-13T08:42:11Z</time>
      </trkpt>
      <trkpt lat="48.48728" lon="-2.69855">
        <ele>72</ele>
        <time>2013-12-13T08:42:13Z</time>
      </trkpt>
      <trkpt lat="48.4873" lon="-2.69855">
        <ele>72</ele>
        <time>2013-12-13T08:42:15Z</time>
      </trkpt>
      <trkpt lat="48.48732" lon="-2.69855">
        <ele>72</ele>
        <time>2013-12-13T08:42:17Z</time>
      </trkpt>
      <trkpt lat="48.48733" lon="-2.69855">
        <ele>72</ele>
        <time>2013-12-13T08:42:19Z</time>
      </trkpt>
      <trkpt lat="48.48734" lon="-2.69855">
        <ele>72</ele>
        <time>2013-12-13T08:42:24Z</time>
      </trkpt>
      <trkpt lat="48.48736" lon="-2.69854">
        <ele>72</ele>
        <time>2013-12-13T08:42:27Z</time>
      </trkpt>
      <trkpt lat="48.48738" lon="-2.69854">
        <ele>72</ele>
        <time>2013-12-13T08:42:29Z</time>
      </trkpt>
      <trkpt lat="48.4874" lon="-2.69854">
        <ele>72</ele>
        <time>2013-12-13T08:42:31Z</time>
      </trkpt>
      <trkpt lat="48.48743" lon="-2.69854">
        <ele>72</ele>
        <time>2013-12-13T08:42:33Z</time>
      </trkpt>
      <trkpt lat="48.48745" lon="-2.69854">
        <ele>72</ele>
        <time>2013-12-13T08:42:35Z</time>
      </trkpt>
      <trkpt lat="48.48748" lon="-2.69853">
        <ele>72</ele>
        <time>2013-12-13T08:42:37Z</time>
      </trkpt>
      <trkpt lat="48.48751" lon="-2.69853">
        <ele>72</ele>
        <time>2013-12-13T08:42:39Z</time>
      </trkpt>
      <trkpt lat="48.48753" lon="-2.69853">
        <ele>72</ele>
        <time>2013-12-13T08:42:41Z</time>
      </trkpt>
      <trkpt lat="48.48756" lon="-2.69853">
        <ele>72</ele>
        <time>2013-12-13T08:42:43Z</time>
      </trkpt>
      <trkpt lat="48.48759" lon="-2.69853">
        <ele>72</ele>
        <time>2013-12-13T08:42:46Z</time>
      </trkpt>
      <trkpt lat="48.4876" lon="-2.69853">
        <ele>72</ele>
        <time>2013-12-13T08:42:53Z</time>
      </trkpt>
      <trkpt lat="48.48763" lon="-2.69853">
        <ele>72</ele>
        <time>2013-12-13T08:42:55Z</time>
      </trkpt>
      <trkpt lat="48.48766" lon="-2.69853">
        <ele>72</ele>
        <time>2013-12-13T08:42:57Z</time>
      </trkpt>
      <trkpt lat="48.48769" lon="-2.69853">
        <ele>72</ele>
        <time>2013-12-13T08:42:59Z</time>
      </trkpt>
      <trkpt lat="48.48772" lon="-2.69854">
        <ele>72</ele>
        <time>2013-12-13T08:43:01Z</time>
      </trkpt>
      <trkpt lat="48.48775" lon="-2.69854">
        <ele>72</ele>
        <time>2013-12-13T08:43:03Z</time>
      </trkpt>
      <trkpt lat="48.48779" lon="-2.69855">
        <ele>72</ele>
        <time>2013-12-13T08:43:05Z</time>
      </trkpt>
      <trkpt lat="48.48782" lon="-2.69855">
        <ele>72</ele>
        <time>2013-12-13T08:43:07Z</time>
      </trkpt>
      <trkpt lat="48.48785" lon="-2.69856">
        <ele>72</ele>
        <time>2013-12-13T08:43:09Z</time>
      </trkpt>
      <trkpt lat="48.48788" lon="-2.69856">
        <ele>72</ele>
        <time>2013-12-13T08:43:11Z</time>
      </trkpt>
      <trkpt lat="48.48792" lon="-2.69856">
        <ele>72</ele>
        <time>2013-12-13T08:43:13Z</time>
      </trkpt>
      <trkpt lat="48.48795" lon="-2.69857">
        <ele>72</ele>
        <time>2013-12-13T08:43:15Z</time>
      </trkpt>
      <trkpt lat="48.48798" lon="-2.69858">
        <ele>72</ele>
        <time>2013-12-13T08:43:17Z</time>
      </trkpt>
      <trkpt lat="48.48801" lon="-2.69858">
        <ele>72</ele>
        <time>2013-12-13T08:43:19Z</time>
      </trkpt>
      <trkpt lat="48.48804" lon="-2.69859">
        <ele>72</ele>
        <time>2013-12-13T08:43:21Z</time>
      </trkpt>
      <trkpt lat="48.48807" lon="-2.6986">
        <ele>72</ele>
        <time>2013-12-13T08:43:23Z</time>
      </trkpt>
      <trkpt lat="48.4881" lon="-2.69861">
        <ele>72</ele>
        <time>2013-12-13T08:43:25Z</time>
      </trkpt>
      <trkpt lat="48.48813" lon="-2.69861">
        <ele>72</ele>
        <time>2013-12-13T08:43:27Z</time>
      </trkpt>
      <trkpt lat="48.48816" lon="-2.69862">
        <ele>72</ele>
        <time>2013-12-13T08:43:29Z</time>
      </trkpt>
      <trkpt lat="48.48819" lon="-2.69862">
        <ele>72</ele>
        <time>2013-12-13T08:43:31Z</time>
      </trkpt>
      <trkpt lat="48.48822" lon="-2.69863">
        <ele>71</ele>
        <time>2013-12-13T08:43:33Z</time>
      </trkpt>
      <trkpt lat="48.48825" lon="-2.69863">
        <ele>71</ele>
        <time>2013-12-13T08:43:35Z</time>
      </trkpt>
      <trkpt lat="48.48828" lon="-2.69863">
        <ele>71</ele>
        <time>2013-12-13T08:43:37Z</time>
      </trkpt>
      <trkpt lat="48.4883" lon="-2.69863">
        <ele>70</ele>
        <time>2013-12-13T08:43:39Z</time>
      </trkpt>
      <trkpt lat="48.48833" lon="-2.69862">
        <ele>70</ele>
        <time>2013-12-13T08:43:41Z</time>
      </trkpt>
      <trkpt lat="48.48836" lon="-2.69862">
        <ele>70</ele>
        <time>2013-12-13T08:43:43Z</time>
      </trkpt>
      <trkpt lat="48.48839" lon="-2.69861">
        <ele>69</ele>
        <time>2013-12-13T08:43:45Z</time>
      </trkpt>
      <trkpt lat="48.48842" lon="-2.6986">
        <ele>69</ele>
        <time>2013-12-13T08:43:47Z</time>
      </trkpt>
      <trkpt lat="48.48845" lon="-2.69859">
        <ele>68</ele>
        <time>2013-12-13T08:43:49Z</time>
      </trkpt>
      <trkpt lat="48.48847" lon="-2.69858">
        <ele>68</ele>
        <time>2013-12-13T08:43:51Z</time>
      </trkpt>
      <trkpt lat="48.4885" lon="-2.69857">
        <ele>67</ele>
        <time>2013-12-13T08:43:53Z</time>
      </trkpt>
      <trkpt lat="48.48853" lon="-2.69855">
        <ele>67</ele>
        <time>2013-12-13T08:43:55Z</time>
      </trkpt>
      <trkpt lat="48.48856" lon="-2.69854">
        <ele>66</ele>
        <time>2013-12-13T08:43:57Z</time>
      </trkpt>
      <trkpt lat="48.48859" lon="-2.69852">
        <ele>66</ele>
        <time>2013-12-13T08:43:59Z</time>
      </trkpt>
      <trkpt lat="48.48861" lon="-2.6985">
        <ele>65</ele>
        <time>2013-12-13T08:44:01Z</time>
      </trkpt>
      <trkpt lat="48.48864" lon="-2.69849">
        <ele>65</ele>
        <time>2013-12-13T08:44:03Z</time>
      </trkpt>
      <trkpt lat="48.48867" lon="-2.69847">
        <ele>65</ele>
        <time>2013-12-13T08:44:05Z</time>
      </trkpt>
      <trkpt lat="48.4887" lon="-2.69847">
        <ele>65</ele>
        <time>2013-12-13T08:44:08Z</time>
      </trkpt>
      <trkpt lat="48.48873" lon="-2.69851">
        <ele>64</ele>
        <time>2013-12-13T08:44:11Z</time>
      </trkpt>
      <trkpt lat="48.48875" lon="-2.69853">
        <ele>64</ele>
        <time>2013-12-13T08:44:13Z</time>
      </trkpt>
      <trkpt lat="48.48873" lon="-2.69852">
        <ele>64</ele>
        <time>2013-12-13T08:44:25Z</time>
      </trkpt>
      <trkpt lat="48.48872" lon="-2.69848">
        <ele>64</ele>
        <time>2013-12-13T08:44:27Z</time>
      </trkpt>
      <trkpt lat="48.48873" lon="-2.69844">
        <ele>63</ele>
        <time>2013-12-13T08:44:29Z</time>
      </trkpt>
      <trkpt lat="48.48875" lon="-2.6984">
        <ele>63</ele>
        <time>2013-12-13T08:44:31Z</time>
      </trkpt>
      <trkpt lat="48.48879" lon="-2.69837">
        <ele>62</ele>
        <time>2013-12-13T08:44:33Z</time>
      </trkpt>
      <trkpt lat="48.48882" lon="-2.69835">
        <ele>62</ele>
        <time>2013-12-13T08:44:35Z</time>
      </trkpt>
      <trkpt lat="48.48885" lon="-2.69832">
        <ele>61</ele>
        <time>2013-12-13T08:44:37Z</time>
      </trkpt>
      <trkpt lat="48.48888" lon="-2.69829">
        <ele>61</ele>
        <time>2013-12-13T08:44:39Z</time>
      </trkpt>
      <trkpt lat="48.48891" lon="-2.69826">
        <ele>61</ele>
        <time>2013-12-13T08:44:41Z</time>
      </trkpt>
      <trkpt lat="48.48893" lon="-2.69824">
        <ele>60</ele>
        <time>2013-12-13T08:44:43Z</time>
      </trkpt>
      <trkpt lat="48.48896" lon="-2.69821">
        <ele>60</ele>
        <time>2013-12-13T08:44:45Z</time>
      </trkpt>
      <trkpt lat="48.48899" lon="-2.69818">
        <ele>60</ele>
        <time>2013-12-13T08:44:47Z</time>
      </trkpt>
      <trkpt lat="48.48901" lon="-2.69815">
        <ele>59</ele>
        <time>2013-12-13T08:44:49Z</time>
      </trkpt>
      <trkpt lat="48.48903" lon="-2.69812">
        <ele>59</ele>
        <time>2013-12-13T08:44:51Z</time>
      </trkpt>
      <trkpt lat="48.48904" lon="-2.69808">
        <ele>58</ele>
        <time>2013-12-13T08:44:53Z</time>
      </trkpt>
      <trkpt lat="48.48904" lon="-2.69803">
        <ele>57</ele>
        <time>2013-12-13T08:44:55Z</time>
      </trkpt>
      <trkpt lat="48.48905" lon="-2.69799">
        <ele>57</ele>
        <time>2013-12-13T08:44:57Z</time>
      </trkpt>
      <trkpt lat="48.48906" lon="-2.69794">
        <ele>57</ele>
        <time>2013-12-13T08:44:59Z</time>
      </trkpt>
      <trkpt lat="48.48906" lon="-2.6979">
        <ele>57</ele>
        <time>2013-12-13T08:45:01Z</time>
      </trkpt>
      <trkpt lat="48.48905" lon="-2.69785">
        <ele>57</ele>
        <time>2013-12-13T08:45:03Z</time>
      </trkpt>
      <trkpt lat="48.48905" lon="-2.69781">
        <ele>57</ele>
        <time>2013-12-13T08:45:05Z</time>
      </trkpt>
      <trkpt lat="48.48904" lon="-2.69777">
        <ele>57</ele>
        <time>2013-12-13T08:45:07Z</time>
      </trkpt>
      <trkpt lat="48.48904" lon="-2.69772">
        <ele>57</ele>
        <time>2013-12-13T08:45:09Z</time>
      </trkpt>
      <trkpt lat="48.48903" lon="-2.69768">
        <ele>57</ele>
        <time>2013-12-13T08:45:11Z</time>
      </trkpt>
      <trkpt lat="48.48903" lon="-2.69764">
        <ele>57</ele>
        <time>2013-12-13T08:45:13Z</time>
      </trkpt>
      <trkpt lat="48.48903" lon="-2.6976">
        <ele>57</ele>
        <time>2013-12-13T08:45:15Z</time>
      </trkpt>
      <trkpt lat="48.48902" lon="-2.69757">
        <ele>57</ele>
        <time>2013-12-13T08:45:17Z</time>
      </trkpt>
      <trkpt lat="48.48902" lon="-2.69752">
        <ele>57</ele>
        <time>2013-12-13T08:45:19Z</time>
      </trkpt>
      <trkpt lat="48.48901" lon="-2.69748">
        <ele>57</ele>
        <time>2013-12-13T08:45:21Z</time>
      </trkpt>
      <trkpt lat="48.489" lon="-2.69743">
        <ele>57</ele>
        <time>2013-12-13T08:45:23Z</time>
      </trkpt>
      <trkpt lat="48.48899" lon="-2.69739">
        <ele>57</ele>
        <time>2013-12-13T08:45:25Z</time>
      </trkpt>
      <trkpt lat="48.489" lon="-2.69734">
        <ele>57</ele>
        <time>2013-12-13T08:45:27Z</time>
      </trkpt>
      <trkpt lat="48.489" lon="-2.69729">
        <ele>57</ele>
        <time>2013-12-13T08:45:29Z</time>
      </trkpt>
      <trkpt lat="48.48902" lon="-2.69725">
        <ele>57</ele>
        <time>2013-12-13T08:45:31Z</time>
      </trkpt>
      <trkpt lat="48.48904" lon="-2.69721">
        <ele>57</ele>
        <time>2013-12-13T08:45:33Z</time>
      </trkpt>
      <trkpt lat="48.48906" lon="-2.69719">
        <ele>57</ele>
        <time>2013-12-13T08:45:35Z</time>
      </trkpt>
      <trkpt lat="48.48909" lon="-2.69716">
        <ele>56</ele>
        <time>2013-12-13T08:45:37Z</time>
      </trkpt>
      <trkpt lat="48.48912" lon="-2.69714">
        <ele>56</ele>
        <time>2013-12-13T08:45:39Z</time>
      </trkpt>
      <trkpt lat="48.48914" lon="-2.69712">
        <ele>56</ele>
        <time>2013-12-13T08:45:41Z</time>
      </trkpt>
      <trkpt lat="48.48917" lon="-2.69709">
        <ele>56</ele>
        <time>2013-12-13T08:45:43Z</time>
      </trkpt>
      <trkpt lat="48.4892" lon="-2.69708">
        <ele>55</ele>
        <time>2013-12-13T08:45:45Z</time>
      </trkpt>
      <trkpt lat="48.48923" lon="-2.69706">
        <ele>55</ele>
        <time>2013-12-13T08:45:47Z</time>
      </trkpt>
      <trkpt lat="48.48927" lon="-2.69704">
        <ele>55</ele>
        <time>2013-12-13T08:45:49Z</time>
      </trkpt>
      <trkpt lat="48.4893" lon="-2.69702">
        <ele>55</ele>
        <time>2013-12-13T08:45:51Z</time>
      </trkpt>
      <trkpt lat="48.48933" lon="-2.69701">
        <ele>55</ele>
        <time>2013-12-13T08:45:53Z</time>
      </trkpt>
      <trkpt lat="48.48936" lon="-2.69699">
        <ele>55</ele>
        <time>2013-12-13T08:45:55Z</time>
      </trkpt>
      <trkpt lat="48.48938" lon="-2.69697">
        <ele>54</ele>
        <time>2013-12-13T08:45:57Z</time>
      </trkpt>
      <trkpt lat="48.48941" lon="-2.69695">
        <ele>54</ele>
        <time>2013-12-13T08:45:59Z</time>
      </trkpt>
      <trkpt lat="48.48944" lon="-2.69693">
        <ele>54</ele>
        <time>2013-12-13T08:46:01Z</time>
      </trkpt>
      <trkpt lat="48.48947" lon="-2.69693">
        <ele>54</ele>
        <time>2013-12-13T08:46:04Z</time>
      </trkpt>
      <trkpt lat="48.4895" lon="-2.69694">
        <ele>54</ele>
        <time>2013-12-13T08:46:06Z</time>
      </trkpt>
      <trkpt lat="48.48953" lon="-2.69695">
        <ele>54</ele>
        <time>2013-12-13T08:46:08Z</time>
      </trkpt>
      <trkpt lat="48.48956" lon="-2.69697">
        <ele>54</ele>
        <time>2013-12-13T08:46:10Z</time>
      </trkpt>
      <trkpt lat="48.48959" lon="-2.697">
        <ele>54</ele>
        <time>2013-12-13T08:46:12Z</time>
      </trkpt>
      <trkpt lat="48.48961" lon="-2.69702">
        <ele>54</ele>
        <time>2013-12-13T08:46:14Z</time>
      </trkpt>
      <trkpt lat="48.48964" lon="-2.69704">
        <ele>54</ele>
        <time>2013-12-13T08:46:16Z</time>
      </trkpt>
      <trkpt lat="48.48965" lon="-2.69704">
        <ele>54</ele>
        <time>2013-12-13T08:46:18Z</time>
      </trkpt>
      <trkpt lat="48.48967" lon="-2.69705">
        <ele>52</ele>
        <time>2013-12-13T08:46:28Z</time>
      </trkpt>
      <trkpt lat="48.48968" lon="-2.69702">
        <ele>51</ele>
        <time>2013-12-13T08:46:39Z</time>
      </trkpt>
      <trkpt lat="48.48967" lon="-2.69705">
        <ele>51</ele>
        <time>2013-12-13T08:46:44Z</time>
      </trkpt>
      <trkpt lat="48.48965" lon="-2.69707">
        <ele>51</ele>
        <time>2013-12-13T08:46:46Z</time>
      </trkpt>
      <trkpt lat="48.48964" lon="-2.69712">
        <ele>51</ele>
        <time>2013-12-13T08:46:49Z</time>
      </trkpt>
      <trkpt lat="48.48965" lon="-2.69716">
        <ele>51</ele>
        <time>2013-12-13T08:46:51Z</time>
      </trkpt>
      <trkpt lat="48.48967" lon="-2.6972">
        <ele>51</ele>
        <time>2013-12-13T08:46:53Z</time>
      </trkpt>
      <trkpt lat="48.48968" lon="-2.69724">
        <ele>51</ele>
        <time>2013-12-13T08:46:55Z</time>
      </trkpt>
      <trkpt lat="48.48969" lon="-2.69728">
        <ele>51</ele>
        <time>2013-12-13T08:46:57Z</time>
      </trkpt>
      <trkpt lat="48.4897" lon="-2.69731">
        <ele>51</ele>
        <time>2013-12-13T08:46:59Z</time>
      </trkpt>
      <trkpt lat="48.48971" lon="-2.69735">
        <ele>51</ele>
        <time>2013-12-13T08:47:01Z</time>
      </trkpt>
      <trkpt lat="48.48972" lon="-2.69739">
        <ele>51</ele>
        <time>2013-12-13T08:47:03Z</time>
      </trkpt>
      <trkpt lat="48.48973" lon="-2.69742">
        <ele>51</ele>
        <time>2013-12-13T08:47:05Z</time>
      </trkpt>
      <trkpt lat="48.48975" lon="-2.69746">
        <ele>51</ele>
        <time>2013-12-13T08:47:07Z</time>
      </trkpt>
      <trkpt lat="48.48975" lon="-2.6975">
        <ele>51</ele>
        <time>2013-12-13T08:47:09Z</time>
      </trkpt>
      <trkpt lat="48.48976" lon="-2.69754">
        <ele>51</ele>
        <time>2013-12-13T08:47:11Z</time>
      </trkpt>
      <trkpt lat="48.48975" lon="-2.69755">
        <ele>51</ele>
        <time>2013-12-13T08:47:26Z</time>
      </trkpt>
      <trkpt lat="48.48974" lon="-2.69751">
        <ele>51</ele>
        <time>2013-12-13T08:47:28Z</time>
      </trkpt>
      <trkpt lat="48.48973" lon="-2.69747">
        <ele>51</ele>
        <time>2013-12-13T08:47:30Z</time>
      </trkpt>
      <trkpt lat="48.48972" lon="-2.69743">
        <ele>51</ele>
        <time>2013-12-13T08:47:32Z</time>
      </trkpt>
      <trkpt lat="48.48971" lon="-2.69739">
        <ele>51</ele>
        <time>2013-12-13T08:47:34Z</time>
      </trkpt>
      <trkpt lat="48.4897" lon="-2.69736">
        <ele>51</ele>
        <time>2013-12-13T08:47:36Z</time>
      </trkpt>
      <trkpt lat="48.4897" lon="-2.69733">
        <ele>51</ele>
        <time>2013-12-13T08:47:38Z</time>
      </trkpt>
      <trkpt lat="48.48969" lon="-2.6973">
        <ele>51</ele>
        <time>2013-12-13T08:47:40Z</time>
      </trkpt>
      <trkpt lat="48.48967" lon="-2.69725">
        <ele>51</ele>
        <time>2013-12-13T08:47:42Z</time>
      </trkpt>
      <trkpt lat="48.48966" lon="-2.69721">
        <ele>51</ele>
        <time>2013-12-13T08:47:44Z</time>
      </trkpt>
      <trkpt lat="48.48964" lon="-2.69716">
        <ele>51</ele>
        <time>2013-12-13T08:47:46Z</time>
      </trkpt>
      <trkpt lat="48.48963" lon="-2.69712">
        <ele>51</ele>
        <time>2013-12-13T08:47:48Z</time>
      </trkpt>
      <trkpt lat="48.48962" lon="-2.69707">
        <ele>51</ele>
        <time>2013-12-13T08:47:50Z</time>
      </trkpt>
      <trkpt lat="48.4896" lon="-2.69701">
        <ele>51</ele>
        <time>2013-12-13T08:47:52Z</time>
      </trkpt>
      <trkpt lat="48.48959" lon="-2.69696">
        <ele>51</ele>
        <time>2013-12-13T08:47:54Z</time>
      </trkpt>
      <trkpt lat="48.48957" lon="-2.69691">
        <ele>51</ele>
        <time>2013-12-13T08:47:56Z</time>
      </trkpt>
      <trkpt lat="48.48955" lon="-2.69687">
        <ele>51</ele>
        <time>2013-12-13T08:47:58Z</time>
      </trkpt>
      <trkpt lat="48.48954" lon="-2.69683">
        <ele>51</ele>
        <time>2013-12-13T08:48:00Z</time>
      </trkpt>
      <trkpt lat="48.48952" lon="-2.69678">
        <ele>51</ele>
        <time>2013-12-13T08:48:02Z</time>
      </trkpt>
      <trkpt lat="48.48951" lon="-2.69673">
        <ele>51</ele>
        <time>2013-12-13T08:48:04Z</time>
      </trkpt>
      <trkpt lat="48.4895" lon="-2.69669">
        <ele>51</ele>
        <time>2013-12-13T08:48:06Z</time>
      </trkpt>
      <trkpt lat="48.48949" lon="-2.69664">
        <ele>51</ele>
        <time>2013-12-13T08:48:08Z</time>
      </trkpt>
      <trkpt lat="48.48948" lon="-2.6966">
        <ele>51</ele>
        <time>2013-12-13T08:48:10Z</time>
      </trkpt>
      <trkpt lat="48.48946" lon="-2.69656">
        <ele>51</ele>
        <time>2013-12-13T08:48:12Z</time>
      </trkpt>
      <trkpt lat="48.48944" lon="-2.69651">
        <ele>51</ele>
        <time>2013-12-13T08:48:14Z</time>
      </trkpt>
      <trkpt lat="48.48943" lon="-2.69647">
        <ele>51</ele>
        <time>2013-12-13T08:48:16Z</time>
      </trkpt>
      <trkpt lat="48.48942" lon="-2.69642">
        <ele>51</ele>
        <time>2013-12-13T08:48:18Z</time>
      </trkpt>
      <trkpt lat="48.48941" lon="-2.69638">
        <ele>51</ele>
        <time>2013-12-13T08:48:20Z</time>
      </trkpt>
      <trkpt lat="48.48941" lon="-2.69634">
        <ele>51</ele>
        <time>2013-12-13T08:48:22Z</time>
      </trkpt>
      <trkpt lat="48.48939" lon="-2.69629">
        <ele>51</ele>
        <time>2013-12-13T08:48:24Z</time>
      </trkpt>
      <trkpt lat="48.48938" lon="-2.69625">
        <ele>51</ele>
        <time>2013-12-13T08:48:26Z</time>
      </trkpt>
      <trkpt lat="48.48937" lon="-2.69621">
        <ele>51</ele>
        <time>2013-12-13T08:48:28Z</time>
      </trkpt>
      <trkpt lat="48.48936" lon="-2.69617">
        <ele>51</ele>
        <time>2013-12-13T08:48:30Z</time>
      </trkpt>
      <trkpt lat="48.48935" lon="-2.69613">
        <ele>51</ele>
        <time>2013-12-13T08:48:32Z</time>
      </trkpt>
      <trkpt lat="48.48933" lon="-2.69608">
        <ele>51</ele>
        <time>2013-12-13T08:48:34Z</time>
      </trkpt>
      <trkpt lat="48.48932" lon="-2.69604">
        <ele>51</ele>
        <time>2013-12-13T08:48:36Z</time>
      </trkpt>
      <trkpt lat="48.48931" lon="-2.696">
        <ele>51</ele>
        <time>2013-12-13T08:48:38Z</time>
      </trkpt>
      <trkpt lat="48.4893" lon="-2.69596">
        <ele>51</ele>
        <time>2013-12-13T08:48:40Z</time>
      </trkpt>
      <trkpt lat="48.48928" lon="-2.69592">
        <ele>51</ele>
        <time>2013-12-13T08:48:42Z</time>
      </trkpt>
      <trkpt lat="48.48927" lon="-2.69587">
        <ele>51</ele>
        <time>2013-12-13T08:48:44Z</time>
      </trkpt>
      <trkpt lat="48.48925" lon="-2.69583">
        <ele>51</ele>
        <time>2013-12-13T08:48:46Z</time>
      </trkpt>
      <trkpt lat="48.48924" lon="-2.69578">
        <ele>51</ele>
        <time>2013-12-13T08:48:48Z</time>
      </trkpt>
      <trkpt lat="48.48923" lon="-2.69574">
        <ele>51</ele>
        <time>2013-12-13T08:48:50Z</time>
      </trkpt>
      <trkpt lat="48.48921" lon="-2.6957">
        <ele>51</ele>
        <time>2013-12-13T08:48:52Z</time>
      </trkpt>
      <trkpt lat="48.4892" lon="-2.69565">
        <ele>51</ele>
        <time>2013-12-13T08:48:54Z</time>
      </trkpt>
      <trkpt lat="48.48919" lon="-2.69561">
        <ele>51</ele>
        <time>2013-12-13T08:48:56Z</time>
      </trkpt>
      <trkpt lat="48.48917" lon="-2.69556">
        <ele>51</ele>
        <time>2013-12-13T08:48:58Z</time>
      </trkpt>
      <trkpt lat="48.48916" lon="-2.69552">
        <ele>50</ele>
        <time>2013-12-13T08:49:00Z</time>
      </trkpt>
      <trkpt lat="48.48915" lon="-2.69548">
        <ele>50</ele>
        <time>2013-12-13T08:49:02Z</time>
      </trkpt>
      <trkpt lat="48.48914" lon="-2.69544">
        <ele>50</ele>
        <time>2013-12-13T08:49:04Z</time>
      </trkpt>
      <trkpt lat="48.48913" lon="-2.6954">
        <ele>50</ele>
        <time>2013-12-13T08:49:06Z</time>
      </trkpt>
      <trkpt lat="48.48912" lon="-2.69535">
        <ele>50</ele>
        <time>2013-12-13T08:49:09Z</time>
      </trkpt>
      <trkpt lat="48.48912" lon="-2.69534">
        <ele>50</ele>
        <time>2013-12-13T08:49:16Z</time>
      </trkpt>
      <trkpt lat="48.48911" lon="-2.69532">
        <ele>50</ele>
        <time>2013-12-13T08:49:46Z</time>
      </trkpt>
      <trkpt lat="48.48912" lon="-2.69534">
        <ele>50</ele>
        <time>2013-12-13T08:49:58Z</time>
      </trkpt>
      <trkpt lat="48.48913" lon="-2.69539">
        <ele>50</ele>
        <time>2013-12-13T08:50:00Z</time>
      </trkpt>
      <trkpt lat="48.48914" lon="-2.69545">
        <ele>50</ele>
        <time>2013-12-13T08:50:02Z</time>
      </trkpt>
      <trkpt lat="48.48916" lon="-2.69552">
        <ele>50</ele>
        <time>2013-12-13T08:50:04Z</time>
      </trkpt>
      <trkpt lat="48.48917" lon="-2.69558">
        <ele>50</ele>
        <time>2013-12-13T08:50:06Z</time>
      </trkpt>
      <trkpt lat="48.48919" lon="-2.69563">
        <ele>50</ele>
        <time>2013-12-13T08:50:08Z</time>
      </trkpt>
      <trkpt lat="48.48921" lon="-2.69567">
        <ele>50</ele>
        <time>2013-12-13T08:50:10Z</time>
      </trkpt>
      <trkpt lat="48.48922" lon="-2.69572">
        <ele>50</ele>
        <time>2013-12-13T08:50:12Z</time>
      </trkpt>
      <trkpt lat="48.48924" lon="-2.69577">
        <ele>50</ele>
        <time>2013-12-13T08:50:14Z</time>
      </trkpt>
      <trkpt lat="48.48925" lon="-2.69582">
        <ele>50</ele>
        <time>2013-12-13T08:50:17Z</time>
      </trkpt>
      <trkpt lat="48.48927" lon="-2.69589">
        <ele>50</ele>
        <time>2013-12-13T08:50:19Z</time>
      </trkpt>
      <trkpt lat="48.48929" lon="-2.69593">
        <ele>50</ele>
        <time>2013-12-13T08:50:21Z</time>
      </trkpt>
      <trkpt lat="48.4893" lon="-2.69598">
        <ele>50</ele>
        <time>2013-12-13T08:50:23Z</time>
      </trkpt>
      <trkpt lat="48.48932" lon="-2.69602">
        <ele>50</ele>
        <time>2013-12-13T08:50:25Z</time>
      </trkpt>
      <trkpt lat="48.48933" lon="-2.69608">
        <ele>50</ele>
        <time>2013-12-13T08:50:27Z</time>
      </trkpt>
      <trkpt lat="48.48935" lon="-2.69613">
        <ele>50</ele>
        <time>2013-12-13T08:50:29Z</time>
      </trkpt>
      <trkpt lat="48.48937" lon="-2.69618">
        <ele>50</ele>
        <time>2013-12-13T08:50:31Z</time>
      </trkpt>
      <trkpt lat="48.48938" lon="-2.69622">
        <ele>50</ele>
        <time>2013-12-13T08:50:33Z</time>
      </trkpt>
      <trkpt lat="48.4894" lon="-2.69626">
        <ele>50</ele>
        <time>2013-12-13T08:50:35Z</time>
      </trkpt>
      <trkpt lat="48.48942" lon="-2.69629">
        <ele>50</ele>
        <time>2013-12-13T08:50:37Z</time>
      </trkpt>
      <trkpt lat="48.48941" lon="-2.69631">
        <ele>50</ele>
        <time>2013-12-13T08:50:56Z</time>
      </trkpt>
      <trkpt lat="48.4894" lon="-2.69632">
        <ele>52</ele>
        <time>2013-12-13T08:51:19Z</time>
      </trkpt>
      <trkpt lat="48.48939" lon="-2.69633">
        <ele>54</ele>
        <time>2013-12-13T08:51:49Z</time>
      </trkpt>
      <trkpt lat="48.48938" lon="-2.69631">
        <ele>55</ele>
        <time>2013-12-13T08:51:53Z</time>
      </trkpt>
      <trkpt lat="48.48938" lon="-2.69627">
        <ele>55</ele>
        <time>2013-12-13T08:51:55Z</time>
      </trkpt>
      <trkpt lat="48.48938" lon="-2.69623">
        <ele>55</ele>
        <time>2013-12-13T08:51:59Z</time>
      </trkpt>
      <trkpt lat="48.48937" lon="-2.69621">
        <ele>55</ele>
        <time>2013-12-13T08:52:06Z</time>
      </trkpt>
      <trkpt lat="48.4894" lon="-2.6962">
        <ele>55</ele>
        <time>2013-12-13T08:52:11Z</time>
      </trkpt>
      <trkpt lat="48.48942" lon="-2.6962">
        <ele>55</ele>
        <time>2013-12-13T08:52:13Z</time>
      </trkpt>
      <trkpt lat="48.48944" lon="-2.69618">
        <ele>55</ele>
        <time>2013-12-13T08:52:15Z</time>
      </trkpt>
      <trkpt lat="48.48943" lon="-2.69618">
        <ele>55</ele>
        <time>2013-12-13T08:52:19Z</time>
      </trkpt>
      <trkpt lat="48.4894" lon="-2.69618">
        <ele>55</ele>
        <time>2013-12-13T08:52:21Z</time>
      </trkpt>
      <trkpt lat="48.48937" lon="-2.69616">
        <ele>55</ele>
        <time>2013-12-13T08:52:23Z</time>
      </trkpt>
      <trkpt lat="48.48935" lon="-2.69613">
        <ele>55</ele>
        <time>2013-12-13T08:52:25Z</time>
      </trkpt>
      <trkpt lat="48.48934" lon="-2.6961">
        <ele>55</ele>
        <time>2013-12-13T08:52:27Z</time>
      </trkpt>
      <trkpt lat="48.48934" lon="-2.69608">
        <ele>55</ele>
        <time>2013-12-13T08:52:29Z</time>
      </trkpt>
      <trkpt lat="48.48933" lon="-2.69606">
        <ele>54</ele>
        <time>2013-12-13T08:52:32Z</time>
      </trkpt>
      <trkpt lat="48.48932" lon="-2.69603">
        <ele>54</ele>
        <time>2013-12-13T08:52:34Z</time>
      </trkpt>
      <trkpt lat="48.48931" lon="-2.696">
        <ele>54</ele>
        <time>2013-12-13T08:52:36Z</time>
      </trkpt>
      <trkpt lat="48.4893" lon="-2.69596">
        <ele>54</ele>
        <time>2013-12-13T08:52:38Z</time>
      </trkpt>
      <trkpt lat="48.48929" lon="-2.69594">
        <ele>53</ele>
        <time>2013-12-13T08:52:40Z</time>
      </trkpt>
      <trkpt lat="48.48928" lon="-2.69592">
        <ele>53</ele>
        <time>2013-12-13T08:52:43Z</time>
      </trkpt>
      <trkpt lat="48.48927" lon="-2.69588">
        <ele>53</ele>
        <time>2013-12-13T08:52:45Z</time>
      </trkpt>
      <trkpt lat="48.48925" lon="-2.69584">
        <ele>53</ele>
        <time>2013-12-13T08:52:47Z</time>
      </trkpt>
      <trkpt lat="48.48925" lon="-2.69579">
        <ele>53</ele>
        <time>2013-12-13T08:52:49Z</time>
      </trkpt>
      <trkpt lat="48.48923" lon="-2.69575">
        <ele>53</ele>
        <time>2013-12-13T08:52:51Z</time>
      </trkpt>
      <trkpt lat="48.48922" lon="-2.69571">
        <ele>53</ele>
        <time>2013-12-13T08:52:53Z</time>
      </trkpt>
      <trkpt lat="48.48921" lon="-2.69566">
        <ele>53</ele>
        <time>2013-12-13T08:52:55Z</time>
      </trkpt>
      <trkpt lat="48.4892" lon="-2.69562">
        <ele>53</ele>
        <time>2013-12-13T08:52:57Z</time>
      </trkpt>
      <trkpt lat="48.48918" lon="-2.69558">
        <ele>53</ele>
        <time>2013-12-13T08:52:59Z</time>
      </trkpt>
      <trkpt lat="48.48917" lon="-2.69554">
        <ele>53</ele>
        <time>2013-12-13T08:53:01Z</time>
      </trkpt>
      <trkpt lat="48.48915" lon="-2.6955">
        <ele>53</ele>
        <time>2013-12-13T08:53:03Z</time>
      </trkpt>
      <trkpt lat="48.48914" lon="-2.69546">
        <ele>52</ele>
        <time>2013-12-13T08:53:05Z</time>
      </trkpt>
      <trkpt lat="48.48914" lon="-2.69542">
        <ele>52</ele>
        <time>2013-12-13T08:53:07Z</time>
      </trkpt>
      <trkpt lat="48.48913" lon="-2.69537">
        <ele>52</ele>
        <time>2013-12-13T08:53:09Z</time>
      </trkpt>
      <trkpt lat="48.48912" lon="-2.69534">
        <ele>51</ele>
        <time>2013-12-13T08:53:11Z</time>
      </trkpt>
      <trkpt lat="48.48911" lon="-2.6953">
        <ele>51</ele>
        <time>2013-12-13T08:53:13Z</time>
      </trkpt>
      <trkpt lat="48.48909" lon="-2.69525">
        <ele>51</ele>
        <time>2013-12-13T08:53:15Z</time>
      </trkpt>
      <trkpt lat="48.48908" lon="-2.69521">
        <ele>51</ele>
        <time>2013-12-13T08:53:17Z</time>
      </trkpt>
      <trkpt lat="48.48906" lon="-2.69516">
        <ele>51</ele>
        <time>2013-12-13T08:53:19Z</time>
      </trkpt>
      <trkpt lat="48.48906" lon="-2.69512">
        <ele>51</ele>
        <time>2013-12-13T08:53:21Z</time>
      </trkpt>
      <trkpt lat="48.48905" lon="-2.69508">
        <ele>50</ele>
        <time>2013-12-13T08:53:24Z</time>
      </trkpt>
      <trkpt lat="48.48904" lon="-2.69505">
        <ele>50</ele>
        <time>2013-12-13T08:53:26Z</time>
      </trkpt>
      <trkpt lat="48.48902" lon="-2.69501">
        <ele>50</ele>
        <time>2013-12-13T08:53:28Z</time>
      </trkpt>
      <trkpt lat="48.48901" lon="-2.69497">
        <ele>50</ele>
        <time>2013-12-13T08:53:30Z</time>
      </trkpt>
      <trkpt lat="48.48899" lon="-2.69493">
        <ele>50</ele>
        <time>2013-12-13T08:53:32Z</time>
      </trkpt>
      <trkpt lat="48.48898" lon="-2.69489">
        <ele>50</ele>
        <time>2013-12-13T08:53:34Z</time>
      </trkpt>
      <trkpt lat="48.48897" lon="-2.69485">
        <ele>50</ele>
        <time>2013-12-13T08:53:36Z</time>
      </trkpt>
      <trkpt lat="48.48896" lon="-2.69481">
        <ele>49</ele>
        <time>2013-12-13T08:53:38Z</time>
      </trkpt>
      <trkpt lat="48.48895" lon="-2.69476">
        <ele>49</ele>
        <time>2013-12-13T08:53:40Z</time>
      </trkpt>
      <trkpt lat="48.48893" lon="-2.69472">
        <ele>49</ele>
        <time>2013-12-13T08:53:42Z</time>
      </trkpt>
      <trkpt lat="48.48892" lon="-2.69468">
        <ele>49</ele>
        <time>2013-12-13T08:53:44Z</time>
      </trkpt>
      <trkpt lat="48.48891" lon="-2.69464">
        <ele>49</ele>
        <time>2013-12-13T08:53:46Z</time>
      </trkpt>
      <trkpt lat="48.4889" lon="-2.6946">
        <ele>49</ele>
        <time>2013-12-13T08:53:48Z</time>
      </trkpt>
      <trkpt lat="48.48888" lon="-2.69455">
        <ele>49</ele>
        <time>2013-12-13T08:53:50Z</time>
      </trkpt>
      <trkpt lat="48.48887" lon="-2.69451">
        <ele>49</ele>
        <time>2013-12-13T08:53:52Z</time>
      </trkpt>
      <trkpt lat="48.48886" lon="-2.69447">
        <ele>49</ele>
        <time>2013-12-13T08:53:54Z</time>
      </trkpt>
      <trkpt lat="48.48885" lon="-2.69442">
        <ele>49</ele>
        <time>2013-12-13T08:53:56Z</time>
      </trkpt>
      <trkpt lat="48.48883" lon="-2.69438">
        <ele>49</ele>
        <time>2013-12-13T08:53:58Z</time>
      </trkpt>
      <trkpt lat="48.48882" lon="-2.69434">
        <ele>49</ele>
        <time>2013-12-13T08:54:00Z</time>
      </trkpt>
      <trkpt lat="48.48881" lon="-2.6943">
        <ele>49</ele>
        <time>2013-12-13T08:54:02Z</time>
      </trkpt>
      <trkpt lat="48.4888" lon="-2.69426">
        <ele>49</ele>
        <time>2013-12-13T08:54:04Z</time>
      </trkpt>
      <trkpt lat="48.48879" lon="-2.69422">
        <ele>49</ele>
        <time>2013-12-13T08:54:06Z</time>
      </trkpt>
      <trkpt lat="48.48878" lon="-2.69417">
        <ele>48</ele>
        <time>2013-12-13T08:54:08Z</time>
      </trkpt>
      <trkpt lat="48.48877" lon="-2.69413">
        <ele>48</ele>
        <time>2013-12-13T08:54:10Z</time>
      </trkpt>
      <trkpt lat="48.48875" lon="-2.69409">
        <ele>48</ele>
        <time>2013-12-13T08:54:12Z</time>
      </trkpt>
      <trkpt lat="48.48874" lon="-2.69405">
        <ele>48</ele>
        <time>2013-12-13T08:54:14Z</time>
      </trkpt>
      <trkpt lat="48.48873" lon="-2.69401">
        <ele>48</ele>
        <time>2013-12-13T08:54:16Z</time>
      </trkpt>
      <trkpt lat="48.48872" lon="-2.69396">
        <ele>48</ele>
        <time>2013-12-13T08:54:18Z</time>
      </trkpt>
      <trkpt lat="48.4887" lon="-2.69392">
        <ele>48</ele>
        <time>2013-12-13T08:54:20Z</time>
      </trkpt>
      <trkpt lat="48.48869" lon="-2.69388">
        <ele>48</ele>
        <time>2013-12-13T08:54:22Z</time>
      </trkpt>
      <trkpt lat="48.48868" lon="-2.69383">
        <ele>47</ele>
        <time>2013-12-13T08:54:24Z</time>
      </trkpt>
      <trkpt lat="48.48867" lon="-2.69378">
        <ele>47</ele>
        <time>2013-12-13T08:54:26Z</time>
      </trkpt>
      <trkpt lat="48.48867" lon="-2.69373">
        <ele>47</ele>
        <time>2013-12-13T08:54:28Z</time>
      </trkpt>
      <trkpt lat="48.48866" lon="-2.69369">
        <ele>47</ele>
        <time>2013-12-13T08:54:30Z</time>
      </trkpt>
      <trkpt lat="48.48865" lon="-2.69365">
        <ele>47</ele>
        <time>2013-12-13T08:54:32Z</time>
      </trkpt>
      <trkpt lat="48.48864" lon="-2.6936">
        <ele>46</ele>
        <time>2013-12-13T08:54:34Z</time>
      </trkpt>
      <trkpt lat="48.48862" lon="-2.69356">
        <ele>46</ele>
        <time>2013-12-13T08:54:36Z</time>
      </trkpt>
      <trkpt lat="48.48861" lon="-2.69351">
        <ele>46</ele>
        <time>2013-12-13T08:54:38Z</time>
      </trkpt>
      <trkpt lat="48.4886" lon="-2.69347">
        <ele>45</ele>
        <time>2013-12-13T08:54:40Z</time>
      </trkpt>
      <trkpt lat="48.48859" lon="-2.69342">
        <ele>45</ele>
        <time>2013-12-13T08:54:42Z</time>
      </trkpt>
      <trkpt lat="48.48857" lon="-2.69338">
        <ele>45</ele>
        <time>2013-12-13T08:54:44Z</time>
      </trkpt>
      <trkpt lat="48.48855" lon="-2.69334">
        <ele>45</ele>
        <time>2013-12-13T08:54:46Z</time>
      </trkpt>
      <trkpt lat="48.48854" lon="-2.6933">
        <ele>45</ele>
        <time>2013-12-13T08:54:48Z</time>
      </trkpt>
      <trkpt lat="48.48852" lon="-2.69326">
        <ele>45</ele>
        <time>2013-12-13T08:54:50Z</time>
      </trkpt>
      <trkpt lat="48.48851" lon="-2.69321">
        <ele>45</ele>
        <time>2013-12-13T08:54:52Z</time>
      </trkpt>
      <trkpt lat="48.48849" lon="-2.69317">
        <ele>45</ele>
        <time>2013-12-13T08:54:54Z</time>
      </trkpt>
      <trkpt lat="48.48848" lon="-2.69313">
        <ele>45</ele>
        <time>2013-12-13T08:54:56Z</time>
      </trkpt>
      <trkpt lat="48.48847" lon="-2.69308">
        <ele>45</ele>
        <time>2013-12-13T08:54:58Z</time>
      </trkpt>
      <trkpt lat="48.48845" lon="-2.69304">
        <ele>45</ele>
        <time>2013-12-13T08:55:00Z</time>
      </trkpt>
      <trkpt lat="48.48844" lon="-2.693">
        <ele>45</ele>
        <time>2013-12-13T08:55:02Z</time>
      </trkpt>
      <trkpt lat="48.48842" lon="-2.69295">
        <ele>45</ele>
        <time>2013-12-13T08:55:04Z</time>
      </trkpt>
      <trkpt lat="48.48841" lon="-2.69291">
        <ele>45</ele>
        <time>2013-12-13T08:55:06Z</time>
      </trkpt>
      <trkpt lat="48.4884" lon="-2.69286">
        <ele>44</ele>
        <time>2013-12-13T08:55:08Z</time>
      </trkpt>
      <trkpt lat="48.48838" lon="-2.69282">
        <ele>44</ele>
        <time>2013-12-13T08:55:10Z</time>
      </trkpt>
      <trkpt lat="48.48837" lon="-2.69277">
        <ele>44</ele>
        <time>2013-12-13T08:55:12Z</time>
      </trkpt>
      <trkpt lat="48.48836" lon="-2.69272">
        <ele>44</ele>
        <time>2013-12-13T08:55:14Z</time>
      </trkpt>
      <trkpt lat="48.48834" lon="-2.69268">
        <ele>43</ele>
        <time>2013-12-13T08:55:16Z</time>
      </trkpt>
      <trkpt lat="48.48833" lon="-2.69264">
        <ele>43</ele>
        <time>2013-12-13T08:55:18Z</time>
      </trkpt>
      <trkpt lat="48.48832" lon="-2.69259">
        <ele>43</ele>
        <time>2013-12-13T08:55:20Z</time>
      </trkpt>
      <trkpt lat="48.4883" lon="-2.69254">
        <ele>43</ele>
        <time>2013-12-13T08:55:22Z</time>
      </trkpt>
      <trkpt lat="48.48829" lon="-2.6925">
        <ele>43</ele>
        <time>2013-12-13T08:55:24Z</time>
      </trkpt>
      <trkpt lat="48.48828" lon="-2.69246">
        <ele>42</ele>
        <time>2013-12-13T08:55:26Z</time>
      </trkpt>
      <trkpt lat="48.48827" lon="-2.69241">
        <ele>42</ele>
        <time>2013-12-13T08:55:28Z</time>
      </trkpt>
      <trkpt lat="48.48826" lon="-2.69237">
        <ele>42</ele>
        <time>2013-12-13T08:55:30Z</time>
      </trkpt>
      <trkpt lat="48.48824" lon="-2.69232">
        <ele>42</ele>
        <time>2013-12-13T08:55:32Z</time>
      </trkpt>
      <trkpt lat="48.48823" lon="-2.69228">
        <ele>42</ele>
        <time>2013-12-13T08:55:34Z</time>
      </trkpt>
      <trkpt lat="48.48822" lon="-2.69223">
        <ele>42</ele>
        <time>2013-12-13T08:55:36Z</time>
      </trkpt>
      <trkpt lat="48.4882" lon="-2.69219">
        <ele>42</ele>
        <time>2013-12-13T08:55:38Z</time>
      </trkpt>
      <trkpt lat="48.48819" lon="-2.69215">
        <ele>42</ele>
        <time>2013-12-13T08:55:40Z</time>
      </trkpt>
      <trkpt lat="48.48818" lon="-2.6921">
        <ele>41</ele>
        <time>2013-12-13T08:55:42Z</time>
      </trkpt>
      <trkpt lat="48.48817" lon="-2.69206">
        <ele>41</ele>
        <time>2013-12-13T08:55:44Z</time>
      </trkpt>
      <trkpt lat="48.48816" lon="-2.69201">
        <ele>41</ele>
        <time>2013-12-13T08:55:46Z</time>
      </trkpt>
      <trkpt lat="48.48814" lon="-2.69197">
        <ele>41</ele>
        <time>2013-12-13T08:55:48Z</time>
      </trkpt>
      <trkpt lat="48.48813" lon="-2.69193">
        <ele>41</ele>
        <time>2013-12-13T08:55:50Z</time>
      </trkpt>
      <trkpt lat="48.48812" lon="-2.69189">
        <ele>41</ele>
        <time>2013-12-13T08:55:52Z</time>
      </trkpt>
      <trkpt lat="48.4881" lon="-2.69184">
        <ele>41</ele>
        <time>2013-12-13T08:55:54Z</time>
      </trkpt>
      <trkpt lat="48.48809" lon="-2.6918">
        <ele>40</ele>
        <time>2013-12-13T08:55:56Z</time>
      </trkpt>
      <trkpt lat="48.48808" lon="-2.69175">
        <ele>40</ele>
        <time>2013-12-13T08:55:58Z</time>
      </trkpt>
      <trkpt lat="48.48806" lon="-2.69171">
        <ele>40</ele>
        <time>2013-12-13T08:56:00Z</time>
      </trkpt>
      <trkpt lat="48.48805" lon="-2.69166">
        <ele>40</ele>
        <time>2013-12-13T08:56:02Z</time>
      </trkpt>
      <trkpt lat="48.48804" lon="-2.69161">
        <ele>39</ele>
        <time>2013-12-13T08:56:04Z</time>
      </trkpt>
      <trkpt lat="48.48803" lon="-2.69157">
        <ele>39</ele>
        <time>2013-12-13T08:56:06Z</time>
      </trkpt>
      <trkpt lat="48.48801" lon="-2.69152">
        <ele>39</ele>
        <time>2013-12-13T08:56:08Z</time>
      </trkpt>
      <trkpt lat="48.488" lon="-2.69147">
        <ele>38</ele>
        <time>2013-12-13T08:56:10Z</time>
      </trkpt>
      <trkpt lat="48.48799" lon="-2.69143">
        <ele>38</ele>
        <time>2013-12-13T08:56:12Z</time>
      </trkpt>
      <trkpt lat="48.48797" lon="-2.69138">
        <ele>38</ele>
        <time>2013-12-13T08:56:14Z</time>
      </trkpt>
      <trkpt lat="48.48796" lon="-2.69134">
        <ele>38</ele>
        <time>2013-12-13T08:56:16Z</time>
      </trkpt>
      <trkpt lat="48.48794" lon="-2.69129">
        <ele>38</ele>
        <time>2013-12-13T08:56:18Z</time>
      </trkpt>
      <trkpt lat="48.48793" lon="-2.69125">
        <ele>38</ele>
        <time>2013-12-13T08:56:20Z</time>
      </trkpt>
      <trkpt lat="48.48792" lon="-2.69121">
        <ele>38</ele>
        <time>2013-12-13T08:56:22Z</time>
      </trkpt>
      <trkpt lat="48.48791" lon="-2.69117">
        <ele>37</ele>
        <time>2013-12-13T08:56:24Z</time>
      </trkpt>
      <trkpt lat="48.4879" lon="-2.69113">
        <ele>37</ele>
        <time>2013-12-13T08:56:26Z</time>
      </trkpt>
      <trkpt lat="48.48788" lon="-2.69109">
        <ele>37</ele>
        <time>2013-12-13T08:56:28Z</time>
      </trkpt>
      <trkpt lat="48.48788" lon="-2.69105">
        <ele>37</ele>
        <time>2013-12-13T08:56:30Z</time>
      </trkpt>
      <trkpt lat="48.48786" lon="-2.691">
        <ele>37</ele>
        <time>2013-12-13T08:56:32Z</time>
      </trkpt>
      <trkpt lat="48.48785" lon="-2.69096">
        <ele>37</ele>
        <time>2013-12-13T08:56:34Z</time>
      </trkpt>
      <trkpt lat="48.48784" lon="-2.69092">
        <ele>37</ele>
        <time>2013-12-13T08:56:36Z</time>
      </trkpt>
      <trkpt lat="48.48782" lon="-2.69088">
        <ele>36</ele>
        <time>2013-12-13T08:56:38Z</time>
      </trkpt>
      <trkpt lat="48.48781" lon="-2.69084">
        <ele>36</ele>
        <time>2013-12-13T08:56:40Z</time>
      </trkpt>
      <trkpt lat="48.4878" lon="-2.69079">
        <ele>36</ele>
        <time>2013-12-13T08:56:42Z</time>
      </trkpt>
      <trkpt lat="48.48779" lon="-2.69075">
        <ele>36</ele>
        <time>2013-12-13T08:56:44Z</time>
      </trkpt>
      <trkpt lat="48.48777" lon="-2.69071">
        <ele>36</ele>
        <time>2013-12-13T08:56:46Z</time>
      </trkpt>
      <trkpt lat="48.48776" lon="-2.69067">
        <ele>36</ele>
        <time>2013-12-13T08:56:48Z</time>
      </trkpt>
      <trkpt lat="48.48775" lon="-2.69063">
        <ele>35</ele>
        <time>2013-12-13T08:56:50Z</time>
      </trkpt>
      <trkpt lat="48.48774" lon="-2.69058">
        <ele>35</ele>
        <time>2013-12-13T08:56:52Z</time>
      </trkpt>
      <trkpt lat="48.48772" lon="-2.69054">
        <ele>35</ele>
        <time>2013-12-13T08:56:54Z</time>
      </trkpt>
      <trkpt lat="48.48771" lon="-2.6905">
        <ele>35</ele>
        <time>2013-12-13T08:56:56Z</time>
      </trkpt>
      <trkpt lat="48.4877" lon="-2.69045">
        <ele>35</ele>
        <time>2013-12-13T08:56:58Z</time>
      </trkpt>
      <trkpt lat="48.48769" lon="-2.69041">
        <ele>35</ele>
        <time>2013-12-13T08:57:00Z</time>
      </trkpt>
      <trkpt lat="48.48767" lon="-2.69037">
        <ele>35</ele>
        <time>2013-12-13T08:57:02Z</time>
      </trkpt>
      <trkpt lat="48.48766" lon="-2.69032">
        <ele>35</ele>
        <time>2013-12-13T08:57:04Z</time>
      </trkpt>
      <trkpt lat="48.48764" lon="-2.69028">
        <ele>35</ele>
        <time>2013-12-13T08:57:06Z</time>
      </trkpt>
      <trkpt lat="48.48764" lon="-2.69024">
        <ele>35</ele>
        <time>2013-12-13T08:57:08Z</time>
      </trkpt>
      <trkpt lat="48.48763" lon="-2.6902">
        <ele>34</ele>
        <time>2013-12-13T08:57:10Z</time>
      </trkpt>
      <trkpt lat="48.48762" lon="-2.69016">
        <ele>34</ele>
        <time>2013-12-13T08:57:12Z</time>
      </trkpt>
      <trkpt lat="48.48762" lon="-2.69011">
        <ele>33</ele>
        <time>2013-12-13T08:57:14Z</time>
      </trkpt>
      <trkpt lat="48.48762" lon="-2.69006">
        <ele>33</ele>
        <time>2013-12-13T08:57:16Z</time>
      </trkpt>
      <trkpt lat="48.48764" lon="-2.69003">
        <ele>33</ele>
        <time>2013-12-13T08:57:18Z</time>
      </trkpt>
      <trkpt lat="48.48766" lon="-2.68999">
        <ele>33</ele>
        <time>2013-12-13T08:57:20Z</time>
      </trkpt>
      <trkpt lat="48.48767" lon="-2.68995">
        <ele>33</ele>
        <time>2013-12-13T08:57:22Z</time>
      </trkpt>
      <trkpt lat="48.48771" lon="-2.6899">
        <ele>32</ele>
        <time>2013-12-13T08:57:25Z</time>
      </trkpt>
      <trkpt lat="48.48773" lon="-2.68987">
        <ele>32</ele>
        <time>2013-12-13T08:57:27Z</time>
      </trkpt>
      <trkpt lat="48.48776" lon="-2.68983">
        <ele>32</ele>
        <time>2013-12-13T08:57:30Z</time>
      </trkpt>
      <trkpt lat="48.48778" lon="-2.6898">
        <ele>32</ele>
        <time>2013-12-13T08:57:32Z</time>
      </trkpt>
      <trkpt lat="48.4878" lon="-2.68976">
        <ele>32</ele>
        <time>2013-12-13T08:57:34Z</time>
      </trkpt>
      <trkpt lat="48.48782" lon="-2.68973">
        <ele>31</ele>
        <time>2013-12-13T08:57:36Z</time>
      </trkpt>
      <trkpt lat="48.48783" lon="-2.6897">
        <ele>31</ele>
        <time>2013-12-13T08:57:38Z</time>
      </trkpt>
      <trkpt lat="48.48786" lon="-2.68965">
        <ele>31</ele>
        <time>2013-12-13T08:57:41Z</time>
      </trkpt>
      <trkpt lat="48.48788" lon="-2.6896">
        <ele>31</ele>
        <time>2013-12-13T08:57:44Z</time>
      </trkpt>
      <trkpt lat="48.4879" lon="-2.68957">
        <ele>30</ele>
        <time>2013-12-13T08:57:46Z</time>
      </trkpt>
      <trkpt lat="48.48791" lon="-2.68953">
        <ele>30</ele>
        <time>2013-12-13T08:57:48Z</time>
      </trkpt>
      <trkpt lat="48.48792" lon="-2.68949">
        <ele>30</ele>
        <time>2013-12-13T08:57:50Z</time>
      </trkpt>
      <trkpt lat="48.48793" lon="-2.68946">
        <ele>30</ele>
        <time>2013-12-13T08:57:52Z</time>
      </trkpt>
      <trkpt lat="48.48793" lon="-2.68942">
        <ele>30</ele>
        <time>2013-12-13T08:57:54Z</time>
      </trkpt>
      <trkpt lat="48.48794" lon="-2.68938">
        <ele>30</ele>
        <time>2013-12-13T08:57:56Z</time>
      </trkpt>
      <trkpt lat="48.48795" lon="-2.68934">
        <ele>30</ele>
        <time>2013-12-13T08:57:58Z</time>
      </trkpt>
      <trkpt lat="48.48796" lon="-2.68931">
        <ele>30</ele>
        <time>2013-12-13T08:58:07Z</time>
      </trkpt>
      <trkpt lat="48.48795" lon="-2.6893">
        <ele>30</ele>
        <time>2013-12-13T08:58:16Z</time>
      </trkpt>
      <trkpt lat="48.48795" lon="-2.68927">
        <ele>30</ele>
        <time>2013-12-13T08:58:18Z</time>
      </trkpt>
      <trkpt lat="48.48795" lon="-2.68922">
        <ele>30</ele>
        <time>2013-12-13T08:58:20Z</time>
      </trkpt>
      <trkpt lat="48.48796" lon="-2.68918">
        <ele>30</ele>
        <time>2013-12-13T08:58:22Z</time>
      </trkpt>
      <trkpt lat="48.48795" lon="-2.68916">
        <ele>30</ele>
        <time>2013-12-13T08:58:30Z</time>
      </trkpt>
      <trkpt lat="48.48795" lon="-2.68911">
        <ele>30</ele>
        <time>2013-12-13T08:58:32Z</time>
      </trkpt>
      <trkpt lat="48.48795" lon="-2.68906">
        <ele>30</ele>
        <time>2013-12-13T08:58:34Z</time>
      </trkpt>
      <trkpt lat="48.48796" lon="-2.68902">
        <ele>29</ele>
        <time>2013-12-13T08:58:36Z</time>
      </trkpt>
      <trkpt lat="48.48796" lon="-2.68897">
        <ele>29</ele>
        <time>2013-12-13T08:58:38Z</time>
      </trkpt>
      <trkpt lat="48.48798" lon="-2.68891">
        <ele>29</ele>
        <time>2013-12-13T08:58:40Z</time>
      </trkpt>
      <trkpt lat="48.488" lon="-2.68887">
        <ele>28</ele>
        <time>2013-12-13T08:58:42Z</time>
      </trkpt>
      <trkpt lat="48.488" lon="-2.68883">
        <ele>28</ele>
        <time>2013-12-13T08:58:44Z</time>
      </trkpt>
      <trkpt lat="48.488" lon="-2.68878">
        <ele>28</ele>
        <time>2013-12-13T08:58:46Z</time>
      </trkpt>
      <trkpt lat="48.48801" lon="-2.68873">
        <ele>27</ele>
        <time>2013-12-13T08:58:48Z</time>
      </trkpt>
      <trkpt lat="48.48801" lon="-2.68869">
        <ele>27</ele>
        <time>2013-12-13T08:58:50Z</time>
      </trkpt>
      <trkpt lat="48.48802" lon="-2.68864">
        <ele>27</ele>
        <time>2013-12-13T08:58:52Z</time>
      </trkpt>
      <trkpt lat="48.48803" lon="-2.6886">
        <ele>27</ele>
        <time>2013-12-13T08:58:54Z</time>
      </trkpt>
      <trkpt lat="48.48804" lon="-2.68856">
        <ele>26</ele>
        <time>2013-12-13T08:58:56Z</time>
      </trkpt>
      <trkpt lat="48.48804" lon="-2.68851">
        <ele>26</ele>
        <time>2013-12-13T08:58:58Z</time>
      </trkpt>
      <trkpt lat="48.48805" lon="-2.68847">
        <ele>26</ele>
        <time>2013-12-13T08:59:00Z</time>
      </trkpt>
      <trkpt lat="48.48806" lon="-2.68842">
        <ele>26</ele>
        <time>2013-12-13T08:59:02Z</time>
      </trkpt>
      <trkpt lat="48.48807" lon="-2.68837">
        <ele>25</ele>
        <time>2013-12-13T08:59:04Z</time>
      </trkpt>
      <trkpt lat="48.48808" lon="-2.68833">
        <ele>25</ele>
        <time>2013-12-13T08:59:06Z</time>
      </trkpt>
      <trkpt lat="48.48809" lon="-2.68829">
        <ele>25</ele>
        <time>2013-12-13T08:59:08Z</time>
      </trkpt>
      <trkpt lat="48.48809" lon="-2.68826">
        <ele>25</ele>
        <time>2013-12-13T08:59:10Z</time>
      </trkpt>
      <trkpt lat="48.48811" lon="-2.68821">
        <ele>25</ele>
        <time>2013-12-13T08:59:12Z</time>
      </trkpt>
      <trkpt lat="48.48812" lon="-2.68816">
        <ele>24</ele>
        <time>2013-12-13T08:59:14Z</time>
      </trkpt>
      <trkpt lat="48.48812" lon="-2.68812">
        <ele>24</ele>
        <time>2013-12-13T08:59:16Z</time>
      </trkpt>
      <trkpt lat="48.48813" lon="-2.68808">
        <ele>24</ele>
        <time>2013-12-13T08:59:18Z</time>
      </trkpt>
      <trkpt lat="48.48814" lon="-2.68804">
        <ele>24</ele>
        <time>2013-12-13T08:59:20Z</time>
      </trkpt>
      <trkpt lat="48.48814" lon="-2.68799">
        <ele>24</ele>
        <time>2013-12-13T08:59:22Z</time>
      </trkpt>
      <trkpt lat="48.48815" lon="-2.68795">
        <ele>24</ele>
        <time>2013-12-13T08:59:24Z</time>
      </trkpt>
      <trkpt lat="48.48817" lon="-2.6879">
        <ele>24</ele>
        <time>2013-12-13T08:59:26Z</time>
      </trkpt>
      <trkpt lat="48.48818" lon="-2.68785">
        <ele>23</ele>
        <time>2013-12-13T08:59:28Z</time>
      </trkpt>
      <trkpt lat="48.48819" lon="-2.68781">
        <ele>23</ele>
        <time>2013-12-13T08:59:30Z</time>
      </trkpt>
      <trkpt lat="48.48819" lon="-2.68777">
        <ele>23</ele>
        <time>2013-12-13T08:59:32Z</time>
      </trkpt>
      <trkpt lat="48.4882" lon="-2.68772">
        <ele>23</ele>
        <time>2013-12-13T08:59:34Z</time>
      </trkpt>
      <trkpt lat="48.48821" lon="-2.68768">
        <ele>23</ele>
        <time>2013-12-13T08:59:36Z</time>
      </trkpt>
      <trkpt lat="48.48822" lon="-2.68764">
        <ele>23</ele>
        <time>2013-12-13T08:59:38Z</time>
      </trkpt>
      <trkpt lat="48.48823" lon="-2.6876">
        <ele>23</ele>
        <time>2013-12-13T08:59:40Z</time>
      </trkpt>
      <trkpt lat="48.48824" lon="-2.68756">
        <ele>23</ele>
        <time>2013-12-13T08:59:42Z</time>
      </trkpt>
      <trkpt lat="48.48825" lon="-2.68752">
        <ele>23</ele>
        <time>2013-12-13T08:59:44Z</time>
      </trkpt>
      <trkpt lat="48.48827" lon="-2.68747">
        <ele>23</ele>
        <time>2013-12-13T08:59:46Z</time>
      </trkpt>
      <trkpt lat="48.48827" lon="-2.68742">
        <ele>23</ele>
        <time>2013-12-13T08:59:48Z</time>
      </trkpt>
      <trkpt lat="48.48828" lon="-2.68738">
        <ele>23</ele>
        <time>2013-12-13T08:59:50Z</time>
      </trkpt>
      <trkpt lat="48.48829" lon="-2.68734">
        <ele>23</ele>
        <time>2013-12-13T08:59:52Z</time>
      </trkpt>
      <trkpt lat="48.4883" lon="-2.68729">
        <ele>22</ele>
        <time>2013-12-13T08:59:54Z</time>
      </trkpt>
      <trkpt lat="48.48831" lon="-2.68725">
        <ele>22</ele>
        <time>2013-12-13T08:59:56Z</time>
      </trkpt>
      <trkpt lat="48.48832" lon="-2.68721">
        <ele>22</ele>
        <time>2013-12-13T08:59:58Z</time>
      </trkpt>
      <trkpt lat="48.48833" lon="-2.68716">
        <ele>22</ele>
        <time>2013-12-13T09:00:00Z</time>
      </trkpt>
      <trkpt lat="48.48834" lon="-2.68712">
        <ele>21</ele>
        <time>2013-12-13T09:00:02Z</time>
      </trkpt>
      <trkpt lat="48.48835" lon="-2.68707">
        <ele>21</ele>
        <time>2013-12-13T09:00:04Z</time>
      </trkpt>
      <trkpt lat="48.48836" lon="-2.68702">
        <ele>21</ele>
        <time>2013-12-13T09:00:06Z</time>
      </trkpt>
      <trkpt lat="48.48837" lon="-2.68697">
        <ele>21</ele>
        <time>2013-12-13T09:00:08Z</time>
      </trkpt>
      <trkpt lat="48.48837" lon="-2.68693">
        <ele>20</ele>
        <time>2013-12-13T09:00:10Z</time>
      </trkpt>
      <trkpt lat="48.48839" lon="-2.68686">
        <ele>19</ele>
        <time>2013-12-13T09:00:13Z</time>
      </trkpt>
      <trkpt lat="48.4884" lon="-2.68681">
        <ele>19</ele>
        <time>2013-12-13T09:00:15Z</time>
      </trkpt>
      <trkpt lat="48.48841" lon="-2.68676">
        <ele>19</ele>
        <time>2013-12-13T09:00:17Z</time>
      </trkpt>
      <trkpt lat="48.48842" lon="-2.68671">
        <ele>18</ele>
        <time>2013-12-13T09:00:19Z</time>
      </trkpt>
      <trkpt lat="48.48843" lon="-2.68667">
        <ele>18</ele>
        <time>2013-12-13T09:00:21Z</time>
      </trkpt>
      <trkpt lat="48.48843" lon="-2.68662">
        <ele>18</ele>
        <time>2013-12-13T09:00:23Z</time>
      </trkpt>
      <trkpt lat="48.48844" lon="-2.68656">
        <ele>18</ele>
        <time>2013-12-13T09:00:26Z</time>
      </trkpt>
      <trkpt lat="48.48845" lon="-2.68652">
        <ele>18</ele>
        <time>2013-12-13T09:00:28Z</time>
      </trkpt>
      <trkpt lat="48.48846" lon="-2.68648">
        <ele>18</ele>
        <time>2013-12-13T09:00:30Z</time>
      </trkpt>
      <trkpt lat="48.48846" lon="-2.68644">
        <ele>18</ele>
        <time>2013-12-13T09:00:32Z</time>
      </trkpt>
      <trkpt lat="48.48847" lon="-2.6864">
        <ele>18</ele>
        <time>2013-12-13T09:00:34Z</time>
      </trkpt>
      <trkpt lat="48.48847" lon="-2.68636">
        <ele>18</ele>
        <time>2013-12-13T09:00:36Z</time>
      </trkpt>
      <trkpt lat="48.48848" lon="-2.68633">
        <ele>18</ele>
        <time>2013-12-13T09:00:38Z</time>
      </trkpt>
      <trkpt lat="48.48848" lon="-2.68628">
        <ele>18</ele>
        <time>2013-12-13T09:00:40Z</time>
      </trkpt>
      <trkpt lat="48.48849" lon="-2.68624">
        <ele>18</ele>
        <time>2013-12-13T09:00:42Z</time>
      </trkpt>
      <trkpt lat="48.48849" lon="-2.68618">
        <ele>18</ele>
        <time>2013-12-13T09:00:45Z</time>
      </trkpt>
      <trkpt lat="48.4885" lon="-2.68615">
        <ele>18</ele>
        <time>2013-12-13T09:00:47Z</time>
      </trkpt>
      <trkpt lat="48.48851" lon="-2.68608">
        <ele>18</ele>
        <time>2013-12-13T09:00:51Z</time>
      </trkpt>
      <trkpt lat="48.48851" lon="-2.68606">
        <ele>18</ele>
        <time>2013-12-13T09:01:06Z</time>
      </trkpt>
      <trkpt lat="48.48851" lon="-2.68599">
        <ele>18</ele>
        <time>2013-12-13T09:01:10Z</time>
      </trkpt>
      <trkpt lat="48.48851" lon="-2.68597">
        <ele>18</ele>
        <time>2013-12-13T09:01:12Z</time>
      </trkpt>
      <trkpt lat="48.48851" lon="-2.68594">
        <ele>18</ele>
        <time>2013-12-13T09:01:38Z</time>
      </trkpt>
      <trkpt lat="48.48849" lon="-2.68591">
        <ele>18</ele>
        <time>2013-12-13T09:02:24Z</time>
      </trkpt>
      <trkpt lat="48.48849" lon="-2.68589">
        <ele>18</ele>
        <time>2013-12-13T09:02:58Z</time>
      </trkpt>
      <trkpt lat="48.48848" lon="-2.68587">
        <ele>18</ele>
        <time>2013-12-13T09:03:03Z</time>
      </trkpt>
      <trkpt lat="48.48843" lon="-2.68582">
        <ele>18</ele>
        <time>2013-12-13T09:03:07Z</time>
      </trkpt>
      <trkpt lat="48.48841" lon="-2.6858">
        <ele>18</ele>
        <time>2013-12-13T09:03:09Z</time>
      </trkpt>
      <trkpt lat="48.48838" lon="-2.68578">
        <ele>18</ele>
        <time>2013-12-13T09:03:11Z</time>
      </trkpt>
      <trkpt lat="48.48836" lon="-2.68576">
        <ele>18</ele>
        <time>2013-12-13T09:03:13Z</time>
      </trkpt>
      <trkpt lat="48.48833" lon="-2.68574">
        <ele>18</ele>
        <time>2013-12-13T09:03:16Z</time>
      </trkpt>
      <trkpt lat="48.48831" lon="-2.68572">
        <ele>18</ele>
        <time>2013-12-13T09:03:18Z</time>
      </trkpt>
      <trkpt lat="48.48827" lon="-2.68569">
        <ele>18</ele>
        <time>2013-12-13T09:03:21Z</time>
      </trkpt>
      <trkpt lat="48.48824" lon="-2.68567">
        <ele>18</ele>
        <time>2013-12-13T09:03:23Z</time>
      </trkpt>
      <trkpt lat="48.4882" lon="-2.68565">
        <ele>18</ele>
        <time>2013-12-13T09:03:26Z</time>
      </trkpt>
      <trkpt lat="48.48817" lon="-2.68563">
        <ele>18</ele>
        <time>2013-12-13T09:03:28Z</time>
      </trkpt>
      <trkpt lat="48.48812" lon="-2.68561">
        <ele>18</ele>
        <time>2013-12-13T09:03:31Z</time>
      </trkpt>
      <trkpt lat="48.48809" lon="-2.68559">
        <ele>17</ele>
        <time>2013-12-13T09:03:33Z</time>
      </trkpt>
      <trkpt lat="48.48805" lon="-2.68556">
        <ele>17</ele>
        <time>2013-12-13T09:03:36Z</time>
      </trkpt>
      <trkpt lat="48.48802" lon="-2.68554">
        <ele>17</ele>
        <time>2013-12-13T09:03:38Z</time>
      </trkpt>
      <trkpt lat="48.48798" lon="-2.68552">
        <ele>16</ele>
        <time>2013-12-13T09:03:41Z</time>
      </trkpt>
      <trkpt lat="48.48795" lon="-2.68549">
        <ele>16</ele>
        <time>2013-12-13T09:03:44Z</time>
      </trkpt>
      <trkpt lat="48.48791" lon="-2.68546">
        <ele>16</ele>
        <time>2013-12-13T09:03:48Z</time>
      </trkpt>
      <trkpt lat="48.48789" lon="-2.68545">
        <ele>16</ele>
        <time>2013-12-13T09:03:50Z</time>
      </trkpt>
      <trkpt lat="48.48785" lon="-2.68542">
        <ele>16</ele>
        <time>2013-12-13T09:03:54Z</time>
      </trkpt>
      <trkpt lat="48.48781" lon="-2.68542">
        <ele>16</ele>
        <time>2013-12-13T09:03:57Z</time>
      </trkpt>
      <trkpt lat="48.48779" lon="-2.68541">
        <ele>16</ele>
        <time>2013-12-13T09:03:59Z</time>
      </trkpt>
      <trkpt lat="48.48776" lon="-2.6854">
        <ele>16</ele>
        <time>2013-12-13T09:04:01Z</time>
      </trkpt>
      <trkpt lat="48.48773" lon="-2.68538">
        <ele>16</ele>
        <time>2013-12-13T09:04:03Z</time>
      </trkpt>
      <trkpt lat="48.4877" lon="-2.68537">
        <ele>16</ele>
        <time>2013-12-13T09:04:05Z</time>
      </trkpt>
      <trkpt lat="48.48766" lon="-2.68535">
        <ele>16</ele>
        <time>2013-12-13T09:04:08Z</time>
      </trkpt>
      <trkpt lat="48.48764" lon="-2.68534">
        <ele>16</ele>
        <time>2013-12-13T09:04:10Z</time>
      </trkpt>
      <trkpt lat="48.48761" lon="-2.68532">
        <ele>16</ele>
        <time>2013-12-13T09:04:12Z</time>
      </trkpt>
      <trkpt lat="48.48757" lon="-2.68529">
        <ele>16</ele>
        <time>2013-12-13T09:04:15Z</time>
      </trkpt>
      <trkpt lat="48.48753" lon="-2.68527">
        <ele>16</ele>
        <time>2013-12-13T09:04:18Z</time>
      </trkpt>
      <trkpt lat="48.4875" lon="-2.68525">
        <ele>16</ele>
        <time>2013-12-13T09:04:20Z</time>
      </trkpt>
      <trkpt lat="48.48746" lon="-2.68524">
        <ele>16</ele>
        <time>2013-12-13T09:04:23Z</time>
      </trkpt>
      <trkpt lat="48.48743" lon="-2.68522">
        <ele>16</ele>
        <time>2013-12-13T09:04:25Z</time>
      </trkpt>
      <trkpt lat="48.48738" lon="-2.6852">
        <ele>16</ele>
        <time>2013-12-13T09:04:28Z</time>
      </trkpt>
      <trkpt lat="48.48735" lon="-2.68519">
        <ele>16</ele>
        <time>2013-12-13T09:04:30Z</time>
      </trkpt>
      <trkpt lat="48.4873" lon="-2.68517">
        <ele>16</ele>
        <time>2013-12-13T09:04:33Z</time>
      </trkpt>
      <trkpt lat="48.48727" lon="-2.68516">
        <ele>16</ele>
        <time>2013-12-13T09:04:35Z</time>
      </trkpt>
      <trkpt lat="48.48723" lon="-2.68514">
        <ele>16</ele>
        <time>2013-12-13T09:04:38Z</time>
      </trkpt>
      <trkpt lat="48.48721" lon="-2.68513">
        <ele>16</ele>
        <time>2013-12-13T09:04:40Z</time>
      </trkpt>
      <trkpt lat="48.48716" lon="-2.68511">
        <ele>16</ele>
        <time>2013-12-13T09:04:43Z</time>
      </trkpt>
      <trkpt lat="48.48714" lon="-2.68509">
        <ele>16</ele>
        <time>2013-12-13T09:04:45Z</time>
      </trkpt>
      <trkpt lat="48.48709" lon="-2.68506">
        <ele>16</ele>
        <time>2013-12-13T09:04:48Z</time>
      </trkpt>
      <trkpt lat="48.48707" lon="-2.68503">
        <ele>16</ele>
        <time>2013-12-13T09:04:50Z</time>
      </trkpt>
      <trkpt lat="48.48703" lon="-2.685">
        <ele>16</ele>
        <time>2013-12-13T09:04:53Z</time>
      </trkpt>
      <trkpt lat="48.48701" lon="-2.68497">
        <ele>16</ele>
        <time>2013-12-13T09:04:55Z</time>
      </trkpt>
      <trkpt lat="48.48698" lon="-2.68493">
        <ele>16</ele>
        <time>2013-12-13T09:04:58Z</time>
      </trkpt>
      <trkpt lat="48.48695" lon="-2.68488">
        <ele>16</ele>
        <time>2013-12-13T09:05:01Z</time>
      </trkpt>
      <trkpt lat="48.48691" lon="-2.68482">
        <ele>16</ele>
        <time>2013-12-13T09:05:05Z</time>
      </trkpt>
      <trkpt lat="48.4869" lon="-2.68479">
        <ele>16</ele>
        <time>2013-12-13T09:05:07Z</time>
      </trkpt>
      <trkpt lat="48.48687" lon="-2.68475">
        <ele>16</ele>
        <time>2013-12-13T09:05:10Z</time>
      </trkpt>
      <trkpt lat="48.48685" lon="-2.68471">
        <ele>16</ele>
        <time>2013-12-13T09:05:12Z</time>
      </trkpt>
      <trkpt lat="48.48683" lon="-2.68466">
        <ele>16</ele>
        <time>2013-12-13T09:05:15Z</time>
      </trkpt>
      <trkpt lat="48.48681" lon="-2.68462">
        <ele>16</ele>
        <time>2013-12-13T09:05:17Z</time>
      </trkpt>
      <trkpt lat="48.48679" lon="-2.68458">
        <ele>16</ele>
        <time>2013-12-13T09:05:20Z</time>
      </trkpt>
      <trkpt lat="48.48677" lon="-2.68453">
        <ele>16</ele>
        <time>2013-12-13T09:05:23Z</time>
      </trkpt>
      <trkpt lat="48.48674" lon="-2.68447">
        <ele>16</ele>
        <time>2013-12-13T09:05:26Z</time>
      </trkpt>
      <trkpt lat="48.48673" lon="-2.68443">
        <ele>15</ele>
        <time>2013-12-13T09:05:28Z</time>
      </trkpt>
      <trkpt lat="48.48671" lon="-2.68437">
        <ele>15</ele>
        <time>2013-12-13T09:05:31Z</time>
      </trkpt>
      <trkpt lat="48.48669" lon="-2.68434">
        <ele>15</ele>
        <time>2013-12-13T09:05:33Z</time>
      </trkpt>
      <trkpt lat="48.48665" lon="-2.68428">
        <ele>14</ele>
        <time>2013-12-13T09:05:37Z</time>
      </trkpt>
      <trkpt lat="48.48663" lon="-2.68425">
        <ele>14</ele>
        <time>2013-12-13T09:05:39Z</time>
      </trkpt>
      <trkpt lat="48.48659" lon="-2.68421">
        <ele>14</ele>
        <time>2013-12-13T09:05:42Z</time>
      </trkpt>
      <trkpt lat="48.48657" lon="-2.68418">
        <ele>14</ele>
        <time>2013-12-13T09:05:44Z</time>
      </trkpt>
      <trkpt lat="48.48654" lon="-2.68414">
        <ele>13</ele>
        <time>2013-12-13T09:05:47Z</time>
      </trkpt>
      <trkpt lat="48.48652" lon="-2.68411">
        <ele>13</ele>
        <time>2013-12-13T09:05:49Z</time>
      </trkpt>
      <trkpt lat="48.4865" lon="-2.68407">
        <ele>13</ele>
        <time>2013-12-13T09:05:52Z</time>
      </trkpt>
      <trkpt lat="48.48648" lon="-2.68404">
        <ele>13</ele>
        <time>2013-12-13T09:05:54Z</time>
      </trkpt>
      <trkpt lat="48.48644" lon="-2.68398">
        <ele>13</ele>
        <time>2013-12-13T09:05:58Z</time>
      </trkpt>
      <trkpt lat="48.48642" lon="-2.68395">
        <ele>13</ele>
        <time>2013-12-13T09:06:00Z</time>
      </trkpt>
      <trkpt lat="48.48639" lon="-2.6839">
        <ele>13</ele>
        <time>2013-12-13T09:06:03Z</time>
      </trkpt>
      <trkpt lat="48.48637" lon="-2.68387">
        <ele>13</ele>
        <time>2013-12-13T09:06:05Z</time>
      </trkpt>
      <trkpt lat="48.48634" lon="-2.6838">
        <ele>13</ele>
        <time>2013-12-13T09:06:09Z</time>
      </trkpt>
      <trkpt lat="48.48632" lon="-2.68377">
        <ele>13</ele>
        <time>2013-12-13T09:06:11Z</time>
      </trkpt>
      <trkpt lat="48.48631" lon="-2.68373">
        <ele>13</ele>
        <time>2013-12-13T09:06:13Z</time>
      </trkpt>
      <trkpt lat="48.48629" lon="-2.68369">
        <ele>13</ele>
        <time>2013-12-13T09:06:16Z</time>
      </trkpt>
      <trkpt lat="48.48627" lon="-2.68366">
        <ele>13</ele>
        <time>2013-12-13T09:06:18Z</time>
      </trkpt>
      <trkpt lat="48.48625" lon="-2.68364">
        <ele>13</ele>
        <time>2013-12-13T09:06:20Z</time>
      </trkpt>
      <trkpt lat="48.48622" lon="-2.68362">
        <ele>13</ele>
        <time>2013-12-13T09:06:22Z</time>
      </trkpt>
      <trkpt lat="48.4862" lon="-2.68361">
        <ele>13</ele>
        <time>2013-12-13T09:06:24Z</time>
      </trkpt>
      <trkpt lat="48.48617" lon="-2.6836">
        <ele>13</ele>
        <time>2013-12-13T09:06:26Z</time>
      </trkpt>
      <trkpt lat="48.48615" lon="-2.68359">
        <ele>13</ele>
        <time>2013-12-13T09:06:28Z</time>
      </trkpt>
      <trkpt lat="48.48612" lon="-2.68358">
        <ele>13</ele>
        <time>2013-12-13T09:06:30Z</time>
      </trkpt>
      <trkpt lat="48.4861" lon="-2.68358">
        <ele>13</ele>
        <time>2013-12-13T09:06:32Z</time>
      </trkpt>
      <trkpt lat="48.48607" lon="-2.68358">
        <ele>13</ele>
        <time>2013-12-13T09:06:34Z</time>
      </trkpt>
      <trkpt lat="48.48605" lon="-2.68358">
        <ele>13</ele>
        <time>2013-12-13T09:06:36Z</time>
      </trkpt>
      <trkpt lat="48.48601" lon="-2.68359">
        <ele>13</ele>
        <time>2013-12-13T09:06:39Z</time>
      </trkpt>
      <trkpt lat="48.48598" lon="-2.6836">
        <ele>12</ele>
        <time>2013-12-13T09:06:41Z</time>
      </trkpt>
      <trkpt lat="48.48597" lon="-2.68361">
        <ele>12</ele>
        <time>2013-12-13T09:06:43Z</time>
      </trkpt>
      <trkpt lat="48.48595" lon="-2.68363">
        <ele>12</ele>
        <time>2013-12-13T09:06:45Z</time>
      </trkpt>
      <trkpt lat="48.48592" lon="-2.68367">
        <ele>12</ele>
        <time>2013-12-13T09:06:48Z</time>
      </trkpt>
      <trkpt lat="48.4859" lon="-2.6837">
        <ele>12</ele>
        <time>2013-12-13T09:06:50Z</time>
      </trkpt>
      <trkpt lat="48.48589" lon="-2.68375">
        <ele>12</ele>
        <time>2013-12-13T09:06:52Z</time>
      </trkpt>
      <trkpt lat="48.48587" lon="-2.68379">
        <ele>12</ele>
        <time>2013-12-13T09:06:54Z</time>
      </trkpt>
      <trkpt lat="48.48586" lon="-2.68383">
        <ele>12</ele>
        <time>2013-12-13T09:06:56Z</time>
      </trkpt>
      <trkpt lat="48.48586" lon="-2.68388">
        <ele>12</ele>
        <time>2013-12-13T09:06:59Z</time>
      </trkpt>
      <trkpt lat="48.48586" lon="-2.68391">
        <ele>12</ele>
        <time>2013-12-13T09:07:01Z</time>
      </trkpt>
      <trkpt lat="48.48584" lon="-2.68396">
        <ele>12</ele>
        <time>2013-12-13T09:07:04Z</time>
      </trkpt>
      <trkpt lat="48.48581" lon="-2.68397">
        <ele>12</ele>
        <time>2013-12-13T09:07:06Z</time>
      </trkpt>
      <trkpt lat="48.48577" lon="-2.68399">
        <ele>12</ele>
        <time>2013-12-13T09:07:09Z</time>
      </trkpt>
      <trkpt lat="48.48574" lon="-2.684">
        <ele>12</ele>
        <time>2013-12-13T09:07:12Z</time>
      </trkpt>
      <trkpt lat="48.48572" lon="-2.684">
        <ele>12</ele>
        <time>2013-12-13T09:07:14Z</time>
      </trkpt>
      <trkpt lat="48.4857" lon="-2.68401">
        <ele>12</ele>
        <time>2013-12-13T09:07:22Z</time>
      </trkpt>
      <trkpt lat="48.48567" lon="-2.68401">
        <ele>12</ele>
        <time>2013-12-13T09:07:26Z</time>
      </trkpt>
      <trkpt lat="48.48564" lon="-2.68403">
        <ele>12</ele>
        <time>2013-12-13T09:07:29Z</time>
      </trkpt>
      <trkpt lat="48.48563" lon="-2.68405">
        <ele>12</ele>
        <time>2013-12-13T09:07:31Z</time>
      </trkpt>
      <trkpt lat="48.48561" lon="-2.68407">
        <ele>12</ele>
        <time>2013-12-13T09:07:33Z</time>
      </trkpt>
      <trkpt lat="48.4856" lon="-2.68409">
        <ele>12</ele>
        <time>2013-12-13T09:07:35Z</time>
      </trkpt>
      <trkpt lat="48.48559" lon="-2.68411">
        <ele>12</ele>
        <time>2013-12-13T09:07:37Z</time>
      </trkpt>
      <trkpt lat="48.48557" lon="-2.68414">
        <ele>12</ele>
        <time>2013-12-13T09:07:39Z</time>
      </trkpt>
      <trkpt lat="48.48555" lon="-2.68416">
        <ele>12</ele>
        <time>2013-12-13T09:07:41Z</time>
      </trkpt>
      <trkpt lat="48.48553" lon="-2.6842">
        <ele>12</ele>
        <time>2013-12-13T09:07:43Z</time>
      </trkpt>
      <trkpt lat="48.48552" lon="-2.68423">
        <ele>12</ele>
        <time>2013-12-13T09:07:45Z</time>
      </trkpt>
      <trkpt lat="48.4855" lon="-2.68427">
        <ele>12</ele>
        <time>2013-12-13T09:07:47Z</time>
      </trkpt>
      <trkpt lat="48.48548" lon="-2.6843">
        <ele>12</ele>
        <time>2013-12-13T09:07:49Z</time>
      </trkpt>
      <trkpt lat="48.48546" lon="-2.68433">
        <ele>12</ele>
        <time>2013-12-13T09:07:51Z</time>
      </trkpt>
      <trkpt lat="48.48544" lon="-2.68437">
        <ele>12</ele>
        <time>2013-12-13T09:07:53Z</time>
      </trkpt>
      <trkpt lat="48.48542" lon="-2.6844">
        <ele>12</ele>
        <time>2013-12-13T09:07:55Z</time>
      </trkpt>
      <trkpt lat="48.4854" lon="-2.68443">
        <ele>12</ele>
        <time>2013-12-13T09:07:57Z</time>
      </trkpt>
      <trkpt lat="48.48537" lon="-2.68448">
        <ele>12</ele>
        <time>2013-12-13T09:08:00Z</time>
      </trkpt>
      <trkpt lat="48.48535" lon="-2.68451">
        <ele>12</ele>
        <time>2013-12-13T09:08:02Z</time>
      </trkpt>
      <trkpt lat="48.48533" lon="-2.68454">
        <ele>12</ele>
        <time>2013-12-13T09:08:04Z</time>
      </trkpt>
      <trkpt lat="48.48531" lon="-2.68458">
        <ele>12</ele>
        <time>2013-12-13T09:08:06Z</time>
      </trkpt>
      <trkpt lat="48.48528" lon="-2.68462">
        <ele>12</ele>
        <time>2013-12-13T09:08:09Z</time>
      </trkpt>
      <trkpt lat="48.48526" lon="-2.68465">
        <ele>12</ele>
        <time>2013-12-13T09:08:11Z</time>
      </trkpt>
      <trkpt lat="48.48524" lon="-2.68469">
        <ele>12</ele>
        <time>2013-12-13T09:08:13Z</time>
      </trkpt>
      <trkpt lat="48.48522" lon="-2.68473">
        <ele>12</ele>
        <time>2013-12-13T09:08:15Z</time>
      </trkpt>
      <trkpt lat="48.48519" lon="-2.68478">
        <ele>12</ele>
        <time>2013-12-13T09:08:18Z</time>
      </trkpt>
      <trkpt lat="48.48516" lon="-2.68477">
        <ele>12</ele>
        <time>2013-12-13T09:08:20Z</time>
      </trkpt>
      <trkpt lat="48.48514" lon="-2.68476">
        <ele>12</ele>
        <time>2013-12-13T09:08:22Z</time>
      </trkpt>
      <trkpt lat="48.48513" lon="-2.68476">
        <ele>13</ele>
        <time>2013-12-13T09:08:25Z</time>
      </trkpt>
      <trkpt lat="48.48511" lon="-2.68477">
        <ele>13</ele>
        <time>2013-12-13T09:08:27Z</time>
      </trkpt>
      <trkpt lat="48.48509" lon="-2.68479">
        <ele>13</ele>
        <time>2013-12-13T09:08:29Z</time>
      </trkpt>
      <trkpt lat="48.48508" lon="-2.68481">
        <ele>13</ele>
        <time>2013-12-13T09:08:31Z</time>
      </trkpt>
      <trkpt lat="48.48505" lon="-2.68484">
        <ele>14</ele>
        <time>2013-12-13T09:08:33Z</time>
      </trkpt>
      <trkpt lat="48.48504" lon="-2.68487">
        <ele>14</ele>
        <time>2013-12-13T09:08:35Z</time>
      </trkpt>
      <trkpt lat="48.48502" lon="-2.6849">
        <ele>14</ele>
        <time>2013-12-13T09:08:37Z</time>
      </trkpt>
      <trkpt lat="48.485" lon="-2.68494">
        <ele>15</ele>
        <time>2013-12-13T09:08:39Z</time>
      </trkpt>
      <trkpt lat="48.48497" lon="-2.68498">
        <ele>15</ele>
        <time>2013-12-13T09:08:42Z</time>
      </trkpt>
      <trkpt lat="48.48495" lon="-2.68501">
        <ele>15</ele>
        <time>2013-12-13T09:08:44Z</time>
      </trkpt>
      <trkpt lat="48.48492" lon="-2.68506">
        <ele>16</ele>
        <time>2013-12-13T09:08:47Z</time>
      </trkpt>
      <trkpt lat="48.48491" lon="-2.6851">
        <ele>16</ele>
        <time>2013-12-13T09:08:49Z</time>
      </trkpt>
      <trkpt lat="48.48489" lon="-2.68513">
        <ele>17</ele>
        <time>2013-12-13T09:08:51Z</time>
      </trkpt>
      <trkpt lat="48.48487" lon="-2.68516">
        <ele>17</ele>
        <time>2013-12-13T09:08:53Z</time>
      </trkpt>
      <trkpt lat="48.48484" lon="-2.68519">
        <ele>17</ele>
        <time>2013-12-13T09:08:55Z</time>
      </trkpt>
      <trkpt lat="48.48483" lon="-2.68521">
        <ele>18</ele>
        <time>2013-12-13T09:08:57Z</time>
      </trkpt>
      <trkpt lat="48.48482" lon="-2.68524">
        <ele>18</ele>
        <time>2013-12-13T09:08:59Z</time>
      </trkpt>
      <trkpt lat="48.4848" lon="-2.68528">
        <ele>18</ele>
        <time>2013-12-13T09:09:01Z</time>
      </trkpt>
      <trkpt lat="48.48479" lon="-2.68531">
        <ele>19</ele>
        <time>2013-12-13T09:09:03Z</time>
      </trkpt>
      <trkpt lat="48.48478" lon="-2.68535">
        <ele>19</ele>
        <time>2013-12-13T09:09:05Z</time>
      </trkpt>
      <trkpt lat="48.48476" lon="-2.68538">
        <ele>19</ele>
        <time>2013-12-13T09:09:07Z</time>
      </trkpt>
      <trkpt lat="48.48475" lon="-2.68542">
        <ele>19</ele>
        <time>2013-12-13T09:09:09Z</time>
      </trkpt>
      <trkpt lat="48.48474" lon="-2.68546">
        <ele>19</ele>
        <time>2013-12-13T09:09:11Z</time>
      </trkpt>
      <trkpt lat="48.48473" lon="-2.68549">
        <ele>19</ele>
        <time>2013-12-13T09:09:13Z</time>
      </trkpt>
      <trkpt lat="48.48471" lon="-2.68552">
        <ele>20</ele>
        <time>2013-12-13T09:09:15Z</time>
      </trkpt>
      <trkpt lat="48.48471" lon="-2.68556">
        <ele>20</ele>
        <time>2013-12-13T09:09:17Z</time>
      </trkpt>
      <trkpt lat="48.4847" lon="-2.68559">
        <ele>20</ele>
        <time>2013-12-13T09:09:19Z</time>
      </trkpt>
      <trkpt lat="48.48468" lon="-2.68563">
        <ele>21</ele>
        <time>2013-12-13T09:09:21Z</time>
      </trkpt>
      <trkpt lat="48.48465" lon="-2.68568">
        <ele>21</ele>
        <time>2013-12-13T09:09:24Z</time>
      </trkpt>
      <trkpt lat="48.48464" lon="-2.6857">
        <ele>21</ele>
        <time>2013-12-13T09:09:26Z</time>
      </trkpt>
      <trkpt lat="48.48462" lon="-2.68574">
        <ele>22</ele>
        <time>2013-12-13T09:09:28Z</time>
      </trkpt>
      <trkpt lat="48.48461" lon="-2.68578">
        <ele>22</ele>
        <time>2013-12-13T09:09:30Z</time>
      </trkpt>
      <trkpt lat="48.48459" lon="-2.68581">
        <ele>22</ele>
        <time>2013-12-13T09:09:32Z</time>
      </trkpt>
      <trkpt lat="48.48458" lon="-2.68585">
        <ele>22</ele>
        <time>2013-12-13T09:09:34Z</time>
      </trkpt>
      <trkpt lat="48.48457" lon="-2.68588">
        <ele>23</ele>
        <time>2013-12-13T09:09:36Z</time>
      </trkpt>
      <trkpt lat="48.48457" lon="-2.68592">
        <ele>23</ele>
        <time>2013-12-13T09:09:38Z</time>
      </trkpt>
      <trkpt lat="48.48456" lon="-2.68595">
        <ele>23</ele>
        <time>2013-12-13T09:09:40Z</time>
      </trkpt>
      <trkpt lat="48.48455" lon="-2.68599">
        <ele>23</ele>
        <time>2013-12-13T09:09:42Z</time>
      </trkpt>
      <trkpt lat="48.48454" lon="-2.68604">
        <ele>24</ele>
        <time>2013-12-13T09:09:45Z</time>
      </trkpt>
      <trkpt lat="48.48453" lon="-2.68607">
        <ele>24</ele>
        <time>2013-12-13T09:09:47Z</time>
      </trkpt>
      <trkpt lat="48.48452" lon="-2.68611">
        <ele>24</ele>
        <time>2013-12-13T09:09:49Z</time>
      </trkpt>
      <trkpt lat="48.48451" lon="-2.68614">
        <ele>24</ele>
        <time>2013-12-13T09:09:51Z</time>
      </trkpt>
      <trkpt lat="48.4845" lon="-2.68617">
        <ele>24</ele>
        <time>2013-12-13T09:09:53Z</time>
      </trkpt>
      <trkpt lat="48.48449" lon="-2.68621">
        <ele>24</ele>
        <time>2013-12-13T09:09:55Z</time>
      </trkpt>
      <trkpt lat="48.48448" lon="-2.68624">
        <ele>24</ele>
        <time>2013-12-13T09:09:57Z</time>
      </trkpt>
      <trkpt lat="48.48447" lon="-2.68628">
        <ele>24</ele>
        <time>2013-12-13T09:09:59Z</time>
      </trkpt>
      <trkpt lat="48.48446" lon="-2.68632">
        <ele>24</ele>
        <time>2013-12-13T09:10:01Z</time>
      </trkpt>
      <trkpt lat="48.48446" lon="-2.68636">
        <ele>24</ele>
        <time>2013-12-13T09:10:03Z</time>
      </trkpt>
      <trkpt lat="48.48445" lon="-2.68639">
        <ele>24</ele>
        <time>2013-12-13T09:10:05Z</time>
      </trkpt>
      <trkpt lat="48.48444" lon="-2.68643">
        <ele>24</ele>
        <time>2013-12-13T09:10:07Z</time>
      </trkpt>
      <trkpt lat="48.48444" lon="-2.68646">
        <ele>24</ele>
        <time>2013-12-13T09:10:09Z</time>
      </trkpt>
      <trkpt lat="48.48443" lon="-2.6865">
        <ele>25</ele>
        <time>2013-12-13T09:10:11Z</time>
      </trkpt>
      <trkpt lat="48.48441" lon="-2.68654">
        <ele>25</ele>
        <time>2013-12-13T09:10:13Z</time>
      </trkpt>
      <trkpt lat="48.4844" lon="-2.68658">
        <ele>25</ele>
        <time>2013-12-13T09:10:15Z</time>
      </trkpt>
      <trkpt lat="48.48439" lon="-2.68661">
        <ele>25</ele>
        <time>2013-12-13T09:10:17Z</time>
      </trkpt>
      <trkpt lat="48.48438" lon="-2.68664">
        <ele>25</ele>
        <time>2013-12-13T09:10:19Z</time>
      </trkpt>
      <trkpt lat="48.48436" lon="-2.68668">
        <ele>26</ele>
        <time>2013-12-13T09:10:21Z</time>
      </trkpt>
      <trkpt lat="48.48436" lon="-2.68671">
        <ele>26</ele>
        <time>2013-12-13T09:10:23Z</time>
      </trkpt>
      <trkpt lat="48.48434" lon="-2.68675">
        <ele>26</ele>
        <time>2013-12-13T09:10:25Z</time>
      </trkpt>
      <trkpt lat="48.48434" lon="-2.68679">
        <ele>26</ele>
        <time>2013-12-13T09:10:27Z</time>
      </trkpt>
      <trkpt lat="48.48433" lon="-2.68683">
        <ele>26</ele>
        <time>2013-12-13T09:10:29Z</time>
      </trkpt>
      <trkpt lat="48.48431" lon="-2.68687">
        <ele>26</ele>
        <time>2013-12-13T09:10:31Z</time>
      </trkpt>
      <trkpt lat="48.48431" lon="-2.6869">
        <ele>26</ele>
        <time>2013-12-13T09:10:33Z</time>
      </trkpt>
      <trkpt lat="48.4843" lon="-2.68694">
        <ele>26</ele>
        <time>2013-12-13T09:10:35Z</time>
      </trkpt>
      <trkpt lat="48.48429" lon="-2.68698">
        <ele>27</ele>
        <time>2013-12-13T09:10:37Z</time>
      </trkpt>
      <trkpt lat="48.48428" lon="-2.68702">
        <ele>27</ele>
        <time>2013-12-13T09:10:39Z</time>
      </trkpt>
      <trkpt lat="48.48427" lon="-2.68706">
        <ele>27</ele>
        <time>2013-12-13T09:10:41Z</time>
      </trkpt>
      <trkpt lat="48.48426" lon="-2.68709">
        <ele>28</ele>
        <time>2013-12-13T09:10:43Z</time>
      </trkpt>
      <trkpt lat="48.48425" lon="-2.68713">
        <ele>28</ele>
        <time>2013-12-13T09:10:45Z</time>
      </trkpt>
      <trkpt lat="48.48424" lon="-2.68716">
        <ele>28</ele>
        <time>2013-12-13T09:10:47Z</time>
      </trkpt>
      <trkpt lat="48.48424" lon="-2.6872">
        <ele>28</ele>
        <time>2013-12-13T09:10:49Z</time>
      </trkpt>
      <trkpt lat="48.48423" lon="-2.68724">
        <ele>28</ele>
        <time>2013-12-13T09:10:51Z</time>
      </trkpt>
      <trkpt lat="48.48421" lon="-2.68727">
        <ele>28</ele>
        <time>2013-12-13T09:10:53Z</time>
      </trkpt>
      <trkpt lat="48.48421" lon="-2.68731">
        <ele>28</ele>
        <time>2013-12-13T09:10:55Z</time>
      </trkpt>
      <trkpt lat="48.4842" lon="-2.68735">
        <ele>28</ele>
        <time>2013-12-13T09:10:57Z</time>
      </trkpt>
      <trkpt lat="48.48419" lon="-2.6874">
        <ele>28</ele>
        <time>2013-12-13T09:11:00Z</time>
      </trkpt>
      <trkpt lat="48.48418" lon="-2.68743">
        <ele>28</ele>
        <time>2013-12-13T09:11:02Z</time>
      </trkpt>
      <trkpt lat="48.48416" lon="-2.68747">
        <ele>28</ele>
        <time>2013-12-13T09:11:04Z</time>
      </trkpt>
      <trkpt lat="48.48415" lon="-2.68751">
        <ele>28</ele>
        <time>2013-12-13T09:11:06Z</time>
      </trkpt>
      <trkpt lat="48.48414" lon="-2.68755">
        <ele>28</ele>
        <time>2013-12-13T09:11:08Z</time>
      </trkpt>
      <trkpt lat="48.48413" lon="-2.68759">
        <ele>28</ele>
        <time>2013-12-13T09:11:10Z</time>
      </trkpt>
      <trkpt lat="48.48412" lon="-2.68762">
        <ele>28</ele>
        <time>2013-12-13T09:11:12Z</time>
      </trkpt>
      <trkpt lat="48.48411" lon="-2.68766">
        <ele>28</ele>
        <time>2013-12-13T09:11:14Z</time>
      </trkpt>
      <trkpt lat="48.4841" lon="-2.6877">
        <ele>28</ele>
        <time>2013-12-13T09:11:16Z</time>
      </trkpt>
      <trkpt lat="48.48408" lon="-2.68774">
        <ele>28</ele>
        <time>2013-12-13T09:11:18Z</time>
      </trkpt>
      <trkpt lat="48.48407" lon="-2.68777">
        <ele>29</ele>
        <time>2013-12-13T09:11:20Z</time>
      </trkpt>
      <trkpt lat="48.48405" lon="-2.6878">
        <ele>29</ele>
        <time>2013-12-13T09:11:22Z</time>
      </trkpt>
      <trkpt lat="48.48403" lon="-2.68784">
        <ele>30</ele>
        <time>2013-12-13T09:11:24Z</time>
      </trkpt>
      <trkpt lat="48.48402" lon="-2.68788">
        <ele>30</ele>
        <time>2013-12-13T09:11:26Z</time>
      </trkpt>
      <trkpt lat="48.484" lon="-2.68792">
        <ele>30</ele>
        <time>2013-12-13T09:11:28Z</time>
      </trkpt>
      <trkpt lat="48.48399" lon="-2.68795">
        <ele>30</ele>
        <time>2013-12-13T09:11:30Z</time>
      </trkpt>
      <trkpt lat="48.48398" lon="-2.688">
        <ele>31</ele>
        <time>2013-12-13T09:11:33Z</time>
      </trkpt>
      <trkpt lat="48.48396" lon="-2.68805">
        <ele>31</ele>
        <time>2013-12-13T09:11:36Z</time>
      </trkpt>
      <trkpt lat="48.48394" lon="-2.68808">
        <ele>32</ele>
        <time>2013-12-13T09:11:38Z</time>
      </trkpt>
      <trkpt lat="48.48392" lon="-2.68812">
        <ele>32</ele>
        <time>2013-12-13T09:11:40Z</time>
      </trkpt>
      <trkpt lat="48.48391" lon="-2.68815">
        <ele>32</ele>
        <time>2013-12-13T09:11:42Z</time>
      </trkpt>
      <trkpt lat="48.48389" lon="-2.68817">
        <ele>33</ele>
        <time>2013-12-13T09:11:44Z</time>
      </trkpt>
      <trkpt lat="48.48386" lon="-2.6882">
        <ele>33</ele>
        <time>2013-12-13T09:11:47Z</time>
      </trkpt>
      <trkpt lat="48.48385" lon="-2.68823">
        <ele>33</ele>
        <time>2013-12-13T09:11:49Z</time>
      </trkpt>
      <trkpt lat="48.48383" lon="-2.68826">
        <ele>33</ele>
        <time>2013-12-13T09:11:51Z</time>
      </trkpt>
      <trkpt lat="48.48381" lon="-2.68829">
        <ele>33</ele>
        <time>2013-12-13T09:11:53Z</time>
      </trkpt>
      <trkpt lat="48.4838" lon="-2.68831">
        <ele>34</ele>
        <time>2013-12-13T09:11:55Z</time>
      </trkpt>
      <trkpt lat="48.48378" lon="-2.68834">
        <ele>34</ele>
        <time>2013-12-13T09:11:57Z</time>
      </trkpt>
      <trkpt lat="48.48376" lon="-2.68837">
        <ele>34</ele>
        <time>2013-12-13T09:11:59Z</time>
      </trkpt>
      <trkpt lat="48.48374" lon="-2.6884">
        <ele>34</ele>
        <time>2013-12-13T09:12:01Z</time>
      </trkpt>
      <trkpt lat="48.48373" lon="-2.68843">
        <ele>34</ele>
        <time>2013-12-13T09:12:03Z</time>
      </trkpt>
      <trkpt lat="48.48371" lon="-2.68845">
        <ele>34</ele>
        <time>2013-12-13T09:12:05Z</time>
      </trkpt>
      <trkpt lat="48.48369" lon="-2.68848">
        <ele>35</ele>
        <time>2013-12-13T09:12:07Z</time>
      </trkpt>
      <trkpt lat="48.48368" lon="-2.68851">
        <ele>35</ele>
        <time>2013-12-13T09:12:09Z</time>
      </trkpt>
      <trkpt lat="48.48366" lon="-2.68853">
        <ele>35</ele>
        <time>2013-12-13T09:12:11Z</time>
      </trkpt>
      <trkpt lat="48.48364" lon="-2.68856">
        <ele>35</ele>
        <time>2013-12-13T09:12:13Z</time>
      </trkpt>
      <trkpt lat="48.48362" lon="-2.68859">
        <ele>35</ele>
        <time>2013-12-13T09:12:15Z</time>
      </trkpt>
      <trkpt lat="48.4836" lon="-2.68861">
        <ele>35</ele>
        <time>2013-12-13T09:12:17Z</time>
      </trkpt>
      <trkpt lat="48.48359" lon="-2.68864">
        <ele>35</ele>
        <time>2013-12-13T09:12:19Z</time>
      </trkpt>
      <trkpt lat="48.48357" lon="-2.68866">
        <ele>35</ele>
        <time>2013-12-13T09:12:21Z</time>
      </trkpt>
      <trkpt lat="48.48355" lon="-2.68869">
        <ele>36</ele>
        <time>2013-12-13T09:12:23Z</time>
      </trkpt>
      <trkpt lat="48.48353" lon="-2.68871">
        <ele>36</ele>
        <time>2013-12-13T09:12:25Z</time>
      </trkpt>
      <trkpt lat="48.48351" lon="-2.68874">
        <ele>36</ele>
        <time>2013-12-13T09:12:27Z</time>
      </trkpt>
      <trkpt lat="48.48349" lon="-2.68876">
        <ele>36</ele>
        <time>2013-12-13T09:12:29Z</time>
      </trkpt>
      <trkpt lat="48.48347" lon="-2.68878">
        <ele>36</ele>
        <time>2013-12-13T09:12:31Z</time>
      </trkpt>
      <trkpt lat="48.48345" lon="-2.68881">
        <ele>36</ele>
        <time>2013-12-13T09:12:33Z</time>
      </trkpt>
      <trkpt lat="48.48343" lon="-2.68883">
        <ele>36</ele>
        <time>2013-12-13T09:12:35Z</time>
      </trkpt>
      <trkpt lat="48.48341" lon="-2.68886">
        <ele>36</ele>
        <time>2013-12-13T09:12:37Z</time>
      </trkpt>
      <trkpt lat="48.48339" lon="-2.68888">
        <ele>36</ele>
        <time>2013-12-13T09:12:39Z</time>
      </trkpt>
      <trkpt lat="48.48337" lon="-2.68891">
        <ele>37</ele>
        <time>2013-12-13T09:12:41Z</time>
      </trkpt>
      <trkpt lat="48.48335" lon="-2.68893">
        <ele>37</ele>
        <time>2013-12-13T09:12:43Z</time>
      </trkpt>
      <trkpt lat="48.48333" lon="-2.68896">
        <ele>37</ele>
        <time>2013-12-13T09:12:45Z</time>
      </trkpt>
      <trkpt lat="48.48331" lon="-2.68898">
        <ele>37</ele>
        <time>2013-12-13T09:12:47Z</time>
      </trkpt>
      <trkpt lat="48.48329" lon="-2.689">
        <ele>38</ele>
        <time>2013-12-13T09:12:49Z</time>
      </trkpt>
      <trkpt lat="48.48328" lon="-2.68902">
        <ele>38</ele>
        <time>2013-12-13T09:12:51Z</time>
      </trkpt>
      <trkpt lat="48.48326" lon="-2.68904">
        <ele>38</ele>
        <time>2013-12-13T09:12:53Z</time>
      </trkpt>
      <trkpt lat="48.48324" lon="-2.68906">
        <ele>38</ele>
        <time>2013-12-13T09:12:55Z</time>
      </trkpt>
      <trkpt lat="48.48322" lon="-2.68908">
        <ele>38</ele>
        <time>2013-12-13T09:12:57Z</time>
      </trkpt>
      <trkpt lat="48.4832" lon="-2.6891">
        <ele>38</ele>
        <time>2013-12-13T09:12:59Z</time>
      </trkpt>
      <trkpt lat="48.48317" lon="-2.68912">
        <ele>38</ele>
        <time>2013-12-13T09:13:01Z</time>
      </trkpt>
      <trkpt lat="48.48314" lon="-2.68914">
        <ele>38</ele>
        <time>2013-12-13T09:13:04Z</time>
      </trkpt>
      <trkpt lat="48.48311" lon="-2.68915">
        <ele>38</ele>
        <time>2013-12-13T09:13:06Z</time>
      </trkpt>
      <trkpt lat="48.48309" lon="-2.68915">
        <ele>38</ele>
        <time>2013-12-13T09:13:08Z</time>
      </trkpt>
      <trkpt lat="48.48306" lon="-2.68915">
        <ele>38</ele>
        <time>2013-12-13T09:13:10Z</time>
      </trkpt>
      <trkpt lat="48.48304" lon="-2.68915">
        <ele>38</ele>
        <time>2013-12-13T09:13:12Z</time>
      </trkpt>
      <trkpt lat="48.48301" lon="-2.68915">
        <ele>39</ele>
        <time>2013-12-13T09:13:14Z</time>
      </trkpt>
      <trkpt lat="48.48299" lon="-2.68916">
        <ele>39</ele>
        <time>2013-12-13T09:13:16Z</time>
      </trkpt>
      <trkpt lat="48.48296" lon="-2.68919">
        <ele>39</ele>
        <time>2013-12-13T09:13:18Z</time>
      </trkpt>
      <trkpt lat="48.48294" lon="-2.68921">
        <ele>39</ele>
        <time>2013-12-13T09:13:20Z</time>
      </trkpt>
      <trkpt lat="48.48292" lon="-2.68923">
        <ele>39</ele>
        <time>2013-12-13T09:13:22Z</time>
      </trkpt>
      <trkpt lat="48.48291" lon="-2.68925">
        <ele>39</ele>
        <time>2013-12-13T09:13:24Z</time>
      </trkpt>
      <trkpt lat="48.4829" lon="-2.68926">
        <ele>40</ele>
        <time>2013-12-13T09:13:31Z</time>
      </trkpt>
      <trkpt lat="48.4829" lon="-2.68928">
        <ele>41</ele>
        <time>2013-12-13T09:13:36Z</time>
      </trkpt>
      <trkpt lat="48.48289" lon="-2.68931">
        <ele>41</ele>
        <time>2013-12-13T09:13:38Z</time>
      </trkpt>
      <trkpt lat="48.48289" lon="-2.68934">
        <ele>41</ele>
        <time>2013-12-13T09:13:40Z</time>
      </trkpt>
      <trkpt lat="48.48289" lon="-2.68937">
        <ele>41</ele>
        <time>2013-12-13T09:13:42Z</time>
      </trkpt>
      <trkpt lat="48.48288" lon="-2.6894">
        <ele>41</ele>
        <time>2013-12-13T09:13:44Z</time>
      </trkpt>
      <trkpt lat="48.48286" lon="-2.68942">
        <ele>41</ele>
        <time>2013-12-13T09:13:46Z</time>
      </trkpt>
      <trkpt lat="48.48286" lon="-2.68945">
        <ele>41</ele>
        <time>2013-12-13T09:13:48Z</time>
      </trkpt>
      <trkpt lat="48.48285" lon="-2.68949">
        <ele>41</ele>
        <time>2013-12-13T09:13:50Z</time>
      </trkpt>
      <trkpt lat="48.48283" lon="-2.68953">
        <ele>41</ele>
        <time>2013-12-13T09:13:52Z</time>
      </trkpt>
      <trkpt lat="48.48281" lon="-2.68956">
        <ele>41</ele>
        <time>2013-12-13T09:13:54Z</time>
      </trkpt>
      <trkpt lat="48.4828" lon="-2.68959">
        <ele>41</ele>
        <time>2013-12-13T09:13:56Z</time>
      </trkpt>
      <trkpt lat="48.48278" lon="-2.68961">
        <ele>41</ele>
        <time>2013-12-13T09:13:58Z</time>
      </trkpt>
      <trkpt lat="48.48275" lon="-2.68963">
        <ele>41</ele>
        <time>2013-12-13T09:14:00Z</time>
      </trkpt>
      <trkpt lat="48.48272" lon="-2.68974">
        <ele>41</ele>
        <time>2013-12-13T09:14:04Z</time>
      </trkpt>
      <trkpt lat="48.48264" lon="-2.69008">
        <ele>41</ele>
        <time>2013-12-13T09:14:11Z</time>
      </trkpt>
      <trkpt lat="48.4826" lon="-2.69011">
        <ele>41</ele>
        <time>2013-12-13T09:14:13Z</time>
      </trkpt>
      <trkpt lat="48.48256" lon="-2.6901">
        <ele>41</ele>
        <time>2013-12-13T09:14:15Z</time>
      </trkpt>
      <trkpt lat="48.48253" lon="-2.69009">
        <ele>41</ele>
        <time>2013-12-13T09:14:17Z</time>
      </trkpt>
      <trkpt lat="48.4825" lon="-2.69009">
        <ele>42</ele>
        <time>2013-12-13T09:14:19Z</time>
      </trkpt>
      <trkpt lat="48.48248" lon="-2.69009">
        <ele>44</ele>
        <time>2013-12-13T09:14:21Z</time>
      </trkpt>
      <trkpt lat="48.48246" lon="-2.69009">
        <ele>46</ele>
        <time>2013-12-13T09:14:23Z</time>
      </trkpt>
      <trkpt lat="48.48242" lon="-2.6901">
        <ele>48</ele>
        <time>2013-12-13T09:14:26Z</time>
      </trkpt>
      <trkpt lat="48.48238" lon="-2.69013">
        <ele>49</ele>
        <time>2013-12-13T09:14:29Z</time>
      </trkpt>
      <trkpt lat="48.48236" lon="-2.69015">
        <ele>49</ele>
        <time>2013-12-13T09:14:31Z</time>
      </trkpt>
      <trkpt lat="48.48234" lon="-2.69017">
        <ele>50</ele>
        <time>2013-12-13T09:14:33Z</time>
      </trkpt>
      <trkpt lat="48.48231" lon="-2.69019">
        <ele>50</ele>
        <time>2013-12-13T09:14:35Z</time>
      </trkpt>
      <trkpt lat="48.48229" lon="-2.69022">
        <ele>51</ele>
        <time>2013-12-13T09:14:37Z</time>
      </trkpt>
      <trkpt lat="48.48227" lon="-2.69024">
        <ele>51</ele>
        <time>2013-12-13T09:14:39Z</time>
      </trkpt>
      <trkpt lat="48.48224" lon="-2.69027">
        <ele>52</ele>
        <time>2013-12-13T09:14:41Z</time>
      </trkpt>
      <trkpt lat="48.48222" lon="-2.69029">
        <ele>52</ele>
        <time>2013-12-13T09:14:43Z</time>
      </trkpt>
      <trkpt lat="48.48219" lon="-2.69032">
        <ele>52</ele>
        <time>2013-12-13T09:14:45Z</time>
      </trkpt>
      <trkpt lat="48.48216" lon="-2.69034">
        <ele>53</ele>
        <time>2013-12-13T09:14:47Z</time>
      </trkpt>
      <trkpt lat="48.48214" lon="-2.69037">
        <ele>53</ele>
        <time>2013-12-13T09:14:49Z</time>
      </trkpt>
      <trkpt lat="48.48212" lon="-2.6904">
        <ele>54</ele>
        <time>2013-12-13T09:14:51Z</time>
      </trkpt>
      <trkpt lat="48.4821" lon="-2.69041">
        <ele>54</ele>
        <time>2013-12-13T09:14:53Z</time>
      </trkpt>
      <trkpt lat="48.48208" lon="-2.69041">
        <ele>54</ele>
        <time>2013-12-13T09:14:55Z</time>
      </trkpt>
      <trkpt lat="48.48209" lon="-2.69036">
        <ele>54</ele>
        <time>2013-12-13T09:14:57Z</time>
      </trkpt>
      <trkpt lat="48.48211" lon="-2.6903">
        <ele>53</ele>
        <time>2013-12-13T09:14:59Z</time>
      </trkpt>
      <trkpt lat="48.48214" lon="-2.69024">
        <ele>51</ele>
        <time>2013-12-13T09:15:01Z</time>
      </trkpt>
      <trkpt lat="48.48216" lon="-2.6902">
        <ele>49</ele>
        <time>2013-12-13T09:15:03Z</time>
      </trkpt>
      <trkpt lat="48.48217" lon="-2.69016">
        <ele>47</ele>
        <time>2013-12-13T09:15:05Z</time>
      </trkpt>
      <trkpt lat="48.48219" lon="-2.69012">
        <ele>45</ele>
        <time>2013-12-13T09:15:07Z</time>
      </trkpt>
      <trkpt lat="48.48221" lon="-2.69008">
        <ele>43</ele>
        <time>2013-12-13T09:15:09Z</time>
      </trkpt>
      <trkpt lat="48.48222" lon="-2.69005">
        <ele>41</ele>
        <time>2013-12-13T09:15:11Z</time>
      </trkpt>
      <trkpt lat="48.48225" lon="-2.69002">
        <ele>39</ele>
        <time>2013-12-13T09:15:13Z</time>
      </trkpt>
      <trkpt lat="48.48226" lon="-2.68999">
        <ele>38</ele>
        <time>2013-12-13T09:15:15Z</time>
      </trkpt>
      <trkpt lat="48.48228" lon="-2.68996">
        <ele>37</ele>
        <time>2013-12-13T09:15:17Z</time>
      </trkpt>
      <trkpt lat="48.4823" lon="-2.68992">
        <ele>37</ele>
        <time>2013-12-13T09:15:19Z</time>
      </trkpt>
      <trkpt lat="48.48231" lon="-2.68988">
        <ele>37</ele>
        <time>2013-12-13T09:15:21Z</time>
      </trkpt>
      <trkpt lat="48.48233" lon="-2.68984">
        <ele>36</ele>
        <time>2013-12-13T09:15:23Z</time>
      </trkpt>
      <trkpt lat="48.48234" lon="-2.6898">
        <ele>36</ele>
        <time>2013-12-13T09:15:25Z</time>
      </trkpt>
      <trkpt lat="48.48235" lon="-2.68976">
        <ele>36</ele>
        <time>2013-12-13T09:15:27Z</time>
      </trkpt>
      <trkpt lat="48.48236" lon="-2.68972">
        <ele>36</ele>
        <time>2013-12-13T09:15:29Z</time>
      </trkpt>
      <trkpt lat="48.48236" lon="-2.68967">
        <ele>36</ele>
        <time>2013-12-13T09:15:31Z</time>
      </trkpt>
      <trkpt lat="48.48237" lon="-2.68963">
        <ele>36</ele>
        <time>2013-12-13T09:15:33Z</time>
      </trkpt>
      <trkpt lat="48.48237" lon="-2.68958">
        <ele>36</ele>
        <time>2013-12-13T09:15:35Z</time>
      </trkpt>
      <trkpt lat="48.48236" lon="-2.68953">
        <ele>36</ele>
        <time>2013-12-13T09:15:37Z</time>
      </trkpt>
      <trkpt lat="48.48235" lon="-2.68948">
        <ele>36</ele>
        <time>2013-12-13T09:15:39Z</time>
      </trkpt>
      <trkpt lat="48.48235" lon="-2.68944">
        <ele>36</ele>
        <time>2013-12-13T09:15:41Z</time>
      </trkpt>
      <trkpt lat="48.48233" lon="-2.68939">
        <ele>36</ele>
        <time>2013-12-13T09:15:43Z</time>
      </trkpt>
      <trkpt lat="48.48232" lon="-2.68935">
        <ele>36</ele>
        <time>2013-12-13T09:15:45Z</time>
      </trkpt>
      <trkpt lat="48.4823" lon="-2.68931">
        <ele>36</ele>
        <time>2013-12-13T09:15:47Z</time>
      </trkpt>
      <trkpt lat="48.48228" lon="-2.68927">
        <ele>35</ele>
        <time>2013-12-13T09:15:49Z</time>
      </trkpt>
      <trkpt lat="48.48225" lon="-2.68922">
        <ele>35</ele>
        <time>2013-12-13T09:15:51Z</time>
      </trkpt>
      <trkpt lat="48.48222" lon="-2.6892">
        <ele>35</ele>
        <time>2013-12-13T09:15:53Z</time>
      </trkpt>
      <trkpt lat="48.48221" lon="-2.68918">
        <ele>34</ele>
        <time>2013-12-13T09:15:55Z</time>
      </trkpt>
      <trkpt lat="48.48219" lon="-2.68916">
        <ele>34</ele>
        <time>2013-12-13T09:15:57Z</time>
      </trkpt>
      <trkpt lat="48.48216" lon="-2.68915">
        <ele>33</ele>
        <time>2013-12-13T09:15:59Z</time>
      </trkpt>
      <trkpt lat="48.48214" lon="-2.68914">
        <ele>32</ele>
        <time>2013-12-13T09:16:01Z</time>
      </trkpt>
      <trkpt lat="48.48211" lon="-2.68913">
        <ele>32</ele>
        <time>2013-12-13T09:16:03Z</time>
      </trkpt>
      <trkpt lat="48.48209" lon="-2.68913">
        <ele>31</ele>
        <time>2013-12-13T09:16:05Z</time>
      </trkpt>
      <trkpt lat="48.48206" lon="-2.68914">
        <ele>30</ele>
        <time>2013-12-13T09:16:07Z</time>
      </trkpt>
      <trkpt lat="48.48204" lon="-2.68914">
        <ele>30</ele>
        <time>2013-12-13T09:16:09Z</time>
      </trkpt>
      <trkpt lat="48.48201" lon="-2.68915">
        <ele>29</ele>
        <time>2013-12-13T09:16:11Z</time>
      </trkpt>
      <trkpt lat="48.48198" lon="-2.68916">
        <ele>29</ele>
        <time>2013-12-13T09:16:13Z</time>
      </trkpt>
      <trkpt lat="48.48195" lon="-2.6892">
        <ele>28</ele>
        <time>2013-12-13T09:16:16Z</time>
      </trkpt>
      <trkpt lat="48.48193" lon="-2.68922">
        <ele>26</ele>
        <time>2013-12-13T09:16:18Z</time>
      </trkpt>
      <trkpt lat="48.48192" lon="-2.68925">
        <ele>25</ele>
        <time>2013-12-13T09:16:20Z</time>
      </trkpt>
      <trkpt lat="48.4819" lon="-2.68927">
        <ele>24</ele>
        <time>2013-12-13T09:16:22Z</time>
      </trkpt>
      <trkpt lat="48.48188" lon="-2.6893">
        <ele>23</ele>
        <time>2013-12-13T09:16:24Z</time>
      </trkpt>
      <trkpt lat="48.48186" lon="-2.68934">
        <ele>22</ele>
        <time>2013-12-13T09:16:26Z</time>
      </trkpt>
      <trkpt lat="48.48184" lon="-2.68938">
        <ele>22</ele>
        <time>2013-12-13T09:16:28Z</time>
      </trkpt>
      <trkpt lat="48.48183" lon="-2.68942">
        <ele>22</ele>
        <time>2013-12-13T09:16:30Z</time>
      </trkpt>
      <trkpt lat="48.48181" lon="-2.68946">
        <ele>22</ele>
        <time>2013-12-13T09:16:32Z</time>
      </trkpt>
      <trkpt lat="48.4818" lon="-2.6895">
        <ele>22</ele>
        <time>2013-12-13T09:16:34Z</time>
      </trkpt>
      <trkpt lat="48.48179" lon="-2.68954">
        <ele>22</ele>
        <time>2013-12-13T09:16:36Z</time>
      </trkpt>
      <trkpt lat="48.48178" lon="-2.68958">
        <ele>22</ele>
        <time>2013-12-13T09:16:38Z</time>
      </trkpt>
      <trkpt lat="48.48177" lon="-2.68962">
        <ele>22</ele>
        <time>2013-12-13T09:16:40Z</time>
      </trkpt>
      <trkpt lat="48.48175" lon="-2.68966">
        <ele>22</ele>
        <time>2013-12-13T09:16:42Z</time>
      </trkpt>
      <trkpt lat="48.48175" lon="-2.68969">
        <ele>21</ele>
        <time>2013-12-13T09:16:44Z</time>
      </trkpt>
      <trkpt lat="48.48174" lon="-2.68973">
        <ele>21</ele>
        <time>2013-12-13T09:16:46Z</time>
      </trkpt>
      <trkpt lat="48.48174" lon="-2.68978">
        <ele>20</ele>
        <time>2013-12-13T09:16:48Z</time>
      </trkpt>
      <trkpt lat="48.48173" lon="-2.68982">
        <ele>19</ele>
        <time>2013-12-13T09:16:50Z</time>
      </trkpt>
      <trkpt lat="48.48172" lon="-2.68986">
        <ele>19</ele>
        <time>2013-12-13T09:16:52Z</time>
      </trkpt>
      <trkpt lat="48.4817" lon="-2.68991">
        <ele>18</ele>
        <time>2013-12-13T09:16:54Z</time>
      </trkpt>
      <trkpt lat="48.48169" lon="-2.68996">
        <ele>18</ele>
        <time>2013-12-13T09:16:56Z</time>
      </trkpt>
      <trkpt lat="48.48167" lon="-2.69001">
        <ele>18</ele>
        <time>2013-12-13T09:16:58Z</time>
      </trkpt>
      <trkpt lat="48.48166" lon="-2.69005">
        <ele>18</ele>
        <time>2013-12-13T09:17:00Z</time>
      </trkpt>
      <trkpt lat="48.48165" lon="-2.6901">
        <ele>18</ele>
        <time>2013-12-13T09:17:02Z</time>
      </trkpt>
      <trkpt lat="48.48164" lon="-2.69015">
        <ele>18</ele>
        <time>2013-12-13T09:17:04Z</time>
      </trkpt>
      <trkpt lat="48.48164" lon="-2.6902">
        <ele>18</ele>
        <time>2013-12-13T09:17:06Z</time>
      </trkpt>
      <trkpt lat="48.48162" lon="-2.69024">
        <ele>18</ele>
        <time>2013-12-13T09:17:08Z</time>
      </trkpt>
      <trkpt lat="48.48162" lon="-2.69029">
        <ele>18</ele>
        <time>2013-12-13T09:17:10Z</time>
      </trkpt>
      <trkpt lat="48.48161" lon="-2.69034">
        <ele>18</ele>
        <time>2013-12-13T09:17:12Z</time>
      </trkpt>
      <trkpt lat="48.48159" lon="-2.69038">
        <ele>18</ele>
        <time>2013-12-13T09:17:14Z</time>
      </trkpt>
      <trkpt lat="48.48159" lon="-2.69042">
        <ele>18</ele>
        <time>2013-12-13T09:17:16Z</time>
      </trkpt>
      <trkpt lat="48.48158" lon="-2.69046">
        <ele>18</ele>
        <time>2013-12-13T09:17:18Z</time>
      </trkpt>
      <trkpt lat="48.48158" lon="-2.69051">
        <ele>18</ele>
        <time>2013-12-13T09:17:20Z</time>
      </trkpt>
      <trkpt lat="48.48157" lon="-2.69055">
        <ele>18</ele>
        <time>2013-12-13T09:17:22Z</time>
      </trkpt>
      <trkpt lat="48.48157" lon="-2.6906">
        <ele>18</ele>
        <time>2013-12-13T09:17:24Z</time>
      </trkpt>
      <trkpt lat="48.48157" lon="-2.69064">
        <ele>18</ele>
        <time>2013-12-13T09:17:26Z</time>
      </trkpt>
      <trkpt lat="48.48156" lon="-2.69069">
        <ele>18</ele>
        <time>2013-12-13T09:17:28Z</time>
      </trkpt>
      <trkpt lat="48.48156" lon="-2.69074">
        <ele>18</ele>
        <time>2013-12-13T09:17:30Z</time>
      </trkpt>
      <trkpt lat="48.48156" lon="-2.69078">
        <ele>18</ele>
        <time>2013-12-13T09:17:32Z</time>
      </trkpt>
      <trkpt lat="48.48156" lon="-2.69082">
        <ele>18</ele>
        <time>2013-12-13T09:17:34Z</time>
      </trkpt>
      <trkpt lat="48.48156" lon="-2.69087">
        <ele>18</ele>
        <time>2013-12-13T09:17:36Z</time>
      </trkpt>
      <trkpt lat="48.48156" lon="-2.69092">
        <ele>18</ele>
        <time>2013-12-13T09:17:38Z</time>
      </trkpt>
      <trkpt lat="48.48156" lon="-2.69096">
        <ele>18</ele>
        <time>2013-12-13T09:17:40Z</time>
      </trkpt>
      <trkpt lat="48.48155" lon="-2.69101">
        <ele>18</ele>
        <time>2013-12-13T09:17:42Z</time>
      </trkpt>
      <trkpt lat="48.48155" lon="-2.69105">
        <ele>19</ele>
        <time>2013-12-13T09:17:44Z</time>
      </trkpt>
      <trkpt lat="48.48156" lon="-2.69109">
        <ele>19</ele>
        <time>2013-12-13T09:17:46Z</time>
      </trkpt>
      <trkpt lat="48.48156" lon="-2.69113">
        <ele>19</ele>
        <time>2013-12-13T09:17:48Z</time>
      </trkpt>
      <trkpt lat="48.48156" lon="-2.69117">
        <ele>19</ele>
        <time>2013-12-13T09:17:50Z</time>
      </trkpt>
      <trkpt lat="48.48157" lon="-2.69122">
        <ele>19</ele>
        <time>2013-12-13T09:17:52Z</time>
      </trkpt>
      <trkpt lat="48.48158" lon="-2.69126">
        <ele>19</ele>
        <time>2013-12-13T09:17:54Z</time>
      </trkpt>
      <trkpt lat="48.48158" lon="-2.6913">
        <ele>19</ele>
        <time>2013-12-13T09:17:56Z</time>
      </trkpt>
      <trkpt lat="48.48158" lon="-2.69134">
        <ele>19</ele>
        <time>2013-12-13T09:17:58Z</time>
      </trkpt>
      <trkpt lat="48.48158" lon="-2.69139">
        <ele>19</ele>
        <time>2013-12-13T09:18:00Z</time>
      </trkpt>
      <trkpt lat="48.48158" lon="-2.69143">
        <ele>19</ele>
        <time>2013-12-13T09:18:02Z</time>
      </trkpt>
      <trkpt lat="48.48157" lon="-2.69147">
        <ele>19</ele>
        <time>2013-12-13T09:18:04Z</time>
      </trkpt>
      <trkpt lat="48.48156" lon="-2.69152">
        <ele>20</ele>
        <time>2013-12-13T09:18:06Z</time>
      </trkpt>
      <trkpt lat="48.48156" lon="-2.69156">
        <ele>20</ele>
        <time>2013-12-13T09:18:08Z</time>
      </trkpt>
      <trkpt lat="48.48155" lon="-2.6916">
        <ele>20</ele>
        <time>2013-12-13T09:18:10Z</time>
      </trkpt>
      <trkpt lat="48.48155" lon="-2.69164">
        <ele>21</ele>
        <time>2013-12-13T09:18:12Z</time>
      </trkpt>
      <trkpt lat="48.48154" lon="-2.69169">
        <ele>21</ele>
        <time>2013-12-13T09:18:14Z</time>
      </trkpt>
      <trkpt lat="48.48153" lon="-2.69173">
        <ele>21</ele>
        <time>2013-12-13T09:18:16Z</time>
      </trkpt>
      <trkpt lat="48.48152" lon="-2.69178">
        <ele>21</ele>
        <time>2013-12-13T09:18:18Z</time>
      </trkpt>
      <trkpt lat="48.4815" lon="-2.69183">
        <ele>21</ele>
        <time>2013-12-13T09:18:20Z</time>
      </trkpt>
      <trkpt lat="48.48149" lon="-2.69187">
        <ele>21</ele>
        <time>2013-12-13T09:18:22Z</time>
      </trkpt>
      <trkpt lat="48.48148" lon="-2.69191">
        <ele>21</ele>
        <time>2013-12-13T09:18:24Z</time>
      </trkpt>
      <trkpt lat="48.48146" lon="-2.69196">
        <ele>21</ele>
        <time>2013-12-13T09:18:26Z</time>
      </trkpt>
      <trkpt lat="48.48146" lon="-2.692">
        <ele>21</ele>
        <time>2013-12-13T09:18:28Z</time>
      </trkpt>
      <trkpt lat="48.48145" lon="-2.69204">
        <ele>21</ele>
        <time>2013-12-13T09:18:30Z</time>
      </trkpt>
      <trkpt lat="48.48144" lon="-2.69209">
        <ele>21</ele>
        <time>2013-12-13T09:18:32Z</time>
      </trkpt>
      <trkpt lat="48.48143" lon="-2.69213">
        <ele>21</ele>
        <time>2013-12-13T09:18:34Z</time>
      </trkpt>
      <trkpt lat="48.48143" lon="-2.69218">
        <ele>21</ele>
        <time>2013-12-13T09:18:36Z</time>
      </trkpt>
      <trkpt lat="48.48142" lon="-2.69222">
        <ele>21</ele>
        <time>2013-12-13T09:18:38Z</time>
      </trkpt>
      <trkpt lat="48.48141" lon="-2.69226">
        <ele>21</ele>
        <time>2013-12-13T09:18:40Z</time>
      </trkpt>
      <trkpt lat="48.48141" lon="-2.69231">
        <ele>21</ele>
        <time>2013-12-13T09:18:42Z</time>
      </trkpt>
      <trkpt lat="48.48141" lon="-2.69235">
        <ele>21</ele>
        <time>2013-12-13T09:18:44Z</time>
      </trkpt>
      <trkpt lat="48.4814" lon="-2.69239">
        <ele>21</ele>
        <time>2013-12-13T09:18:46Z</time>
      </trkpt>
      <trkpt lat="48.4814" lon="-2.69244">
        <ele>21</ele>
        <time>2013-12-13T09:18:48Z</time>
      </trkpt>
      <trkpt lat="48.48139" lon="-2.69248">
        <ele>21</ele>
        <time>2013-12-13T09:18:50Z</time>
      </trkpt>
      <trkpt lat="48.48138" lon="-2.69253">
        <ele>21</ele>
        <time>2013-12-13T09:18:52Z</time>
      </trkpt>
      <trkpt lat="48.48138" lon="-2.69258">
        <ele>21</ele>
        <time>2013-12-13T09:18:54Z</time>
      </trkpt>
      <trkpt lat="48.48137" lon="-2.69262">
        <ele>21</ele>
        <time>2013-12-13T09:18:56Z</time>
      </trkpt>
      <trkpt lat="48.48137" lon="-2.69267">
        <ele>21</ele>
        <time>2013-12-13T09:18:58Z</time>
      </trkpt>
      <trkpt lat="48.48136" lon="-2.69271">
        <ele>21</ele>
        <time>2013-12-13T09:19:00Z</time>
      </trkpt>
      <trkpt lat="48.48136" lon="-2.69275">
        <ele>21</ele>
        <time>2013-12-13T09:19:02Z</time>
      </trkpt>
      <trkpt lat="48.48136" lon="-2.6928">
        <ele>21</ele>
        <time>2013-12-13T09:19:04Z</time>
      </trkpt>
      <trkpt lat="48.48135" lon="-2.69285">
        <ele>21</ele>
        <time>2013-12-13T09:19:06Z</time>
      </trkpt>
      <trkpt lat="48.48134" lon="-2.69289">
        <ele>21</ele>
        <time>2013-12-13T09:19:08Z</time>
      </trkpt>
      <trkpt lat="48.48134" lon="-2.69293">
        <ele>21</ele>
        <time>2013-12-13T09:19:10Z</time>
      </trkpt>
      <trkpt lat="48.48133" lon="-2.69298">
        <ele>21</ele>
        <time>2013-12-13T09:19:12Z</time>
      </trkpt>
      <trkpt lat="48.48132" lon="-2.69302">
        <ele>21</ele>
        <time>2013-12-13T09:19:14Z</time>
      </trkpt>
      <trkpt lat="48.48132" lon="-2.69306">
        <ele>21</ele>
        <time>2013-12-13T09:19:16Z</time>
      </trkpt>
      <trkpt lat="48.4813" lon="-2.6931">
        <ele>22</ele>
        <time>2013-12-13T09:19:18Z</time>
      </trkpt>
      <trkpt lat="48.4813" lon="-2.69314">
        <ele>22</ele>
        <time>2013-12-13T09:19:20Z</time>
      </trkpt>
      <trkpt lat="48.48129" lon="-2.69319">
        <ele>22</ele>
        <time>2013-12-13T09:19:22Z</time>
      </trkpt>
      <trkpt lat="48.48127" lon="-2.69323">
        <ele>22</ele>
        <time>2013-12-13T09:19:24Z</time>
      </trkpt>
      <trkpt lat="48.48127" lon="-2.69328">
        <ele>22</ele>
        <time>2013-12-13T09:19:26Z</time>
      </trkpt>
      <trkpt lat="48.48126" lon="-2.69332">
        <ele>22</ele>
        <time>2013-12-13T09:19:28Z</time>
      </trkpt>
      <trkpt lat="48.48124" lon="-2.69336">
        <ele>22</ele>
        <time>2013-12-13T09:19:30Z</time>
      </trkpt>
      <trkpt lat="48.48123" lon="-2.6934">
        <ele>22</ele>
        <time>2013-12-13T09:19:32Z</time>
      </trkpt>
      <trkpt lat="48.48122" lon="-2.69343">
        <ele>22</ele>
        <time>2013-12-13T09:19:34Z</time>
      </trkpt>
      <trkpt lat="48.4812" lon="-2.69346">
        <ele>22</ele>
        <time>2013-12-13T09:19:36Z</time>
      </trkpt>
      <trkpt lat="48.48119" lon="-2.69349">
        <ele>22</ele>
        <time>2013-12-13T09:19:38Z</time>
      </trkpt>
      <trkpt lat="48.48116" lon="-2.69353">
        <ele>22</ele>
        <time>2013-12-13T09:19:40Z</time>
      </trkpt>
      <trkpt lat="48.48113" lon="-2.69357">
        <ele>22</ele>
        <time>2013-12-13T09:19:43Z</time>
      </trkpt>
      <trkpt lat="48.48111" lon="-2.6936">
        <ele>22</ele>
        <time>2013-12-13T09:19:45Z</time>
      </trkpt>
      <trkpt lat="48.48109" lon="-2.69365">
        <ele>22</ele>
        <time>2013-12-13T09:19:48Z</time>
      </trkpt>
      <trkpt lat="48.48107" lon="-2.69368">
        <ele>22</ele>
        <time>2013-12-13T09:19:50Z</time>
      </trkpt>
      <trkpt lat="48.48104" lon="-2.69371">
        <ele>22</ele>
        <time>2013-12-13T09:19:52Z</time>
      </trkpt>
      <trkpt lat="48.48102" lon="-2.69374">
        <ele>22</ele>
        <time>2013-12-13T09:19:54Z</time>
      </trkpt>
      <trkpt lat="48.481" lon="-2.69377">
        <ele>22</ele>
        <time>2013-12-13T09:19:56Z</time>
      </trkpt>
      <trkpt lat="48.48098" lon="-2.6938">
        <ele>23</ele>
        <time>2013-12-13T09:19:58Z</time>
      </trkpt>
      <trkpt lat="48.48096" lon="-2.69383">
        <ele>23</ele>
        <time>2013-12-13T09:20:00Z</time>
      </trkpt>
      <trkpt lat="48.48093" lon="-2.69385">
        <ele>23</ele>
        <time>2013-12-13T09:20:02Z</time>
      </trkpt>
      <trkpt lat="48.48092" lon="-2.69388">
        <ele>23</ele>
        <time>2013-12-13T09:20:04Z</time>
      </trkpt>
      <trkpt lat="48.48089" lon="-2.69392">
        <ele>23</ele>
        <time>2013-12-13T09:20:07Z</time>
      </trkpt>
      <trkpt lat="48.48087" lon="-2.69397">
        <ele>23</ele>
        <time>2013-12-13T09:20:10Z</time>
      </trkpt>
      <trkpt lat="48.48083" lon="-2.69402">
        <ele>23</ele>
        <time>2013-12-13T09:20:13Z</time>
      </trkpt>
      <trkpt lat="48.4808" lon="-2.69405">
        <ele>23</ele>
        <time>2013-12-13T09:20:16Z</time>
      </trkpt>
      <trkpt lat="48.48079" lon="-2.69407">
        <ele>23</ele>
        <time>2013-12-13T09:20:18Z</time>
      </trkpt>
      <trkpt lat="48.48077" lon="-2.69408">
        <ele>22</ele>
        <time>2013-12-13T09:20:20Z</time>
      </trkpt>
      <trkpt lat="48.48075" lon="-2.6941">
        <ele>22</ele>
        <time>2013-12-13T09:20:22Z</time>
      </trkpt>
      <trkpt lat="48.48072" lon="-2.69412">
        <ele>22</ele>
        <time>2013-12-13T09:20:24Z</time>
      </trkpt>
      <trkpt lat="48.4807" lon="-2.69409">
        <ele>22</ele>
        <time>2013-12-13T09:20:27Z</time>
      </trkpt>
      <trkpt lat="48.48069" lon="-2.69407">
        <ele>22</ele>
        <time>2013-12-13T09:20:29Z</time>
      </trkpt>
      <trkpt lat="48.48067" lon="-2.69407">
        <ele>22</ele>
        <time>2013-12-13T09:20:31Z</time>
      </trkpt>
      <trkpt lat="48.48066" lon="-2.69406">
        <ele>22</ele>
        <time>2013-12-13T09:20:33Z</time>
      </trkpt>
      <trkpt lat="48.48065" lon="-2.69402">
        <ele>22</ele>
        <time>2013-12-13T09:20:35Z</time>
      </trkpt>
      <trkpt lat="48.48064" lon="-2.69399">
        <ele>22</ele>
        <time>2013-12-13T09:20:37Z</time>
      </trkpt>
      <trkpt lat="48.48062" lon="-2.69395">
        <ele>22</ele>
        <time>2013-12-13T09:20:39Z</time>
      </trkpt>
      <trkpt lat="48.48061" lon="-2.69391">
        <ele>22</ele>
        <time>2013-12-13T09:20:41Z</time>
      </trkpt>
      <trkpt lat="48.4806" lon="-2.69387">
        <ele>22</ele>
        <time>2013-12-13T09:20:43Z</time>
      </trkpt>
      <trkpt lat="48.48059" lon="-2.69384">
        <ele>22</ele>
        <time>2013-12-13T09:20:45Z</time>
      </trkpt>
      <trkpt lat="48.48062" lon="-2.6938">
        <ele>22</ele>
        <time>2013-12-13T09:20:48Z</time>
      </trkpt>
      <trkpt lat="48.48064" lon="-2.69375">
        <ele>22</ele>
        <time>2013-12-13T09:20:51Z</time>
      </trkpt>
      <trkpt lat="48.48065" lon="-2.69371">
        <ele>22</ele>
        <time>2013-12-13T09:20:53Z</time>
      </trkpt>
      <trkpt lat="48.48067" lon="-2.69369">
        <ele>22</ele>
        <time>2013-12-13T09:20:55Z</time>
      </trkpt>
      <trkpt lat="48.48067" lon="-2.69365">
        <ele>22</ele>
        <time>2013-12-13T09:20:57Z</time>
      </trkpt>
      <trkpt lat="48.48068" lon="-2.69361">
        <ele>22</ele>
        <time>2013-12-13T09:21:00Z</time>
      </trkpt>
      <trkpt lat="48.48067" lon="-2.69357">
        <ele>22</ele>
        <time>2013-12-13T09:21:03Z</time>
      </trkpt>
      <trkpt lat="48.48064" lon="-2.69356">
        <ele>22</ele>
        <time>2013-12-13T09:21:05Z</time>
      </trkpt>
      <trkpt lat="48.48063" lon="-2.69355">
        <ele>22</ele>
        <time>2013-12-13T09:21:07Z</time>
      </trkpt>
      <trkpt lat="48.48061" lon="-2.69353">
        <ele>22</ele>
        <time>2013-12-13T09:21:09Z</time>
      </trkpt>
      <trkpt lat="48.48059" lon="-2.6935">
        <ele>22</ele>
        <time>2013-12-13T09:21:11Z</time>
      </trkpt>
      <trkpt lat="48.48057" lon="-2.69346">
        <ele>22</ele>
        <time>2013-12-13T09:21:13Z</time>
      </trkpt>
      <trkpt lat="48.48056" lon="-2.69343">
        <ele>22</ele>
        <time>2013-12-13T09:21:15Z</time>
      </trkpt>
      <trkpt lat="48.48053" lon="-2.6934">
        <ele>22</ele>
        <time>2013-12-13T09:21:17Z</time>
      </trkpt>
      <trkpt lat="48.48051" lon="-2.69337">
        <ele>22</ele>
        <time>2013-12-13T09:21:19Z</time>
      </trkpt>
      <trkpt lat="48.48049" lon="-2.69334">
        <ele>22</ele>
        <time>2013-12-13T09:21:21Z</time>
      </trkpt>
      <trkpt lat="48.48046" lon="-2.69329">
        <ele>22</ele>
        <time>2013-12-13T09:21:24Z</time>
      </trkpt>
      <trkpt lat="48.48045" lon="-2.69326">
        <ele>22</ele>
        <time>2013-12-13T09:21:26Z</time>
      </trkpt>
      <trkpt lat="48.48045" lon="-2.69322">
        <ele>22</ele>
        <time>2013-12-13T09:21:28Z</time>
      </trkpt>
      <trkpt lat="48.48045" lon="-2.69319">
        <ele>22</ele>
        <time>2013-12-13T09:21:30Z</time>
      </trkpt>
      <trkpt lat="48.48045" lon="-2.69315">
        <ele>22</ele>
        <time>2013-12-13T09:21:32Z</time>
      </trkpt>
      <trkpt lat="48.48046" lon="-2.69312">
        <ele>22</ele>
        <time>2013-12-13T09:21:34Z</time>
      </trkpt>
      <trkpt lat="48.48046" lon="-2.69308">
        <ele>22</ele>
        <time>2013-12-13T09:21:36Z</time>
      </trkpt>
      <trkpt lat="48.48046" lon="-2.69304">
        <ele>22</ele>
        <time>2013-12-13T09:21:38Z</time>
      </trkpt>
      <trkpt lat="48.48046" lon="-2.69301">
        <ele>22</ele>
        <time>2013-12-13T09:21:40Z</time>
      </trkpt>
      <trkpt lat="48.48046" lon="-2.69296">
        <ele>22</ele>
        <time>2013-12-13T09:21:43Z</time>
      </trkpt>
      <trkpt lat="48.48046" lon="-2.69292">
        <ele>22</ele>
        <time>2013-12-13T09:21:46Z</time>
      </trkpt>
      <trkpt lat="48.48046" lon="-2.69288">
        <ele>22</ele>
        <time>2013-12-13T09:21:48Z</time>
      </trkpt>
      <trkpt lat="48.48047" lon="-2.69284">
        <ele>22</ele>
        <time>2013-12-13T09:21:50Z</time>
      </trkpt>
      <trkpt lat="48.48049" lon="-2.69281">
        <ele>22</ele>
        <time>2013-12-13T09:21:52Z</time>
      </trkpt>
      <trkpt lat="48.4805" lon="-2.69278">
        <ele>22</ele>
        <time>2013-12-13T09:21:54Z</time>
      </trkpt>
      <trkpt lat="48.48051" lon="-2.69276">
        <ele>22</ele>
        <time>2013-12-13T09:21:56Z</time>
      </trkpt>
      <trkpt lat="48.4805" lon="-2.69273">
        <ele>22</ele>
        <time>2013-12-13T09:21:58Z</time>
      </trkpt>
      <trkpt lat="48.48049" lon="-2.6927">
        <ele>22</ele>
        <time>2013-12-13T09:22:00Z</time>
      </trkpt>
      <trkpt lat="48.48048" lon="-2.69266">
        <ele>22</ele>
        <time>2013-12-13T09:22:02Z</time>
      </trkpt>
      <trkpt lat="48.48046" lon="-2.6926">
        <ele>22</ele>
        <time>2013-12-13T09:22:04Z</time>
      </trkpt>
      <trkpt lat="48.48046" lon="-2.69255">
        <ele>22</ele>
        <time>2013-12-13T09:22:06Z</time>
      </trkpt>
      <trkpt lat="48.48046" lon="-2.69251">
        <ele>22</ele>
        <time>2013-12-13T09:22:08Z</time>
      </trkpt>
      <trkpt lat="48.48044" lon="-2.69247">
        <ele>22</ele>
        <time>2013-12-13T09:22:10Z</time>
      </trkpt>
      <trkpt lat="48.48043" lon="-2.69245">
        <ele>22</ele>
        <time>2013-12-13T09:22:12Z</time>
      </trkpt>
      <trkpt lat="48.48043" lon="-2.69241">
        <ele>22</ele>
        <time>2013-12-13T09:22:14Z</time>
      </trkpt>
      <trkpt lat="48.48043" lon="-2.69236">
        <ele>22</ele>
        <time>2013-12-13T09:22:17Z</time>
      </trkpt>
      <trkpt lat="48.48043" lon="-2.69233">
        <ele>22</ele>
        <time>2013-12-13T09:22:19Z</time>
      </trkpt>
      <trkpt lat="48.48043" lon="-2.69229">
        <ele>22</ele>
        <time>2013-12-13T09:22:21Z</time>
      </trkpt>
      <trkpt lat="48.48043" lon="-2.69226">
        <ele>22</ele>
        <time>2013-12-13T09:22:23Z</time>
      </trkpt>
      <trkpt lat="48.48042" lon="-2.69222">
        <ele>22</ele>
        <time>2013-12-13T09:22:25Z</time>
      </trkpt>
      <trkpt lat="48.48041" lon="-2.69218">
        <ele>22</ele>
        <time>2013-12-13T09:22:27Z</time>
      </trkpt>
      <trkpt lat="48.4804" lon="-2.69214">
        <ele>22</ele>
        <time>2013-12-13T09:22:29Z</time>
      </trkpt>
      <trkpt lat="48.48039" lon="-2.6921">
        <ele>22</ele>
        <time>2013-12-13T09:22:31Z</time>
      </trkpt>
      <trkpt lat="48.48037" lon="-2.69205">
        <ele>22</ele>
        <time>2013-12-13T09:22:34Z</time>
      </trkpt>
      <trkpt lat="48.48034" lon="-2.692">
        <ele>22</ele>
        <time>2013-12-13T09:22:37Z</time>
      </trkpt>
      <trkpt lat="48.48033" lon="-2.69198">
        <ele>22</ele>
        <time>2013-12-13T09:22:39Z</time>
      </trkpt>
      <trkpt lat="48.48032" lon="-2.69194">
        <ele>22</ele>
        <time>2013-12-13T09:22:41Z</time>
      </trkpt>
      <trkpt lat="48.48029" lon="-2.6919">
        <ele>23</ele>
        <time>2013-12-13T09:22:44Z</time>
      </trkpt>
      <trkpt lat="48.48027" lon="-2.69187">
        <ele>23</ele>
        <time>2013-12-13T09:22:46Z</time>
      </trkpt>
      <trkpt lat="48.48026" lon="-2.69186">
        <ele>24</ele>
        <time>2013-12-13T09:22:48Z</time>
      </trkpt>
      <trkpt lat="48.48024" lon="-2.69185">
        <ele>24</ele>
        <time>2013-12-13T09:22:50Z</time>
      </trkpt>
      <trkpt lat="48.48022" lon="-2.69183">
        <ele>24</ele>
        <time>2013-12-13T09:22:52Z</time>
      </trkpt>
      <trkpt lat="48.48019" lon="-2.69182">
        <ele>24</ele>
        <time>2013-12-13T09:22:54Z</time>
      </trkpt>
      <trkpt lat="48.48017" lon="-2.69181">
        <ele>24</ele>
        <time>2013-12-13T09:22:56Z</time>
      </trkpt>
      <trkpt lat="48.48015" lon="-2.6918">
        <ele>24</ele>
        <time>2013-12-13T09:22:58Z</time>
      </trkpt>
      <trkpt lat="48.48013" lon="-2.69179">
        <ele>24</ele>
        <time>2013-12-13T09:23:00Z</time>
      </trkpt>
      <trkpt lat="48.48012" lon="-2.69178">
        <ele>24</ele>
        <time>2013-12-13T09:23:02Z</time>
      </trkpt>
      <trkpt lat="48.4801" lon="-2.69178">
        <ele>24</ele>
        <time>2013-12-13T09:23:05Z</time>
      </trkpt>
      <trkpt lat="48.48008" lon="-2.69179">
        <ele>25</ele>
        <time>2013-12-13T09:23:07Z</time>
      </trkpt>
      <trkpt lat="48.48006" lon="-2.69179">
        <ele>26</ele>
        <time>2013-12-13T09:23:09Z</time>
      </trkpt>
      <trkpt lat="48.48003" lon="-2.6918">
        <ele>27</ele>
        <time>2013-12-13T09:23:11Z</time>
      </trkpt>
      <trkpt lat="48.48" lon="-2.69181">
        <ele>29</ele>
        <time>2013-12-13T09:23:13Z</time>
      </trkpt>
      <trkpt lat="48.47997" lon="-2.69181">
        <ele>31</ele>
        <time>2013-12-13T09:23:15Z</time>
      </trkpt>
      <trkpt lat="48.47994" lon="-2.69181">
        <ele>32</ele>
        <time>2013-12-13T09:23:17Z</time>
      </trkpt>
      <trkpt lat="48.47991" lon="-2.69181">
        <ele>33</ele>
        <time>2013-12-13T09:23:19Z</time>
      </trkpt>
      <trkpt lat="48.47989" lon="-2.69183">
        <ele>34</ele>
        <time>2013-12-13T09:23:21Z</time>
      </trkpt>
      <trkpt lat="48.47987" lon="-2.69184">
        <ele>35</ele>
        <time>2013-12-13T09:23:23Z</time>
      </trkpt>
      <trkpt lat="48.47985" lon="-2.69186">
        <ele>35</ele>
        <time>2013-12-13T09:23:27Z</time>
      </trkpt>
      <trkpt lat="48.47985" lon="-2.69188">
        <ele>37</ele>
        <time>2013-12-13T09:23:31Z</time>
      </trkpt>
      <trkpt lat="48.47985" lon="-2.69194">
        <ele>38</ele>
        <time>2013-12-13T09:23:34Z</time>
      </trkpt>
      <trkpt lat="48.47985" lon="-2.69196">
        <ele>39</ele>
        <time>2013-12-13T09:23:36Z</time>
      </trkpt>
      <trkpt lat="48.47987" lon="-2.69198">
        <ele>39</ele>
        <time>2013-12-13T09:23:39Z</time>
      </trkpt>
      <trkpt lat="48.47988" lon="-2.69199">
        <ele>39</ele>
        <time>2013-12-13T09:23:41Z</time>
      </trkpt>
      <trkpt lat="48.4799" lon="-2.69201">
        <ele>40</ele>
        <time>2013-12-13T09:23:43Z</time>
      </trkpt>
      <trkpt lat="48.47992" lon="-2.69202">
        <ele>40</ele>
        <time>2013-12-13T09:23:45Z</time>
      </trkpt>
      <trkpt lat="48.47993" lon="-2.69204">
        <ele>40</ele>
        <time>2013-12-13T09:23:47Z</time>
      </trkpt>
      <trkpt lat="48.47995" lon="-2.69205">
        <ele>40</ele>
        <time>2013-12-13T09:23:49Z</time>
      </trkpt>
      <trkpt lat="48.47997" lon="-2.69207">
        <ele>40</ele>
        <time>2013-12-13T09:23:51Z</time>
      </trkpt>
      <trkpt lat="48.47999" lon="-2.69209">
        <ele>40</ele>
        <time>2013-12-13T09:23:53Z</time>
      </trkpt>
      <trkpt lat="48.48002" lon="-2.69213">
        <ele>40</ele>
        <time>2013-12-13T09:23:56Z</time>
      </trkpt>
      <trkpt lat="48.48004" lon="-2.69216">
        <ele>40</ele>
        <time>2013-12-13T09:23:58Z</time>
      </trkpt>
      <trkpt lat="48.48005" lon="-2.69219">
        <ele>40</ele>
        <time>2013-12-13T09:24:00Z</time>
      </trkpt>
      <trkpt lat="48.48006" lon="-2.69223">
        <ele>40</ele>
        <time>2013-12-13T09:24:02Z</time>
      </trkpt>
      <trkpt lat="48.48007" lon="-2.69226">
        <ele>40</ele>
        <time>2013-12-13T09:24:04Z</time>
      </trkpt>
      <trkpt lat="48.48007" lon="-2.6923">
        <ele>40</ele>
        <time>2013-12-13T09:24:06Z</time>
      </trkpt>
      <trkpt lat="48.48008" lon="-2.69234">
        <ele>40</ele>
        <time>2013-12-13T09:24:08Z</time>
      </trkpt>
      <trkpt lat="48.48008" lon="-2.69237">
        <ele>40</ele>
        <time>2013-12-13T09:24:10Z</time>
      </trkpt>
      <trkpt lat="48.48008" lon="-2.69241">
        <ele>41</ele>
        <time>2013-12-13T09:24:12Z</time>
      </trkpt>
      <trkpt lat="48.48007" lon="-2.69245">
        <ele>42</ele>
        <time>2013-12-13T09:24:14Z</time>
      </trkpt>
      <trkpt lat="48.48007" lon="-2.69248">
        <ele>42</ele>
        <time>2013-12-13T09:24:16Z</time>
      </trkpt>
      <trkpt lat="48.48005" lon="-2.69251">
        <ele>43</ele>
        <time>2013-12-13T09:24:18Z</time>
      </trkpt>
      <trkpt lat="48.48003" lon="-2.69254">
        <ele>44</ele>
        <time>2013-12-13T09:24:20Z</time>
      </trkpt>
      <trkpt lat="48.48002" lon="-2.69255">
        <ele>45</ele>
        <time>2013-12-13T09:24:22Z</time>
      </trkpt>
      <trkpt lat="48.48" lon="-2.69257">
        <ele>46</ele>
        <time>2013-12-13T09:24:24Z</time>
      </trkpt>
      <trkpt lat="48.47998" lon="-2.69259">
        <ele>47</ele>
        <time>2013-12-13T09:24:27Z</time>
      </trkpt>
      <trkpt lat="48.47997" lon="-2.6926">
        <ele>47</ele>
        <time>2013-12-13T09:24:30Z</time>
      </trkpt>
      <trkpt lat="48.47995" lon="-2.69261">
        <ele>48</ele>
        <time>2013-12-13T09:24:33Z</time>
      </trkpt>
      <trkpt lat="48.47993" lon="-2.69261">
        <ele>48</ele>
        <time>2013-12-13T09:24:35Z</time>
      </trkpt>
      <trkpt lat="48.47992" lon="-2.69262">
        <ele>48</ele>
        <time>2013-12-13T09:24:38Z</time>
      </trkpt>
      <trkpt lat="48.47987" lon="-2.69263">
        <ele>49</ele>
        <time>2013-12-13T09:24:41Z</time>
      </trkpt>
      <trkpt lat="48.47986" lon="-2.69263">
        <ele>50</ele>
        <time>2013-12-13T09:24:43Z</time>
      </trkpt>
      <trkpt lat="48.47984" lon="-2.69264">
        <ele>50</ele>
        <time>2013-12-13T09:24:45Z</time>
      </trkpt>
      <trkpt lat="48.47981" lon="-2.69266">
        <ele>50</ele>
        <time>2013-12-13T09:24:47Z</time>
      </trkpt>
      <trkpt lat="48.47978" lon="-2.69267">
        <ele>50</ele>
        <time>2013-12-13T09:24:49Z</time>
      </trkpt>
      <trkpt lat="48.47975" lon="-2.69267">
        <ele>50</ele>
        <time>2013-12-13T09:24:51Z</time>
      </trkpt>
      <trkpt lat="48.47973" lon="-2.69267">
        <ele>50</ele>
        <time>2013-12-13T09:24:53Z</time>
      </trkpt>
      <trkpt lat="48.47969" lon="-2.69268">
        <ele>50</ele>
        <time>2013-12-13T09:24:55Z</time>
      </trkpt>
      <trkpt lat="48.47967" lon="-2.69268">
        <ele>50</ele>
        <time>2013-12-13T09:24:57Z</time>
      </trkpt>
      <trkpt lat="48.47964" lon="-2.69269">
        <ele>50</ele>
        <time>2013-12-13T09:24:59Z</time>
      </trkpt>
      <trkpt lat="48.4796" lon="-2.6927">
        <ele>50</ele>
        <time>2013-12-13T09:25:01Z</time>
      </trkpt>
      <trkpt lat="48.47955" lon="-2.69272">
        <ele>52</ele>
        <time>2013-12-13T09:25:04Z</time>
      </trkpt>
      <trkpt lat="48.47953" lon="-2.69272">
        <ele>53</ele>
        <time>2013-12-13T09:25:06Z</time>
      </trkpt>
      <trkpt lat="48.47951" lon="-2.69273">
        <ele>54</ele>
        <time>2013-12-13T09:25:08Z</time>
      </trkpt>
      <trkpt lat="48.47947" lon="-2.69273">
        <ele>56</ele>
        <time>2013-12-13T09:25:11Z</time>
      </trkpt>
      <trkpt lat="48.47945" lon="-2.69273">
        <ele>56</ele>
        <time>2013-12-13T09:25:14Z</time>
      </trkpt>
      <trkpt lat="48.47943" lon="-2.69272">
        <ele>57</ele>
        <time>2013-12-13T09:25:16Z</time>
      </trkpt>
      <trkpt lat="48.47941" lon="-2.69271">
        <ele>57</ele>
        <time>2013-12-13T09:25:18Z</time>
      </trkpt>
      <trkpt lat="48.47939" lon="-2.69272">
        <ele>57</ele>
        <time>2013-12-13T09:25:20Z</time>
      </trkpt>
      <trkpt lat="48.47936" lon="-2.69273">
        <ele>57</ele>
        <time>2013-12-13T09:25:22Z</time>
      </trkpt>
      <trkpt lat="48.47935" lon="-2.69274">
        <ele>58</ele>
        <time>2013-12-13T09:25:24Z</time>
      </trkpt>
      <trkpt lat="48.47935" lon="-2.69272">
        <ele>61</ele>
        <time>2013-12-13T09:25:28Z</time>
      </trkpt>
      <trkpt lat="48.47934" lon="-2.69271">
        <ele>63</ele>
        <time>2013-12-13T09:25:32Z</time>
      </trkpt>
      <trkpt lat="48.47933" lon="-2.69271">
        <ele>64</ele>
        <time>2013-12-13T09:25:41Z</time>
      </trkpt>
      <trkpt lat="48.47932" lon="-2.69269">
        <ele>64</ele>
        <time>2013-12-13T09:25:58Z</time>
      </trkpt>
      <trkpt lat="48.47931" lon="-2.69268">
        <ele>64</ele>
        <time>2013-12-13T09:26:24Z</time>
      </trkpt>
      <trkpt lat="48.47932" lon="-2.69269">
        <ele>64</ele>
        <time>2013-12-13T09:26:40Z</time>
      </trkpt>
      <trkpt lat="48.47933" lon="-2.69271">
        <ele>64</ele>
        <time>2013-12-13T09:27:11Z</time>
      </trkpt>
      <trkpt lat="48.47934" lon="-2.69272">
        <ele>64</ele>
        <time>2013-12-13T09:27:22Z</time>
      </trkpt>
      <trkpt lat="48.47935" lon="-2.69273">
        <ele>64</ele>
        <time>2013-12-13T09:27:27Z</time>
      </trkpt>
      <trkpt lat="48.47936" lon="-2.69273">
        <ele>64</ele>
        <time>2013-12-13T09:27:35Z</time>
      </trkpt>
      <trkpt lat="48.47937" lon="-2.69273">
        <ele>64</ele>
        <time>2013-12-13T09:27:38Z</time>
      </trkpt>
      <trkpt lat="48.47936" lon="-2.69272">
        <ele>65</ele>
        <time>2013-12-13T09:27:50Z</time>
      </trkpt>
      <trkpt lat="48.47934" lon="-2.69271">
        <ele>65</ele>
        <time>2013-12-13T09:27:54Z</time>
      </trkpt>
      <trkpt lat="48.47935" lon="-2.69273">
        <ele>65</ele>
        <time>2013-12-13T09:28:03Z</time>
      </trkpt>
      <trkpt lat="48.47937" lon="-2.69273">
        <ele>65</ele>
        <time>2013-12-13T09:28:23Z</time>
      </trkpt>
      <trkpt lat="48.47938" lon="-2.69273">
        <ele>65</ele>
        <time>2013-12-13T09:28:28Z</time>
      </trkpt>
      <trkpt lat="48.47937" lon="-2.69271">
        <ele>65</ele>
        <time>2013-12-13T09:28:35Z</time>
      </trkpt>
      <trkpt lat="48.47936" lon="-2.6927">
        <ele>65</ele>
        <time>2013-12-13T09:28:39Z</time>
      </trkpt>
      <trkpt lat="48.47935" lon="-2.69269">
        <ele>65</ele>
        <time>2013-12-13T09:28:46Z</time>
      </trkpt>
      <trkpt lat="48.47934" lon="-2.6927">
        <ele>65</ele>
        <time>2013-12-13T09:28:53Z</time>
      </trkpt>
      <trkpt lat="48.47934" lon="-2.69272">
        <ele>66</ele>
        <time>2013-12-13T09:29:01Z</time>
      </trkpt>
      <trkpt lat="48.47936" lon="-2.69273">
        <ele>67</ele>
        <time>2013-12-13T09:29:06Z</time>
      </trkpt>
      <trkpt lat="48.47936" lon="-2.69275">
        <ele>67</ele>
        <time>2013-12-13T09:29:21Z</time>
      </trkpt>
      <trkpt lat="48.47936" lon="-2.69273">
        <ele>67</ele>
        <time>2013-12-13T09:29:41Z</time>
      </trkpt>
      <trkpt lat="48.47935" lon="-2.69271">
        <ele>67</ele>
        <time>2013-12-13T09:29:52Z</time>
      </trkpt>
      <trkpt lat="48.47934" lon="-2.69272">
        <ele>67</ele>
        <time>2013-12-13T09:29:57Z</time>
      </trkpt>
      <trkpt lat="48.47933" lon="-2.69274">
        <ele>67</ele>
        <time>2013-12-13T09:30:01Z</time>
      </trkpt>
      <trkpt lat="48.47931" lon="-2.69276">
        <ele>67</ele>
        <time>2013-12-13T09:30:04Z</time>
      </trkpt>
      <trkpt lat="48.4793" lon="-2.69277">
        <ele>67</ele>
        <time>2013-12-13T09:30:06Z</time>
      </trkpt>
      <trkpt lat="48.47928" lon="-2.69279">
        <ele>67</ele>
        <time>2013-12-13T09:30:08Z</time>
      </trkpt>
      <trkpt lat="48.47927" lon="-2.6928">
        <ele>67</ele>
        <time>2013-12-13T09:30:10Z</time>
      </trkpt>
      <trkpt lat="48.47926" lon="-2.69282">
        <ele>67</ele>
        <time>2013-12-13T09:30:12Z</time>
      </trkpt>
      <trkpt lat="48.47925" lon="-2.69284">
        <ele>67</ele>
        <time>2013-12-13T09:30:14Z</time>
      </trkpt>
      <trkpt lat="48.47923" lon="-2.69285">
        <ele>67</ele>
        <time>2013-12-13T09:30:16Z</time>
      </trkpt>
      <trkpt lat="48.47921" lon="-2.69288">
        <ele>67</ele>
        <time>2013-12-13T09:30:18Z</time>
      </trkpt>
      <trkpt lat="48.4792" lon="-2.6929">
        <ele>67</ele>
        <time>2013-12-13T09:30:20Z</time>
      </trkpt>
      <trkpt lat="48.47919" lon="-2.69292">
        <ele>67</ele>
        <time>2013-12-13T09:30:22Z</time>
      </trkpt>
      <trkpt lat="48.47918" lon="-2.69295">
        <ele>67</ele>
        <time>2013-12-13T09:30:24Z</time>
      </trkpt>
      <trkpt lat="48.47917" lon="-2.69296">
        <ele>67</ele>
        <time>2013-12-13T09:30:26Z</time>
      </trkpt>
      <trkpt lat="48.47915" lon="-2.69298">
        <ele>67</ele>
        <time>2013-12-13T09:30:28Z</time>
      </trkpt>
      <trkpt lat="48.47913" lon="-2.69301">
        <ele>67</ele>
        <time>2013-12-13T09:30:30Z</time>
      </trkpt>
      <trkpt lat="48.47911" lon="-2.69303">
        <ele>67</ele>
        <time>2013-12-13T09:30:32Z</time>
      </trkpt>
      <trkpt lat="48.47908" lon="-2.69307">
        <ele>67</ele>
        <time>2013-12-13T09:30:34Z</time>
      </trkpt>
      <trkpt lat="48.47904" lon="-2.69311">
        <ele>67</ele>
        <time>2013-12-13T09:30:36Z</time>
      </trkpt>
      <trkpt lat="48.47902" lon="-2.69314">
        <ele>67</ele>
        <time>2013-12-13T09:30:38Z</time>
      </trkpt>
      <trkpt lat="48.479" lon="-2.69317">
        <ele>67</ele>
        <time>2013-12-13T09:30:40Z</time>
      </trkpt>
      <trkpt lat="48.47897" lon="-2.69322">
        <ele>67</ele>
        <time>2013-12-13T09:30:43Z</time>
      </trkpt>
      <trkpt lat="48.47894" lon="-2.69327">
        <ele>67</ele>
        <time>2013-12-13T09:30:46Z</time>
      </trkpt>
      <trkpt lat="48.47892" lon="-2.69331">
        <ele>68</ele>
        <time>2013-12-13T09:30:48Z</time>
      </trkpt>
      <trkpt lat="48.47891" lon="-2.69334">
        <ele>68</ele>
        <time>2013-12-13T09:30:50Z</time>
      </trkpt>
      <trkpt lat="48.4789" lon="-2.69338">
        <ele>68</ele>
        <time>2013-12-13T09:30:52Z</time>
      </trkpt>
      <trkpt lat="48.47888" lon="-2.69343">
        <ele>68</ele>
        <time>2013-12-13T09:30:55Z</time>
      </trkpt>
      <trkpt lat="48.47887" lon="-2.69346">
        <ele>68</ele>
        <time>2013-12-13T09:30:57Z</time>
      </trkpt>
      <trkpt lat="48.47886" lon="-2.69351">
        <ele>68</ele>
        <time>2013-12-13T09:30:59Z</time>
      </trkpt>
      <trkpt lat="48.47884" lon="-2.69355">
        <ele>68</ele>
        <time>2013-12-13T09:31:01Z</time>
      </trkpt>
      <trkpt lat="48.47882" lon="-2.69359">
        <ele>68</ele>
        <time>2013-12-13T09:31:03Z</time>
      </trkpt>
      <trkpt lat="48.47879" lon="-2.69363">
        <ele>68</ele>
        <time>2013-12-13T09:31:05Z</time>
      </trkpt>
      <trkpt lat="48.47878" lon="-2.69367">
        <ele>68</ele>
        <time>2013-12-13T09:31:07Z</time>
      </trkpt>
      <trkpt lat="48.47875" lon="-2.69372">
        <ele>68</ele>
        <time>2013-12-13T09:31:10Z</time>
      </trkpt>
      <trkpt lat="48.47873" lon="-2.69377">
        <ele>70</ele>
        <time>2013-12-13T09:31:13Z</time>
      </trkpt>
      <trkpt lat="48.47871" lon="-2.69379">
        <ele>71</ele>
        <time>2013-12-13T09:31:15Z</time>
      </trkpt>
      <trkpt lat="48.47869" lon="-2.6938">
        <ele>72</ele>
        <time>2013-12-13T09:31:17Z</time>
      </trkpt>
      <trkpt lat="48.47866" lon="-2.69379">
        <ele>72</ele>
        <time>2013-12-13T09:31:19Z</time>
      </trkpt>
      <trkpt lat="48.47863" lon="-2.69378">
        <ele>73</ele>
        <time>2013-12-13T09:31:21Z</time>
      </trkpt>
      <trkpt lat="48.47859" lon="-2.69377">
        <ele>73</ele>
        <time>2013-12-13T09:31:23Z</time>
      </trkpt>
      <trkpt lat="48.47854" lon="-2.69375">
        <ele>73</ele>
        <time>2013-12-13T09:31:26Z</time>
      </trkpt>
      <trkpt lat="48.47851" lon="-2.69374">
        <ele>73</ele>
        <time>2013-12-13T09:31:28Z</time>
      </trkpt>
      <trkpt lat="48.47848" lon="-2.69373">
        <ele>73</ele>
        <time>2013-12-13T09:31:30Z</time>
      </trkpt>
      <trkpt lat="48.47845" lon="-2.69371">
        <ele>73</ele>
        <time>2013-12-13T09:31:32Z</time>
      </trkpt>
      <trkpt lat="48.47843" lon="-2.69369">
        <ele>71</ele>
        <time>2013-12-13T09:31:34Z</time>
      </trkpt>
      <trkpt lat="48.47841" lon="-2.6937">
        <ele>70</ele>
        <time>2013-12-13T09:31:36Z</time>
      </trkpt>
      <trkpt lat="48.47838" lon="-2.69371">
        <ele>68</ele>
        <time>2013-12-13T09:31:39Z</time>
      </trkpt>
      <trkpt lat="48.47837" lon="-2.69373">
        <ele>67</ele>
        <time>2013-12-13T09:31:41Z</time>
      </trkpt>
      <trkpt lat="48.47836" lon="-2.69375">
        <ele>67</ele>
        <time>2013-12-13T09:31:43Z</time>
      </trkpt>
      <trkpt lat="48.47832" lon="-2.6938">
        <ele>67</ele>
        <time>2013-12-13T09:31:45Z</time>
      </trkpt>
      <trkpt lat="48.47829" lon="-2.69386">
        <ele>67</ele>
        <time>2013-12-13T09:31:47Z</time>
      </trkpt>
      <trkpt lat="48.47828" lon="-2.69391">
        <ele>68</ele>
        <time>2013-12-13T09:31:49Z</time>
      </trkpt>
      <trkpt lat="48.47826" lon="-2.69396">
        <ele>70</ele>
        <time>2013-12-13T09:31:51Z</time>
      </trkpt>
      <trkpt lat="48.47824" lon="-2.694">
        <ele>72</ele>
        <time>2013-12-13T09:31:53Z</time>
      </trkpt>
      <trkpt lat="48.47821" lon="-2.69403">
        <ele>73</ele>
        <time>2013-12-13T09:31:55Z</time>
      </trkpt>
      <trkpt lat="48.47818" lon="-2.69404">
        <ele>73</ele>
        <time>2013-12-13T09:31:58Z</time>
      </trkpt>
      <trkpt lat="48.47816" lon="-2.69406">
        <ele>73</ele>
        <time>2013-12-13T09:32:04Z</time>
      </trkpt>
      <trkpt lat="48.47815" lon="-2.69409">
        <ele>73</ele>
        <time>2013-12-13T09:32:06Z</time>
      </trkpt>
      <trkpt lat="48.47814" lon="-2.69413">
        <ele>73</ele>
        <time>2013-12-13T09:32:08Z</time>
      </trkpt>
      <trkpt lat="48.47812" lon="-2.69418">
        <ele>73</ele>
        <time>2013-12-13T09:32:10Z</time>
      </trkpt>
      <trkpt lat="48.47811" lon="-2.69422">
        <ele>74</ele>
        <time>2013-12-13T09:32:12Z</time>
      </trkpt>
      <trkpt lat="48.47809" lon="-2.69426">
        <ele>75</ele>
        <time>2013-12-13T09:32:14Z</time>
      </trkpt>
      <trkpt lat="48.47808" lon="-2.69429">
        <ele>75</ele>
        <time>2013-12-13T09:32:16Z</time>
      </trkpt>
      <trkpt lat="48.47807" lon="-2.69433">
        <ele>75</ele>
        <time>2013-12-13T09:32:18Z</time>
      </trkpt>
      <trkpt lat="48.47806" lon="-2.69438">
        <ele>75</ele>
        <time>2013-12-13T09:32:20Z</time>
      </trkpt>
      <trkpt lat="48.47805" lon="-2.69442">
        <ele>75</ele>
        <time>2013-12-13T09:32:22Z</time>
      </trkpt>
      <trkpt lat="48.47804" lon="-2.69445">
        <ele>75</ele>
        <time>2013-12-13T09:32:24Z</time>
      </trkpt>
      <trkpt lat="48.47803" lon="-2.6945">
        <ele>75</ele>
        <time>2013-12-13T09:32:26Z</time>
      </trkpt>
      <trkpt lat="48.47802" lon="-2.69454">
        <ele>75</ele>
        <time>2013-12-13T09:32:28Z</time>
      </trkpt>
      <trkpt lat="48.47801" lon="-2.69459">
        <ele>76</ele>
        <time>2013-12-13T09:32:30Z</time>
      </trkpt>
      <trkpt lat="48.478" lon="-2.69463">
        <ele>76</ele>
        <time>2013-12-13T09:32:32Z</time>
      </trkpt>
      <trkpt lat="48.47799" lon="-2.69467">
        <ele>77</ele>
        <time>2013-12-13T09:32:34Z</time>
      </trkpt>
      <trkpt lat="48.47798" lon="-2.69472">
        <ele>77</ele>
        <time>2013-12-13T09:32:36Z</time>
      </trkpt>
      <trkpt lat="48.47797" lon="-2.69477">
        <ele>78</ele>
        <time>2013-12-13T09:32:38Z</time>
      </trkpt>
      <trkpt lat="48.47796" lon="-2.6948">
        <ele>78</ele>
        <time>2013-12-13T09:32:40Z</time>
      </trkpt>
      <trkpt lat="48.47795" lon="-2.69485">
        <ele>79</ele>
        <time>2013-12-13T09:32:42Z</time>
      </trkpt>
      <trkpt lat="48.47794" lon="-2.69489">
        <ele>79</ele>
        <time>2013-12-13T09:32:44Z</time>
      </trkpt>
      <trkpt lat="48.47793" lon="-2.69493">
        <ele>80</ele>
        <time>2013-12-13T09:32:46Z</time>
      </trkpt>
      <trkpt lat="48.47793" lon="-2.69497">
        <ele>80</ele>
        <time>2013-12-13T09:32:48Z</time>
      </trkpt>
      <trkpt lat="48.47792" lon="-2.69501">
        <ele>81</ele>
        <time>2013-12-13T09:32:50Z</time>
      </trkpt>
      <trkpt lat="48.47792" lon="-2.69504">
        <ele>81</ele>
        <time>2013-12-13T09:32:52Z</time>
      </trkpt>
      <trkpt lat="48.47791" lon="-2.69508">
        <ele>81</ele>
        <time>2013-12-13T09:32:54Z</time>
      </trkpt>
      <trkpt lat="48.47789" lon="-2.6951">
        <ele>81</ele>
        <time>2013-12-13T09:32:56Z</time>
      </trkpt>
      <trkpt lat="48.47786" lon="-2.69512">
        <ele>81</ele>
        <time>2013-12-13T09:32:59Z</time>
      </trkpt>
      <trkpt lat="48.47783" lon="-2.69512">
        <ele>81</ele>
        <time>2013-12-13T09:33:01Z</time>
      </trkpt>
      <trkpt lat="48.47781" lon="-2.69513">
        <ele>81</ele>
        <time>2013-12-13T09:33:03Z</time>
      </trkpt>
      <trkpt lat="48.47778" lon="-2.69513">
        <ele>81</ele>
        <time>2013-12-13T09:33:05Z</time>
      </trkpt>
      <trkpt lat="48.47775" lon="-2.69516">
        <ele>81</ele>
        <time>2013-12-13T09:33:08Z</time>
      </trkpt>
      <trkpt lat="48.47773" lon="-2.69519">
        <ele>81</ele>
        <time>2013-12-13T09:33:10Z</time>
      </trkpt>
      <trkpt lat="48.47772" lon="-2.69524">
        <ele>81</ele>
        <time>2013-12-13T09:33:12Z</time>
      </trkpt>
      <trkpt lat="48.4777" lon="-2.69529">
        <ele>81</ele>
        <time>2013-12-13T09:33:14Z</time>
      </trkpt>
      <trkpt lat="48.47768" lon="-2.69534">
        <ele>81</ele>
        <time>2013-12-13T09:33:16Z</time>
      </trkpt>
      <trkpt lat="48.47767" lon="-2.69538">
        <ele>81</ele>
        <time>2013-12-13T09:33:18Z</time>
      </trkpt>
      <trkpt lat="48.47766" lon="-2.69542">
        <ele>81</ele>
        <time>2013-12-13T09:33:20Z</time>
      </trkpt>
      <trkpt lat="48.47765" lon="-2.69546">
        <ele>81</ele>
        <time>2013-12-13T09:33:22Z</time>
      </trkpt>
      <trkpt lat="48.47763" lon="-2.6955">
        <ele>81</ele>
        <time>2013-12-13T09:33:24Z</time>
      </trkpt>
      <trkpt lat="48.47763" lon="-2.69553">
        <ele>82</ele>
        <time>2013-12-13T09:33:26Z</time>
      </trkpt>
      <trkpt lat="48.47761" lon="-2.69557">
        <ele>82</ele>
        <time>2013-12-13T09:33:28Z</time>
      </trkpt>
      <trkpt lat="48.4776" lon="-2.69561">
        <ele>83</ele>
        <time>2013-12-13T09:33:30Z</time>
      </trkpt>
      <trkpt lat="48.47759" lon="-2.69564">
        <ele>83</ele>
        <time>2013-12-13T09:33:32Z</time>
      </trkpt>
      <trkpt lat="48.47758" lon="-2.69568">
        <ele>84</ele>
        <time>2013-12-13T09:33:34Z</time>
      </trkpt>
      <trkpt lat="48.47757" lon="-2.69572">
        <ele>84</ele>
        <time>2013-12-13T09:33:36Z</time>
      </trkpt>
      <trkpt lat="48.47756" lon="-2.69576">
        <ele>84</ele>
        <time>2013-12-13T09:33:39Z</time>
      </trkpt>
      <trkpt lat="48.47755" lon="-2.6958">
        <ele>84</ele>
        <time>2013-12-13T09:33:41Z</time>
      </trkpt>
      <trkpt lat="48.47753" lon="-2.69584">
        <ele>84</ele>
        <time>2013-12-13T09:33:43Z</time>
      </trkpt>
      <trkpt lat="48.47752" lon="-2.69588">
        <ele>84</ele>
        <time>2013-12-13T09:33:45Z</time>
      </trkpt>
      <trkpt lat="48.4775" lon="-2.69592">
        <ele>85</ele>
        <time>2013-12-13T09:33:47Z</time>
      </trkpt>
      <trkpt lat="48.47749" lon="-2.69595">
        <ele>86</ele>
        <time>2013-12-13T09:33:49Z</time>
      </trkpt>
      <trkpt lat="48.47747" lon="-2.69599">
        <ele>86</ele>
        <time>2013-12-13T09:33:51Z</time>
      </trkpt>
      <trkpt lat="48.47746" lon="-2.69602">
        <ele>87</ele>
        <time>2013-12-13T09:33:53Z</time>
      </trkpt>
      <trkpt lat="48.47745" lon="-2.69605">
        <ele>87</ele>
        <time>2013-12-13T09:33:55Z</time>
      </trkpt>
      <trkpt lat="48.47743" lon="-2.69609">
        <ele>87</ele>
        <time>2013-12-13T09:33:57Z</time>
      </trkpt>
      <trkpt lat="48.47741" lon="-2.69613">
        <ele>88</ele>
        <time>2013-12-13T09:34:00Z</time>
      </trkpt>
      <trkpt lat="48.4774" lon="-2.69615">
        <ele>88</ele>
        <time>2013-12-13T09:34:02Z</time>
      </trkpt>
      <trkpt lat="48.4774" lon="-2.69617">
        <ele>88</ele>
        <time>2013-12-13T09:34:04Z</time>
      </trkpt>
      <trkpt lat="48.47741" lon="-2.69621">
        <ele>88</ele>
        <time>2013-12-13T09:34:06Z</time>
      </trkpt>
      <trkpt lat="48.47741" lon="-2.69624">
        <ele>88</ele>
        <time>2013-12-13T09:34:08Z</time>
      </trkpt>
      <trkpt lat="48.47741" lon="-2.69629">
        <ele>88</ele>
        <time>2013-12-13T09:34:11Z</time>
      </trkpt>
      <trkpt lat="48.47742" lon="-2.69633">
        <ele>88</ele>
        <time>2013-12-13T09:34:13Z</time>
      </trkpt>
      <trkpt lat="48.47744" lon="-2.69637">
        <ele>88</ele>
        <time>2013-12-13T09:34:15Z</time>
      </trkpt>
      <trkpt lat="48.47745" lon="-2.6964">
        <ele>88</ele>
        <time>2013-12-13T09:34:17Z</time>
      </trkpt>
      <trkpt lat="48.47747" lon="-2.69644">
        <ele>88</ele>
        <time>2013-12-13T09:34:19Z</time>
      </trkpt>
      <trkpt lat="48.47749" lon="-2.69648">
        <ele>88</ele>
        <time>2013-12-13T09:34:21Z</time>
      </trkpt>
      <trkpt lat="48.4775" lon="-2.69651">
        <ele>88</ele>
        <time>2013-12-13T09:34:23Z</time>
      </trkpt>
      <trkpt lat="48.47752" lon="-2.69654">
        <ele>88</ele>
        <time>2013-12-13T09:34:25Z</time>
      </trkpt>
      <trkpt lat="48.47755" lon="-2.69656">
        <ele>88</ele>
        <time>2013-12-13T09:34:27Z</time>
      </trkpt>
      <trkpt lat="48.47757" lon="-2.69659">
        <ele>88</ele>
        <time>2013-12-13T09:34:29Z</time>
      </trkpt>
      <trkpt lat="48.4776" lon="-2.69661">
        <ele>87</ele>
        <time>2013-12-13T09:34:31Z</time>
      </trkpt>
      <trkpt lat="48.47762" lon="-2.69664">
        <ele>86</ele>
        <time>2013-12-13T09:34:33Z</time>
      </trkpt>
      <trkpt lat="48.47764" lon="-2.69666">
        <ele>86</ele>
        <time>2013-12-13T09:34:35Z</time>
      </trkpt>
      <trkpt lat="48.47766" lon="-2.69667">
        <ele>85</ele>
        <time>2013-12-13T09:34:37Z</time>
      </trkpt>
      <trkpt lat="48.47769" lon="-2.69669">
        <ele>84</ele>
        <time>2013-12-13T09:34:39Z</time>
      </trkpt>
      <trkpt lat="48.47772" lon="-2.6967">
        <ele>84</ele>
        <time>2013-12-13T09:34:41Z</time>
      </trkpt>
      <trkpt lat="48.47776" lon="-2.69672">
        <ele>84</ele>
        <time>2013-12-13T09:34:43Z</time>
      </trkpt>
      <trkpt lat="48.47778" lon="-2.69674">
        <ele>84</ele>
        <time>2013-12-13T09:34:45Z</time>
      </trkpt>
      <trkpt lat="48.47782" lon="-2.69675">
        <ele>84</ele>
        <time>2013-12-13T09:34:47Z</time>
      </trkpt>
      <trkpt lat="48.47785" lon="-2.69677">
        <ele>84</ele>
        <time>2013-12-13T09:34:49Z</time>
      </trkpt>
      <trkpt lat="48.47788" lon="-2.69677">
        <ele>84</ele>
        <time>2013-12-13T09:34:51Z</time>
      </trkpt>
      <trkpt lat="48.47791" lon="-2.69678">
        <ele>84</ele>
        <time>2013-12-13T09:34:53Z</time>
      </trkpt>
      <trkpt lat="48.47794" lon="-2.6968">
        <ele>84</ele>
        <time>2013-12-13T09:34:55Z</time>
      </trkpt>
      <trkpt lat="48.47797" lon="-2.69682">
        <ele>84</ele>
        <time>2013-12-13T09:34:57Z</time>
      </trkpt>
      <trkpt lat="48.478" lon="-2.69683">
        <ele>84</ele>
        <time>2013-12-13T09:34:59Z</time>
      </trkpt>
      <trkpt lat="48.47803" lon="-2.69685">
        <ele>84</ele>
        <time>2013-12-13T09:35:01Z</time>
      </trkpt>
      <trkpt lat="48.47806" lon="-2.69686">
        <ele>84</ele>
        <time>2013-12-13T09:35:03Z</time>
      </trkpt>
      <trkpt lat="48.47809" lon="-2.69688">
        <ele>84</ele>
        <time>2013-12-13T09:35:05Z</time>
      </trkpt>
      <trkpt lat="48.47812" lon="-2.6969">
        <ele>84</ele>
        <time>2013-12-13T09:35:07Z</time>
      </trkpt>
      <trkpt lat="48.47815" lon="-2.69692">
        <ele>84</ele>
        <time>2013-12-13T09:35:09Z</time>
      </trkpt>
      <trkpt lat="48.47818" lon="-2.69694">
        <ele>84</ele>
        <time>2013-12-13T09:35:11Z</time>
      </trkpt>
      <trkpt lat="48.47821" lon="-2.69696">
        <ele>84</ele>
        <time>2013-12-13T09:35:13Z</time>
      </trkpt>
      <trkpt lat="48.47821" lon="-2.69701">
        <ele>84</ele>
        <time>2013-12-13T09:35:15Z</time>
      </trkpt>
      <trkpt lat="48.47821" lon="-2.69705">
        <ele>84</ele>
        <time>2013-12-13T09:35:17Z</time>
      </trkpt>
      <trkpt lat="48.47821" lon="-2.6971">
        <ele>84</ele>
        <time>2013-12-13T09:35:19Z</time>
      </trkpt>
      <trkpt lat="48.47821" lon="-2.69714">
        <ele>84</ele>
        <time>2013-12-13T09:35:21Z</time>
      </trkpt>
      <trkpt lat="48.47821" lon="-2.69719">
        <ele>84</ele>
        <time>2013-12-13T09:35:23Z</time>
      </trkpt>
      <trkpt lat="48.47821" lon="-2.69723">
        <ele>84</ele>
        <time>2013-12-13T09:35:25Z</time>
      </trkpt>
      <trkpt lat="48.4782" lon="-2.69727">
        <ele>84</ele>
        <time>2013-12-13T09:35:27Z</time>
      </trkpt>
      <trkpt lat="48.47819" lon="-2.69731">
        <ele>84</ele>
        <time>2013-12-13T09:35:29Z</time>
      </trkpt>
      <trkpt lat="48.47819" lon="-2.69736">
        <ele>84</ele>
        <time>2013-12-13T09:35:31Z</time>
      </trkpt>
      <trkpt lat="48.47819" lon="-2.6974">
        <ele>84</ele>
        <time>2013-12-13T09:35:33Z</time>
      </trkpt>
      <trkpt lat="48.47818" lon="-2.69745">
        <ele>84</ele>
        <time>2013-12-13T09:35:35Z</time>
      </trkpt>
      <trkpt lat="48.47818" lon="-2.69749">
        <ele>84</ele>
        <time>2013-12-13T09:35:37Z</time>
      </trkpt>
      <trkpt lat="48.47818" lon="-2.69754">
        <ele>84</ele>
        <time>2013-12-13T09:35:39Z</time>
      </trkpt>
      <trkpt lat="48.47818" lon="-2.69758">
        <ele>84</ele>
        <time>2013-12-13T09:35:41Z</time>
      </trkpt>
      <trkpt lat="48.47817" lon="-2.69762">
        <ele>84</ele>
        <time>2013-12-13T09:35:43Z</time>
      </trkpt>
      <trkpt lat="48.47817" lon="-2.69767">
        <ele>84</ele>
        <time>2013-12-13T09:35:45Z</time>
      </trkpt>
      <trkpt lat="48.47817" lon="-2.69771">
        <ele>84</ele>
        <time>2013-12-13T09:35:47Z</time>
      </trkpt>
      <trkpt lat="48.47817" lon="-2.69776">
        <ele>84</ele>
        <time>2013-12-13T09:35:49Z</time>
      </trkpt>
      <trkpt lat="48.47817" lon="-2.6978">
        <ele>84</ele>
        <time>2013-12-13T09:35:51Z</time>
      </trkpt>
      <trkpt lat="48.47817" lon="-2.69784">
        <ele>84</ele>
        <time>2013-12-13T09:35:53Z</time>
      </trkpt>
      <trkpt lat="48.47817" lon="-2.69789">
        <ele>84</ele>
        <time>2013-12-13T09:35:55Z</time>
      </trkpt>
      <trkpt lat="48.47817" lon="-2.69793">
        <ele>84</ele>
        <time>2013-12-13T09:35:57Z</time>
      </trkpt>
      <trkpt lat="48.47816" lon="-2.69797">
        <ele>84</ele>
        <time>2013-12-13T09:35:59Z</time>
      </trkpt>
      <trkpt lat="48.47815" lon="-2.69802">
        <ele>84</ele>
        <time>2013-12-13T09:36:01Z</time>
      </trkpt>
      <trkpt lat="48.47814" lon="-2.69806">
        <ele>84</ele>
        <time>2013-12-13T09:36:03Z</time>
      </trkpt>
      <trkpt lat="48.47813" lon="-2.69811">
        <ele>84</ele>
        <time>2013-12-13T09:36:05Z</time>
      </trkpt>
      <trkpt lat="48.47813" lon="-2.69814">
        <ele>84</ele>
        <time>2013-12-13T09:36:07Z</time>
      </trkpt>
      <trkpt lat="48.47813" lon="-2.69818">
        <ele>84</ele>
        <time>2013-12-13T09:36:09Z</time>
      </trkpt>
      <trkpt lat="48.47813" lon="-2.69822">
        <ele>84</ele>
        <time>2013-12-13T09:36:11Z</time>
      </trkpt>
      <trkpt lat="48.47812" lon="-2.69826">
        <ele>84</ele>
        <time>2013-12-13T09:36:13Z</time>
      </trkpt>
      <trkpt lat="48.47811" lon="-2.69831">
        <ele>84</ele>
        <time>2013-12-13T09:36:15Z</time>
      </trkpt>
      <trkpt lat="48.4781" lon="-2.69835">
        <ele>84</ele>
        <time>2013-12-13T09:36:17Z</time>
      </trkpt>
      <trkpt lat="48.47808" lon="-2.69839">
        <ele>84</ele>
        <time>2013-12-13T09:36:19Z</time>
      </trkpt>
      <trkpt lat="48.47806" lon="-2.69842">
        <ele>84</ele>
        <time>2013-12-13T09:36:21Z</time>
      </trkpt>
      <trkpt lat="48.47803" lon="-2.69843">
        <ele>84</ele>
        <time>2013-12-13T09:36:23Z</time>
      </trkpt>
      <trkpt lat="48.478" lon="-2.69844">
        <ele>84</ele>
        <time>2013-12-13T09:36:25Z</time>
      </trkpt>
      <trkpt lat="48.47797" lon="-2.69848">
        <ele>84</ele>
        <time>2013-12-13T09:36:28Z</time>
      </trkpt>
      <trkpt lat="48.47796" lon="-2.69851">
        <ele>84</ele>
        <time>2013-12-13T09:36:30Z</time>
      </trkpt>
      <trkpt lat="48.47795" lon="-2.69856">
        <ele>84</ele>
        <time>2013-12-13T09:36:32Z</time>
      </trkpt>
      <trkpt lat="48.47794" lon="-2.6986">
        <ele>84</ele>
        <time>2013-12-13T09:36:34Z</time>
      </trkpt>
      <trkpt lat="48.47793" lon="-2.69864">
        <ele>83</ele>
        <time>2013-12-13T09:36:36Z</time>
      </trkpt>
      <trkpt lat="48.47792" lon="-2.69869">
        <ele>83</ele>
        <time>2013-12-13T09:36:38Z</time>
      </trkpt>
      <trkpt lat="48.47792" lon="-2.69872">
        <ele>83</ele>
        <time>2013-12-13T09:36:40Z</time>
      </trkpt>
      <trkpt lat="48.47792" lon="-2.69877">
        <ele>82</ele>
        <time>2013-12-13T09:36:42Z</time>
      </trkpt>
      <trkpt lat="48.47792" lon="-2.69881">
        <ele>82</ele>
        <time>2013-12-13T09:36:44Z</time>
      </trkpt>
      <trkpt lat="48.47789" lon="-2.69883">
        <ele>81</ele>
        <time>2013-12-13T09:36:46Z</time>
      </trkpt>
      <trkpt lat="48.47787" lon="-2.69885">
        <ele>81</ele>
        <time>2013-12-13T09:36:48Z</time>
      </trkpt>
      <trkpt lat="48.47785" lon="-2.69886">
        <ele>81</ele>
        <time>2013-12-13T09:36:50Z</time>
      </trkpt>
      <trkpt lat="48.47781" lon="-2.69888">
        <ele>81</ele>
        <time>2013-12-13T09:36:53Z</time>
      </trkpt>
      <trkpt lat="48.47779" lon="-2.69889">
        <ele>81</ele>
        <time>2013-12-13T09:36:55Z</time>
      </trkpt>
      <trkpt lat="48.47776" lon="-2.6989">
        <ele>81</ele>
        <time>2013-12-13T09:36:58Z</time>
      </trkpt>
      <trkpt lat="48.47774" lon="-2.69891">
        <ele>81</ele>
        <time>2013-12-13T09:37:00Z</time>
      </trkpt>
      <trkpt lat="48.47773" lon="-2.69891">
        <ele>81</ele>
        <time>2013-12-13T09:37:02Z</time>
      </trkpt>
      <trkpt lat="48.47772" lon="-2.69891">
        <ele>81</ele>
        <time>2013-12-13T09:37:09Z</time>
      </trkpt>
      <trkpt lat="48.47773" lon="-2.69893">
        <ele>81</ele>
        <time>2013-12-13T09:37:29Z</time>
      </trkpt>
      <trkpt lat="48.47771" lon="-2.69895">
        <ele>81</ele>
        <time>2013-12-13T09:37:32Z</time>
      </trkpt>
      <trkpt lat="48.47771" lon="-2.69896">
        <ele>82</ele>
        <time>2013-12-13T09:37:34Z</time>
      </trkpt>
      <trkpt lat="48.4777" lon="-2.69901">
        <ele>82</ele>
        <time>2013-12-13T09:37:37Z</time>
      </trkpt>
      <trkpt lat="48.47768" lon="-2.69905">
        <ele>82</ele>
        <time>2013-12-13T09:37:39Z</time>
      </trkpt>
      <trkpt lat="48.47768" lon="-2.69907">
        <ele>82</ele>
        <time>2013-12-13T09:37:41Z</time>
      </trkpt>
      <trkpt lat="48.47766" lon="-2.6991">
        <ele>82</ele>
        <time>2013-12-13T09:37:46Z</time>
      </trkpt>
      <trkpt lat="48.47765" lon="-2.69913">
        <ele>82</ele>
        <time>2013-12-13T09:37:48Z</time>
      </trkpt>
      <trkpt lat="48.47764" lon="-2.69916">
        <ele>82</ele>
        <time>2013-12-13T09:37:50Z</time>
      </trkpt>
      <trkpt lat="48.47763" lon="-2.69919">
        <ele>82</ele>
        <time>2013-12-13T09:37:52Z</time>
      </trkpt>
      <trkpt lat="48.47762" lon="-2.69921">
        <ele>82</ele>
        <time>2013-12-13T09:37:54Z</time>
      </trkpt>
      <trkpt lat="48.47761" lon="-2.69923">
        <ele>82</ele>
        <time>2013-12-13T09:37:56Z</time>
      </trkpt>
      <trkpt lat="48.4776" lon="-2.69927">
        <ele>82</ele>
        <time>2013-12-13T09:37:58Z</time>
      </trkpt>
      <trkpt lat="48.47758" lon="-2.6993">
        <ele>82</ele>
        <time>2013-12-13T09:38:00Z</time>
      </trkpt>
      <trkpt lat="48.47757" lon="-2.69934">
        <ele>82</ele>
        <time>2013-12-13T09:38:02Z</time>
      </trkpt>
      <trkpt lat="48.47755" lon="-2.69936">
        <ele>82</ele>
        <time>2013-12-13T09:38:04Z</time>
      </trkpt>
      <trkpt lat="48.47754" lon="-2.69939">
        <ele>82</ele>
        <time>2013-12-13T09:38:06Z</time>
      </trkpt>
      <trkpt lat="48.47752" lon="-2.69941">
        <ele>82</ele>
        <time>2013-12-13T09:38:08Z</time>
      </trkpt>
      <trkpt lat="48.47751" lon="-2.69943">
        <ele>82</ele>
        <time>2013-12-13T09:38:11Z</time>
      </trkpt>
      <trkpt lat="48.4775" lon="-2.69945">
        <ele>82</ele>
        <time>2013-12-13T09:38:13Z</time>
      </trkpt>
      <trkpt lat="48.47749" lon="-2.69948">
        <ele>82</ele>
        <time>2013-12-13T09:38:15Z</time>
      </trkpt>
      <trkpt lat="48.47747" lon="-2.69951">
        <ele>82</ele>
        <time>2013-12-13T09:38:18Z</time>
      </trkpt>
      <trkpt lat="48.47746" lon="-2.69955">
        <ele>82</ele>
        <time>2013-12-13T09:38:20Z</time>
      </trkpt>
      <trkpt lat="48.47745" lon="-2.69959">
        <ele>82</ele>
        <time>2013-12-13T09:38:22Z</time>
      </trkpt>
      <trkpt lat="48.47743" lon="-2.69963">
        <ele>82</ele>
        <time>2013-12-13T09:38:25Z</time>
      </trkpt>
      <trkpt lat="48.47742" lon="-2.69965">
        <ele>83</ele>
        <time>2013-12-13T09:38:27Z</time>
      </trkpt>
      <trkpt lat="48.4774" lon="-2.69968">
        <ele>83</ele>
        <time>2013-12-13T09:38:29Z</time>
      </trkpt>
      <trkpt lat="48.47739" lon="-2.69972">
        <ele>84</ele>
        <time>2013-12-13T09:38:31Z</time>
      </trkpt>
      <trkpt lat="48.47737" lon="-2.69977">
        <ele>84</ele>
        <time>2013-12-13T09:38:33Z</time>
      </trkpt>
      <trkpt lat="48.47736" lon="-2.69981">
        <ele>85</ele>
        <time>2013-12-13T09:38:35Z</time>
      </trkpt>
      <trkpt lat="48.47734" lon="-2.69985">
        <ele>86</ele>
        <time>2013-12-13T09:38:37Z</time>
      </trkpt>
      <trkpt lat="48.47734" lon="-2.69989">
        <ele>86</ele>
        <time>2013-12-13T09:38:39Z</time>
      </trkpt>
      <trkpt lat="48.47733" lon="-2.69993">
        <ele>86</ele>
        <time>2013-12-13T09:38:41Z</time>
      </trkpt>
      <trkpt lat="48.47733" lon="-2.69996">
        <ele>86</ele>
        <time>2013-12-13T09:38:43Z</time>
      </trkpt>
      <trkpt lat="48.47731" lon="-2.7">
        <ele>86</ele>
        <time>2013-12-13T09:38:45Z</time>
      </trkpt>
      <trkpt lat="48.4773" lon="-2.70003">
        <ele>86</ele>
        <time>2013-12-13T09:38:47Z</time>
      </trkpt>
      <trkpt lat="48.4773" lon="-2.70006">
        <ele>86</ele>
        <time>2013-12-13T09:38:49Z</time>
      </trkpt>
      <trkpt lat="48.47728" lon="-2.70011">
        <ele>86</ele>
        <time>2013-12-13T09:38:52Z</time>
      </trkpt>
      <trkpt lat="48.47727" lon="-2.70016">
        <ele>86</ele>
        <time>2013-12-13T09:38:55Z</time>
      </trkpt>
      <trkpt lat="48.47725" lon="-2.70018">
        <ele>86</ele>
        <time>2013-12-13T09:38:57Z</time>
      </trkpt>
      <trkpt lat="48.47723" lon="-2.70021">
        <ele>85</ele>
        <time>2013-12-13T09:38:59Z</time>
      </trkpt>
      <trkpt lat="48.47721" lon="-2.70023">
        <ele>85</ele>
        <time>2013-12-13T09:39:01Z</time>
      </trkpt>
      <trkpt lat="48.47719" lon="-2.70024">
        <ele>84</ele>
        <time>2013-12-13T09:39:03Z</time>
      </trkpt>
      <trkpt lat="48.47716" lon="-2.70028">
        <ele>83</ele>
        <time>2013-12-13T09:39:06Z</time>
      </trkpt>
      <trkpt lat="48.47714" lon="-2.7003">
        <ele>83</ele>
        <time>2013-12-13T09:39:08Z</time>
      </trkpt>
      <trkpt lat="48.47712" lon="-2.70034">
        <ele>82</ele>
        <time>2013-12-13T09:39:10Z</time>
      </trkpt>
      <trkpt lat="48.4771" lon="-2.70037">
        <ele>81</ele>
        <time>2013-12-13T09:39:12Z</time>
      </trkpt>
      <trkpt lat="48.47708" lon="-2.7004">
        <ele>81</ele>
        <time>2013-12-13T09:39:14Z</time>
      </trkpt>
      <trkpt lat="48.47706" lon="-2.70043">
        <ele>80</ele>
        <time>2013-12-13T09:39:16Z</time>
      </trkpt>
      <trkpt lat="48.47704" lon="-2.70046">
        <ele>80</ele>
        <time>2013-12-13T09:39:18Z</time>
      </trkpt>
      <trkpt lat="48.47701" lon="-2.7005">
        <ele>79</ele>
        <time>2013-12-13T09:39:20Z</time>
      </trkpt>
      <trkpt lat="48.47699" lon="-2.70051">
        <ele>79</ele>
        <time>2013-12-13T09:39:22Z</time>
      </trkpt>
      <trkpt lat="48.47697" lon="-2.70055">
        <ele>78</ele>
        <time>2013-12-13T09:39:25Z</time>
      </trkpt>
      <trkpt lat="48.47694" lon="-2.70057">
        <ele>77</ele>
        <time>2013-12-13T09:39:27Z</time>
      </trkpt>
      <trkpt lat="48.47692" lon="-2.70059">
        <ele>77</ele>
        <time>2013-12-13T09:39:29Z</time>
      </trkpt>
      <trkpt lat="48.4769" lon="-2.70061">
        <ele>77</ele>
        <time>2013-12-13T09:39:31Z</time>
      </trkpt>
      <trkpt lat="48.47688" lon="-2.70064">
        <ele>76</ele>
        <time>2013-12-13T09:39:33Z</time>
      </trkpt>
      <trkpt lat="48.47685" lon="-2.70068">
        <ele>76</ele>
        <time>2013-12-13T09:39:35Z</time>
      </trkpt>
      <trkpt lat="48.47684" lon="-2.7007">
        <ele>75</ele>
        <time>2013-12-13T09:39:37Z</time>
      </trkpt>
      <trkpt lat="48.47683" lon="-2.70072">
        <ele>75</ele>
        <time>2013-12-13T09:39:39Z</time>
      </trkpt>
      <trkpt lat="48.47681" lon="-2.70074">
        <ele>75</ele>
        <time>2013-12-13T09:39:41Z</time>
      </trkpt>
      <trkpt lat="48.47678" lon="-2.70075">
        <ele>74</ele>
        <time>2013-12-13T09:39:43Z</time>
      </trkpt>
      <trkpt lat="48.47675" lon="-2.70078">
        <ele>74</ele>
        <time>2013-12-13T09:39:46Z</time>
      </trkpt>
      <trkpt lat="48.47673" lon="-2.70077">
        <ele>73</ele>
        <time>2013-12-13T09:39:48Z</time>
      </trkpt>
      <trkpt lat="48.47672" lon="-2.70075">
        <ele>73</ele>
        <time>2013-12-13T09:39:50Z</time>
      </trkpt>
      <trkpt lat="48.4767" lon="-2.70073">
        <ele>72</ele>
        <time>2013-12-13T09:39:52Z</time>
      </trkpt>
      <trkpt lat="48.47669" lon="-2.70071">
        <ele>71</ele>
        <time>2013-12-13T09:39:54Z</time>
      </trkpt>
      <trkpt lat="48.47667" lon="-2.70069">
        <ele>71</ele>
        <time>2013-12-13T09:39:56Z</time>
      </trkpt>
      <trkpt lat="48.47665" lon="-2.70067">
        <ele>71</ele>
        <time>2013-12-13T09:39:58Z</time>
      </trkpt>
      <trkpt lat="48.47663" lon="-2.70065">
        <ele>70</ele>
        <time>2013-12-13T09:40:00Z</time>
      </trkpt>
      <trkpt lat="48.47662" lon="-2.70062">
        <ele>70</ele>
        <time>2013-12-13T09:40:02Z</time>
      </trkpt>
      <trkpt lat="48.4766" lon="-2.7006">
        <ele>70</ele>
        <time>2013-12-13T09:40:04Z</time>
      </trkpt>
      <trkpt lat="48.47657" lon="-2.7006">
        <ele>70</ele>
        <time>2013-12-13T09:40:06Z</time>
      </trkpt>
      <trkpt lat="48.47655" lon="-2.70057">
        <ele>70</ele>
        <time>2013-12-13T09:40:08Z</time>
      </trkpt>
      <trkpt lat="48.47652" lon="-2.70052">
        <ele>70</ele>
        <time>2013-12-13T09:40:11Z</time>
      </trkpt>
      <trkpt lat="48.4765" lon="-2.70049">
        <ele>70</ele>
        <time>2013-12-13T09:40:13Z</time>
      </trkpt>
      <trkpt lat="48.47646" lon="-2.70046">
        <ele>70</ele>
        <time>2013-12-13T09:40:16Z</time>
      </trkpt>
      <trkpt lat="48.47643" lon="-2.70044">
        <ele>70</ele>
        <time>2013-12-13T09:40:18Z</time>
      </trkpt>
      <trkpt lat="48.4764" lon="-2.70046">
        <ele>70</ele>
        <time>2013-12-13T09:40:20Z</time>
      </trkpt>
      <trkpt lat="48.47638" lon="-2.70051">
        <ele>70</ele>
        <time>2013-12-13T09:40:23Z</time>
      </trkpt>
      <trkpt lat="48.47639" lon="-2.70054">
        <ele>70</ele>
        <time>2013-12-13T09:40:25Z</time>
      </trkpt>
      <trkpt lat="48.47639" lon="-2.70057">
        <ele>70</ele>
        <time>2013-12-13T09:40:27Z</time>
      </trkpt>
      <trkpt lat="48.4764" lon="-2.70061">
        <ele>70</ele>
        <time>2013-12-13T09:40:29Z</time>
      </trkpt>
      <trkpt lat="48.47641" lon="-2.70066">
        <ele>70</ele>
        <time>2013-12-13T09:40:32Z</time>
      </trkpt>
      <trkpt lat="48.47639" lon="-2.7007">
        <ele>70</ele>
        <time>2013-12-13T09:40:35Z</time>
      </trkpt>
      <trkpt lat="48.47636" lon="-2.70071">
        <ele>70</ele>
        <time>2013-12-13T09:40:37Z</time>
      </trkpt>
      <trkpt lat="48.47633" lon="-2.70073">
        <ele>70</ele>
        <time>2013-12-13T09:40:39Z</time>
      </trkpt>
      <trkpt lat="48.4763" lon="-2.70076">
        <ele>70</ele>
        <time>2013-12-13T09:40:42Z</time>
      </trkpt>
      <trkpt lat="48.47628" lon="-2.70079">
        <ele>70</ele>
        <time>2013-12-13T09:40:44Z</time>
      </trkpt>
      <trkpt lat="48.47627" lon="-2.70081">
        <ele>70</ele>
        <time>2013-12-13T09:40:46Z</time>
      </trkpt>
      <trkpt lat="48.47625" lon="-2.70084">
        <ele>70</ele>
        <time>2013-12-13T09:40:48Z</time>
      </trkpt>
      <trkpt lat="48.47624" lon="-2.70087">
        <ele>70</ele>
        <time>2013-12-13T09:40:50Z</time>
      </trkpt>
      <trkpt lat="48.47622" lon="-2.7009">
        <ele>70</ele>
        <time>2013-12-13T09:40:52Z</time>
      </trkpt>
      <trkpt lat="48.4762" lon="-2.70092">
        <ele>70</ele>
        <time>2013-12-13T09:40:54Z</time>
      </trkpt>
      <trkpt lat="48.47618" lon="-2.70096">
        <ele>70</ele>
        <time>2013-12-13T09:40:56Z</time>
      </trkpt>
      <trkpt lat="48.47616" lon="-2.70098">
        <ele>70</ele>
        <time>2013-12-13T09:40:58Z</time>
      </trkpt>
      <trkpt lat="48.47613" lon="-2.701">
        <ele>70</ele>
        <time>2013-12-13T09:41:00Z</time>
      </trkpt>
      <trkpt lat="48.4761" lon="-2.70104">
        <ele>70</ele>
        <time>2013-12-13T09:41:03Z</time>
      </trkpt>
      <trkpt lat="48.47608" lon="-2.70106">
        <ele>70</ele>
        <time>2013-12-13T09:41:05Z</time>
      </trkpt>
      <trkpt lat="48.47606" lon="-2.70106">
        <ele>70</ele>
        <time>2013-12-13T09:41:07Z</time>
      </trkpt>
      <trkpt lat="48.47603" lon="-2.70107">
        <ele>70</ele>
        <time>2013-12-13T09:41:09Z</time>
      </trkpt>
      <trkpt lat="48.47599" lon="-2.70108">
        <ele>70</ele>
        <time>2013-12-13T09:41:12Z</time>
      </trkpt>
      <trkpt lat="48.47596" lon="-2.70111">
        <ele>70</ele>
        <time>2013-12-13T09:41:14Z</time>
      </trkpt>
      <trkpt lat="48.47593" lon="-2.70111">
        <ele>70</ele>
        <time>2013-12-13T09:41:16Z</time>
      </trkpt>
      <trkpt lat="48.47589" lon="-2.70113">
        <ele>70</ele>
        <time>2013-12-13T09:41:19Z</time>
      </trkpt>
      <trkpt lat="48.4759" lon="-2.70115">
        <ele>70</ele>
        <time>2013-12-13T09:41:26Z</time>
      </trkpt>
      <trkpt lat="48.47588" lon="-2.70117">
        <ele>70</ele>
        <time>2013-12-13T09:41:29Z</time>
      </trkpt>
      <trkpt lat="48.47586" lon="-2.70116">
        <ele>70</ele>
        <time>2013-12-13T09:41:31Z</time>
      </trkpt>
      <trkpt lat="48.47583" lon="-2.70114">
        <ele>70</ele>
        <time>2013-12-13T09:41:33Z</time>
      </trkpt>
      <trkpt lat="48.4758" lon="-2.70112">
        <ele>70</ele>
        <time>2013-12-13T09:41:35Z</time>
      </trkpt>
      <trkpt lat="48.47577" lon="-2.7011">
        <ele>68</ele>
        <time>2013-12-13T09:41:37Z</time>
      </trkpt>
      <trkpt lat="48.47572" lon="-2.70107">
        <ele>65</ele>
        <time>2013-12-13T09:41:40Z</time>
      </trkpt>
      <trkpt lat="48.4757" lon="-2.70103">
        <ele>63</ele>
        <time>2013-12-13T09:41:43Z</time>
      </trkpt>
      <trkpt lat="48.47569" lon="-2.70102">
        <ele>60</ele>
        <time>2013-12-13T09:41:46Z</time>
      </trkpt>
      <trkpt lat="48.47567" lon="-2.70101">
        <ele>59</ele>
        <time>2013-12-13T09:41:48Z</time>
      </trkpt>
      <trkpt lat="48.47566" lon="-2.701">
        <ele>57</ele>
        <time>2013-12-13T09:41:50Z</time>
      </trkpt>
      <trkpt lat="48.47564" lon="-2.70099">
        <ele>55</ele>
        <time>2013-12-13T09:41:52Z</time>
      </trkpt>
      <trkpt lat="48.47561" lon="-2.70096">
        <ele>52</ele>
        <time>2013-12-13T09:41:55Z</time>
      </trkpt>
      <trkpt lat="48.4756" lon="-2.70094">
        <ele>51</ele>
        <time>2013-12-13T09:41:57Z</time>
      </trkpt>
      <trkpt lat="48.47558" lon="-2.70093">
        <ele>49</ele>
        <time>2013-12-13T09:41:59Z</time>
      </trkpt>
      <trkpt lat="48.47555" lon="-2.70091">
        <ele>48</ele>
        <time>2013-12-13T09:42:01Z</time>
      </trkpt>
      <trkpt lat="48.47553" lon="-2.70087">
        <ele>46</ele>
        <time>2013-12-13T09:42:04Z</time>
      </trkpt>
      <trkpt lat="48.47553" lon="-2.70085">
        <ele>45</ele>
        <time>2013-12-13T09:42:06Z</time>
      </trkpt>
      <trkpt lat="48.47551" lon="-2.70084">
        <ele>44</ele>
        <time>2013-12-13T09:42:08Z</time>
      </trkpt>
      <trkpt lat="48.47549" lon="-2.70084">
        <ele>43</ele>
        <time>2013-12-13T09:42:10Z</time>
      </trkpt>
      <trkpt lat="48.47546" lon="-2.70084">
        <ele>42</ele>
        <time>2013-12-13T09:42:12Z</time>
      </trkpt>
      <trkpt lat="48.47545" lon="-2.70083">
        <ele>41</ele>
        <time>2013-12-13T09:42:14Z</time>
      </trkpt>
      <trkpt lat="48.47543" lon="-2.70083">
        <ele>40</ele>
        <time>2013-12-13T09:42:16Z</time>
      </trkpt>
      <trkpt lat="48.47538" lon="-2.70087">
        <ele>40</ele>
        <time>2013-12-13T09:42:18Z</time>
      </trkpt>
      <trkpt lat="48.47535" lon="-2.70089">
        <ele>40</ele>
        <time>2013-12-13T09:42:21Z</time>
      </trkpt>
      <trkpt lat="48.47533" lon="-2.70089">
        <ele>41</ele>
        <time>2013-12-13T09:42:23Z</time>
      </trkpt>
      <trkpt lat="48.47529" lon="-2.70089">
        <ele>42</ele>
        <time>2013-12-13T09:42:25Z</time>
      </trkpt>
      <trkpt lat="48.47523" lon="-2.70093">
        <ele>43</ele>
        <time>2013-12-13T09:42:27Z</time>
      </trkpt>
      <trkpt lat="48.47518" lon="-2.70099">
        <ele>45</ele>
        <time>2013-12-13T09:42:29Z</time>
      </trkpt>
      <trkpt lat="48.47515" lon="-2.70104">
        <ele>48</ele>
        <time>2013-12-13T09:42:32Z</time>
      </trkpt>
      <trkpt lat="48.47512" lon="-2.70107">
        <ele>50</ele>
        <time>2013-12-13T09:42:34Z</time>
      </trkpt>
      <trkpt lat="48.47509" lon="-2.7011">
        <ele>50</ele>
        <time>2013-12-13T09:42:36Z</time>
      </trkpt>
      <trkpt lat="48.47504" lon="-2.70114">
        <ele>50</ele>
        <time>2013-12-13T09:42:38Z</time>
      </trkpt>
      <trkpt lat="48.47502" lon="-2.70116">
        <ele>50</ele>
        <time>2013-12-13T09:42:40Z</time>
      </trkpt>
      <trkpt lat="48.47498" lon="-2.70116">
        <ele>50</ele>
        <time>2013-12-13T09:42:42Z</time>
      </trkpt>
      <trkpt lat="48.47494" lon="-2.70116">
        <ele>51</ele>
        <time>2013-12-13T09:42:44Z</time>
      </trkpt>
      <trkpt lat="48.47492" lon="-2.70117">
        <ele>51</ele>
        <time>2013-12-13T09:42:47Z</time>
      </trkpt>
      <trkpt lat="48.4749" lon="-2.70119">
        <ele>51</ele>
        <time>2013-12-13T09:42:49Z</time>
      </trkpt>
      <trkpt lat="48.47488" lon="-2.70121">
        <ele>51</ele>
        <time>2013-12-13T09:42:51Z</time>
      </trkpt>
      <trkpt lat="48.47486" lon="-2.70122">
        <ele>51</ele>
        <time>2013-12-13T09:42:53Z</time>
      </trkpt>
      <trkpt lat="48.47485" lon="-2.70123">
        <ele>51</ele>
        <time>2013-12-13T09:42:55Z</time>
      </trkpt>
      <trkpt lat="48.47482" lon="-2.70123">
        <ele>51</ele>
        <time>2013-12-13T09:42:57Z</time>
      </trkpt>
      <trkpt lat="48.47478" lon="-2.70124">
        <ele>51</ele>
        <time>2013-12-13T09:42:59Z</time>
      </trkpt>
      <trkpt lat="48.47473" lon="-2.70124">
        <ele>51</ele>
        <time>2013-12-13T09:43:01Z</time>
      </trkpt>
      <trkpt lat="48.47469" lon="-2.70125">
        <ele>51</ele>
        <time>2013-12-13T09:43:03Z</time>
      </trkpt>
      <trkpt lat="48.47466" lon="-2.70128">
        <ele>51</ele>
        <time>2013-12-13T09:43:05Z</time>
      </trkpt>
      <trkpt lat="48.47463" lon="-2.70129">
        <ele>51</ele>
        <time>2013-12-13T09:43:07Z</time>
      </trkpt>
      <trkpt lat="48.47461" lon="-2.70131">
        <ele>51</ele>
        <time>2013-12-13T09:43:09Z</time>
      </trkpt>
      <trkpt lat="48.47459" lon="-2.70129">
        <ele>51</ele>
        <time>2013-12-13T09:43:11Z</time>
      </trkpt>
      <trkpt lat="48.47457" lon="-2.7013">
        <ele>51</ele>
        <time>2013-12-13T09:43:13Z</time>
      </trkpt>
      <trkpt lat="48.47456" lon="-2.70131">
        <ele>49</ele>
        <time>2013-12-13T09:43:15Z</time>
      </trkpt>
      <trkpt lat="48.47452" lon="-2.70133">
        <ele>49</ele>
        <time>2013-12-13T09:43:17Z</time>
      </trkpt>
      <trkpt lat="48.47448" lon="-2.70135">
        <ele>49</ele>
        <time>2013-12-13T09:43:19Z</time>
      </trkpt>
      <trkpt lat="48.47445" lon="-2.70136">
        <ele>49</ele>
        <time>2013-12-13T09:43:21Z</time>
      </trkpt>
      <trkpt lat="48.47442" lon="-2.70138">
        <ele>49</ele>
        <time>2013-12-13T09:43:23Z</time>
      </trkpt>
      <trkpt lat="48.47439" lon="-2.70139">
        <ele>49</ele>
        <time>2013-12-13T09:43:25Z</time>
      </trkpt>
      <trkpt lat="48.47436" lon="-2.70143">
        <ele>50</ele>
        <time>2013-12-13T09:43:27Z</time>
      </trkpt>
      <trkpt lat="48.47434" lon="-2.70147">
        <ele>50</ele>
        <time>2013-12-13T09:43:29Z</time>
      </trkpt>
      <trkpt lat="48.47433" lon="-2.70152">
        <ele>51</ele>
        <time>2013-12-13T09:43:31Z</time>
      </trkpt>
      <trkpt lat="48.47431" lon="-2.70157">
        <ele>52</ele>
        <time>2013-12-13T09:43:33Z</time>
      </trkpt>
      <trkpt lat="48.47428" lon="-2.70159">
        <ele>52</ele>
        <time>2013-12-13T09:43:36Z</time>
      </trkpt>
      <trkpt lat="48.47425" lon="-2.7016">
        <ele>52</ele>
        <time>2013-12-13T09:43:38Z</time>
      </trkpt>
      <trkpt lat="48.47422" lon="-2.70161">
        <ele>53</ele>
        <time>2013-12-13T09:43:40Z</time>
      </trkpt>
      <trkpt lat="48.47419" lon="-2.70163">
        <ele>55</ele>
        <time>2013-12-13T09:43:43Z</time>
      </trkpt>
      <trkpt lat="48.47416" lon="-2.70166">
        <ele>55</ele>
        <time>2013-12-13T09:43:46Z</time>
      </trkpt>
      <trkpt lat="48.47413" lon="-2.70167">
        <ele>55</ele>
        <time>2013-12-13T09:43:48Z</time>
      </trkpt>
      <trkpt lat="48.47411" lon="-2.70167">
        <ele>55</ele>
        <time>2013-12-13T09:43:50Z</time>
      </trkpt>
      <trkpt lat="48.47409" lon="-2.70169">
        <ele>55</ele>
        <time>2013-12-13T09:43:52Z</time>
      </trkpt>
      <trkpt lat="48.47406" lon="-2.70171">
        <ele>56</ele>
        <time>2013-12-13T09:43:54Z</time>
      </trkpt>
      <trkpt lat="48.47403" lon="-2.70174">
        <ele>58</ele>
        <time>2013-12-13T09:43:57Z</time>
      </trkpt>
      <trkpt lat="48.474" lon="-2.70177">
        <ele>60</ele>
        <time>2013-12-13T09:43:59Z</time>
      </trkpt>
      <trkpt lat="48.47397" lon="-2.70179">
        <ele>60</ele>
        <time>2013-12-13T09:44:01Z</time>
      </trkpt>
      <trkpt lat="48.47395" lon="-2.7018">
        <ele>60</ele>
        <time>2013-12-13T09:44:03Z</time>
      </trkpt>
      <trkpt lat="48.47392" lon="-2.70181">
        <ele>60</ele>
        <time>2013-12-13T09:44:05Z</time>
      </trkpt>
      <trkpt lat="48.47388" lon="-2.70182">
        <ele>62</ele>
        <time>2013-12-13T09:44:08Z</time>
      </trkpt>
      <trkpt lat="48.47387" lon="-2.70181">
        <ele>62</ele>
        <time>2013-12-13T09:44:10Z</time>
      </trkpt>
      <trkpt lat="48.47384" lon="-2.70179">
        <ele>62</ele>
        <time>2013-12-13T09:44:12Z</time>
      </trkpt>
      <trkpt lat="48.47382" lon="-2.70176">
        <ele>62</ele>
        <time>2013-12-13T09:44:14Z</time>
      </trkpt>
      <trkpt lat="48.4738" lon="-2.70174">
        <ele>62</ele>
        <time>2013-12-13T09:44:16Z</time>
      </trkpt>
      <trkpt lat="48.47378" lon="-2.70169">
        <ele>62</ele>
        <time>2013-12-13T09:44:19Z</time>
      </trkpt>
      <trkpt lat="48.47376" lon="-2.70166">
        <ele>62</ele>
        <time>2013-12-13T09:44:21Z</time>
      </trkpt>
      <trkpt lat="48.47373" lon="-2.70163">
        <ele>62</ele>
        <time>2013-12-13T09:44:23Z</time>
      </trkpt>
      <trkpt lat="48.47371" lon="-2.7016">
        <ele>62</ele>
        <time>2013-12-13T09:44:25Z</time>
      </trkpt>
      <trkpt lat="48.47369" lon="-2.70156">
        <ele>62</ele>
        <time>2013-12-13T09:44:27Z</time>
      </trkpt>
      <trkpt lat="48.47368" lon="-2.70152">
        <ele>62</ele>
        <time>2013-12-13T09:44:29Z</time>
      </trkpt>
      <trkpt lat="48.47366" lon="-2.70148">
        <ele>62</ele>
        <time>2013-12-13T09:44:31Z</time>
      </trkpt>
      <trkpt lat="48.47366" lon="-2.70144">
        <ele>62</ele>
        <time>2013-12-13T09:44:33Z</time>
      </trkpt>
      <trkpt lat="48.47365" lon="-2.7014">
        <ele>62</ele>
        <time>2013-12-13T09:44:35Z</time>
      </trkpt>
      <trkpt lat="48.47364" lon="-2.70137">
        <ele>62</ele>
        <time>2013-12-13T09:44:37Z</time>
      </trkpt>
      <trkpt lat="48.47364" lon="-2.70134">
        <ele>62</ele>
        <time>2013-12-13T09:44:39Z</time>
      </trkpt>
      <trkpt lat="48.47363" lon="-2.70133">
        <ele>62</ele>
        <time>2013-12-13T09:44:41Z</time>
      </trkpt>
      <trkpt lat="48.4736" lon="-2.70132">
        <ele>62</ele>
        <time>2013-12-13T09:44:44Z</time>
      </trkpt>
      <trkpt lat="48.47358" lon="-2.70134">
        <ele>62</ele>
        <time>2013-12-13T09:44:54Z</time>
      </trkpt>
      <trkpt lat="48.47358" lon="-2.70136">
        <ele>62</ele>
        <time>2013-12-13T09:44:59Z</time>
      </trkpt>
      <trkpt lat="48.47357" lon="-2.70138">
        <ele>62</ele>
        <time>2013-12-13T09:45:09Z</time>
      </trkpt>
      <trkpt lat="48.47358" lon="-2.7014">
        <ele>62</ele>
        <time>2013-12-13T09:45:11Z</time>
      </trkpt>
      <trkpt lat="48.47359" lon="-2.70142">
        <ele>62</ele>
        <time>2013-12-13T09:45:13Z</time>
      </trkpt>
      <trkpt lat="48.4736" lon="-2.70146">
        <ele>62</ele>
        <time>2013-12-13T09:45:15Z</time>
      </trkpt>
      <trkpt lat="48.47361" lon="-2.70148">
        <ele>62</ele>
        <time>2013-12-13T09:45:17Z</time>
      </trkpt>
      <trkpt lat="48.4736" lon="-2.7015">
        <ele>62</ele>
        <time>2013-12-13T09:45:19Z</time>
      </trkpt>
      <trkpt lat="48.4736" lon="-2.70153">
        <ele>62</ele>
        <time>2013-12-13T09:45:24Z</time>
      </trkpt>
      <trkpt lat="48.47361" lon="-2.70157">
        <ele>62</ele>
        <time>2013-12-13T09:45:26Z</time>
      </trkpt>
      <trkpt lat="48.47361" lon="-2.70162">
        <ele>62</ele>
        <time>2013-12-13T09:45:29Z</time>
      </trkpt>
      <trkpt lat="48.47362" lon="-2.70166">
        <ele>62</ele>
        <time>2013-12-13T09:45:32Z</time>
      </trkpt>
      <trkpt lat="48.47363" lon="-2.70169">
        <ele>61</ele>
        <time>2013-12-13T09:45:34Z</time>
      </trkpt>
      <trkpt lat="48.47363" lon="-2.70172">
        <ele>61</ele>
        <time>2013-12-13T09:45:36Z</time>
      </trkpt>
      <trkpt lat="48.47364" lon="-2.70175">
        <ele>60</ele>
        <time>2013-12-13T09:45:38Z</time>
      </trkpt>
      <trkpt lat="48.47365" lon="-2.70179">
        <ele>59</ele>
        <time>2013-12-13T09:45:40Z</time>
      </trkpt>
      <trkpt lat="48.47366" lon="-2.70182">
        <ele>58</ele>
        <time>2013-12-13T09:45:42Z</time>
      </trkpt>
      <trkpt lat="48.47366" lon="-2.70184">
        <ele>57</ele>
        <time>2013-12-13T09:45:44Z</time>
      </trkpt>
      <trkpt lat="48.47367" lon="-2.70186">
        <ele>57</ele>
        <time>2013-12-13T09:45:46Z</time>
      </trkpt>
      <trkpt lat="48.47368" lon="-2.70189">
        <ele>57</ele>
        <time>2013-12-13T09:45:48Z</time>
      </trkpt>
      <trkpt lat="48.47372" lon="-2.70192">
        <ele>57</ele>
        <time>2013-12-13T09:45:51Z</time>
      </trkpt>
      <trkpt lat="48.47374" lon="-2.70194">
        <ele>57</ele>
        <time>2013-12-13T09:45:53Z</time>
      </trkpt>
      <trkpt lat="48.47377" lon="-2.70197">
        <ele>57</ele>
        <time>2013-12-13T09:45:56Z</time>
      </trkpt>
      <trkpt lat="48.47378" lon="-2.702">
        <ele>57</ele>
        <time>2013-12-13T09:45:58Z</time>
      </trkpt>
      <trkpt lat="48.47379" lon="-2.70202">
        <ele>57</ele>
        <time>2013-12-13T09:46:00Z</time>
      </trkpt>
      <trkpt lat="48.47379" lon="-2.70207">
        <ele>55</ele>
        <time>2013-12-13T09:46:03Z</time>
      </trkpt>
      <trkpt lat="48.47378" lon="-2.70209">
        <ele>54</ele>
        <time>2013-12-13T09:46:05Z</time>
      </trkpt>
      <trkpt lat="48.47377" lon="-2.70213">
        <ele>54</ele>
        <time>2013-12-13T09:46:07Z</time>
      </trkpt>
      <trkpt lat="48.47377" lon="-2.70217">
        <ele>53</ele>
        <time>2013-12-13T09:46:09Z</time>
      </trkpt>
      <trkpt lat="48.47377" lon="-2.70221">
        <ele>52</ele>
        <time>2013-12-13T09:46:11Z</time>
      </trkpt>
      <trkpt lat="48.47377" lon="-2.70225">
        <ele>52</ele>
        <time>2013-12-13T09:46:13Z</time>
      </trkpt>
      <trkpt lat="48.47377" lon="-2.70229">
        <ele>52</ele>
        <time>2013-12-13T09:46:15Z</time>
      </trkpt>
      <trkpt lat="48.47377" lon="-2.70234">
        <ele>52</ele>
        <time>2013-12-13T09:46:17Z</time>
      </trkpt>
      <trkpt lat="48.47376" lon="-2.70238">
        <ele>52</ele>
        <time>2013-12-13T09:46:19Z</time>
      </trkpt>
      <trkpt lat="48.47376" lon="-2.7024">
        <ele>52</ele>
        <time>2013-12-13T09:46:21Z</time>
      </trkpt>
      <trkpt lat="48.47376" lon="-2.70243">
        <ele>52</ele>
        <time>2013-12-13T09:46:23Z</time>
      </trkpt>
      <trkpt lat="48.47375" lon="-2.70245">
        <ele>52</ele>
        <time>2013-12-13T09:46:25Z</time>
      </trkpt>
      <trkpt lat="48.47375" lon="-2.70249">
        <ele>52</ele>
        <time>2013-12-13T09:46:27Z</time>
      </trkpt>
      <trkpt lat="48.47374" lon="-2.70252">
        <ele>52</ele>
        <time>2013-12-13T09:46:29Z</time>
      </trkpt>
      <trkpt lat="48.47374" lon="-2.70257">
        <ele>50</ele>
        <time>2013-12-13T09:46:32Z</time>
      </trkpt>
      <trkpt lat="48.47373" lon="-2.70262">
        <ele>49</ele>
        <time>2013-12-13T09:46:34Z</time>
      </trkpt>
      <trkpt lat="48.47372" lon="-2.70266">
        <ele>49</ele>
        <time>2013-12-13T09:46:36Z</time>
      </trkpt>
      <trkpt lat="48.47373" lon="-2.70267">
        <ele>49</ele>
        <time>2013-12-13T09:46:39Z</time>
      </trkpt>
      <trkpt lat="48.47374" lon="-2.7027">
        <ele>49</ele>
        <time>2013-12-13T09:46:41Z</time>
      </trkpt>
      <trkpt lat="48.47374" lon="-2.70272">
        <ele>49</ele>
        <time>2013-12-13T09:46:43Z</time>
      </trkpt>
      <trkpt lat="48.47375" lon="-2.70275">
        <ele>49</ele>
        <time>2013-12-13T09:46:45Z</time>
      </trkpt>
      <trkpt lat="48.47376" lon="-2.70281">
        <ele>49</ele>
        <time>2013-12-13T09:46:48Z</time>
      </trkpt>
      <trkpt lat="48.47375" lon="-2.70285">
        <ele>49</ele>
        <time>2013-12-13T09:46:50Z</time>
      </trkpt>
      <trkpt lat="48.47375" lon="-2.70291">
        <ele>49</ele>
        <time>2013-12-13T09:46:52Z</time>
      </trkpt>
      <trkpt lat="48.47374" lon="-2.70296">
        <ele>49</ele>
        <time>2013-12-13T09:46:54Z</time>
      </trkpt>
      <trkpt lat="48.47374" lon="-2.70299">
        <ele>49</ele>
        <time>2013-12-13T09:46:56Z</time>
      </trkpt>
      <trkpt lat="48.47375" lon="-2.70305">
        <ele>49</ele>
        <time>2013-12-13T09:46:58Z</time>
      </trkpt>
      <trkpt lat="48.47374" lon="-2.70311">
        <ele>50</ele>
        <time>2013-12-13T09:47:00Z</time>
      </trkpt>
      <trkpt lat="48.47373" lon="-2.70316">
        <ele>51</ele>
        <time>2013-12-13T09:47:03Z</time>
      </trkpt>
      <trkpt lat="48.47373" lon="-2.7032">
        <ele>51</ele>
        <time>2013-12-13T09:47:05Z</time>
      </trkpt>
      <trkpt lat="48.47372" lon="-2.70323">
        <ele>51</ele>
        <time>2013-12-13T09:47:07Z</time>
      </trkpt>
      <trkpt lat="48.47372" lon="-2.70327">
        <ele>51</ele>
        <time>2013-12-13T09:47:09Z</time>
      </trkpt>
      <trkpt lat="48.47372" lon="-2.7033">
        <ele>51</ele>
        <time>2013-12-13T09:47:11Z</time>
      </trkpt>
      <trkpt lat="48.47372" lon="-2.70334">
        <ele>51</ele>
        <time>2013-12-13T09:47:13Z</time>
      </trkpt>
      <trkpt lat="48.47371" lon="-2.70339">
        <ele>51</ele>
        <time>2013-12-13T09:47:16Z</time>
      </trkpt>
      <trkpt lat="48.47371" lon="-2.70343">
        <ele>51</ele>
        <time>2013-12-13T09:47:18Z</time>
      </trkpt>
      <trkpt lat="48.47372" lon="-2.70347">
        <ele>51</ele>
        <time>2013-12-13T09:47:20Z</time>
      </trkpt>
      <trkpt lat="48.47371" lon="-2.70351">
        <ele>51</ele>
        <time>2013-12-13T09:47:22Z</time>
      </trkpt>
      <trkpt lat="48.47371" lon="-2.70355">
        <ele>51</ele>
        <time>2013-12-13T09:47:24Z</time>
      </trkpt>
      <trkpt lat="48.47371" lon="-2.70358">
        <ele>51</ele>
        <time>2013-12-13T09:47:26Z</time>
      </trkpt>
      <trkpt lat="48.4737" lon="-2.70362">
        <ele>51</ele>
        <time>2013-12-13T09:47:28Z</time>
      </trkpt>
      <trkpt lat="48.47369" lon="-2.70366">
        <ele>51</ele>
        <time>2013-12-13T09:47:30Z</time>
      </trkpt>
      <trkpt lat="48.47369" lon="-2.70374">
        <ele>51</ele>
        <time>2013-12-13T09:47:33Z</time>
      </trkpt>
      <trkpt lat="48.47369" lon="-2.70377">
        <ele>51</ele>
        <time>2013-12-13T09:47:35Z</time>
      </trkpt>
      <trkpt lat="48.47369" lon="-2.70381">
        <ele>51</ele>
        <time>2013-12-13T09:47:37Z</time>
      </trkpt>
      <trkpt lat="48.47369" lon="-2.70385">
        <ele>51</ele>
        <time>2013-12-13T09:47:39Z</time>
      </trkpt>
      <trkpt lat="48.47369" lon="-2.70389">
        <ele>51</ele>
        <time>2013-12-13T09:47:41Z</time>
      </trkpt>
      <trkpt lat="48.47369" lon="-2.70393">
        <ele>51</ele>
        <time>2013-12-13T09:47:43Z</time>
      </trkpt>
      <trkpt lat="48.47368" lon="-2.70397">
        <ele>51</ele>
        <time>2013-12-13T09:47:45Z</time>
      </trkpt>
      <trkpt lat="48.47366" lon="-2.70403">
        <ele>51</ele>
        <time>2013-12-13T09:47:47Z</time>
      </trkpt>
      <trkpt lat="48.47366" lon="-2.70406">
        <ele>51</ele>
        <time>2013-12-13T09:47:49Z</time>
      </trkpt>
      <trkpt lat="48.47365" lon="-2.70409">
        <ele>51</ele>
        <time>2013-12-13T09:47:51Z</time>
      </trkpt>
      <trkpt lat="48.47365" lon="-2.70416">
        <ele>51</ele>
        <time>2013-12-13T09:47:55Z</time>
      </trkpt>
      <trkpt lat="48.47364" lon="-2.70421">
        <ele>51</ele>
        <time>2013-12-13T09:47:58Z</time>
      </trkpt>
      <trkpt lat="48.47361" lon="-2.70427">
        <ele>51</ele>
        <time>2013-12-13T09:48:00Z</time>
      </trkpt>
      <trkpt lat="48.47359" lon="-2.70434">
        <ele>51</ele>
        <time>2013-12-13T09:48:04Z</time>
      </trkpt>
      <trkpt lat="48.47359" lon="-2.70438">
        <ele>52</ele>
        <time>2013-12-13T09:48:07Z</time>
      </trkpt>
      <trkpt lat="48.47358" lon="-2.70442">
        <ele>54</ele>
        <time>2013-12-13T09:48:10Z</time>
      </trkpt>
      <trkpt lat="48.47356" lon="-2.70444">
        <ele>54</ele>
        <time>2013-12-13T09:48:13Z</time>
      </trkpt>
      <trkpt lat="48.47355" lon="-2.70444">
        <ele>54</ele>
        <time>2013-12-13T09:48:15Z</time>
      </trkpt>
      <trkpt lat="48.47351" lon="-2.70446">
        <ele>54</ele>
        <time>2013-12-13T09:48:19Z</time>
      </trkpt>
      <trkpt lat="48.47348" lon="-2.70448">
        <ele>54</ele>
        <time>2013-12-13T09:48:21Z</time>
      </trkpt>
      <trkpt lat="48.47345" lon="-2.70451">
        <ele>55</ele>
        <time>2013-12-13T09:48:23Z</time>
      </trkpt>
      <trkpt lat="48.47341" lon="-2.70453">
        <ele>57</ele>
        <time>2013-12-13T09:48:27Z</time>
      </trkpt>
      <trkpt lat="48.47338" lon="-2.70455">
        <ele>57</ele>
        <time>2013-12-13T09:48:31Z</time>
      </trkpt>
      <trkpt lat="48.47337" lon="-2.70455">
        <ele>57</ele>
        <time>2013-12-13T09:48:33Z</time>
      </trkpt>
      <trkpt lat="48.47332" lon="-2.70458">
        <ele>57</ele>
        <time>2013-12-13T09:48:37Z</time>
      </trkpt>
      <trkpt lat="48.47329" lon="-2.70459">
        <ele>57</ele>
        <time>2013-12-13T09:48:39Z</time>
      </trkpt>
      <trkpt lat="48.47327" lon="-2.7046">
        <ele>57</ele>
        <time>2013-12-13T09:48:41Z</time>
      </trkpt>
      <trkpt lat="48.47324" lon="-2.70463">
        <ele>59</ele>
        <time>2013-12-13T09:48:44Z</time>
      </trkpt>
      <trkpt lat="48.47321" lon="-2.70465">
        <ele>60</ele>
        <time>2013-12-13T09:48:47Z</time>
      </trkpt>
      <trkpt lat="48.47318" lon="-2.70468">
        <ele>61</ele>
        <time>2013-12-13T09:48:51Z</time>
      </trkpt>
      <trkpt lat="48.47315" lon="-2.70472">
        <ele>61</ele>
        <time>2013-12-13T09:48:54Z</time>
      </trkpt>
      <trkpt lat="48.47313" lon="-2.70475">
        <ele>62</ele>
        <time>2013-12-13T09:48:56Z</time>
      </trkpt>
      <trkpt lat="48.47311" lon="-2.7048">
        <ele>62</ele>
        <time>2013-12-13T09:48:59Z</time>
      </trkpt>
      <trkpt lat="48.47309" lon="-2.70483">
        <ele>62</ele>
        <time>2013-12-13T09:49:01Z</time>
      </trkpt>
      <trkpt lat="48.47306" lon="-2.70489">
        <ele>62</ele>
        <time>2013-12-13T09:49:04Z</time>
      </trkpt>
      <trkpt lat="48.47305" lon="-2.70493">
        <ele>62</ele>
        <time>2013-12-13T09:49:06Z</time>
      </trkpt>
      <trkpt lat="48.47302" lon="-2.70499">
        <ele>62</ele>
        <time>2013-12-13T09:49:10Z</time>
      </trkpt>
      <trkpt lat="48.47301" lon="-2.70502">
        <ele>62</ele>
        <time>2013-12-13T09:49:12Z</time>
      </trkpt>
      <trkpt lat="48.473" lon="-2.70508">
        <ele>62</ele>
        <time>2013-12-13T09:49:16Z</time>
      </trkpt>
      <trkpt lat="48.473" lon="-2.70511">
        <ele>62</ele>
        <time>2013-12-13T09:49:18Z</time>
      </trkpt>
      <trkpt lat="48.47299" lon="-2.70515">
        <ele>62</ele>
        <time>2013-12-13T09:49:21Z</time>
      </trkpt>
      <trkpt lat="48.47299" lon="-2.70519">
        <ele>61</ele>
        <time>2013-12-13T09:49:23Z</time>
      </trkpt>
      <trkpt lat="48.47299" lon="-2.70526">
        <ele>61</ele>
        <time>2013-12-13T09:49:26Z</time>
      </trkpt>
      <trkpt lat="48.47299" lon="-2.7053">
        <ele>61</ele>
        <time>2013-12-13T09:49:28Z</time>
      </trkpt>
      <trkpt lat="48.47298" lon="-2.70536">
        <ele>61</ele>
        <time>2013-12-13T09:49:31Z</time>
      </trkpt>
      <trkpt lat="48.47297" lon="-2.7054">
        <ele>61</ele>
        <time>2013-12-13T09:49:33Z</time>
      </trkpt>
      <trkpt lat="48.47294" lon="-2.70545">
        <ele>60</ele>
        <time>2013-12-13T09:49:36Z</time>
      </trkpt>
      <trkpt lat="48.47292" lon="-2.7055">
        <ele>60</ele>
        <time>2013-12-13T09:49:39Z</time>
      </trkpt>
      <trkpt lat="48.4729" lon="-2.70555">
        <ele>60</ele>
        <time>2013-12-13T09:49:42Z</time>
      </trkpt>
      <trkpt lat="48.47289" lon="-2.7056">
        <ele>60</ele>
        <time>2013-12-13T09:49:44Z</time>
      </trkpt>
      <trkpt lat="48.47286" lon="-2.70567">
        <ele>60</ele>
        <time>2013-12-13T09:49:48Z</time>
      </trkpt>
      <trkpt lat="48.47285" lon="-2.70571">
        <ele>60</ele>
        <time>2013-12-13T09:49:50Z</time>
      </trkpt>
      <trkpt lat="48.47285" lon="-2.70575">
        <ele>60</ele>
        <time>2013-12-13T09:49:52Z</time>
      </trkpt>
      <trkpt lat="48.47284" lon="-2.70579">
        <ele>60</ele>
        <time>2013-12-13T09:49:54Z</time>
      </trkpt>
      <trkpt lat="48.47282" lon="-2.70586">
        <ele>60</ele>
        <time>2013-12-13T09:49:57Z</time>
      </trkpt>
      <trkpt lat="48.47279" lon="-2.7059">
        <ele>60</ele>
        <time>2013-12-13T09:50:00Z</time>
      </trkpt>
      <trkpt lat="48.47277" lon="-2.70595">
        <ele>60</ele>
        <time>2013-12-13T09:50:04Z</time>
      </trkpt>
      <trkpt lat="48.47275" lon="-2.70597">
        <ele>60</ele>
        <time>2013-12-13T09:50:06Z</time>
      </trkpt>
      <trkpt lat="48.47274" lon="-2.706">
        <ele>60</ele>
        <time>2013-12-13T09:50:08Z</time>
      </trkpt>
      <trkpt lat="48.47274" lon="-2.70601">
        <ele>60</ele>
        <time>2013-12-13T09:50:11Z</time>
      </trkpt>
      <trkpt lat="48.47277" lon="-2.70602">
        <ele>59</ele>
        <time>2013-12-13T09:50:14Z</time>
      </trkpt>
      <trkpt lat="48.47279" lon="-2.70602">
        <ele>58</ele>
        <time>2013-12-13T09:50:16Z</time>
      </trkpt>
      <trkpt lat="48.47283" lon="-2.70602">
        <ele>58</ele>
        <time>2013-12-13T09:50:19Z</time>
      </trkpt>
      <trkpt lat="48.47285" lon="-2.70602">
        <ele>58</ele>
        <time>2013-12-13T09:50:21Z</time>
      </trkpt>
      <trkpt lat="48.47288" lon="-2.70603">
        <ele>57</ele>
        <time>2013-12-13T09:50:25Z</time>
      </trkpt>
      <trkpt lat="48.47291" lon="-2.70606">
        <ele>56</ele>
        <time>2013-12-13T09:50:28Z</time>
      </trkpt>
      <trkpt lat="48.47293" lon="-2.70606">
        <ele>55</ele>
        <time>2013-12-13T09:50:30Z</time>
      </trkpt>
      <trkpt lat="48.47296" lon="-2.70607">
        <ele>55</ele>
        <time>2013-12-13T09:50:32Z</time>
      </trkpt>
      <trkpt lat="48.47297" lon="-2.70609">
        <ele>55</ele>
        <time>2013-12-13T09:50:35Z</time>
      </trkpt>
      <trkpt lat="48.473" lon="-2.70608">
        <ele>55</ele>
        <time>2013-12-13T09:50:37Z</time>
      </trkpt>
      <trkpt lat="48.47302" lon="-2.70608">
        <ele>55</ele>
        <time>2013-12-13T09:50:39Z</time>
      </trkpt>
      <trkpt lat="48.47303" lon="-2.70608">
        <ele>55</ele>
        <time>2013-12-13T09:50:41Z</time>
      </trkpt>
      <trkpt lat="48.47307" lon="-2.70608">
        <ele>55</ele>
        <time>2013-12-13T09:50:44Z</time>
      </trkpt>
      <trkpt lat="48.47309" lon="-2.70608">
        <ele>55</ele>
        <time>2013-12-13T09:50:46Z</time>
      </trkpt>
      <trkpt lat="48.47314" lon="-2.7061">
        <ele>55</ele>
        <time>2013-12-13T09:50:50Z</time>
      </trkpt>
      <trkpt lat="48.47317" lon="-2.70612">
        <ele>55</ele>
        <time>2013-12-13T09:50:52Z</time>
      </trkpt>
      <trkpt lat="48.47319" lon="-2.70611">
        <ele>55</ele>
        <time>2013-12-13T09:50:54Z</time>
      </trkpt>
      <trkpt lat="48.47322" lon="-2.7061">
        <ele>55</ele>
        <time>2013-12-13T09:50:56Z</time>
      </trkpt>
      <trkpt lat="48.47325" lon="-2.70607">
        <ele>55</ele>
        <time>2013-12-13T09:50:58Z</time>
      </trkpt>
      <trkpt lat="48.47327" lon="-2.70607">
        <ele>55</ele>
        <time>2013-12-13T09:51:00Z</time>
      </trkpt>
      <trkpt lat="48.4733" lon="-2.70605">
        <ele>55</ele>
        <time>2013-12-13T09:51:02Z</time>
      </trkpt>
      <trkpt lat="48.47335" lon="-2.70602">
        <ele>55</ele>
        <time>2013-12-13T09:51:06Z</time>
      </trkpt>
      <trkpt lat="48.47337" lon="-2.70601">
        <ele>55</ele>
        <time>2013-12-13T09:51:08Z</time>
      </trkpt>
      <trkpt lat="48.47339" lon="-2.706">
        <ele>55</ele>
        <time>2013-12-13T09:51:10Z</time>
      </trkpt>
      <trkpt lat="48.47342" lon="-2.70598">
        <ele>55</ele>
        <time>2013-12-13T09:51:12Z</time>
      </trkpt>
      <trkpt lat="48.47346" lon="-2.70595">
        <ele>55</ele>
        <time>2013-12-13T09:51:15Z</time>
      </trkpt>
      <trkpt lat="48.47348" lon="-2.70594">
        <ele>55</ele>
        <time>2013-12-13T09:51:17Z</time>
      </trkpt>
      <trkpt lat="48.47353" lon="-2.70593">
        <ele>55</ele>
        <time>2013-12-13T09:51:20Z</time>
      </trkpt>
      <trkpt lat="48.47355" lon="-2.70592">
        <ele>55</ele>
        <time>2013-12-13T09:51:22Z</time>
      </trkpt>
      <trkpt lat="48.47359" lon="-2.70591">
        <ele>55</ele>
        <time>2013-12-13T09:51:25Z</time>
      </trkpt>
      <trkpt lat="48.47362" lon="-2.7059">
        <ele>55</ele>
        <time>2013-12-13T09:51:27Z</time>
      </trkpt>
      <trkpt lat="48.47364" lon="-2.70589">
        <ele>55</ele>
        <time>2013-12-13T09:51:29Z</time>
      </trkpt>
      <trkpt lat="48.47366" lon="-2.70589">
        <ele>55</ele>
        <time>2013-12-13T09:51:31Z</time>
      </trkpt>
      <trkpt lat="48.47369" lon="-2.70587">
        <ele>55</ele>
        <time>2013-12-13T09:51:34Z</time>
      </trkpt>
      <trkpt lat="48.47371" lon="-2.70585">
        <ele>55</ele>
        <time>2013-12-13T09:51:36Z</time>
      </trkpt>
      <trkpt lat="48.47374" lon="-2.70583">
        <ele>55</ele>
        <time>2013-12-13T09:51:38Z</time>
      </trkpt>
      <trkpt lat="48.47376" lon="-2.70582">
        <ele>55</ele>
        <time>2013-12-13T09:51:40Z</time>
      </trkpt>
      <trkpt lat="48.47379" lon="-2.7058">
        <ele>56</ele>
        <time>2013-12-13T09:51:42Z</time>
      </trkpt>
      <trkpt lat="48.4738" lon="-2.70579">
        <ele>56</ele>
        <time>2013-12-13T09:51:44Z</time>
      </trkpt>
      <trkpt lat="48.47382" lon="-2.70578">
        <ele>56</ele>
        <time>2013-12-13T09:51:46Z</time>
      </trkpt>
      <trkpt lat="48.47384" lon="-2.70576">
        <ele>56</ele>
        <time>2013-12-13T09:51:48Z</time>
      </trkpt>
      <trkpt lat="48.47388" lon="-2.70574">
        <ele>56</ele>
        <time>2013-12-13T09:51:51Z</time>
      </trkpt>
      <trkpt lat="48.4739" lon="-2.70572">
        <ele>56</ele>
        <time>2013-12-13T09:51:53Z</time>
      </trkpt>
      <trkpt lat="48.47393" lon="-2.70569">
        <ele>56</ele>
        <time>2013-12-13T09:51:55Z</time>
      </trkpt>
      <trkpt lat="48.47395" lon="-2.70569">
        <ele>56</ele>
        <time>2013-12-13T09:51:57Z</time>
      </trkpt>
      <trkpt lat="48.47398" lon="-2.70565">
        <ele>56</ele>
        <time>2013-12-13T09:51:59Z</time>
      </trkpt>
      <trkpt lat="48.47399" lon="-2.7056">
        <ele>56</ele>
        <time>2013-12-13T09:52:02Z</time>
      </trkpt>
      <trkpt lat="48.474" lon="-2.70555">
        <ele>56</ele>
        <time>2013-12-13T09:52:04Z</time>
      </trkpt>
      <trkpt lat="48.47401" lon="-2.70548">
        <ele>56</ele>
        <time>2013-12-13T09:52:06Z</time>
      </trkpt>
      <trkpt lat="48.47402" lon="-2.70544">
        <ele>57</ele>
        <time>2013-12-13T09:52:08Z</time>
      </trkpt>
      <trkpt lat="48.47403" lon="-2.70539">
        <ele>58</ele>
        <time>2013-12-13T09:52:10Z</time>
      </trkpt>
      <trkpt lat="48.47403" lon="-2.70535">
        <ele>59</ele>
        <time>2013-12-13T09:52:13Z</time>
      </trkpt>
      <trkpt lat="48.47404" lon="-2.70533">
        <ele>60</ele>
        <time>2013-12-13T09:52:16Z</time>
      </trkpt>
      <trkpt lat="48.47404" lon="-2.70528">
        <ele>60</ele>
        <time>2013-12-13T09:52:18Z</time>
      </trkpt>
      <trkpt lat="48.47405" lon="-2.70523">
        <ele>60</ele>
        <time>2013-12-13T09:52:20Z</time>
      </trkpt>
      <trkpt lat="48.47405" lon="-2.70519">
        <ele>61</ele>
        <time>2013-12-13T09:52:22Z</time>
      </trkpt>
      <trkpt lat="48.47405" lon="-2.70515">
        <ele>61</ele>
        <time>2013-12-13T09:52:24Z</time>
      </trkpt>
      <trkpt lat="48.47406" lon="-2.70512">
        <ele>62</ele>
        <time>2013-12-13T09:52:26Z</time>
      </trkpt>
      <trkpt lat="48.47406" lon="-2.70508">
        <ele>62</ele>
        <time>2013-12-13T09:52:28Z</time>
      </trkpt>
      <trkpt lat="48.47406" lon="-2.70503">
        <ele>62</ele>
        <time>2013-12-13T09:52:30Z</time>
      </trkpt>
      <trkpt lat="48.47406" lon="-2.70499">
        <ele>62</ele>
        <time>2013-12-13T09:52:32Z</time>
      </trkpt>
      <trkpt lat="48.47407" lon="-2.70495">
        <ele>63</ele>
        <time>2013-12-13T09:52:34Z</time>
      </trkpt>
      <trkpt lat="48.47407" lon="-2.7049">
        <ele>63</ele>
        <time>2013-12-13T09:52:36Z</time>
      </trkpt>
      <trkpt lat="48.47407" lon="-2.70485">
        <ele>64</ele>
        <time>2013-12-13T09:52:38Z</time>
      </trkpt>
      <trkpt lat="48.47408" lon="-2.7048">
        <ele>65</ele>
        <time>2013-12-13T09:52:40Z</time>
      </trkpt>
      <trkpt lat="48.47408" lon="-2.70476">
        <ele>65</ele>
        <time>2013-12-13T09:52:42Z</time>
      </trkpt>
      <trkpt lat="48.47408" lon="-2.70471">
        <ele>65</ele>
        <time>2013-12-13T09:52:44Z</time>
      </trkpt>
      <trkpt lat="48.47409" lon="-2.70466">
        <ele>65</ele>
        <time>2013-12-13T09:52:46Z</time>
      </trkpt>
      <trkpt lat="48.47409" lon="-2.70462">
        <ele>66</ele>
        <time>2013-12-13T09:52:48Z</time>
      </trkpt>
      <trkpt lat="48.47409" lon="-2.70457">
        <ele>66</ele>
        <time>2013-12-13T09:52:50Z</time>
      </trkpt>
      <trkpt lat="48.4741" lon="-2.70454">
        <ele>67</ele>
        <time>2013-12-13T09:52:52Z</time>
      </trkpt>
      <trkpt lat="48.47411" lon="-2.70449">
        <ele>67</ele>
        <time>2013-12-13T09:52:54Z</time>
      </trkpt>
      <trkpt lat="48.47411" lon="-2.70445">
        <ele>67</ele>
        <time>2013-12-13T09:52:56Z</time>
      </trkpt>
      <trkpt lat="48.47412" lon="-2.70441">
        <ele>68</ele>
        <time>2013-12-13T09:52:58Z</time>
      </trkpt>
      <trkpt lat="48.47413" lon="-2.70437">
        <ele>68</ele>
        <time>2013-12-13T09:53:00Z</time>
      </trkpt>
      <trkpt lat="48.47414" lon="-2.70433">
        <ele>69</ele>
        <time>2013-12-13T09:53:02Z</time>
      </trkpt>
      <trkpt lat="48.47414" lon="-2.70429">
        <ele>69</ele>
        <time>2013-12-13T09:53:04Z</time>
      </trkpt>
      <trkpt lat="48.47415" lon="-2.70425">
        <ele>70</ele>
        <time>2013-12-13T09:53:06Z</time>
      </trkpt>
      <trkpt lat="48.47416" lon="-2.7042">
        <ele>70</ele>
        <time>2013-12-13T09:53:08Z</time>
      </trkpt>
      <trkpt lat="48.47417" lon="-2.70415">
        <ele>71</ele>
        <time>2013-12-13T09:53:10Z</time>
      </trkpt>
      <trkpt lat="48.47419" lon="-2.70411">
        <ele>71</ele>
        <time>2013-12-13T09:53:12Z</time>
      </trkpt>
      <trkpt lat="48.4742" lon="-2.70407">
        <ele>71</ele>
        <time>2013-12-13T09:53:14Z</time>
      </trkpt>
      <trkpt lat="48.47421" lon="-2.70403">
        <ele>71</ele>
        <time>2013-12-13T09:53:16Z</time>
      </trkpt>
      <trkpt lat="48.47422" lon="-2.70399">
        <ele>72</ele>
        <time>2013-12-13T09:53:18Z</time>
      </trkpt>
      <trkpt lat="48.47424" lon="-2.70393">
        <ele>72</ele>
        <time>2013-12-13T09:53:21Z</time>
      </trkpt>
      <trkpt lat="48.47425" lon="-2.7039">
        <ele>73</ele>
        <time>2013-12-13T09:53:23Z</time>
      </trkpt>
      <trkpt lat="48.47426" lon="-2.70386">
        <ele>73</ele>
        <time>2013-12-13T09:53:25Z</time>
      </trkpt>
      <trkpt lat="48.47427" lon="-2.70381">
        <ele>73</ele>
        <time>2013-12-13T09:53:27Z</time>
      </trkpt>
      <trkpt lat="48.47428" lon="-2.70377">
        <ele>73</ele>
        <time>2013-12-13T09:53:29Z</time>
      </trkpt>
      <trkpt lat="48.4743" lon="-2.70373">
        <ele>74</ele>
        <time>2013-12-13T09:53:31Z</time>
      </trkpt>
      <trkpt lat="48.4743" lon="-2.70369">
        <ele>74</ele>
        <time>2013-12-13T09:53:33Z</time>
      </trkpt>
      <trkpt lat="48.47431" lon="-2.70364">
        <ele>74</ele>
        <time>2013-12-13T09:53:35Z</time>
      </trkpt>
      <trkpt lat="48.47432" lon="-2.7036">
        <ele>75</ele>
        <time>2013-12-13T09:53:37Z</time>
      </trkpt>
      <trkpt lat="48.47433" lon="-2.70356">
        <ele>75</ele>
        <time>2013-12-13T09:53:39Z</time>
      </trkpt>
      <trkpt lat="48.47433" lon="-2.70352">
        <ele>76</ele>
        <time>2013-12-13T09:53:41Z</time>
      </trkpt>
      <trkpt lat="48.47434" lon="-2.70347">
        <ele>76</ele>
        <time>2013-12-13T09:53:43Z</time>
      </trkpt>
      <trkpt lat="48.47435" lon="-2.70342">
        <ele>76</ele>
        <time>2013-12-13T09:53:45Z</time>
      </trkpt>
      <trkpt lat="48.47436" lon="-2.70338">
        <ele>77</ele>
        <time>2013-12-13T09:53:47Z</time>
      </trkpt>
      <trkpt lat="48.47437" lon="-2.70334">
        <ele>77</ele>
        <time>2013-12-13T09:53:49Z</time>
      </trkpt>
      <trkpt lat="48.47438" lon="-2.70329">
        <ele>77</ele>
        <time>2013-12-13T09:53:51Z</time>
      </trkpt>
      <trkpt lat="48.47439" lon="-2.70324">
        <ele>77</ele>
        <time>2013-12-13T09:53:53Z</time>
      </trkpt>
      <trkpt lat="48.4744" lon="-2.70319">
        <ele>77</ele>
        <time>2013-12-13T09:53:55Z</time>
      </trkpt>
      <trkpt lat="48.4744" lon="-2.70314">
        <ele>77</ele>
        <time>2013-12-13T09:53:57Z</time>
      </trkpt>
      <trkpt lat="48.47441" lon="-2.70309">
        <ele>78</ele>
        <time>2013-12-13T09:53:59Z</time>
      </trkpt>
      <trkpt lat="48.47442" lon="-2.70305">
        <ele>78</ele>
        <time>2013-12-13T09:54:01Z</time>
      </trkpt>
      <trkpt lat="48.47443" lon="-2.703">
        <ele>78</ele>
        <time>2013-12-13T09:54:03Z</time>
      </trkpt>
      <trkpt lat="48.47443" lon="-2.70296">
        <ele>79</ele>
        <time>2013-12-13T09:54:05Z</time>
      </trkpt>
      <trkpt lat="48.47445" lon="-2.70292">
        <ele>79</ele>
        <time>2013-12-13T09:54:07Z</time>
      </trkpt>
      <trkpt lat="48.47446" lon="-2.70288">
        <ele>79</ele>
        <time>2013-12-13T09:54:09Z</time>
      </trkpt>
      <trkpt lat="48.47448" lon="-2.70283">
        <ele>79</ele>
        <time>2013-12-13T09:54:12Z</time>
      </trkpt>
      <trkpt lat="48.47449" lon="-2.70279">
        <ele>79</ele>
        <time>2013-12-13T09:54:14Z</time>
      </trkpt>
      <trkpt lat="48.47451" lon="-2.70274">
        <ele>80</ele>
        <time>2013-12-13T09:54:16Z</time>
      </trkpt>
      <trkpt lat="48.47452" lon="-2.70271">
        <ele>80</ele>
        <time>2013-12-13T09:54:18Z</time>
      </trkpt>
      <trkpt lat="48.47454" lon="-2.70267">
        <ele>80</ele>
        <time>2013-12-13T09:54:21Z</time>
      </trkpt>
      <trkpt lat="48.47458" lon="-2.70267">
        <ele>80</ele>
        <time>2013-12-13T09:54:23Z</time>
      </trkpt>
      <trkpt lat="48.47461" lon="-2.70271">
        <ele>80</ele>
        <time>2013-12-13T09:54:25Z</time>
      </trkpt>
      <trkpt lat="48.47462" lon="-2.70277">
        <ele>80</ele>
        <time>2013-12-13T09:54:27Z</time>
      </trkpt>
      <trkpt lat="48.47462" lon="-2.70283">
        <ele>80</ele>
        <time>2013-12-13T09:54:29Z</time>
      </trkpt>
      <trkpt lat="48.47462" lon="-2.70287">
        <ele>80</ele>
        <time>2013-12-13T09:54:31Z</time>
      </trkpt>
      <trkpt lat="48.47462" lon="-2.70292">
        <ele>80</ele>
        <time>2013-12-13T09:54:33Z</time>
      </trkpt>
      <trkpt lat="48.47462" lon="-2.70296">
        <ele>80</ele>
        <time>2013-12-13T09:54:35Z</time>
      </trkpt>
      <trkpt lat="48.47461" lon="-2.70301">
        <ele>80</ele>
        <time>2013-12-13T09:54:37Z</time>
      </trkpt>
      <trkpt lat="48.47461" lon="-2.70306">
        <ele>80</ele>
        <time>2013-12-13T09:54:39Z</time>
      </trkpt>
      <trkpt lat="48.4746" lon="-2.70311">
        <ele>80</ele>
        <time>2013-12-13T09:54:41Z</time>
      </trkpt>
      <trkpt lat="48.4746" lon="-2.70316">
        <ele>80</ele>
        <time>2013-12-13T09:54:43Z</time>
      </trkpt>
      <trkpt lat="48.47459" lon="-2.7032">
        <ele>80</ele>
        <time>2013-12-13T09:54:45Z</time>
      </trkpt>
      <trkpt lat="48.47458" lon="-2.70325">
        <ele>80</ele>
        <time>2013-12-13T09:54:47Z</time>
      </trkpt>
      <trkpt lat="48.47457" lon="-2.70331">
        <ele>80</ele>
        <time>2013-12-13T09:54:49Z</time>
      </trkpt>
      <trkpt lat="48.47456" lon="-2.70336">
        <ele>80</ele>
        <time>2013-12-13T09:54:51Z</time>
      </trkpt>
      <trkpt lat="48.47455" lon="-2.70341">
        <ele>80</ele>
        <time>2013-12-13T09:54:53Z</time>
      </trkpt>
      <trkpt lat="48.47454" lon="-2.70347">
        <ele>80</ele>
        <time>2013-12-13T09:54:55Z</time>
      </trkpt>
      <trkpt lat="48.47454" lon="-2.70352">
        <ele>80</ele>
        <time>2013-12-13T09:54:57Z</time>
      </trkpt>
      <trkpt lat="48.47453" lon="-2.70356">
        <ele>80</ele>
        <time>2013-12-13T09:54:59Z</time>
      </trkpt>
      <trkpt lat="48.47452" lon="-2.70361">
        <ele>80</ele>
        <time>2013-12-13T09:55:01Z</time>
      </trkpt>
      <trkpt lat="48.47452" lon="-2.70366">
        <ele>80</ele>
        <time>2013-12-13T09:55:03Z</time>
      </trkpt>
      <trkpt lat="48.47451" lon="-2.70371">
        <ele>80</ele>
        <time>2013-12-13T09:55:05Z</time>
      </trkpt>
      <trkpt lat="48.47451" lon="-2.70377">
        <ele>80</ele>
        <time>2013-12-13T09:55:07Z</time>
      </trkpt>
      <trkpt lat="48.47451" lon="-2.70382">
        <ele>80</ele>
        <time>2013-12-13T09:55:09Z</time>
      </trkpt>
      <trkpt lat="48.47451" lon="-2.70387">
        <ele>80</ele>
        <time>2013-12-13T09:55:11Z</time>
      </trkpt>
      <trkpt lat="48.47451" lon="-2.70393">
        <ele>80</ele>
        <time>2013-12-13T09:55:13Z</time>
      </trkpt>
      <trkpt lat="48.47453" lon="-2.70397">
        <ele>80</ele>
        <time>2013-12-13T09:55:15Z</time>
      </trkpt>
      <trkpt lat="48.47454" lon="-2.70402">
        <ele>80</ele>
        <time>2013-12-13T09:55:17Z</time>
      </trkpt>
      <trkpt lat="48.47457" lon="-2.70405">
        <ele>80</ele>
        <time>2013-12-13T09:55:19Z</time>
      </trkpt>
      <trkpt lat="48.47459" lon="-2.70408">
        <ele>80</ele>
        <time>2013-12-13T09:55:21Z</time>
      </trkpt>
      <trkpt lat="48.47462" lon="-2.7041">
        <ele>80</ele>
        <time>2013-12-13T09:55:23Z</time>
      </trkpt>
      <trkpt lat="48.47466" lon="-2.70412">
        <ele>80</ele>
        <time>2013-12-13T09:55:25Z</time>
      </trkpt>
      <trkpt lat="48.47469" lon="-2.70413">
        <ele>80</ele>
        <time>2013-12-13T09:55:27Z</time>
      </trkpt>
      <trkpt lat="48.47472" lon="-2.70414">
        <ele>80</ele>
        <time>2013-12-13T09:55:29Z</time>
      </trkpt>
      <trkpt lat="48.47475" lon="-2.70415">
        <ele>80</ele>
        <time>2013-12-13T09:55:31Z</time>
      </trkpt>
      <trkpt lat="48.47478" lon="-2.70416">
        <ele>80</ele>
        <time>2013-12-13T09:55:33Z</time>
      </trkpt>
      <trkpt lat="48.47481" lon="-2.70417">
        <ele>80</ele>
        <time>2013-12-13T09:55:35Z</time>
      </trkpt>
      <trkpt lat="48.47485" lon="-2.70419">
        <ele>80</ele>
        <time>2013-12-13T09:55:37Z</time>
      </trkpt>
      <trkpt lat="48.47488" lon="-2.7042">
        <ele>80</ele>
        <time>2013-12-13T09:55:39Z</time>
      </trkpt>
      <trkpt lat="48.47491" lon="-2.70421">
        <ele>80</ele>
        <time>2013-12-13T09:55:41Z</time>
      </trkpt>
      <trkpt lat="48.47494" lon="-2.70423">
        <ele>80</ele>
        <time>2013-12-13T09:55:43Z</time>
      </trkpt>
      <trkpt lat="48.47497" lon="-2.70424">
        <ele>80</ele>
        <time>2013-12-13T09:55:45Z</time>
      </trkpt>
      <trkpt lat="48.475" lon="-2.70425">
        <ele>80</ele>
        <time>2013-12-13T09:55:47Z</time>
      </trkpt>
      <trkpt lat="48.47503" lon="-2.70426">
        <ele>80</ele>
        <time>2013-12-13T09:55:49Z</time>
      </trkpt>
      <trkpt lat="48.47506" lon="-2.70428">
        <ele>80</ele>
        <time>2013-12-13T09:55:51Z</time>
      </trkpt>
      <trkpt lat="48.47509" lon="-2.70429">
        <ele>80</ele>
        <time>2013-12-13T09:55:53Z</time>
      </trkpt>
      <trkpt lat="48.47513" lon="-2.7043">
        <ele>80</ele>
        <time>2013-12-13T09:55:55Z</time>
      </trkpt>
      <trkpt lat="48.47516" lon="-2.70431">
        <ele>80</ele>
        <time>2013-12-13T09:55:57Z</time>
      </trkpt>
      <trkpt lat="48.47519" lon="-2.70432">
        <ele>80</ele>
        <time>2013-12-13T09:55:59Z</time>
      </trkpt>
      <trkpt lat="48.47522" lon="-2.70432">
        <ele>80</ele>
        <time>2013-12-13T09:56:01Z</time>
      </trkpt>
      <trkpt lat="48.47525" lon="-2.70433">
        <ele>80</ele>
        <time>2013-12-13T09:56:03Z</time>
      </trkpt>
      <trkpt lat="48.47528" lon="-2.70434">
        <ele>80</ele>
        <time>2013-12-13T09:56:05Z</time>
      </trkpt>
      <trkpt lat="48.47531" lon="-2.70435">
        <ele>80</ele>
        <time>2013-12-13T09:56:07Z</time>
      </trkpt>
      <trkpt lat="48.47535" lon="-2.70436">
        <ele>80</ele>
        <time>2013-12-13T09:56:09Z</time>
      </trkpt>
      <trkpt lat="48.47538" lon="-2.70437">
        <ele>80</ele>
        <time>2013-12-13T09:56:11Z</time>
      </trkpt>
      <trkpt lat="48.47542" lon="-2.70438">
        <ele>80</ele>
        <time>2013-12-13T09:56:13Z</time>
      </trkpt>
      <trkpt lat="48.47545" lon="-2.70439">
        <ele>80</ele>
        <time>2013-12-13T09:56:15Z</time>
      </trkpt>
      <trkpt lat="48.47549" lon="-2.70439">
        <ele>80</ele>
        <time>2013-12-13T09:56:17Z</time>
      </trkpt>
      <trkpt lat="48.47551" lon="-2.70439">
        <ele>80</ele>
        <time>2013-12-13T09:56:19Z</time>
      </trkpt>
      <trkpt lat="48.47555" lon="-2.7044">
        <ele>80</ele>
        <time>2013-12-13T09:56:21Z</time>
      </trkpt>
      <trkpt lat="48.47558" lon="-2.7044">
        <ele>80</ele>
        <time>2013-12-13T09:56:23Z</time>
      </trkpt>
      <trkpt lat="48.47561" lon="-2.7044">
        <ele>80</ele>
        <time>2013-12-13T09:56:25Z</time>
      </trkpt>
      <trkpt lat="48.47563" lon="-2.70441">
        <ele>80</ele>
        <time>2013-12-13T09:56:27Z</time>
      </trkpt>
      <trkpt lat="48.47565" lon="-2.70443">
        <ele>80</ele>
        <time>2013-12-13T09:56:29Z</time>
      </trkpt>
      <trkpt lat="48.47566" lon="-2.70445">
        <ele>80</ele>
        <time>2013-12-13T09:56:31Z</time>
      </trkpt>
      <trkpt lat="48.47567" lon="-2.70448">
        <ele>80</ele>
        <time>2013-12-13T09:56:33Z</time>
      </trkpt>
      <trkpt lat="48.47567" lon="-2.7045">
        <ele>80</ele>
        <time>2013-12-13T09:56:35Z</time>
      </trkpt>
      <trkpt lat="48.47567" lon="-2.70452">
        <ele>80</ele>
        <time>2013-12-13T09:56:37Z</time>
      </trkpt>
      <trkpt lat="48.47567" lon="-2.70454">
        <ele>81</ele>
        <time>2013-12-13T09:56:39Z</time>
      </trkpt>
      <trkpt lat="48.47567" lon="-2.70456">
        <ele>81</ele>
        <time>2013-12-13T09:56:41Z</time>
      </trkpt>
      <trkpt lat="48.47567" lon="-2.70457">
        <ele>82</ele>
        <time>2013-12-13T09:56:43Z</time>
      </trkpt>
      <trkpt lat="48.47567" lon="-2.7046">
        <ele>82</ele>
        <time>2013-12-13T09:56:45Z</time>
      </trkpt>
      <trkpt lat="48.47567" lon="-2.70462">
        <ele>82</ele>
        <time>2013-12-13T09:56:47Z</time>
      </trkpt>
      <trkpt lat="48.47567" lon="-2.70465">
        <ele>82</ele>
        <time>2013-12-13T09:56:49Z</time>
      </trkpt>
      <trkpt lat="48.47566" lon="-2.70468">
        <ele>82</ele>
        <time>2013-12-13T09:56:51Z</time>
      </trkpt>
      <trkpt lat="48.47565" lon="-2.70472">
        <ele>82</ele>
        <time>2013-12-13T09:56:53Z</time>
      </trkpt>
      <trkpt lat="48.47565" lon="-2.70476">
        <ele>82</ele>
        <time>2013-12-13T09:56:56Z</time>
      </trkpt>
      <trkpt lat="48.47564" lon="-2.70479">
        <ele>82</ele>
        <time>2013-12-13T09:56:58Z</time>
      </trkpt>
      <trkpt lat="48.47563" lon="-2.70482">
        <ele>82</ele>
        <time>2013-12-13T09:57:00Z</time>
      </trkpt>
      <trkpt lat="48.47563" lon="-2.70485">
        <ele>82</ele>
        <time>2013-12-13T09:57:02Z</time>
      </trkpt>
      <trkpt lat="48.47562" lon="-2.70489">
        <ele>82</ele>
        <time>2013-12-13T09:57:04Z</time>
      </trkpt>
      <trkpt lat="48.47562" lon="-2.70492">
        <ele>82</ele>
        <time>2013-12-13T09:57:06Z</time>
      </trkpt>
      <trkpt lat="48.47562" lon="-2.70495">
        <ele>82</ele>
        <time>2013-12-13T09:57:08Z</time>
      </trkpt>
      <trkpt lat="48.47562" lon="-2.70499">
        <ele>82</ele>
        <time>2013-12-13T09:57:10Z</time>
      </trkpt>
      <trkpt lat="48.47562" lon="-2.70503">
        <ele>82</ele>
        <time>2013-12-13T09:57:12Z</time>
      </trkpt>
      <trkpt lat="48.47562" lon="-2.70507">
        <ele>82</ele>
        <time>2013-12-13T09:57:14Z</time>
      </trkpt>
      <trkpt lat="48.47561" lon="-2.7051">
        <ele>82</ele>
        <time>2013-12-13T09:57:16Z</time>
      </trkpt>
      <trkpt lat="48.47561" lon="-2.70514">
        <ele>83</ele>
        <time>2013-12-13T09:57:18Z</time>
      </trkpt>
      <trkpt lat="48.47561" lon="-2.70518">
        <ele>83</ele>
        <time>2013-12-13T09:57:20Z</time>
      </trkpt>
      <trkpt lat="48.4756" lon="-2.70522">
        <ele>84</ele>
        <time>2013-12-13T09:57:22Z</time>
      </trkpt>
      <trkpt lat="48.4756" lon="-2.70526">
        <ele>84</ele>
        <time>2013-12-13T09:57:24Z</time>
      </trkpt>
      <trkpt lat="48.4756" lon="-2.7053">
        <ele>84</ele>
        <time>2013-12-13T09:57:26Z</time>
      </trkpt>
      <trkpt lat="48.47559" lon="-2.70534">
        <ele>84</ele>
        <time>2013-12-13T09:57:28Z</time>
      </trkpt>
      <trkpt lat="48.47559" lon="-2.70538">
        <ele>85</ele>
        <time>2013-12-13T09:57:30Z</time>
      </trkpt>
      <trkpt lat="48.47559" lon="-2.70542">
        <ele>85</ele>
        <time>2013-12-13T09:57:32Z</time>
      </trkpt>
      <trkpt lat="48.47559" lon="-2.70546">
        <ele>85</ele>
        <time>2013-12-13T09:57:34Z</time>
      </trkpt>
      <trkpt lat="48.47558" lon="-2.7055">
        <ele>85</ele>
        <time>2013-12-13T09:57:36Z</time>
      </trkpt>
      <trkpt lat="48.47558" lon="-2.70554">
        <ele>86</ele>
        <time>2013-12-13T09:57:38Z</time>
      </trkpt>
      <trkpt lat="48.47557" lon="-2.70558">
        <ele>86</ele>
        <time>2013-12-13T09:57:40Z</time>
      </trkpt>
      <trkpt lat="48.47557" lon="-2.70562">
        <ele>87</ele>
        <time>2013-12-13T09:57:42Z</time>
      </trkpt>
      <trkpt lat="48.47556" lon="-2.70566">
        <ele>87</ele>
        <time>2013-12-13T09:57:44Z</time>
      </trkpt>
      <trkpt lat="48.47555" lon="-2.7057">
        <ele>87</ele>
        <time>2013-12-13T09:57:46Z</time>
      </trkpt>
      <trkpt lat="48.47554" lon="-2.70574">
        <ele>87</ele>
        <time>2013-12-13T09:57:48Z</time>
      </trkpt>
      <trkpt lat="48.47554" lon="-2.70578">
        <ele>87</ele>
        <time>2013-12-13T09:57:50Z</time>
      </trkpt>
      <trkpt lat="48.47554" lon="-2.70583">
        <ele>87</ele>
        <time>2013-12-13T09:57:52Z</time>
      </trkpt>
      <trkpt lat="48.47553" lon="-2.70586">
        <ele>87</ele>
        <time>2013-12-13T09:57:54Z</time>
      </trkpt>
      <trkpt lat="48.47552" lon="-2.7059">
        <ele>87</ele>
        <time>2013-12-13T09:57:56Z</time>
      </trkpt>
      <trkpt lat="48.47551" lon="-2.70595">
        <ele>87</ele>
        <time>2013-12-13T09:57:58Z</time>
      </trkpt>
      <trkpt lat="48.47551" lon="-2.70598">
        <ele>87</ele>
        <time>2013-12-13T09:58:00Z</time>
      </trkpt>
      <trkpt lat="48.4755" lon="-2.70602">
        <ele>87</ele>
        <time>2013-12-13T09:58:02Z</time>
      </trkpt>
      <trkpt lat="48.4755" lon="-2.70606">
        <ele>87</ele>
        <time>2013-12-13T09:58:04Z</time>
      </trkpt>
      <trkpt lat="48.4755" lon="-2.70608">
        <ele>87</ele>
        <time>2013-12-13T09:58:06Z</time>
      </trkpt>
      <trkpt lat="48.4755" lon="-2.70611">
        <ele>87</ele>
        <time>2013-12-13T09:58:08Z</time>
      </trkpt>
      <trkpt lat="48.47551" lon="-2.70614">
        <ele>87</ele>
        <time>2013-12-13T09:58:10Z</time>
      </trkpt>
      <trkpt lat="48.47551" lon="-2.70618">
        <ele>87</ele>
        <time>2013-12-13T09:58:12Z</time>
      </trkpt>
      <trkpt lat="48.47551" lon="-2.70621">
        <ele>88</ele>
        <time>2013-12-13T09:58:14Z</time>
      </trkpt>
      <trkpt lat="48.47552" lon="-2.70624">
        <ele>88</ele>
        <time>2013-12-13T09:58:16Z</time>
      </trkpt>
      <trkpt lat="48.47553" lon="-2.70628">
        <ele>88</ele>
        <time>2013-12-13T09:58:19Z</time>
      </trkpt>
      <trkpt lat="48.47554" lon="-2.70633">
        <ele>88</ele>
        <time>2013-12-13T09:58:22Z</time>
      </trkpt>
      <trkpt lat="48.47556" lon="-2.70636">
        <ele>88</ele>
        <time>2013-12-13T09:58:24Z</time>
      </trkpt>
      <trkpt lat="48.47557" lon="-2.70638">
        <ele>88</ele>
        <time>2013-12-13T09:58:26Z</time>
      </trkpt>
      <trkpt lat="48.47558" lon="-2.70641">
        <ele>88</ele>
        <time>2013-12-13T09:58:28Z</time>
      </trkpt>
      <trkpt lat="48.47559" lon="-2.70644">
        <ele>88</ele>
        <time>2013-12-13T09:58:30Z</time>
      </trkpt>
      <trkpt lat="48.47561" lon="-2.70646">
        <ele>88</ele>
        <time>2013-12-13T09:58:32Z</time>
      </trkpt>
      <trkpt lat="48.47562" lon="-2.70649">
        <ele>88</ele>
        <time>2013-12-13T09:58:34Z</time>
      </trkpt>
      <trkpt lat="48.47564" lon="-2.70651">
        <ele>88</ele>
        <time>2013-12-13T09:58:36Z</time>
      </trkpt>
      <trkpt lat="48.47565" lon="-2.70653">
        <ele>88</ele>
        <time>2013-12-13T09:58:38Z</time>
      </trkpt>
      <trkpt lat="48.47567" lon="-2.70654">
        <ele>88</ele>
        <time>2013-12-13T09:58:43Z</time>
      </trkpt>
      <trkpt lat="48.47568" lon="-2.70655">
        <ele>88</ele>
        <time>2013-12-13T09:58:50Z</time>
      </trkpt>
      <trkpt lat="48.47569" lon="-2.70657">
        <ele>89</ele>
        <time>2013-12-13T09:58:52Z</time>
      </trkpt>
      <trkpt lat="48.4757" lon="-2.7066">
        <ele>89</ele>
        <time>2013-12-13T09:58:54Z</time>
      </trkpt>
      <trkpt lat="48.47573" lon="-2.70663">
        <ele>89</ele>
        <time>2013-12-13T09:58:56Z</time>
      </trkpt>
      <trkpt lat="48.47576" lon="-2.70665">
        <ele>89</ele>
        <time>2013-12-13T09:58:58Z</time>
      </trkpt>
      <trkpt lat="48.47578" lon="-2.70668">
        <ele>89</ele>
        <time>2013-12-13T09:59:00Z</time>
      </trkpt>
      <trkpt lat="48.4758" lon="-2.70671">
        <ele>89</ele>
        <time>2013-12-13T09:59:02Z</time>
      </trkpt>
      <trkpt lat="48.47581" lon="-2.70674">
        <ele>89</ele>
        <time>2013-12-13T09:59:04Z</time>
      </trkpt>
      <trkpt lat="48.47583" lon="-2.70677">
        <ele>89</ele>
        <time>2013-12-13T09:59:06Z</time>
      </trkpt>
      <trkpt lat="48.47584" lon="-2.70679">
        <ele>89</ele>
        <time>2013-12-13T09:59:08Z</time>
      </trkpt>
      <trkpt lat="48.47586" lon="-2.70681">
        <ele>89</ele>
        <time>2013-12-13T09:59:10Z</time>
      </trkpt>
      <trkpt lat="48.47588" lon="-2.70684">
        <ele>89</ele>
        <time>2013-12-13T09:59:12Z</time>
      </trkpt>
      <trkpt lat="48.4759" lon="-2.70687">
        <ele>89</ele>
        <time>2013-12-13T09:59:14Z</time>
      </trkpt>
      <trkpt lat="48.47592" lon="-2.7069">
        <ele>89</ele>
        <time>2013-12-13T09:59:16Z</time>
      </trkpt>
      <trkpt lat="48.47594" lon="-2.70692">
        <ele>89</ele>
        <time>2013-12-13T09:59:18Z</time>
      </trkpt>
      <trkpt lat="48.47596" lon="-2.70695">
        <ele>89</ele>
        <time>2013-12-13T09:59:20Z</time>
      </trkpt>
      <trkpt lat="48.47598" lon="-2.70698">
        <ele>89</ele>
        <time>2013-12-13T09:59:22Z</time>
      </trkpt>
      <trkpt lat="48.47599" lon="-2.70701">
        <ele>89</ele>
        <time>2013-12-13T09:59:24Z</time>
      </trkpt>
      <trkpt lat="48.47602" lon="-2.70704">
        <ele>89</ele>
        <time>2013-12-13T09:59:26Z</time>
      </trkpt>
      <trkpt lat="48.47605" lon="-2.70708">
        <ele>89</ele>
        <time>2013-12-13T09:59:29Z</time>
      </trkpt>
      <trkpt lat="48.47607" lon="-2.7071">
        <ele>89</ele>
        <time>2013-12-13T09:59:31Z</time>
      </trkpt>
      <trkpt lat="48.47609" lon="-2.70713">
        <ele>89</ele>
        <time>2013-12-13T09:59:33Z</time>
      </trkpt>
      <trkpt lat="48.47611" lon="-2.70716">
        <ele>89</ele>
        <time>2013-12-13T09:59:35Z</time>
      </trkpt>
      <trkpt lat="48.47613" lon="-2.70719">
        <ele>89</ele>
        <time>2013-12-13T09:59:37Z</time>
      </trkpt>
      <trkpt lat="48.47616" lon="-2.70722">
        <ele>89</ele>
        <time>2013-12-13T09:59:39Z</time>
      </trkpt>
      <trkpt lat="48.47618" lon="-2.70724">
        <ele>89</ele>
        <time>2013-12-13T09:59:41Z</time>
      </trkpt>
      <trkpt lat="48.47621" lon="-2.70727">
        <ele>89</ele>
        <time>2013-12-13T09:59:43Z</time>
      </trkpt>
      <trkpt lat="48.47624" lon="-2.7073">
        <ele>89</ele>
        <time>2013-12-13T09:59:46Z</time>
      </trkpt>
      <trkpt lat="48.47625" lon="-2.70732">
        <ele>89</ele>
        <time>2013-12-13T09:59:48Z</time>
      </trkpt>
      <trkpt lat="48.47626" lon="-2.70735">
        <ele>89</ele>
        <time>2013-12-13T09:59:50Z</time>
      </trkpt>
      <trkpt lat="48.47628" lon="-2.70737">
        <ele>89</ele>
        <time>2013-12-13T09:59:52Z</time>
      </trkpt>
      <trkpt lat="48.4763" lon="-2.7074">
        <ele>89</ele>
        <time>2013-12-13T09:59:54Z</time>
      </trkpt>
      <trkpt lat="48.47632" lon="-2.70743">
        <ele>89</ele>
        <time>2013-12-13T09:59:56Z</time>
      </trkpt>
      <trkpt lat="48.47635" lon="-2.70746">
        <ele>89</ele>
        <time>2013-12-13T09:59:58Z</time>
      </trkpt>
      <trkpt lat="48.47637" lon="-2.70748">
        <ele>89</ele>
        <time>2013-12-13T10:00:00Z</time>
      </trkpt>
      <trkpt lat="48.47639" lon="-2.70752">
        <ele>89</ele>
        <time>2013-12-13T10:00:02Z</time>
      </trkpt>
      <trkpt lat="48.47641" lon="-2.70754">
        <ele>89</ele>
        <time>2013-12-13T10:00:04Z</time>
      </trkpt>
      <trkpt lat="48.47643" lon="-2.70757">
        <ele>89</ele>
        <time>2013-12-13T10:00:06Z</time>
      </trkpt>
      <trkpt lat="48.47645" lon="-2.7076">
        <ele>89</ele>
        <time>2013-12-13T10:00:08Z</time>
      </trkpt>
      <trkpt lat="48.47647" lon="-2.70762">
        <ele>89</ele>
        <time>2013-12-13T10:00:10Z</time>
      </trkpt>
      <trkpt lat="48.47649" lon="-2.70765">
        <ele>89</ele>
        <time>2013-12-13T10:00:12Z</time>
      </trkpt>
      <trkpt lat="48.47651" lon="-2.70767">
        <ele>89</ele>
        <time>2013-12-13T10:00:14Z</time>
      </trkpt>
      <trkpt lat="48.47653" lon="-2.7077">
        <ele>89</ele>
        <time>2013-12-13T10:00:16Z</time>
      </trkpt>
      <trkpt lat="48.47656" lon="-2.70774">
        <ele>89</ele>
        <time>2013-12-13T10:00:19Z</time>
      </trkpt>
      <trkpt lat="48.47658" lon="-2.70777">
        <ele>89</ele>
        <time>2013-12-13T10:00:21Z</time>
      </trkpt>
      <trkpt lat="48.4766" lon="-2.70779">
        <ele>89</ele>
        <time>2013-12-13T10:00:23Z</time>
      </trkpt>
      <trkpt lat="48.47662" lon="-2.70782">
        <ele>89</ele>
        <time>2013-12-13T10:00:25Z</time>
      </trkpt>
      <trkpt lat="48.47665" lon="-2.70786">
        <ele>89</ele>
        <time>2013-12-13T10:00:28Z</time>
      </trkpt>
      <trkpt lat="48.47667" lon="-2.70789">
        <ele>89</ele>
        <time>2013-12-13T10:00:30Z</time>
      </trkpt>
      <trkpt lat="48.47668" lon="-2.70792">
        <ele>89</ele>
        <time>2013-12-13T10:00:32Z</time>
      </trkpt>
      <trkpt lat="48.47672" lon="-2.70796">
        <ele>89</ele>
        <time>2013-12-13T10:00:35Z</time>
      </trkpt>
      <trkpt lat="48.47673" lon="-2.70798">
        <ele>89</ele>
        <time>2013-12-13T10:00:37Z</time>
      </trkpt>
      <trkpt lat="48.47675" lon="-2.70801">
        <ele>89</ele>
        <time>2013-12-13T10:00:39Z</time>
      </trkpt>
      <trkpt lat="48.47677" lon="-2.70804">
        <ele>89</ele>
        <time>2013-12-13T10:00:41Z</time>
      </trkpt>
      <trkpt lat="48.4768" lon="-2.70806">
        <ele>89</ele>
        <time>2013-12-13T10:00:43Z</time>
      </trkpt>
      <trkpt lat="48.47682" lon="-2.70808">
        <ele>91</ele>
        <time>2013-12-13T10:00:45Z</time>
      </trkpt>
      <trkpt lat="48.47684" lon="-2.7081">
        <ele>92</ele>
        <time>2013-12-13T10:00:47Z</time>
      </trkpt>
      <trkpt lat="48.47688" lon="-2.70813">
        <ele>92</ele>
        <time>2013-12-13T10:00:50Z</time>
      </trkpt>
      <trkpt lat="48.4769" lon="-2.70817">
        <ele>93</ele>
        <time>2013-12-13T10:00:53Z</time>
      </trkpt>
      <trkpt lat="48.47692" lon="-2.70819">
        <ele>94</ele>
        <time>2013-12-13T10:00:55Z</time>
      </trkpt>
      <trkpt lat="48.47694" lon="-2.70822">
        <ele>94</ele>
        <time>2013-12-13T10:00:57Z</time>
      </trkpt>
      <trkpt lat="48.47696" lon="-2.70825">
        <ele>94</ele>
        <time>2013-12-13T10:00:59Z</time>
      </trkpt>
      <trkpt lat="48.47697" lon="-2.70828">
        <ele>94</ele>
        <time>2013-12-13T10:01:01Z</time>
      </trkpt>
      <trkpt lat="48.47699" lon="-2.7083">
        <ele>94</ele>
        <time>2013-12-13T10:01:03Z</time>
      </trkpt>
      <trkpt lat="48.47701" lon="-2.70833">
        <ele>94</ele>
        <time>2013-12-13T10:01:05Z</time>
      </trkpt>
      <trkpt lat="48.47703" lon="-2.70835">
        <ele>94</ele>
        <time>2013-12-13T10:01:07Z</time>
      </trkpt>
      <trkpt lat="48.47705" lon="-2.70837">
        <ele>94</ele>
        <time>2013-12-13T10:01:09Z</time>
      </trkpt>
      <trkpt lat="48.47707" lon="-2.70839">
        <ele>94</ele>
        <time>2013-12-13T10:01:11Z</time>
      </trkpt>
      <trkpt lat="48.47709" lon="-2.70841">
        <ele>94</ele>
        <time>2013-12-13T10:01:13Z</time>
      </trkpt>
      <trkpt lat="48.4771" lon="-2.70844">
        <ele>94</ele>
        <time>2013-12-13T10:01:15Z</time>
      </trkpt>
      <trkpt lat="48.47714" lon="-2.70848">
        <ele>94</ele>
        <time>2013-12-13T10:01:18Z</time>
      </trkpt>
      <trkpt lat="48.47716" lon="-2.7085">
        <ele>94</ele>
        <time>2013-12-13T10:01:20Z</time>
      </trkpt>
      <trkpt lat="48.47719" lon="-2.70854">
        <ele>94</ele>
        <time>2013-12-13T10:01:23Z</time>
      </trkpt>
      <trkpt lat="48.47721" lon="-2.70856">
        <ele>94</ele>
        <time>2013-12-13T10:01:25Z</time>
      </trkpt>
      <trkpt lat="48.47723" lon="-2.70859">
        <ele>94</ele>
        <time>2013-12-13T10:01:27Z</time>
      </trkpt>
      <trkpt lat="48.47725" lon="-2.70862">
        <ele>94</ele>
        <time>2013-12-13T10:01:29Z</time>
      </trkpt>
      <trkpt lat="48.47727" lon="-2.70864">
        <ele>94</ele>
        <time>2013-12-13T10:01:31Z</time>
      </trkpt>
      <trkpt lat="48.47729" lon="-2.70866">
        <ele>94</ele>
        <time>2013-12-13T10:01:33Z</time>
      </trkpt>
      <trkpt lat="48.47731" lon="-2.70869">
        <ele>94</ele>
        <time>2013-12-13T10:01:35Z</time>
      </trkpt>
      <trkpt lat="48.47733" lon="-2.70871">
        <ele>94</ele>
        <time>2013-12-13T10:01:37Z</time>
      </trkpt>
      <trkpt lat="48.47735" lon="-2.70874">
        <ele>94</ele>
        <time>2013-12-13T10:01:39Z</time>
      </trkpt>
      <trkpt lat="48.47737" lon="-2.70877">
        <ele>94</ele>
        <time>2013-12-13T10:01:41Z</time>
      </trkpt>
      <trkpt lat="48.47741" lon="-2.70881">
        <ele>94</ele>
        <time>2013-12-13T10:01:44Z</time>
      </trkpt>
      <trkpt lat="48.47742" lon="-2.70883">
        <ele>94</ele>
        <time>2013-12-13T10:01:46Z</time>
      </trkpt>
      <trkpt lat="48.47744" lon="-2.70886">
        <ele>94</ele>
        <time>2013-12-13T10:01:48Z</time>
      </trkpt>
      <trkpt lat="48.47747" lon="-2.70888">
        <ele>94</ele>
        <time>2013-12-13T10:01:50Z</time>
      </trkpt>
      <trkpt lat="48.47749" lon="-2.70891">
        <ele>94</ele>
        <time>2013-12-13T10:01:52Z</time>
      </trkpt>
      <trkpt lat="48.47752" lon="-2.70893">
        <ele>94</ele>
        <time>2013-12-13T10:01:54Z</time>
      </trkpt>
      <trkpt lat="48.47754" lon="-2.70895">
        <ele>94</ele>
        <time>2013-12-13T10:01:56Z</time>
      </trkpt>
      <trkpt lat="48.47757" lon="-2.70898">
        <ele>94</ele>
        <time>2013-12-13T10:01:58Z</time>
      </trkpt>
      <trkpt lat="48.47759" lon="-2.709">
        <ele>94</ele>
        <time>2013-12-13T10:02:00Z</time>
      </trkpt>
      <trkpt lat="48.47762" lon="-2.70903">
        <ele>94</ele>
        <time>2013-12-13T10:02:02Z</time>
      </trkpt>
      <trkpt lat="48.47764" lon="-2.70905">
        <ele>94</ele>
        <time>2013-12-13T10:02:04Z</time>
      </trkpt>
      <trkpt lat="48.47767" lon="-2.70907">
        <ele>94</ele>
        <time>2013-12-13T10:02:06Z</time>
      </trkpt>
      <trkpt lat="48.4777" lon="-2.70909">
        <ele>94</ele>
        <time>2013-12-13T10:02:08Z</time>
      </trkpt>
      <trkpt lat="48.47772" lon="-2.70912">
        <ele>94</ele>
        <time>2013-12-13T10:02:10Z</time>
      </trkpt>
      <trkpt lat="48.47775" lon="-2.70914">
        <ele>94</ele>
        <time>2013-12-13T10:02:12Z</time>
      </trkpt>
      <trkpt lat="48.47777" lon="-2.70916">
        <ele>94</ele>
        <time>2013-12-13T10:02:14Z</time>
      </trkpt>
      <trkpt lat="48.47781" lon="-2.70919">
        <ele>94</ele>
        <time>2013-12-13T10:02:17Z</time>
      </trkpt>
      <trkpt lat="48.47784" lon="-2.70922">
        <ele>94</ele>
        <time>2013-12-13T10:02:20Z</time>
      </trkpt>
      <trkpt lat="48.47786" lon="-2.70923">
        <ele>94</ele>
        <time>2013-12-13T10:02:22Z</time>
      </trkpt>
      <trkpt lat="48.47788" lon="-2.70925">
        <ele>95</ele>
        <time>2013-12-13T10:02:24Z</time>
      </trkpt>
      <trkpt lat="48.4779" lon="-2.70928">
        <ele>95</ele>
        <time>2013-12-13T10:02:27Z</time>
      </trkpt>
      <trkpt lat="48.47792" lon="-2.70929">
        <ele>95</ele>
        <time>2013-12-13T10:02:29Z</time>
      </trkpt>
      <trkpt lat="48.47795" lon="-2.70932">
        <ele>96</ele>
        <time>2013-12-13T10:02:32Z</time>
      </trkpt>
      <trkpt lat="48.47797" lon="-2.70934">
        <ele>96</ele>
        <time>2013-12-13T10:02:34Z</time>
      </trkpt>
      <trkpt lat="48.47799" lon="-2.70936">
        <ele>96</ele>
        <time>2013-12-13T10:02:36Z</time>
      </trkpt>
      <trkpt lat="48.47803" lon="-2.70939">
        <ele>96</ele>
        <time>2013-12-13T10:02:39Z</time>
      </trkpt>
      <trkpt lat="48.47805" lon="-2.7094">
        <ele>96</ele>
        <time>2013-12-13T10:02:41Z</time>
      </trkpt>
      <trkpt lat="48.47807" lon="-2.70942">
        <ele>96</ele>
        <time>2013-12-13T10:02:43Z</time>
      </trkpt>
      <trkpt lat="48.47809" lon="-2.70944">
        <ele>96</ele>
        <time>2013-12-13T10:02:45Z</time>
      </trkpt>
      <trkpt lat="48.47811" lon="-2.70946">
        <ele>96</ele>
        <time>2013-12-13T10:02:47Z</time>
      </trkpt>
      <trkpt lat="48.47814" lon="-2.70948">
        <ele>96</ele>
        <time>2013-12-13T10:02:49Z</time>
      </trkpt>
      <trkpt lat="48.47816" lon="-2.7095">
        <ele>96</ele>
        <time>2013-12-13T10:02:51Z</time>
      </trkpt>
      <trkpt lat="48.47819" lon="-2.70952">
        <ele>96</ele>
        <time>2013-12-13T10:02:53Z</time>
      </trkpt>
      <trkpt lat="48.47822" lon="-2.70955">
        <ele>97</ele>
        <time>2013-12-13T10:02:56Z</time>
      </trkpt>
      <trkpt lat="48.47824" lon="-2.70957">
        <ele>97</ele>
        <time>2013-12-13T10:02:58Z</time>
      </trkpt>
      <trkpt lat="48.47827" lon="-2.70958">
        <ele>97</ele>
        <time>2013-12-13T10:03:00Z</time>
      </trkpt>
      <trkpt lat="48.47829" lon="-2.7096">
        <ele>97</ele>
        <time>2013-12-13T10:03:02Z</time>
      </trkpt>
      <trkpt lat="48.47832" lon="-2.70965">
        <ele>97</ele>
        <time>2013-12-13T10:03:05Z</time>
      </trkpt>
      <trkpt lat="48.47834" lon="-2.70967">
        <ele>97</ele>
        <time>2013-12-13T10:03:07Z</time>
      </trkpt>
      <trkpt lat="48.47837" lon="-2.7097">
        <ele>97</ele>
        <time>2013-12-13T10:03:09Z</time>
      </trkpt>
      <trkpt lat="48.47839" lon="-2.70972">
        <ele>97</ele>
        <time>2013-12-13T10:03:11Z</time>
      </trkpt>
      <trkpt lat="48.47841" lon="-2.70974">
        <ele>97</ele>
        <time>2013-12-13T10:03:13Z</time>
      </trkpt>
      <trkpt lat="48.47844" lon="-2.70978">
        <ele>97</ele>
        <time>2013-12-13T10:03:16Z</time>
      </trkpt>
      <trkpt lat="48.47847" lon="-2.7098">
        <ele>97</ele>
        <time>2013-12-13T10:03:18Z</time>
      </trkpt>
      <trkpt lat="48.47849" lon="-2.70982">
        <ele>97</ele>
        <time>2013-12-13T10:03:20Z</time>
      </trkpt>
      <trkpt lat="48.47851" lon="-2.70985">
        <ele>97</ele>
        <time>2013-12-13T10:03:22Z</time>
      </trkpt>
      <trkpt lat="48.47853" lon="-2.70988">
        <ele>97</ele>
        <time>2013-12-13T10:03:24Z</time>
      </trkpt>
      <trkpt lat="48.47855" lon="-2.70991">
        <ele>97</ele>
        <time>2013-12-13T10:03:26Z</time>
      </trkpt>
      <trkpt lat="48.47859" lon="-2.70995">
        <ele>98</ele>
        <time>2013-12-13T10:03:29Z</time>
      </trkpt>
      <trkpt lat="48.47861" lon="-2.70997">
        <ele>98</ele>
        <time>2013-12-13T10:03:31Z</time>
      </trkpt>
      <trkpt lat="48.47863" lon="-2.71">
        <ele>98</ele>
        <time>2013-12-13T10:03:33Z</time>
      </trkpt>
      <trkpt lat="48.47866" lon="-2.71002">
        <ele>98</ele>
        <time>2013-12-13T10:03:35Z</time>
      </trkpt>
      <trkpt lat="48.47868" lon="-2.71004">
        <ele>98</ele>
        <time>2013-12-13T10:03:37Z</time>
      </trkpt>
      <trkpt lat="48.4787" lon="-2.71006">
        <ele>98</ele>
        <time>2013-12-13T10:03:39Z</time>
      </trkpt>
      <trkpt lat="48.47872" lon="-2.71008">
        <ele>98</ele>
        <time>2013-12-13T10:03:41Z</time>
      </trkpt>
      <trkpt lat="48.47874" lon="-2.7101">
        <ele>98</ele>
        <time>2013-12-13T10:03:43Z</time>
      </trkpt>
      <trkpt lat="48.47877" lon="-2.71013">
        <ele>98</ele>
        <time>2013-12-13T10:03:45Z</time>
      </trkpt>
      <trkpt lat="48.47879" lon="-2.71016">
        <ele>98</ele>
        <time>2013-12-13T10:03:47Z</time>
      </trkpt>
      <trkpt lat="48.47882" lon="-2.7102">
        <ele>98</ele>
        <time>2013-12-13T10:03:49Z</time>
      </trkpt>
      <trkpt lat="48.47883" lon="-2.71023">
        <ele>98</ele>
        <time>2013-12-13T10:03:51Z</time>
      </trkpt>
      <trkpt lat="48.47884" lon="-2.71027">
        <ele>98</ele>
        <time>2013-12-13T10:03:53Z</time>
      </trkpt>
      <trkpt lat="48.47885" lon="-2.7103">
        <ele>98</ele>
        <time>2013-12-13T10:03:55Z</time>
      </trkpt>
      <trkpt lat="48.47886" lon="-2.71034">
        <ele>98</ele>
        <time>2013-12-13T10:03:57Z</time>
      </trkpt>
      <trkpt lat="48.47887" lon="-2.71038">
        <ele>98</ele>
        <time>2013-12-13T10:03:59Z</time>
      </trkpt>
      <trkpt lat="48.4789" lon="-2.71044">
        <ele>98</ele>
        <time>2013-12-13T10:04:03Z</time>
      </trkpt>
      <trkpt lat="48.47891" lon="-2.71047">
        <ele>98</ele>
        <time>2013-12-13T10:04:05Z</time>
      </trkpt>
      <trkpt lat="48.47892" lon="-2.7105">
        <ele>98</ele>
        <time>2013-12-13T10:04:07Z</time>
      </trkpt>
      <trkpt lat="48.47893" lon="-2.71053">
        <ele>98</ele>
        <time>2013-12-13T10:04:09Z</time>
      </trkpt>
      <trkpt lat="48.47895" lon="-2.71056">
        <ele>98</ele>
        <time>2013-12-13T10:04:11Z</time>
      </trkpt>
      <trkpt lat="48.47897" lon="-2.71059">
        <ele>98</ele>
        <time>2013-12-13T10:04:13Z</time>
      </trkpt>
      <trkpt lat="48.47898" lon="-2.71063">
        <ele>98</ele>
        <time>2013-12-13T10:04:15Z</time>
      </trkpt>
      <trkpt lat="48.47899" lon="-2.71066">
        <ele>98</ele>
        <time>2013-12-13T10:04:17Z</time>
      </trkpt>
      <trkpt lat="48.47901" lon="-2.7107">
        <ele>98</ele>
        <time>2013-12-13T10:04:19Z</time>
      </trkpt>
      <trkpt lat="48.47902" lon="-2.71074">
        <ele>98</ele>
        <time>2013-12-13T10:04:21Z</time>
      </trkpt>
      <trkpt lat="48.47903" lon="-2.71078">
        <ele>98</ele>
        <time>2013-12-13T10:04:23Z</time>
      </trkpt>
      <trkpt lat="48.47905" lon="-2.71081">
        <ele>98</ele>
        <time>2013-12-13T10:04:25Z</time>
      </trkpt>
      <trkpt lat="48.47907" lon="-2.71086">
        <ele>98</ele>
        <time>2013-12-13T10:04:28Z</time>
      </trkpt>
      <trkpt lat="48.47909" lon="-2.7109">
        <ele>98</ele>
        <time>2013-12-13T10:04:30Z</time>
      </trkpt>
      <trkpt lat="48.4791" lon="-2.71092">
        <ele>98</ele>
        <time>2013-12-13T10:04:32Z</time>
      </trkpt>
      <trkpt lat="48.47913" lon="-2.71097">
        <ele>99</ele>
        <time>2013-12-13T10:04:35Z</time>
      </trkpt>
      <trkpt lat="48.47915" lon="-2.711">
        <ele>99</ele>
        <time>2013-12-13T10:04:37Z</time>
      </trkpt>
      <trkpt lat="48.47916" lon="-2.71104">
        <ele>99</ele>
        <time>2013-12-13T10:04:39Z</time>
      </trkpt>
      <trkpt lat="48.47918" lon="-2.71107">
        <ele>99</ele>
        <time>2013-12-13T10:04:41Z</time>
      </trkpt>
      <trkpt lat="48.47919" lon="-2.7111">
        <ele>99</ele>
        <time>2013-12-13T10:04:43Z</time>
      </trkpt>
      <trkpt lat="48.4792" lon="-2.71113">
        <ele>99</ele>
        <time>2013-12-13T10:04:45Z</time>
      </trkpt>
      <trkpt lat="48.47922" lon="-2.71117">
        <ele>99</ele>
        <time>2013-12-13T10:04:47Z</time>
      </trkpt>
      <trkpt lat="48.47924" lon="-2.71122">
        <ele>99</ele>
        <time>2013-12-13T10:04:50Z</time>
      </trkpt>
      <trkpt lat="48.47926" lon="-2.71125">
        <ele>99</ele>
        <time>2013-12-13T10:04:52Z</time>
      </trkpt>
      <trkpt lat="48.47928" lon="-2.71128">
        <ele>99</ele>
        <time>2013-12-13T10:04:54Z</time>
      </trkpt>
      <trkpt lat="48.4793" lon="-2.71131">
        <ele>99</ele>
        <time>2013-12-13T10:04:56Z</time>
      </trkpt>
      <trkpt lat="48.47932" lon="-2.71134">
        <ele>99</ele>
        <time>2013-12-13T10:04:58Z</time>
      </trkpt>
      <trkpt lat="48.47934" lon="-2.71137">
        <ele>99</ele>
        <time>2013-12-13T10:05:00Z</time>
      </trkpt>
      <trkpt lat="48.47936" lon="-2.71141">
        <ele>99</ele>
        <time>2013-12-13T10:05:02Z</time>
      </trkpt>
      <trkpt lat="48.47938" lon="-2.71144">
        <ele>99</ele>
        <time>2013-12-13T10:05:04Z</time>
      </trkpt>
      <trkpt lat="48.4794" lon="-2.71148">
        <ele>99</ele>
        <time>2013-12-13T10:05:06Z</time>
      </trkpt>
      <trkpt lat="48.47941" lon="-2.71152">
        <ele>99</ele>
        <time>2013-12-13T10:05:08Z</time>
      </trkpt>
      <trkpt lat="48.47942" lon="-2.71156">
        <ele>99</ele>
        <time>2013-12-13T10:05:10Z</time>
      </trkpt>
      <trkpt lat="48.47944" lon="-2.71159">
        <ele>99</ele>
        <time>2013-12-13T10:05:12Z</time>
      </trkpt>
      <trkpt lat="48.47945" lon="-2.71163">
        <ele>99</ele>
        <time>2013-12-13T10:05:14Z</time>
      </trkpt>
      <trkpt lat="48.47948" lon="-2.71167">
        <ele>99</ele>
        <time>2013-12-13T10:05:16Z</time>
      </trkpt>
      <trkpt lat="48.47949" lon="-2.71171">
        <ele>99</ele>
        <time>2013-12-13T10:05:18Z</time>
      </trkpt>
      <trkpt lat="48.4795" lon="-2.71175">
        <ele>99</ele>
        <time>2013-12-13T10:05:20Z</time>
      </trkpt>
      <trkpt lat="48.47952" lon="-2.71179">
        <ele>99</ele>
        <time>2013-12-13T10:05:22Z</time>
      </trkpt>
      <trkpt lat="48.47953" lon="-2.71182">
        <ele>99</ele>
        <time>2013-12-13T10:05:24Z</time>
      </trkpt>
      <trkpt lat="48.47954" lon="-2.71186">
        <ele>99</ele>
        <time>2013-12-13T10:05:26Z</time>
      </trkpt>
      <trkpt lat="48.47955" lon="-2.71189">
        <ele>99</ele>
        <time>2013-12-13T10:05:28Z</time>
      </trkpt>
      <trkpt lat="48.47956" lon="-2.71193">
        <ele>99</ele>
        <time>2013-12-13T10:05:30Z</time>
      </trkpt>
      <trkpt lat="48.47958" lon="-2.71197">
        <ele>99</ele>
        <time>2013-12-13T10:05:32Z</time>
      </trkpt>
      <trkpt lat="48.47959" lon="-2.712">
        <ele>99</ele>
        <time>2013-12-13T10:05:34Z</time>
      </trkpt>
      <trkpt lat="48.4796" lon="-2.71203">
        <ele>99</ele>
        <time>2013-12-13T10:05:36Z</time>
      </trkpt>
      <trkpt lat="48.47961" lon="-2.71207">
        <ele>99</ele>
        <time>2013-12-13T10:05:38Z</time>
      </trkpt>
      <trkpt lat="48.47963" lon="-2.71211">
        <ele>99</ele>
        <time>2013-12-13T10:05:40Z</time>
      </trkpt>
      <trkpt lat="48.47964" lon="-2.71215">
        <ele>99</ele>
        <time>2013-12-13T10:05:42Z</time>
      </trkpt>
      <trkpt lat="48.47965" lon="-2.71218">
        <ele>99</ele>
        <time>2013-12-13T10:05:44Z</time>
      </trkpt>
      <trkpt lat="48.47967" lon="-2.71222">
        <ele>99</ele>
        <time>2013-12-13T10:05:46Z</time>
      </trkpt>
      <trkpt lat="48.47968" lon="-2.71226">
        <ele>99</ele>
        <time>2013-12-13T10:05:48Z</time>
      </trkpt>
      <trkpt lat="48.4797" lon="-2.7123">
        <ele>99</ele>
        <time>2013-12-13T10:05:50Z</time>
      </trkpt>
      <trkpt lat="48.47971" lon="-2.71233">
        <ele>99</ele>
        <time>2013-12-13T10:05:52Z</time>
      </trkpt>
      <trkpt lat="48.47973" lon="-2.71237">
        <ele>99</ele>
        <time>2013-12-13T10:05:54Z</time>
      </trkpt>
      <trkpt lat="48.47974" lon="-2.71241">
        <ele>99</ele>
        <time>2013-12-13T10:05:56Z</time>
      </trkpt>
      <trkpt lat="48.47974" lon="-2.71245">
        <ele>99</ele>
        <time>2013-12-13T10:05:58Z</time>
      </trkpt>
      <trkpt lat="48.47975" lon="-2.71248">
        <ele>99</ele>
        <time>2013-12-13T10:06:00Z</time>
      </trkpt>
      <trkpt lat="48.47976" lon="-2.71252">
        <ele>99</ele>
        <time>2013-12-13T10:06:02Z</time>
      </trkpt>
      <trkpt lat="48.47978" lon="-2.71256">
        <ele>98</ele>
        <time>2013-12-13T10:06:04Z</time>
      </trkpt>
      <trkpt lat="48.4798" lon="-2.7126">
        <ele>98</ele>
        <time>2013-12-13T10:06:06Z</time>
      </trkpt>
      <trkpt lat="48.47981" lon="-2.71264">
        <ele>97</ele>
        <time>2013-12-13T10:06:08Z</time>
      </trkpt>
      <trkpt lat="48.47982" lon="-2.71268">
        <ele>97</ele>
        <time>2013-12-13T10:06:10Z</time>
      </trkpt>
      <trkpt lat="48.47984" lon="-2.71271">
        <ele>97</ele>
        <time>2013-12-13T10:06:12Z</time>
      </trkpt>
      <trkpt lat="48.47985" lon="-2.71275">
        <ele>97</ele>
        <time>2013-12-13T10:06:14Z</time>
      </trkpt>
      <trkpt lat="48.47988" lon="-2.71278">
        <ele>97</ele>
        <time>2013-12-13T10:06:16Z</time>
      </trkpt>
      <trkpt lat="48.4799" lon="-2.71282">
        <ele>97</ele>
        <time>2013-12-13T10:06:18Z</time>
      </trkpt>
      <trkpt lat="48.47991" lon="-2.71286">
        <ele>97</ele>
        <time>2013-12-13T10:06:20Z</time>
      </trkpt>
      <trkpt lat="48.47992" lon="-2.71289">
        <ele>97</ele>
        <time>2013-12-13T10:06:22Z</time>
      </trkpt>
      <trkpt lat="48.47994" lon="-2.71292">
        <ele>97</ele>
        <time>2013-12-13T10:06:24Z</time>
      </trkpt>
      <trkpt lat="48.47995" lon="-2.71295">
        <ele>97</ele>
        <time>2013-12-13T10:06:26Z</time>
      </trkpt>
      <trkpt lat="48.47996" lon="-2.71299">
        <ele>96</ele>
        <time>2013-12-13T10:06:28Z</time>
      </trkpt>
      <trkpt lat="48.47998" lon="-2.71304">
        <ele>95</ele>
        <time>2013-12-13T10:06:31Z</time>
      </trkpt>
      <trkpt lat="48.48001" lon="-2.71308">
        <ele>95</ele>
        <time>2013-12-13T10:06:33Z</time>
      </trkpt>
      <trkpt lat="48.48003" lon="-2.71312">
        <ele>95</ele>
        <time>2013-12-13T10:06:35Z</time>
      </trkpt>
      <trkpt lat="48.48004" lon="-2.71316">
        <ele>95</ele>
        <time>2013-12-13T10:06:37Z</time>
      </trkpt>
      <trkpt lat="48.48005" lon="-2.7132">
        <ele>94</ele>
        <time>2013-12-13T10:06:39Z</time>
      </trkpt>
      <trkpt lat="48.48007" lon="-2.71324">
        <ele>94</ele>
        <time>2013-12-13T10:06:41Z</time>
      </trkpt>
      <trkpt lat="48.48008" lon="-2.71328">
        <ele>93</ele>
        <time>2013-12-13T10:06:43Z</time>
      </trkpt>
      <trkpt lat="48.48009" lon="-2.71331">
        <ele>92</ele>
        <time>2013-12-13T10:06:45Z</time>
      </trkpt>
      <trkpt lat="48.4801" lon="-2.71335">
        <ele>92</ele>
        <time>2013-12-13T10:06:47Z</time>
      </trkpt>
      <trkpt lat="48.48011" lon="-2.71339">
        <ele>92</ele>
        <time>2013-12-13T10:06:49Z</time>
      </trkpt>
      <trkpt lat="48.48014" lon="-2.71341">
        <ele>92</ele>
        <time>2013-12-13T10:06:51Z</time>
      </trkpt>
      <trkpt lat="48.48015" lon="-2.71345">
        <ele>92</ele>
        <time>2013-12-13T10:06:53Z</time>
      </trkpt>
      <trkpt lat="48.48015" lon="-2.71349">
        <ele>92</ele>
        <time>2013-12-13T10:06:55Z</time>
      </trkpt>
      <trkpt lat="48.48016" lon="-2.71353">
        <ele>92</ele>
        <time>2013-12-13T10:06:57Z</time>
      </trkpt>
      <trkpt lat="48.48017" lon="-2.71356">
        <ele>92</ele>
        <time>2013-12-13T10:06:59Z</time>
      </trkpt>
      <trkpt lat="48.48018" lon="-2.7136">
        <ele>92</ele>
        <time>2013-12-13T10:07:01Z</time>
      </trkpt>
      <trkpt lat="48.48018" lon="-2.71364">
        <ele>92</ele>
        <time>2013-12-13T10:07:03Z</time>
      </trkpt>
      <trkpt lat="48.48019" lon="-2.71368">
        <ele>92</ele>
        <time>2013-12-13T10:07:05Z</time>
      </trkpt>
      <trkpt lat="48.4802" lon="-2.71372">
        <ele>92</ele>
        <time>2013-12-13T10:07:07Z</time>
      </trkpt>
      <trkpt lat="48.48022" lon="-2.71376">
        <ele>92</ele>
        <time>2013-12-13T10:07:09Z</time>
      </trkpt>
      <trkpt lat="48.48023" lon="-2.7138">
        <ele>92</ele>
        <time>2013-12-13T10:07:11Z</time>
      </trkpt>
      <trkpt lat="48.48024" lon="-2.71383">
        <ele>92</ele>
        <time>2013-12-13T10:07:13Z</time>
      </trkpt>
      <trkpt lat="48.48025" lon="-2.71386">
        <ele>92</ele>
        <time>2013-12-13T10:07:15Z</time>
      </trkpt>
      <trkpt lat="48.48026" lon="-2.7139">
        <ele>93</ele>
        <time>2013-12-13T10:07:17Z</time>
      </trkpt>
      <trkpt lat="48.48028" lon="-2.71393">
        <ele>95</ele>
        <time>2013-12-13T10:07:19Z</time>
      </trkpt>
      <trkpt lat="48.48029" lon="-2.71397">
        <ele>96</ele>
        <time>2013-12-13T10:07:21Z</time>
      </trkpt>
      <trkpt lat="48.4803" lon="-2.71401">
        <ele>97</ele>
        <time>2013-12-13T10:07:23Z</time>
      </trkpt>
      <trkpt lat="48.48031" lon="-2.71405">
        <ele>97</ele>
        <time>2013-12-13T10:07:25Z</time>
      </trkpt>
      <trkpt lat="48.48033" lon="-2.71409">
        <ele>97</ele>
        <time>2013-12-13T10:07:27Z</time>
      </trkpt>
      <trkpt lat="48.48035" lon="-2.71415">
        <ele>97</ele>
        <time>2013-12-13T10:07:30Z</time>
      </trkpt>
      <trkpt lat="48.48035" lon="-2.71419">
        <ele>97</ele>
        <time>2013-12-13T10:07:32Z</time>
      </trkpt>
      <trkpt lat="48.48036" lon="-2.71424">
        <ele>97</ele>
        <time>2013-12-13T10:07:34Z</time>
      </trkpt>
      <trkpt lat="48.48037" lon="-2.71428">
        <ele>97</ele>
        <time>2013-12-13T10:07:36Z</time>
      </trkpt>
      <trkpt lat="48.48037" lon="-2.71432">
        <ele>97</ele>
        <time>2013-12-13T10:07:38Z</time>
      </trkpt>
      <trkpt lat="48.48038" lon="-2.71436">
        <ele>97</ele>
        <time>2013-12-13T10:07:40Z</time>
      </trkpt>
      <trkpt lat="48.48039" lon="-2.7144">
        <ele>97</ele>
        <time>2013-12-13T10:07:42Z</time>
      </trkpt>
      <trkpt lat="48.4804" lon="-2.71445">
        <ele>97</ele>
        <time>2013-12-13T10:07:45Z</time>
      </trkpt>
      <trkpt lat="48.48041" lon="-2.71449">
        <ele>98</ele>
        <time>2013-12-13T10:07:47Z</time>
      </trkpt>
      <trkpt lat="48.48042" lon="-2.71455">
        <ele>98</ele>
        <time>2013-12-13T10:07:50Z</time>
      </trkpt>
      <trkpt lat="48.48043" lon="-2.71459">
        <ele>98</ele>
        <time>2013-12-13T10:07:52Z</time>
      </trkpt>
      <trkpt lat="48.48045" lon="-2.71465">
        <ele>98</ele>
        <time>2013-12-13T10:07:55Z</time>
      </trkpt>
      <trkpt lat="48.48046" lon="-2.71468">
        <ele>98</ele>
        <time>2013-12-13T10:07:57Z</time>
      </trkpt>
      <trkpt lat="48.48046" lon="-2.71473">
        <ele>98</ele>
        <time>2013-12-13T10:07:59Z</time>
      </trkpt>
      <trkpt lat="48.48047" lon="-2.71476">
        <ele>99</ele>
        <time>2013-12-13T10:08:01Z</time>
      </trkpt>
      <trkpt lat="48.48048" lon="-2.71481">
        <ele>99</ele>
        <time>2013-12-13T10:08:03Z</time>
      </trkpt>
      <trkpt lat="48.48049" lon="-2.71484">
        <ele>100</ele>
        <time>2013-12-13T10:08:05Z</time>
      </trkpt>
      <trkpt lat="48.48051" lon="-2.71487">
        <ele>100</ele>
        <time>2013-12-13T10:08:07Z</time>
      </trkpt>
      <trkpt lat="48.48051" lon="-2.71491">
        <ele>100</ele>
        <time>2013-12-13T10:08:09Z</time>
      </trkpt>
      <trkpt lat="48.48052" lon="-2.71496">
        <ele>100</ele>
        <time>2013-12-13T10:08:11Z</time>
      </trkpt>
      <trkpt lat="48.48052" lon="-2.71499">
        <ele>100</ele>
        <time>2013-12-13T10:08:13Z</time>
      </trkpt>
      <trkpt lat="48.48053" lon="-2.71503">
        <ele>100</ele>
        <time>2013-12-13T10:08:15Z</time>
      </trkpt>
      <trkpt lat="48.48054" lon="-2.71508">
        <ele>100</ele>
        <time>2013-12-13T10:08:17Z</time>
      </trkpt>
      <trkpt lat="48.48055" lon="-2.71511">
        <ele>100</ele>
        <time>2013-12-13T10:08:19Z</time>
      </trkpt>
      <trkpt lat="48.48056" lon="-2.71515">
        <ele>100</ele>
        <time>2013-12-13T10:08:21Z</time>
      </trkpt>
      <trkpt lat="48.48056" lon="-2.71519">
        <ele>100</ele>
        <time>2013-12-13T10:08:23Z</time>
      </trkpt>
      <trkpt lat="48.48058" lon="-2.71522">
        <ele>100</ele>
        <time>2013-12-13T10:08:25Z</time>
      </trkpt>
      <trkpt lat="48.48059" lon="-2.71526">
        <ele>100</ele>
        <time>2013-12-13T10:08:27Z</time>
      </trkpt>
      <trkpt lat="48.48061" lon="-2.71529">
        <ele>99</ele>
        <time>2013-12-13T10:08:29Z</time>
      </trkpt>
      <trkpt lat="48.48063" lon="-2.71533">
        <ele>99</ele>
        <time>2013-12-13T10:08:31Z</time>
      </trkpt>
      <trkpt lat="48.48064" lon="-2.71537">
        <ele>99</ele>
        <time>2013-12-13T10:08:33Z</time>
      </trkpt>
      <trkpt lat="48.48065" lon="-2.71542">
        <ele>98</ele>
        <time>2013-12-13T10:08:35Z</time>
      </trkpt>
      <trkpt lat="48.48066" lon="-2.71546">
        <ele>97</ele>
        <time>2013-12-13T10:08:37Z</time>
      </trkpt>
      <trkpt lat="48.48066" lon="-2.7155">
        <ele>97</ele>
        <time>2013-12-13T10:08:39Z</time>
      </trkpt>
      <trkpt lat="48.48066" lon="-2.71554">
        <ele>97</ele>
        <time>2013-12-13T10:08:41Z</time>
      </trkpt>
      <trkpt lat="48.48068" lon="-2.71558">
        <ele>97</ele>
        <time>2013-12-13T10:08:43Z</time>
      </trkpt>
      <trkpt lat="48.48069" lon="-2.71562">
        <ele>97</ele>
        <time>2013-12-13T10:08:45Z</time>
      </trkpt>
      <trkpt lat="48.48071" lon="-2.71566">
        <ele>97</ele>
        <time>2013-12-13T10:08:47Z</time>
      </trkpt>
      <trkpt lat="48.48073" lon="-2.7157">
        <ele>97</ele>
        <time>2013-12-13T10:08:49Z</time>
      </trkpt>
      <trkpt lat="48.48075" lon="-2.71574">
        <ele>96</ele>
        <time>2013-12-13T10:08:51Z</time>
      </trkpt>
      <trkpt lat="48.48075" lon="-2.71578">
        <ele>96</ele>
        <time>2013-12-13T10:08:53Z</time>
      </trkpt>
      <trkpt lat="48.48077" lon="-2.7158">
        <ele>95</ele>
        <time>2013-12-13T10:08:55Z</time>
      </trkpt>
      <trkpt lat="48.48079" lon="-2.71583">
        <ele>95</ele>
        <time>2013-12-13T10:08:57Z</time>
      </trkpt>
      <trkpt lat="48.48081" lon="-2.71587">
        <ele>95</ele>
        <time>2013-12-13T10:08:59Z</time>
      </trkpt>
      <trkpt lat="48.48083" lon="-2.7159">
        <ele>95</ele>
        <time>2013-12-13T10:09:01Z</time>
      </trkpt>
      <trkpt lat="48.48087" lon="-2.71592">
        <ele>95</ele>
        <time>2013-12-13T10:09:04Z</time>
      </trkpt>
      <trkpt lat="48.48088" lon="-2.71594">
        <ele>95</ele>
        <time>2013-12-13T10:09:06Z</time>
      </trkpt>
      <trkpt lat="48.4809" lon="-2.71599">
        <ele>95</ele>
        <time>2013-12-13T10:09:09Z</time>
      </trkpt>
      <trkpt lat="48.48093" lon="-2.71602">
        <ele>95</ele>
        <time>2013-12-13T10:09:11Z</time>
      </trkpt>
      <trkpt lat="48.48095" lon="-2.71604">
        <ele>95</ele>
        <time>2013-12-13T10:09:13Z</time>
      </trkpt>
      <trkpt lat="48.48096" lon="-2.71608">
        <ele>95</ele>
        <time>2013-12-13T10:09:15Z</time>
      </trkpt>
      <trkpt lat="48.48098" lon="-2.71611">
        <ele>95</ele>
        <time>2013-12-13T10:09:17Z</time>
      </trkpt>
      <trkpt lat="48.481" lon="-2.71615">
        <ele>95</ele>
        <time>2013-12-13T10:09:20Z</time>
      </trkpt>
      <trkpt lat="48.48102" lon="-2.71618">
        <ele>95</ele>
        <time>2013-12-13T10:09:22Z</time>
      </trkpt>
      <trkpt lat="48.48104" lon="-2.71621">
        <ele>95</ele>
        <time>2013-12-13T10:09:24Z</time>
      </trkpt>
      <trkpt lat="48.48105" lon="-2.71624">
        <ele>95</ele>
        <time>2013-12-13T10:09:26Z</time>
      </trkpt>
      <trkpt lat="48.48107" lon="-2.71627">
        <ele>95</ele>
        <time>2013-12-13T10:09:28Z</time>
      </trkpt>
      <trkpt lat="48.48109" lon="-2.71629">
        <ele>95</ele>
        <time>2013-12-13T10:09:30Z</time>
      </trkpt>
      <trkpt lat="48.48111" lon="-2.71633">
        <ele>95</ele>
        <time>2013-12-13T10:09:32Z</time>
      </trkpt>
      <trkpt lat="48.48113" lon="-2.71636">
        <ele>95</ele>
        <time>2013-12-13T10:09:34Z</time>
      </trkpt>
      <trkpt lat="48.48115" lon="-2.71638">
        <ele>95</ele>
        <time>2013-12-13T10:09:36Z</time>
      </trkpt>
      <trkpt lat="48.48118" lon="-2.71641">
        <ele>95</ele>
        <time>2013-12-13T10:09:38Z</time>
      </trkpt>
      <trkpt lat="48.4812" lon="-2.71645">
        <ele>95</ele>
        <time>2013-12-13T10:09:40Z</time>
      </trkpt>
      <trkpt lat="48.48122" lon="-2.71647">
        <ele>95</ele>
        <time>2013-12-13T10:09:42Z</time>
      </trkpt>
      <trkpt lat="48.48124" lon="-2.7165">
        <ele>95</ele>
        <time>2013-12-13T10:09:44Z</time>
      </trkpt>
      <trkpt lat="48.48127" lon="-2.71653">
        <ele>95</ele>
        <time>2013-12-13T10:09:46Z</time>
      </trkpt>
      <trkpt lat="48.48128" lon="-2.71656">
        <ele>95</ele>
        <time>2013-12-13T10:09:48Z</time>
      </trkpt>
      <trkpt lat="48.4813" lon="-2.71659">
        <ele>95</ele>
        <time>2013-12-13T10:09:50Z</time>
      </trkpt>
      <trkpt lat="48.48131" lon="-2.71662">
        <ele>95</ele>
        <time>2013-12-13T10:09:52Z</time>
      </trkpt>
      <trkpt lat="48.48133" lon="-2.71667">
        <ele>96</ele>
        <time>2013-12-13T10:09:55Z</time>
      </trkpt>
      <trkpt lat="48.48135" lon="-2.7167">
        <ele>96</ele>
        <time>2013-12-13T10:09:57Z</time>
      </trkpt>
      <trkpt lat="48.48138" lon="-2.71673">
        <ele>96</ele>
        <time>2013-12-13T10:09:59Z</time>
      </trkpt>
      <trkpt lat="48.4814" lon="-2.71676">
        <ele>96</ele>
        <time>2013-12-13T10:10:01Z</time>
      </trkpt>
      <trkpt lat="48.48142" lon="-2.71679">
        <ele>96</ele>
        <time>2013-12-13T10:10:03Z</time>
      </trkpt>
      <trkpt lat="48.48144" lon="-2.71683">
        <ele>96</ele>
        <time>2013-12-13T10:10:05Z</time>
      </trkpt>
      <trkpt lat="48.48147" lon="-2.71684">
        <ele>96</ele>
        <time>2013-12-13T10:10:07Z</time>
      </trkpt>
      <trkpt lat="48.48148" lon="-2.71687">
        <ele>96</ele>
        <time>2013-12-13T10:10:09Z</time>
      </trkpt>
      <trkpt lat="48.48149" lon="-2.71691">
        <ele>96</ele>
        <time>2013-12-13T10:10:11Z</time>
      </trkpt>
      <trkpt lat="48.48151" lon="-2.71694">
        <ele>96</ele>
        <time>2013-12-13T10:10:13Z</time>
      </trkpt>
      <trkpt lat="48.48154" lon="-2.71697">
        <ele>96</ele>
        <time>2013-12-13T10:10:15Z</time>
      </trkpt>
      <trkpt lat="48.48156" lon="-2.71702">
        <ele>96</ele>
        <time>2013-12-13T10:10:18Z</time>
      </trkpt>
      <trkpt lat="48.48159" lon="-2.71707">
        <ele>96</ele>
        <time>2013-12-13T10:10:21Z</time>
      </trkpt>
      <trkpt lat="48.48161" lon="-2.7171">
        <ele>96</ele>
        <time>2013-12-13T10:10:23Z</time>
      </trkpt>
      <trkpt lat="48.48163" lon="-2.71713">
        <ele>96</ele>
        <time>2013-12-13T10:10:25Z</time>
      </trkpt>
      <trkpt lat="48.48165" lon="-2.71716">
        <ele>96</ele>
        <time>2013-12-13T10:10:27Z</time>
      </trkpt>
      <trkpt lat="48.48167" lon="-2.71719">
        <ele>96</ele>
        <time>2013-12-13T10:10:29Z</time>
      </trkpt>
      <trkpt lat="48.48169" lon="-2.71722">
        <ele>96</ele>
        <time>2013-12-13T10:10:31Z</time>
      </trkpt>
      <trkpt lat="48.48171" lon="-2.71725">
        <ele>96</ele>
        <time>2013-12-13T10:10:33Z</time>
      </trkpt>
      <trkpt lat="48.48173" lon="-2.71729">
        <ele>96</ele>
        <time>2013-12-13T10:10:35Z</time>
      </trkpt>
      <trkpt lat="48.48176" lon="-2.71734">
        <ele>96</ele>
        <time>2013-12-13T10:10:38Z</time>
      </trkpt>
      <trkpt lat="48.48177" lon="-2.71737">
        <ele>96</ele>
        <time>2013-12-13T10:10:40Z</time>
      </trkpt>
      <trkpt lat="48.48179" lon="-2.71741">
        <ele>96</ele>
        <time>2013-12-13T10:10:42Z</time>
      </trkpt>
      <trkpt lat="48.4818" lon="-2.71745">
        <ele>96</ele>
        <time>2013-12-13T10:10:44Z</time>
      </trkpt>
      <trkpt lat="48.4818" lon="-2.7175">
        <ele>96</ele>
        <time>2013-12-13T10:10:46Z</time>
      </trkpt>
      <trkpt lat="48.48181" lon="-2.71754">
        <ele>97</ele>
        <time>2013-12-13T10:10:48Z</time>
      </trkpt>
      <trkpt lat="48.48182" lon="-2.7176">
        <ele>98</ele>
        <time>2013-12-13T10:10:51Z</time>
      </trkpt>
      <trkpt lat="48.48182" lon="-2.71763">
        <ele>98</ele>
        <time>2013-12-13T10:10:53Z</time>
      </trkpt>
      <trkpt lat="48.48182" lon="-2.71767">
        <ele>99</ele>
        <time>2013-12-13T10:10:55Z</time>
      </trkpt>
      <trkpt lat="48.48183" lon="-2.71771">
        <ele>99</ele>
        <time>2013-12-13T10:10:57Z</time>
      </trkpt>
      <trkpt lat="48.48183" lon="-2.71775">
        <ele>99</ele>
        <time>2013-12-13T10:10:59Z</time>
      </trkpt>
      <trkpt lat="48.48183" lon="-2.71779">
        <ele>100</ele>
        <time>2013-12-13T10:11:01Z</time>
      </trkpt>
      <trkpt lat="48.48183" lon="-2.71785">
        <ele>101</ele>
        <time>2013-12-13T10:11:03Z</time>
      </trkpt>
      <trkpt lat="48.48183" lon="-2.71789">
        <ele>102</ele>
        <time>2013-12-13T10:11:05Z</time>
      </trkpt>
      <trkpt lat="48.48184" lon="-2.71793">
        <ele>102</ele>
        <time>2013-12-13T10:11:07Z</time>
      </trkpt>
      <trkpt lat="48.48185" lon="-2.71796">
        <ele>103</ele>
        <time>2013-12-13T10:11:09Z</time>
      </trkpt>
      <trkpt lat="48.48185" lon="-2.718">
        <ele>103</ele>
        <time>2013-12-13T10:11:11Z</time>
      </trkpt>
      <trkpt lat="48.48185" lon="-2.71803">
        <ele>103</ele>
        <time>2013-12-13T10:11:13Z</time>
      </trkpt>
      <trkpt lat="48.48186" lon="-2.71807">
        <ele>103</ele>
        <time>2013-12-13T10:11:15Z</time>
      </trkpt>
      <trkpt lat="48.48186" lon="-2.71811">
        <ele>103</ele>
        <time>2013-12-13T10:11:18Z</time>
      </trkpt>
      <trkpt lat="48.48187" lon="-2.71814">
        <ele>103</ele>
        <time>2013-12-13T10:11:20Z</time>
      </trkpt>
      <trkpt lat="48.48188" lon="-2.71819">
        <ele>103</ele>
        <time>2013-12-13T10:11:22Z</time>
      </trkpt>
      <trkpt lat="48.48189" lon="-2.71824">
        <ele>103</ele>
        <time>2013-12-13T10:11:25Z</time>
      </trkpt>
      <trkpt lat="48.4819" lon="-2.71827">
        <ele>103</ele>
        <time>2013-12-13T10:11:27Z</time>
      </trkpt>
      <trkpt lat="48.48192" lon="-2.71831">
        <ele>103</ele>
        <time>2013-12-13T10:11:29Z</time>
      </trkpt>
      <trkpt lat="48.48193" lon="-2.71834">
        <ele>103</ele>
        <time>2013-12-13T10:11:31Z</time>
      </trkpt>
      <trkpt lat="48.48195" lon="-2.71836">
        <ele>103</ele>
        <time>2013-12-13T10:11:33Z</time>
      </trkpt>
      <trkpt lat="48.48196" lon="-2.71839">
        <ele>102</ele>
        <time>2013-12-13T10:11:35Z</time>
      </trkpt>
      <trkpt lat="48.48198" lon="-2.71842">
        <ele>102</ele>
        <time>2013-12-13T10:11:37Z</time>
      </trkpt>
      <trkpt lat="48.482" lon="-2.71844">
        <ele>102</ele>
        <time>2013-12-13T10:11:39Z</time>
      </trkpt>
      <trkpt lat="48.48203" lon="-2.71847">
        <ele>101</ele>
        <time>2013-12-13T10:11:41Z</time>
      </trkpt>
      <trkpt lat="48.48205" lon="-2.71849">
        <ele>101</ele>
        <time>2013-12-13T10:11:43Z</time>
      </trkpt>
      <trkpt lat="48.48208" lon="-2.71851">
        <ele>101</ele>
        <time>2013-12-13T10:11:45Z</time>
      </trkpt>
      <trkpt lat="48.48211" lon="-2.71853">
        <ele>101</ele>
        <time>2013-12-13T10:11:47Z</time>
      </trkpt>
      <trkpt lat="48.48213" lon="-2.71856">
        <ele>101</ele>
        <time>2013-12-13T10:11:49Z</time>
      </trkpt>
      <trkpt lat="48.48215" lon="-2.71858">
        <ele>101</ele>
        <time>2013-12-13T10:11:51Z</time>
      </trkpt>
      <trkpt lat="48.48218" lon="-2.7186">
        <ele>101</ele>
        <time>2013-12-13T10:11:53Z</time>
      </trkpt>
      <trkpt lat="48.48221" lon="-2.71862">
        <ele>101</ele>
        <time>2013-12-13T10:11:55Z</time>
      </trkpt>
      <trkpt lat="48.48223" lon="-2.71864">
        <ele>101</ele>
        <time>2013-12-13T10:11:57Z</time>
      </trkpt>
      <trkpt lat="48.48226" lon="-2.71866">
        <ele>101</ele>
        <time>2013-12-13T10:11:59Z</time>
      </trkpt>
      <trkpt lat="48.48229" lon="-2.71869">
        <ele>101</ele>
        <time>2013-12-13T10:12:01Z</time>
      </trkpt>
      <trkpt lat="48.48232" lon="-2.71871">
        <ele>101</ele>
        <time>2013-12-13T10:12:03Z</time>
      </trkpt>
      <trkpt lat="48.48233" lon="-2.71874">
        <ele>101</ele>
        <time>2013-12-13T10:12:05Z</time>
      </trkpt>
      <trkpt lat="48.48235" lon="-2.71878">
        <ele>101</ele>
        <time>2013-12-13T10:12:07Z</time>
      </trkpt>
      <trkpt lat="48.48237" lon="-2.71881">
        <ele>101</ele>
        <time>2013-12-13T10:12:09Z</time>
      </trkpt>
      <trkpt lat="48.4824" lon="-2.71884">
        <ele>101</ele>
        <time>2013-12-13T10:12:11Z</time>
      </trkpt>
      <trkpt lat="48.48241" lon="-2.71887">
        <ele>101</ele>
        <time>2013-12-13T10:12:13Z</time>
      </trkpt>
      <trkpt lat="48.48245" lon="-2.71891">
        <ele>101</ele>
        <time>2013-12-13T10:12:16Z</time>
      </trkpt>
      <trkpt lat="48.48246" lon="-2.71894">
        <ele>101</ele>
        <time>2013-12-13T10:12:18Z</time>
      </trkpt>
      <trkpt lat="48.48248" lon="-2.71898">
        <ele>101</ele>
        <time>2013-12-13T10:12:20Z</time>
      </trkpt>
      <trkpt lat="48.48249" lon="-2.71901">
        <ele>101</ele>
        <time>2013-12-13T10:12:22Z</time>
      </trkpt>
      <trkpt lat="48.48251" lon="-2.71904">
        <ele>101</ele>
        <time>2013-12-13T10:12:24Z</time>
      </trkpt>
      <trkpt lat="48.48253" lon="-2.71907">
        <ele>101</ele>
        <time>2013-12-13T10:12:26Z</time>
      </trkpt>
      <trkpt lat="48.48254" lon="-2.7191">
        <ele>101</ele>
        <time>2013-12-13T10:12:28Z</time>
      </trkpt>
      <trkpt lat="48.48257" lon="-2.71913">
        <ele>101</ele>
        <time>2013-12-13T10:12:30Z</time>
      </trkpt>
      <trkpt lat="48.4826" lon="-2.71917">
        <ele>101</ele>
        <time>2013-12-13T10:12:33Z</time>
      </trkpt>
      <trkpt lat="48.48263" lon="-2.71917">
        <ele>101</ele>
        <time>2013-12-13T10:12:35Z</time>
      </trkpt>
      <trkpt lat="48.48266" lon="-2.71916">
        <ele>101</ele>
        <time>2013-12-13T10:12:37Z</time>
      </trkpt>
      <trkpt lat="48.48269" lon="-2.71914">
        <ele>101</ele>
        <time>2013-12-13T10:12:39Z</time>
      </trkpt>
      <trkpt lat="48.48271" lon="-2.71912">
        <ele>101</ele>
        <time>2013-12-13T10:12:41Z</time>
      </trkpt>
      <trkpt lat="48.48274" lon="-2.71908">
        <ele>101</ele>
        <time>2013-12-13T10:12:44Z</time>
      </trkpt>
      <trkpt lat="48.48276" lon="-2.71906">
        <ele>101</ele>
        <time>2013-12-13T10:12:46Z</time>
      </trkpt>
      <trkpt lat="48.48278" lon="-2.71903">
        <ele>101</ele>
        <time>2013-12-13T10:12:48Z</time>
      </trkpt>
      <trkpt lat="48.48281" lon="-2.71901">
        <ele>101</ele>
        <time>2013-12-13T10:12:51Z</time>
      </trkpt>
      <trkpt lat="48.48283" lon="-2.71899">
        <ele>101</ele>
        <time>2013-12-13T10:12:53Z</time>
      </trkpt>
      <trkpt lat="48.48286" lon="-2.71898">
        <ele>101</ele>
        <time>2013-12-13T10:12:55Z</time>
      </trkpt>
      <trkpt lat="48.48288" lon="-2.71896">
        <ele>101</ele>
        <time>2013-12-13T10:12:57Z</time>
      </trkpt>
      <trkpt lat="48.48291" lon="-2.71894">
        <ele>101</ele>
        <time>2013-12-13T10:13:00Z</time>
      </trkpt>
      <trkpt lat="48.48294" lon="-2.71891">
        <ele>101</ele>
        <time>2013-12-13T10:13:02Z</time>
      </trkpt>
      <trkpt lat="48.48296" lon="-2.7189">
        <ele>101</ele>
        <time>2013-12-13T10:13:04Z</time>
      </trkpt>
      <trkpt lat="48.48298" lon="-2.7189">
        <ele>101</ele>
        <time>2013-12-13T10:13:06Z</time>
      </trkpt>
      <trkpt lat="48.48301" lon="-2.71888">
        <ele>101</ele>
        <time>2013-12-13T10:13:08Z</time>
      </trkpt>
      <trkpt lat="48.48304" lon="-2.71886">
        <ele>101</ele>
        <time>2013-12-13T10:13:10Z</time>
      </trkpt>
      <trkpt lat="48.48306" lon="-2.71884">
        <ele>101</ele>
        <time>2013-12-13T10:13:12Z</time>
      </trkpt>
      <trkpt lat="48.48308" lon="-2.71882">
        <ele>101</ele>
        <time>2013-12-13T10:13:14Z</time>
      </trkpt>
      <trkpt lat="48.4831" lon="-2.71882">
        <ele>101</ele>
        <time>2013-12-13T10:13:16Z</time>
      </trkpt>
      <trkpt lat="48.48312" lon="-2.71878">
        <ele>101</ele>
        <time>2013-12-13T10:13:18Z</time>
      </trkpt>
      <trkpt lat="48.48315" lon="-2.71875">
        <ele>101</ele>
        <time>2013-12-13T10:13:20Z</time>
      </trkpt>
      <trkpt lat="48.48318" lon="-2.71873">
        <ele>101</ele>
        <time>2013-12-13T10:13:22Z</time>
      </trkpt>
      <trkpt lat="48.4832" lon="-2.7187">
        <ele>101</ele>
        <time>2013-12-13T10:13:24Z</time>
      </trkpt>
      <trkpt lat="48.48323" lon="-2.71869">
        <ele>101</ele>
        <time>2013-12-13T10:13:26Z</time>
      </trkpt>
      <trkpt lat="48.48325" lon="-2.71867">
        <ele>101</ele>
        <time>2013-12-13T10:13:28Z</time>
      </trkpt>
      <trkpt lat="48.48328" lon="-2.71867">
        <ele>101</ele>
        <time>2013-12-13T10:13:30Z</time>
      </trkpt>
      <trkpt lat="48.4833" lon="-2.71866">
        <ele>101</ele>
        <time>2013-12-13T10:13:32Z</time>
      </trkpt>
      <trkpt lat="48.48332" lon="-2.71865">
        <ele>101</ele>
        <time>2013-12-13T10:13:34Z</time>
      </trkpt>
      <trkpt lat="48.48334" lon="-2.71863">
        <ele>101</ele>
        <time>2013-12-13T10:13:36Z</time>
      </trkpt>
      <trkpt lat="48.48337" lon="-2.71861">
        <ele>101</ele>
        <time>2013-12-13T10:13:38Z</time>
      </trkpt>
      <trkpt lat="48.48339" lon="-2.71858">
        <ele>101</ele>
        <time>2013-12-13T10:13:40Z</time>
      </trkpt>
      <trkpt lat="48.48342" lon="-2.71856">
        <ele>101</ele>
        <time>2013-12-13T10:13:42Z</time>
      </trkpt>
      <trkpt lat="48.48345" lon="-2.71855">
        <ele>101</ele>
        <time>2013-12-13T10:13:45Z</time>
      </trkpt>
      <trkpt lat="48.48348" lon="-2.71854">
        <ele>101</ele>
        <time>2013-12-13T10:13:47Z</time>
      </trkpt>
      <trkpt lat="48.4835" lon="-2.71853">
        <ele>101</ele>
        <time>2013-12-13T10:13:49Z</time>
      </trkpt>
      <trkpt lat="48.48353" lon="-2.71852">
        <ele>101</ele>
        <time>2013-12-13T10:13:51Z</time>
      </trkpt>
      <trkpt lat="48.48355" lon="-2.71852">
        <ele>101</ele>
        <time>2013-12-13T10:13:53Z</time>
      </trkpt>
      <trkpt lat="48.48358" lon="-2.7185">
        <ele>101</ele>
        <time>2013-12-13T10:13:55Z</time>
      </trkpt>
      <trkpt lat="48.48361" lon="-2.71848">
        <ele>101</ele>
        <time>2013-12-13T10:13:57Z</time>
      </trkpt>
      <trkpt lat="48.48363" lon="-2.71848">
        <ele>101</ele>
        <time>2013-12-13T10:13:59Z</time>
      </trkpt>
      <trkpt lat="48.48366" lon="-2.71847">
        <ele>101</ele>
        <time>2013-12-13T10:14:01Z</time>
      </trkpt>
      <trkpt lat="48.48369" lon="-2.71846">
        <ele>101</ele>
        <time>2013-12-13T10:14:04Z</time>
      </trkpt>
      <trkpt lat="48.48371" lon="-2.71845">
        <ele>100</ele>
        <time>2013-12-13T10:14:06Z</time>
      </trkpt>
      <trkpt lat="48.48373" lon="-2.71845">
        <ele>100</ele>
        <time>2013-12-13T10:14:08Z</time>
      </trkpt>
      <trkpt lat="48.48375" lon="-2.71844">
        <ele>100</ele>
        <time>2013-12-13T10:14:10Z</time>
      </trkpt>
      <trkpt lat="48.48377" lon="-2.71845">
        <ele>100</ele>
        <time>2013-12-13T10:14:21Z</time>
      </trkpt>
      <trkpt lat="48.48378" lon="-2.71846">
        <ele>100</ele>
        <time>2013-12-13T10:14:24Z</time>
      </trkpt>
      <trkpt lat="48.4838" lon="-2.71848">
        <ele>100</ele>
        <time>2013-12-13T10:14:27Z</time>
      </trkpt>
      <trkpt lat="48.4838" lon="-2.71849">
        <ele>100</ele>
        <time>2013-12-13T10:14:31Z</time>
      </trkpt>
      <trkpt lat="48.48381" lon="-2.7185">
        <ele>100</ele>
        <time>2013-12-13T10:14:34Z</time>
      </trkpt>
      <trkpt lat="48.48384" lon="-2.71854">
        <ele>100</ele>
        <time>2013-12-13T10:14:37Z</time>
      </trkpt>
      <trkpt lat="48.48386" lon="-2.71856">
        <ele>100</ele>
        <time>2013-12-13T10:14:39Z</time>
      </trkpt>
      <trkpt lat="48.48389" lon="-2.71858">
        <ele>100</ele>
        <time>2013-12-13T10:14:41Z</time>
      </trkpt>
      <trkpt lat="48.48391" lon="-2.71858">
        <ele>100</ele>
        <time>2013-12-13T10:14:43Z</time>
      </trkpt>
      <trkpt lat="48.48393" lon="-2.71858">
        <ele>100</ele>
        <time>2013-12-13T10:14:45Z</time>
      </trkpt>
      <trkpt lat="48.48394" lon="-2.71859">
        <ele>100</ele>
        <time>2013-12-13T10:14:47Z</time>
      </trkpt>
      <trkpt lat="48.48395" lon="-2.71861">
        <ele>100</ele>
        <time>2013-12-13T10:14:49Z</time>
      </trkpt>
      <trkpt lat="48.48396" lon="-2.71863">
        <ele>100</ele>
        <time>2013-12-13T10:14:51Z</time>
      </trkpt>
      <trkpt lat="48.48397" lon="-2.71866">
        <ele>100</ele>
        <time>2013-12-13T10:14:53Z</time>
      </trkpt>
      <trkpt lat="48.48398" lon="-2.71868">
        <ele>100</ele>
        <time>2013-12-13T10:14:55Z</time>
      </trkpt>
      <trkpt lat="48.48399" lon="-2.71871">
        <ele>100</ele>
        <time>2013-12-13T10:14:57Z</time>
      </trkpt>
      <trkpt lat="48.48401" lon="-2.71875">
        <ele>100</ele>
        <time>2013-12-13T10:15:00Z</time>
      </trkpt>
      <trkpt lat="48.48402" lon="-2.71877">
        <ele>100</ele>
        <time>2013-12-13T10:15:03Z</time>
      </trkpt>
      <trkpt lat="48.48403" lon="-2.7188">
        <ele>100</ele>
        <time>2013-12-13T10:15:05Z</time>
      </trkpt>
      <trkpt lat="48.48403" lon="-2.71883">
        <ele>100</ele>
        <time>2013-12-13T10:15:07Z</time>
      </trkpt>
      <trkpt lat="48.48403" lon="-2.71885">
        <ele>100</ele>
        <time>2013-12-13T10:15:09Z</time>
      </trkpt>
      <trkpt lat="48.48404" lon="-2.71889">
        <ele>100</ele>
        <time>2013-12-13T10:15:11Z</time>
      </trkpt>
      <trkpt lat="48.48405" lon="-2.71892">
        <ele>101</ele>
        <time>2013-12-13T10:15:13Z</time>
      </trkpt>
      <trkpt lat="48.48406" lon="-2.71896">
        <ele>101</ele>
        <time>2013-12-13T10:15:15Z</time>
      </trkpt>
      <trkpt lat="48.48407" lon="-2.71899">
        <ele>101</ele>
        <time>2013-12-13T10:15:17Z</time>
      </trkpt>
      <trkpt lat="48.48408" lon="-2.71903">
        <ele>101</ele>
        <time>2013-12-13T10:15:19Z</time>
      </trkpt>
      <trkpt lat="48.48407" lon="-2.71908">
        <ele>101</ele>
        <time>2013-12-13T10:15:21Z</time>
      </trkpt>
      <trkpt lat="48.48409" lon="-2.71914">
        <ele>102</ele>
        <time>2013-12-13T10:15:24Z</time>
      </trkpt>
      <trkpt lat="48.48409" lon="-2.71918">
        <ele>103</ele>
        <time>2013-12-13T10:15:26Z</time>
      </trkpt>
      <trkpt lat="48.4841" lon="-2.71922">
        <ele>105</ele>
        <time>2013-12-13T10:15:28Z</time>
      </trkpt>
      <trkpt lat="48.4841" lon="-2.71925">
        <ele>106</ele>
        <time>2013-12-13T10:15:30Z</time>
      </trkpt>
      <trkpt lat="48.4841" lon="-2.71929">
        <ele>107</ele>
        <time>2013-12-13T10:15:32Z</time>
      </trkpt>
      <trkpt lat="48.48411" lon="-2.71932">
        <ele>108</ele>
        <time>2013-12-13T10:15:34Z</time>
      </trkpt>
      <trkpt lat="48.48412" lon="-2.71937">
        <ele>109</ele>
        <time>2013-12-13T10:15:36Z</time>
      </trkpt>
      <trkpt lat="48.48415" lon="-2.7194">
        <ele>109</ele>
        <time>2013-12-13T10:15:38Z</time>
      </trkpt>
      <trkpt lat="48.48417" lon="-2.71944">
        <ele>109</ele>
        <time>2013-12-13T10:15:40Z</time>
      </trkpt>
      <trkpt lat="48.48418" lon="-2.71948">
        <ele>109</ele>
        <time>2013-12-13T10:15:42Z</time>
      </trkpt>
      <trkpt lat="48.4842" lon="-2.71951">
        <ele>109</ele>
        <time>2013-12-13T10:15:44Z</time>
      </trkpt>
      <trkpt lat="48.48421" lon="-2.71953">
        <ele>109</ele>
        <time>2013-12-13T10:15:46Z</time>
      </trkpt>
      <trkpt lat="48.48423" lon="-2.71956">
        <ele>109</ele>
        <time>2013-12-13T10:15:48Z</time>
      </trkpt>
      <trkpt lat="48.48425" lon="-2.71959">
        <ele>109</ele>
        <time>2013-12-13T10:15:50Z</time>
      </trkpt>
      <trkpt lat="48.48426" lon="-2.71963">
        <ele>109</ele>
        <time>2013-12-13T10:15:52Z</time>
      </trkpt>
      <trkpt lat="48.48427" lon="-2.71967">
        <ele>109</ele>
        <time>2013-12-13T10:15:54Z</time>
      </trkpt>
      <trkpt lat="48.48429" lon="-2.7197">
        <ele>109</ele>
        <time>2013-12-13T10:15:56Z</time>
      </trkpt>
      <trkpt lat="48.48431" lon="-2.71973">
        <ele>109</ele>
        <time>2013-12-13T10:15:58Z</time>
      </trkpt>
      <trkpt lat="48.48433" lon="-2.71977">
        <ele>109</ele>
        <time>2013-12-13T10:16:00Z</time>
      </trkpt>
      <trkpt lat="48.48433" lon="-2.71981">
        <ele>109</ele>
        <time>2013-12-13T10:16:02Z</time>
      </trkpt>
      <trkpt lat="48.48434" lon="-2.71985">
        <ele>109</ele>
        <time>2013-12-13T10:16:04Z</time>
      </trkpt>
      <trkpt lat="48.48434" lon="-2.71989">
        <ele>107</ele>
        <time>2013-12-13T10:16:06Z</time>
      </trkpt>
      <trkpt lat="48.48436" lon="-2.71994">
        <ele>106</ele>
        <time>2013-12-13T10:16:09Z</time>
      </trkpt>
      <trkpt lat="48.48436" lon="-2.71998">
        <ele>105</ele>
        <time>2013-12-13T10:16:11Z</time>
      </trkpt>
      <trkpt lat="48.48437" lon="-2.72002">
        <ele>105</ele>
        <time>2013-12-13T10:16:13Z</time>
      </trkpt>
      <trkpt lat="48.48438" lon="-2.72005">
        <ele>105</ele>
        <time>2013-12-13T10:16:15Z</time>
      </trkpt>
      <trkpt lat="48.48439" lon="-2.72008">
        <ele>104</ele>
        <time>2013-12-13T10:16:17Z</time>
      </trkpt>
      <trkpt lat="48.48437" lon="-2.7201">
        <ele>104</ele>
        <time>2013-12-13T10:16:19Z</time>
      </trkpt>
      <trkpt lat="48.48434" lon="-2.72011">
        <ele>102</ele>
        <time>2013-12-13T10:16:21Z</time>
      </trkpt>
      <trkpt lat="48.48432" lon="-2.72012">
        <ele>102</ele>
        <time>2013-12-13T10:16:23Z</time>
      </trkpt>
      <trkpt lat="48.48431" lon="-2.72016">
        <ele>102</ele>
        <time>2013-12-13T10:16:25Z</time>
      </trkpt>
      <trkpt lat="48.48431" lon="-2.7202">
        <ele>101</ele>
        <time>2013-12-13T10:16:27Z</time>
      </trkpt>
      <trkpt lat="48.48431" lon="-2.72024">
        <ele>101</ele>
        <time>2013-12-13T10:16:29Z</time>
      </trkpt>
      <trkpt lat="48.48431" lon="-2.72027">
        <ele>100</ele>
        <time>2013-12-13T10:16:31Z</time>
      </trkpt>
      <trkpt lat="48.4843" lon="-2.72031">
        <ele>100</ele>
        <time>2013-12-13T10:16:33Z</time>
      </trkpt>
      <trkpt lat="48.48429" lon="-2.72036">
        <ele>100</ele>
        <time>2013-12-13T10:16:35Z</time>
      </trkpt>
      <trkpt lat="48.48429" lon="-2.72042">
        <ele>100</ele>
        <time>2013-12-13T10:16:37Z</time>
      </trkpt>
      <trkpt lat="48.48429" lon="-2.72047">
        <ele>100</ele>
        <time>2013-12-13T10:16:39Z</time>
      </trkpt>
      <trkpt lat="48.4843" lon="-2.72051">
        <ele>100</ele>
        <time>2013-12-13T10:16:41Z</time>
      </trkpt>
      <trkpt lat="48.4843" lon="-2.72056">
        <ele>100</ele>
        <time>2013-12-13T10:16:43Z</time>
      </trkpt>
      <trkpt lat="48.48431" lon="-2.7206">
        <ele>100</ele>
        <time>2013-12-13T10:16:45Z</time>
      </trkpt>
      <trkpt lat="48.48431" lon="-2.72065">
        <ele>100</ele>
        <time>2013-12-13T10:16:47Z</time>
      </trkpt>
      <trkpt lat="48.48432" lon="-2.72069">
        <ele>100</ele>
        <time>2013-12-13T10:16:49Z</time>
      </trkpt>
      <trkpt lat="48.48433" lon="-2.72073">
        <ele>100</ele>
        <time>2013-12-13T10:16:51Z</time>
      </trkpt>
      <trkpt lat="48.48433" lon="-2.72077">
        <ele>100</ele>
        <time>2013-12-13T10:16:53Z</time>
      </trkpt>
      <trkpt lat="48.48433" lon="-2.72082">
        <ele>100</ele>
        <time>2013-12-13T10:16:55Z</time>
      </trkpt>
      <trkpt lat="48.48434" lon="-2.72086">
        <ele>100</ele>
        <time>2013-12-13T10:16:57Z</time>
      </trkpt>
      <trkpt lat="48.48434" lon="-2.7209">
        <ele>100</ele>
        <time>2013-12-13T10:16:59Z</time>
      </trkpt>
      <trkpt lat="48.48435" lon="-2.72094">
        <ele>100</ele>
        <time>2013-12-13T10:17:01Z</time>
      </trkpt>
      <trkpt lat="48.48435" lon="-2.72098">
        <ele>100</ele>
        <time>2013-12-13T10:17:03Z</time>
      </trkpt>
      <trkpt lat="48.48436" lon="-2.72102">
        <ele>100</ele>
        <time>2013-12-13T10:17:05Z</time>
      </trkpt>
      <trkpt lat="48.48437" lon="-2.72106">
        <ele>100</ele>
        <time>2013-12-13T10:17:07Z</time>
      </trkpt>
      <trkpt lat="48.48438" lon="-2.7211">
        <ele>100</ele>
        <time>2013-12-13T10:17:09Z</time>
      </trkpt>
      <trkpt lat="48.48439" lon="-2.72113">
        <ele>100</ele>
        <time>2013-12-13T10:17:11Z</time>
      </trkpt>
      <trkpt lat="48.48441" lon="-2.72117">
        <ele>100</ele>
        <time>2013-12-13T10:17:13Z</time>
      </trkpt>
      <trkpt lat="48.48441" lon="-2.72121">
        <ele>100</ele>
        <time>2013-12-13T10:17:15Z</time>
      </trkpt>
      <trkpt lat="48.48442" lon="-2.72125">
        <ele>100</ele>
        <time>2013-12-13T10:17:17Z</time>
      </trkpt>
      <trkpt lat="48.48443" lon="-2.72129">
        <ele>100</ele>
        <time>2013-12-13T10:17:19Z</time>
      </trkpt>
      <trkpt lat="48.48443" lon="-2.72133">
        <ele>100</ele>
        <time>2013-12-13T10:17:21Z</time>
      </trkpt>
      <trkpt lat="48.48444" lon="-2.72137">
        <ele>100</ele>
        <time>2013-12-13T10:17:23Z</time>
      </trkpt>
      <trkpt lat="48.48445" lon="-2.72141">
        <ele>100</ele>
        <time>2013-12-13T10:17:25Z</time>
      </trkpt>
      <trkpt lat="48.48446" lon="-2.72145">
        <ele>100</ele>
        <time>2013-12-13T10:17:27Z</time>
      </trkpt>
      <trkpt lat="48.48446" lon="-2.72149">
        <ele>100</ele>
        <time>2013-12-13T10:17:29Z</time>
      </trkpt>
      <trkpt lat="48.48446" lon="-2.72152">
        <ele>100</ele>
        <time>2013-12-13T10:17:31Z</time>
      </trkpt>
      <trkpt lat="48.48447" lon="-2.72156">
        <ele>100</ele>
        <time>2013-12-13T10:17:33Z</time>
      </trkpt>
      <trkpt lat="48.48448" lon="-2.7216">
        <ele>100</ele>
        <time>2013-12-13T10:17:35Z</time>
      </trkpt>
      <trkpt lat="48.4845" lon="-2.72165">
        <ele>100</ele>
        <time>2013-12-13T10:17:38Z</time>
      </trkpt>
      <trkpt lat="48.48453" lon="-2.72166">
        <ele>100</ele>
        <time>2013-12-13T10:17:40Z</time>
      </trkpt>
      <trkpt lat="48.48455" lon="-2.72168">
        <ele>100</ele>
        <time>2013-12-13T10:17:42Z</time>
      </trkpt>
      <trkpt lat="48.48457" lon="-2.7217">
        <ele>100</ele>
        <time>2013-12-13T10:17:44Z</time>
      </trkpt>
      <trkpt lat="48.48459" lon="-2.72173">
        <ele>100</ele>
        <time>2013-12-13T10:17:46Z</time>
      </trkpt>
      <trkpt lat="48.48461" lon="-2.72176">
        <ele>100</ele>
        <time>2013-12-13T10:17:48Z</time>
      </trkpt>
      <trkpt lat="48.48462" lon="-2.72179">
        <ele>100</ele>
        <time>2013-12-13T10:17:50Z</time>
      </trkpt>
      <trkpt lat="48.48462" lon="-2.72183">
        <ele>100</ele>
        <time>2013-12-13T10:17:52Z</time>
      </trkpt>
      <trkpt lat="48.48463" lon="-2.72186">
        <ele>100</ele>
        <time>2013-12-13T10:17:54Z</time>
      </trkpt>
      <trkpt lat="48.48464" lon="-2.7219">
        <ele>100</ele>
        <time>2013-12-13T10:17:56Z</time>
      </trkpt>
      <trkpt lat="48.48465" lon="-2.72194">
        <ele>100</ele>
        <time>2013-12-13T10:17:58Z</time>
      </trkpt>
      <trkpt lat="48.48465" lon="-2.72198">
        <ele>100</ele>
        <time>2013-12-13T10:18:00Z</time>
      </trkpt>
      <trkpt lat="48.48466" lon="-2.72201">
        <ele>100</ele>
        <time>2013-12-13T10:18:02Z</time>
      </trkpt>
      <trkpt lat="48.48467" lon="-2.72205">
        <ele>100</ele>
        <time>2013-12-13T10:18:04Z</time>
      </trkpt>
      <trkpt lat="48.48468" lon="-2.72209">
        <ele>100</ele>
        <time>2013-12-13T10:18:06Z</time>
      </trkpt>
      <trkpt lat="48.48469" lon="-2.72214">
        <ele>100</ele>
        <time>2013-12-13T10:18:09Z</time>
      </trkpt>
      <trkpt lat="48.48469" lon="-2.72216">
        <ele>100</ele>
        <time>2013-12-13T10:18:11Z</time>
      </trkpt>
      <trkpt lat="48.4847" lon="-2.72218">
        <ele>100</ele>
        <time>2013-12-13T10:18:13Z</time>
      </trkpt>
      <trkpt lat="48.48471" lon="-2.72219">
        <ele>100</ele>
        <time>2013-12-13T10:18:23Z</time>
      </trkpt>
      <trkpt lat="48.48472" lon="-2.72218">
        <ele>100</ele>
        <time>2013-12-13T10:18:53Z</time>
      </trkpt>
      <trkpt lat="48.48473" lon="-2.72217">
        <ele>100</ele>
        <time>2013-12-13T10:19:18Z</time>
      </trkpt>
      <trkpt lat="48.48472" lon="-2.72214">
        <ele>100</ele>
        <time>2013-12-13T10:19:22Z</time>
      </trkpt>
      <trkpt lat="48.48471" lon="-2.72212">
        <ele>100</ele>
        <time>2013-12-13T10:19:27Z</time>
      </trkpt>
      <trkpt lat="48.48471" lon="-2.72211">
        <ele>100</ele>
        <time>2013-12-13T10:20:26Z</time>
      </trkpt>
      <trkpt lat="48.48471" lon="-2.72213">
        <ele>100</ele>
        <time>2013-12-13T10:21:40Z</time>
      </trkpt>
      <trkpt lat="48.48472" lon="-2.72215">
        <ele>100</ele>
        <time>2013-12-13T10:21:47Z</time>
      </trkpt>
      <trkpt lat="48.48473" lon="-2.72217">
        <ele>100</ele>
        <time>2013-12-13T10:21:52Z</time>
      </trkpt>
      <trkpt lat="48.48474" lon="-2.72218">
        <ele>100</ele>
        <time>2013-12-13T10:21:55Z</time>
      </trkpt>
      <trkpt lat="48.48476" lon="-2.72219">
        <ele>100</ele>
        <time>2013-12-13T10:21:57Z</time>
      </trkpt>
      <trkpt lat="48.48478" lon="-2.72221">
        <ele>100</ele>
        <time>2013-12-13T10:21:59Z</time>
      </trkpt>
      <trkpt lat="48.48479" lon="-2.72223">
        <ele>100</ele>
        <time>2013-12-13T10:22:01Z</time>
      </trkpt>
      <trkpt lat="48.48478" lon="-2.72223">
        <ele>100</ele>
        <time>2013-12-13T10:22:04Z</time>
      </trkpt>
      <trkpt lat="48.48479" lon="-2.72223">
        <ele>100</ele>
        <time>2013-12-13T10:22:10Z</time>
      </trkpt>
      <trkpt lat="48.4848" lon="-2.72224">
        <ele>100</ele>
        <time>2013-12-13T10:22:12Z</time>
      </trkpt>
      <trkpt lat="48.48481" lon="-2.72225">
        <ele>100</ele>
        <time>2013-12-13T10:22:15Z</time>
      </trkpt>
      <trkpt lat="48.48482" lon="-2.72228">
        <ele>100</ele>
        <time>2013-12-13T10:22:20Z</time>
      </trkpt>
      <trkpt lat="48.48482" lon="-2.7223">
        <ele>100</ele>
        <time>2013-12-13T10:22:24Z</time>
      </trkpt>
      <trkpt lat="48.48481" lon="-2.72232">
        <ele>100</ele>
        <time>2013-12-13T10:22:27Z</time>
      </trkpt>
      <trkpt lat="48.48482" lon="-2.7223">
        <ele>100</ele>
        <time>2013-12-13T10:22:39Z</time>
      </trkpt>
      <trkpt lat="48.48481" lon="-2.72229">
        <ele>100</ele>
        <time>2013-12-13T10:22:46Z</time>
      </trkpt>
    </trkseg>
  </trk>
</gpx>